<?xml version="1.0" encoding="UTF-8" standalone="no" ?>
<gpx xmlns="http://www.topografix.com/GPX/1/1" xmlns:xsi="http://www.w3.org/2001/XMLSchema-instance" xsi:schemaLocation="http://www.topografix.com/GPX/1/1 http://www.topografix.com/GPX/1/1/gpx.xsd" version="1.1" creator="VisuGPX - https://www.visugpx.com">
  <metadata>
    <name>Les Roches-Prémarie 7,5 Km</name>
    <desc><![CDATA[Randonnée pédestre en boucle de 7,5 Km au départ du parking du complexe sportif]]></desc>
  </metadata>
  <trk>
    <name><![CDATA[Les Roches-Prémarie 7,5 Km_1]]></name>
    <extensions>
      <line xmlns="http://www.topografix.com/GPX/gpx_style/0/2">
        <color>0000FF</color>
        <width>4</width>
      </line>
    </extensions>
    <trkseg>
      <trkpt lat="46.47678" lon="0.37073">
        <ele>125.89259570383</ele>
        <time>2021-11-18T07:50:47Z</time>
      </trkpt>
      <trkpt lat="46.47678" lon="0.37075">
        <ele>125.96085460631</ele>
        <time>2021-11-18T07:50:51Z</time>
      </trkpt>
      <trkpt lat="46.47679" lon="0.37076">
        <ele>125.95992995612</ele>
        <time>2021-11-18T07:50:54Z</time>
      </trkpt>
      <trkpt lat="46.47681" lon="0.37076">
        <ele>125.9366118405</ele>
        <time>2021-11-18T07:50:55Z</time>
      </trkpt>
      <trkpt lat="46.47684" lon="0.37078">
        <ele>125.87904226314</ele>
        <time>2021-11-18T07:50:57Z</time>
      </trkpt>
      <trkpt lat="46.47686" lon="0.37078">
        <ele>125.79770546965</ele>
        <time>2021-11-18T07:50:59Z</time>
      </trkpt>
      <trkpt lat="46.47689" lon="0.37077">
        <ele>125.66057516169</ele>
        <time>2021-11-18T07:51:02Z</time>
      </trkpt>
      <trkpt lat="46.47692" lon="0.37078">
        <ele>125.57673792262</ele>
        <time>2021-11-18T07:51:04Z</time>
      </trkpt>
      <trkpt lat="46.47695" lon="0.3708">
        <ele>125.48588513955</ele>
        <time>2021-11-18T07:51:06Z</time>
      </trkpt>
      <trkpt lat="46.47696" lon="0.3708">
        <ele>125.42386399116</ele>
        <time>2021-11-18T07:51:07Z</time>
      </trkpt>
      <trkpt lat="46.47698" lon="0.37079">
        <ele>125.33474913612</ele>
        <time>2021-11-18T07:51:09Z</time>
      </trkpt>
      <trkpt lat="46.47701" lon="0.37078">
        <ele>125.28631597105</ele>
        <time>2021-11-18T07:51:11Z</time>
      </trkpt>
      <trkpt lat="46.47703" lon="0.37078">
        <ele>125.25689816847</ele>
        <time>2021-11-18T07:51:12Z</time>
      </trkpt>
      <trkpt lat="46.47706" lon="0.37078">
        <ele>125.22152162623</ele>
        <time>2021-11-18T07:51:14Z</time>
      </trkpt>
      <trkpt lat="46.47707" lon="0.37079">
        <ele>125.16952188406</ele>
        <time>2021-11-18T07:51:16Z</time>
      </trkpt>
      <trkpt lat="46.47707" lon="0.37079">
        <ele>125.24974145554</ele>
        <time>2021-11-18T07:51:17Z</time>
      </trkpt>
      <trkpt lat="46.47708" lon="0.37078">
        <ele>125.08990733512</ele>
        <time>2021-11-18T07:51:19Z</time>
      </trkpt>
      <trkpt lat="46.47709" lon="0.37079">
        <ele>125.1422435604</ele>
        <time>2021-11-18T07:51:23Z</time>
      </trkpt>
      <trkpt lat="46.47709" lon="0.37083">
        <ele>124.99668040592</ele>
        <time>2021-11-18T07:51:30Z</time>
      </trkpt>
      <trkpt lat="46.47709" lon="0.37087">
        <ele>125.12601262983</ele>
        <time>2021-11-18T07:51:32Z</time>
      </trkpt>
      <trkpt lat="46.47709" lon="0.3709">
        <ele>125.03619104903</ele>
        <time>2021-11-18T07:51:34Z</time>
      </trkpt>
      <trkpt lat="46.47709" lon="0.37094">
        <ele>124.74610618036</ele>
        <time>2021-11-18T07:51:36Z</time>
      </trkpt>
      <trkpt lat="46.4771" lon="0.37098">
        <ele>125.07860145345</ele>
        <time>2021-11-18T07:51:38Z</time>
      </trkpt>
      <trkpt lat="46.47711" lon="0.37101">
        <ele>125.10548053868</ele>
        <time>2021-11-18T07:51:40Z</time>
      </trkpt>
      <trkpt lat="46.47711" lon="0.37104">
        <ele>125.25914957747</ele>
        <time>2021-11-18T07:51:42Z</time>
      </trkpt>
      <trkpt lat="46.47712" lon="0.37107">
        <ele>125.03058415651</ele>
        <time>2021-11-18T07:51:44Z</time>
      </trkpt>
      <trkpt lat="46.47713" lon="0.37111">
        <ele>124.93038058467</ele>
        <time>2021-11-18T07:51:47Z</time>
      </trkpt>
      <trkpt lat="46.47713" lon="0.37114">
        <ele>124.84577634931</ele>
        <time>2021-11-18T07:51:49Z</time>
      </trkpt>
      <trkpt lat="46.47714" lon="0.37117">
        <ele>125.23385150637</ele>
        <time>2021-11-18T07:51:51Z</time>
      </trkpt>
      <trkpt lat="46.47714" lon="0.3712">
        <ele>124.9907249175</ele>
        <time>2021-11-18T07:51:53Z</time>
      </trkpt>
      <trkpt lat="46.47715" lon="0.37124">
        <ele>124.83043053281</ele>
        <time>2021-11-18T07:51:55Z</time>
      </trkpt>
      <trkpt lat="46.47715" lon="0.37127">
        <ele>125.0447217375</ele>
        <time>2021-11-18T07:51:57Z</time>
      </trkpt>
      <trkpt lat="46.47715" lon="0.37131">
        <ele>124.74706564285</ele>
        <time>2021-11-18T07:51:59Z</time>
      </trkpt>
      <trkpt lat="46.47716" lon="0.37134">
        <ele>124.53563816659</ele>
        <time>2021-11-18T07:52:02Z</time>
      </trkpt>
      <trkpt lat="46.47717" lon="0.37138">
        <ele>124.48456233367</ele>
        <time>2021-11-18T07:52:05Z</time>
      </trkpt>
      <trkpt lat="46.47717" lon="0.37142">
        <ele>124.30906718876</ele>
        <time>2021-11-18T07:52:08Z</time>
      </trkpt>
      <trkpt lat="46.47718" lon="0.37145">
        <ele>124.10167297348</ele>
        <time>2021-11-18T07:52:10Z</time>
      </trkpt>
      <trkpt lat="46.47718" lon="0.37149">
        <ele>124.22551303823</ele>
        <time>2021-11-18T07:52:12Z</time>
      </trkpt>
      <trkpt lat="46.47719" lon="0.37152">
        <ele>124.20130681433</ele>
        <time>2021-11-18T07:52:14Z</time>
      </trkpt>
      <trkpt lat="46.47719" lon="0.37155">
        <ele>124.22904477082</ele>
        <time>2021-11-18T07:52:16Z</time>
      </trkpt>
      <trkpt lat="46.47719" lon="0.37159">
        <ele>124.05683007464</ele>
        <time>2021-11-18T07:52:18Z</time>
      </trkpt>
      <trkpt lat="46.47719" lon="0.37163">
        <ele>124.27385642566</ele>
        <time>2021-11-18T07:52:20Z</time>
      </trkpt>
      <trkpt lat="46.47719" lon="0.37167">
        <ele>124.24798159674</ele>
        <time>2021-11-18T07:52:22Z</time>
      </trkpt>
      <trkpt lat="46.4772" lon="0.37169">
        <ele>123.89099043794</ele>
        <time>2021-11-18T07:52:24Z</time>
      </trkpt>
      <trkpt lat="46.4772" lon="0.37172">
        <ele>123.77447542734</ele>
        <time>2021-11-18T07:52:26Z</time>
      </trkpt>
      <trkpt lat="46.4772" lon="0.37176">
        <ele>123.87084873673</ele>
        <time>2021-11-18T07:52:28Z</time>
      </trkpt>
      <trkpt lat="46.47721" lon="0.37179">
        <ele>123.72443121206</ele>
        <time>2021-11-18T07:52:30Z</time>
      </trkpt>
      <trkpt lat="46.47721" lon="0.37184">
        <ele>123.95438979939</ele>
        <time>2021-11-18T07:52:32Z</time>
      </trkpt>
      <trkpt lat="46.47721" lon="0.37188">
        <ele>123.955710846</ele>
        <time>2021-11-18T07:52:35Z</time>
      </trkpt>
      <trkpt lat="46.47722" lon="0.3719">
        <ele>124.06609987002</ele>
        <time>2021-11-18T07:52:37Z</time>
      </trkpt>
      <trkpt lat="46.47722" lon="0.37194">
        <ele>123.95428745355</ele>
        <time>2021-11-18T07:52:39Z</time>
      </trkpt>
      <trkpt lat="46.47723" lon="0.37197">
        <ele>123.93154935353</ele>
        <time>2021-11-18T07:52:41Z</time>
      </trkpt>
      <trkpt lat="46.47723" lon="0.37201">
        <ele>123.72143743094</ele>
        <time>2021-11-18T07:52:43Z</time>
      </trkpt>
      <trkpt lat="46.47723" lon="0.37205">
        <ele>123.9959941553</ele>
        <time>2021-11-18T07:52:45Z</time>
      </trkpt>
      <trkpt lat="46.47723" lon="0.37209">
        <ele>123.87016902119</ele>
        <time>2021-11-18T07:52:47Z</time>
      </trkpt>
      <trkpt lat="46.47723" lon="0.37212">
        <ele>123.83889154252</ele>
        <time>2021-11-18T07:52:49Z</time>
      </trkpt>
      <trkpt lat="46.47724" lon="0.37216">
        <ele>123.8077257704</ele>
        <time>2021-11-18T07:52:52Z</time>
      </trkpt>
      <trkpt lat="46.47723" lon="0.37219">
        <ele>123.99555475637</ele>
        <time>2021-11-18T07:52:54Z</time>
      </trkpt>
      <trkpt lat="46.47723" lon="0.37224">
        <ele>123.68086560071</ele>
        <time>2021-11-18T07:52:56Z</time>
      </trkpt>
      <trkpt lat="46.47723" lon="0.37227">
        <ele>123.76768611465</ele>
        <time>2021-11-18T07:52:58Z</time>
      </trkpt>
      <trkpt lat="46.47723" lon="0.3723">
        <ele>124.10611455142</ele>
        <time>2021-11-18T07:53:00Z</time>
      </trkpt>
      <trkpt lat="46.47724" lon="0.37233">
        <ele>123.66059449129</ele>
        <time>2021-11-18T07:53:02Z</time>
      </trkpt>
      <trkpt lat="46.47728" lon="0.37233">
        <ele>124.03866090998</ele>
        <time>2021-11-18T07:53:07Z</time>
      </trkpt>
      <trkpt lat="46.47731" lon="0.37232">
        <ele>123.43743204884</ele>
        <time>2021-11-18T07:53:09Z</time>
      </trkpt>
      <trkpt lat="46.47733" lon="0.37232">
        <ele>123.62176626083</ele>
        <time>2021-11-18T07:53:11Z</time>
      </trkpt>
      <trkpt lat="46.47736" lon="0.37231">
        <ele>123.1121797394</ele>
        <time>2021-11-18T07:53:14Z</time>
      </trkpt>
      <trkpt lat="46.47737" lon="0.37229">
        <ele>123.59347464517</ele>
        <time>2021-11-18T07:53:16Z</time>
      </trkpt>
      <trkpt lat="46.47739" lon="0.37227">
        <ele>123.00169945043</ele>
        <time>2021-11-18T07:53:18Z</time>
      </trkpt>
      <trkpt lat="46.47741" lon="0.37225">
        <ele>122.96549161896</ele>
        <time>2021-11-18T07:53:20Z</time>
      </trkpt>
      <trkpt lat="46.47743" lon="0.37224">
        <ele>123.10072521027</ele>
        <time>2021-11-18T07:53:22Z</time>
      </trkpt>
      <trkpt lat="46.47745" lon="0.37223">
        <ele>122.84147628117</ele>
        <time>2021-11-18T07:53:24Z</time>
      </trkpt>
      <trkpt lat="46.47747" lon="0.37222">
        <ele>122.66992181446</ele>
        <time>2021-11-18T07:53:26Z</time>
      </trkpt>
      <trkpt lat="46.47749" lon="0.37221">
        <ele>122.66693596914</ele>
        <time>2021-11-18T07:53:28Z</time>
      </trkpt>
      <trkpt lat="46.4775" lon="0.37219">
        <ele>122.58679631259</ele>
        <time>2021-11-18T07:53:30Z</time>
      </trkpt>
      <trkpt lat="46.47753" lon="0.37218">
        <ele>122.92590564117</ele>
        <time>2021-11-18T07:53:32Z</time>
      </trkpt>
      <trkpt lat="46.47755" lon="0.37217">
        <ele>122.40489274543</ele>
        <time>2021-11-18T07:53:34Z</time>
      </trkpt>
      <trkpt lat="46.47758" lon="0.37216">
        <ele>122.49468888901</ele>
        <time>2021-11-18T07:53:36Z</time>
      </trkpt>
      <trkpt lat="46.4776" lon="0.37215">
        <ele>122.30316293426</ele>
        <time>2021-11-18T07:53:38Z</time>
      </trkpt>
      <trkpt lat="46.47761" lon="0.37216">
        <ele>122.4856196614</ele>
        <time>2021-11-18T07:53:40Z</time>
      </trkpt>
      <trkpt lat="46.47763" lon="0.37219">
        <ele>122.12547782063</ele>
        <time>2021-11-18T07:53:42Z</time>
      </trkpt>
      <trkpt lat="46.47764" lon="0.37222">
        <ele>122.32316072937</ele>
        <time>2021-11-18T07:53:44Z</time>
      </trkpt>
      <trkpt lat="46.47765" lon="0.37224">
        <ele>122.13038331456</ele>
        <time>2021-11-18T07:53:46Z</time>
      </trkpt>
      <trkpt lat="46.47766" lon="0.37227">
        <ele>122.17070176825</ele>
        <time>2021-11-18T07:53:48Z</time>
      </trkpt>
      <trkpt lat="46.47767" lon="0.37231">
        <ele>122.10779111739</ele>
        <time>2021-11-18T07:53:50Z</time>
      </trkpt>
      <trkpt lat="46.47768" lon="0.37235">
        <ele>122.14138996694</ele>
        <time>2021-11-18T07:53:52Z</time>
      </trkpt>
      <trkpt lat="46.47769" lon="0.37239">
        <ele>121.73698905855</ele>
        <time>2021-11-18T07:53:54Z</time>
      </trkpt>
      <trkpt lat="46.4777" lon="0.37242">
        <ele>121.8568652859</ele>
        <time>2021-11-18T07:53:56Z</time>
      </trkpt>
      <trkpt lat="46.4777" lon="0.37246">
        <ele>121.63022956252</ele>
        <time>2021-11-18T07:53:58Z</time>
      </trkpt>
      <trkpt lat="46.47771" lon="0.37249">
        <ele>121.87338331435</ele>
        <time>2021-11-18T07:54:00Z</time>
      </trkpt>
      <trkpt lat="46.47772" lon="0.37252">
        <ele>121.60899729654</ele>
        <time>2021-11-18T07:54:02Z</time>
      </trkpt>
      <trkpt lat="46.47772" lon="0.37255">
        <ele>121.44590580929</ele>
        <time>2021-11-18T07:54:04Z</time>
      </trkpt>
      <trkpt lat="46.47773" lon="0.37258">
        <ele>121.45223008282</ele>
        <time>2021-11-18T07:54:06Z</time>
      </trkpt>
      <trkpt lat="46.47773" lon="0.37262">
        <ele>121.42171631008</ele>
        <time>2021-11-18T07:54:08Z</time>
      </trkpt>
      <trkpt lat="46.47774" lon="0.37266">
        <ele>121.4276083773</ele>
        <time>2021-11-18T07:54:10Z</time>
      </trkpt>
      <trkpt lat="46.47774" lon="0.37269">
        <ele>121.21715884004</ele>
        <time>2021-11-18T07:54:12Z</time>
      </trkpt>
      <trkpt lat="46.47776" lon="0.37273">
        <ele>121.27467288543</ele>
        <time>2021-11-18T07:54:14Z</time>
      </trkpt>
      <trkpt lat="46.47775" lon="0.37277">
        <ele>121.31241189316</ele>
        <time>2021-11-18T07:54:16Z</time>
      </trkpt>
      <trkpt lat="46.47776" lon="0.37281">
        <ele>121.36929643713</ele>
        <time>2021-11-18T07:54:18Z</time>
      </trkpt>
      <trkpt lat="46.47777" lon="0.37284">
        <ele>121.38822258078</ele>
        <time>2021-11-18T07:54:20Z</time>
      </trkpt>
      <trkpt lat="46.47778" lon="0.37288">
        <ele>121.15410994552</ele>
        <time>2021-11-18T07:54:22Z</time>
      </trkpt>
      <trkpt lat="46.47779" lon="0.37291">
        <ele>121.26419692207</ele>
        <time>2021-11-18T07:54:24Z</time>
      </trkpt>
      <trkpt lat="46.4778" lon="0.37294">
        <ele>121.55704262014</ele>
        <time>2021-11-18T07:54:26Z</time>
      </trkpt>
      <trkpt lat="46.4778" lon="0.37298">
        <ele>121.44190782402</ele>
        <time>2021-11-18T07:54:28Z</time>
      </trkpt>
      <trkpt lat="46.47781" lon="0.37302">
        <ele>121.53410733677</ele>
        <time>2021-11-18T07:54:30Z</time>
      </trkpt>
      <trkpt lat="46.47781" lon="0.37305">
        <ele>121.67609563749</ele>
        <time>2021-11-18T07:54:32Z</time>
      </trkpt>
      <trkpt lat="46.47782" lon="0.37308">
        <ele>121.73154995311</ele>
        <time>2021-11-18T07:54:34Z</time>
      </trkpt>
      <trkpt lat="46.47782" lon="0.37311">
        <ele>121.72847945429</ele>
        <time>2021-11-18T07:54:36Z</time>
      </trkpt>
      <trkpt lat="46.47783" lon="0.37315">
        <ele>121.9366170615</ele>
        <time>2021-11-18T07:54:38Z</time>
      </trkpt>
      <trkpt lat="46.47783" lon="0.37318">
        <ele>121.79813931696</ele>
        <time>2021-11-18T07:54:40Z</time>
      </trkpt>
      <trkpt lat="46.47784" lon="0.37322">
        <ele>121.90439724829</ele>
        <time>2021-11-18T07:54:42Z</time>
      </trkpt>
      <trkpt lat="46.47784" lon="0.37325">
        <ele>121.95518952142</ele>
        <time>2021-11-18T07:54:44Z</time>
      </trkpt>
      <trkpt lat="46.47785" lon="0.37328">
        <ele>121.81676383596</ele>
        <time>2021-11-18T07:54:46Z</time>
      </trkpt>
      <trkpt lat="46.47786" lon="0.37331">
        <ele>121.77387309726</ele>
        <time>2021-11-18T07:54:48Z</time>
      </trkpt>
      <trkpt lat="46.47787" lon="0.37334">
        <ele>121.90931201074</ele>
        <time>2021-11-18T07:54:50Z</time>
      </trkpt>
      <trkpt lat="46.47789" lon="0.37337">
        <ele>121.91898613144</ele>
        <time>2021-11-18T07:54:52Z</time>
      </trkpt>
      <trkpt lat="46.47791" lon="0.37339">
        <ele>121.75610482134</ele>
        <time>2021-11-18T07:54:54Z</time>
      </trkpt>
      <trkpt lat="46.47794" lon="0.3734">
        <ele>121.76564513706</ele>
        <time>2021-11-18T07:54:56Z</time>
      </trkpt>
      <trkpt lat="46.47796" lon="0.37341">
        <ele>121.80010103807</ele>
        <time>2021-11-18T07:54:58Z</time>
      </trkpt>
      <trkpt lat="46.47798" lon="0.37343">
        <ele>121.81471870095</ele>
        <time>2021-11-18T07:55:00Z</time>
      </trkpt>
      <trkpt lat="46.47801" lon="0.37343">
        <ele>121.63249280583</ele>
        <time>2021-11-18T07:55:02Z</time>
      </trkpt>
      <trkpt lat="46.47803" lon="0.37345">
        <ele>121.61102542374</ele>
        <time>2021-11-18T07:55:04Z</time>
      </trkpt>
      <trkpt lat="46.47805" lon="0.37346">
        <ele>121.61805550847</ele>
        <time>2021-11-18T07:55:06Z</time>
      </trkpt>
      <trkpt lat="46.47807" lon="0.37347">
        <ele>121.62199331913</ele>
        <time>2021-11-18T07:55:08Z</time>
      </trkpt>
      <trkpt lat="46.47809" lon="0.37347">
        <ele>121.35161866248</ele>
        <time>2021-11-18T07:55:10Z</time>
      </trkpt>
      <trkpt lat="46.47812" lon="0.37348">
        <ele>121.58621149324</ele>
        <time>2021-11-18T07:55:12Z</time>
      </trkpt>
      <trkpt lat="46.47814" lon="0.37348">
        <ele>121.34954657033</ele>
        <time>2021-11-18T07:55:14Z</time>
      </trkpt>
      <trkpt lat="46.47816" lon="0.37348">
        <ele>121.2257465627</ele>
        <time>2021-11-18T07:55:16Z</time>
      </trkpt>
      <trkpt lat="46.47818" lon="0.37348">
        <ele>121.2001064131</ele>
        <time>2021-11-18T07:55:18Z</time>
      </trkpt>
      <trkpt lat="46.4782" lon="0.37349">
        <ele>121.56653791666</ele>
        <time>2021-11-18T07:55:20Z</time>
      </trkpt>
      <trkpt lat="46.47822" lon="0.3735">
        <ele>121.44384110067</ele>
        <time>2021-11-18T07:55:22Z</time>
      </trkpt>
      <trkpt lat="46.47824" lon="0.37353">
        <ele>121.6019587582</ele>
        <time>2021-11-18T07:55:24Z</time>
      </trkpt>
      <trkpt lat="46.47826" lon="0.37356">
        <ele>121.36526658572</ele>
        <time>2021-11-18T07:55:26Z</time>
      </trkpt>
      <trkpt lat="46.47826" lon="0.37358">
        <ele>121.16242862586</ele>
        <time>2021-11-18T07:55:28Z</time>
      </trkpt>
      <trkpt lat="46.47826" lon="0.37362">
        <ele>121.0828852905</ele>
        <time>2021-11-18T07:55:30Z</time>
      </trkpt>
      <trkpt lat="46.47826" lon="0.37365">
        <ele>121.37441776507</ele>
        <time>2021-11-18T07:55:32Z</time>
      </trkpt>
      <trkpt lat="46.47826" lon="0.37369">
        <ele>121.45134305861</ele>
        <time>2021-11-18T07:55:34Z</time>
      </trkpt>
      <trkpt lat="46.47826" lon="0.37372">
        <ele>121.56913761143</ele>
        <time>2021-11-18T07:55:36Z</time>
      </trkpt>
      <trkpt lat="46.47826" lon="0.37375">
        <ele>121.63458340708</ele>
        <time>2021-11-18T07:55:38Z</time>
      </trkpt>
      <trkpt lat="46.47827" lon="0.37377">
        <ele>121.56079317071</ele>
        <time>2021-11-18T07:55:40Z</time>
      </trkpt>
      <trkpt lat="46.47829" lon="0.37379">
        <ele>121.45548073482</ele>
        <time>2021-11-18T07:55:42Z</time>
      </trkpt>
      <trkpt lat="46.47831" lon="0.3738">
        <ele>121.61502934061</ele>
        <time>2021-11-18T07:55:44Z</time>
      </trkpt>
      <trkpt lat="46.47833" lon="0.3738">
        <ele>121.48769468535</ele>
        <time>2021-11-18T07:55:46Z</time>
      </trkpt>
      <trkpt lat="46.47835" lon="0.3738">
        <ele>121.71138279326</ele>
        <time>2021-11-18T07:55:48Z</time>
      </trkpt>
      <trkpt lat="46.47837" lon="0.3738">
        <ele>121.8121494893</ele>
        <time>2021-11-18T07:55:50Z</time>
      </trkpt>
      <trkpt lat="46.47839" lon="0.3738">
        <ele>121.55324462056</ele>
        <time>2021-11-18T07:55:52Z</time>
      </trkpt>
      <trkpt lat="46.47841" lon="0.3738">
        <ele>121.75495411456</ele>
        <time>2021-11-18T07:55:54Z</time>
      </trkpt>
      <trkpt lat="46.47843" lon="0.3738">
        <ele>121.08303111233</ele>
        <time>2021-11-18T07:55:56Z</time>
      </trkpt>
      <trkpt lat="46.47845" lon="0.3738">
        <ele>121.69916762412</ele>
        <time>2021-11-18T07:55:58Z</time>
      </trkpt>
      <trkpt lat="46.47847" lon="0.37381">
        <ele>121.35577561706</ele>
        <time>2021-11-18T07:56:00Z</time>
      </trkpt>
      <trkpt lat="46.47849" lon="0.37381">
        <ele>121.41899646539</ele>
        <time>2021-11-18T07:56:02Z</time>
      </trkpt>
      <trkpt lat="46.47851" lon="0.3738">
        <ele>121.32733190991</ele>
        <time>2021-11-18T07:56:04Z</time>
      </trkpt>
      <trkpt lat="46.47853" lon="0.3738">
        <ele>121.16347405501</ele>
        <time>2021-11-18T07:56:06Z</time>
      </trkpt>
      <trkpt lat="46.47855" lon="0.3738">
        <ele>121.52165661287</ele>
        <time>2021-11-18T07:56:08Z</time>
      </trkpt>
      <trkpt lat="46.47858" lon="0.37379">
        <ele>121.25269732811</ele>
        <time>2021-11-18T07:56:10Z</time>
      </trkpt>
      <trkpt lat="46.47861" lon="0.37379">
        <ele>120.85826041829</ele>
        <time>2021-11-18T07:56:12Z</time>
      </trkpt>
      <trkpt lat="46.47863" lon="0.37379">
        <ele>121.02886559069</ele>
        <time>2021-11-18T07:56:14Z</time>
      </trkpt>
      <trkpt lat="46.47866" lon="0.37378">
        <ele>120.95097206812</ele>
        <time>2021-11-18T07:56:16Z</time>
      </trkpt>
      <trkpt lat="46.47868" lon="0.37378">
        <ele>120.85827732179</ele>
        <time>2021-11-18T07:56:18Z</time>
      </trkpt>
      <trkpt lat="46.47871" lon="0.37379">
        <ele>120.77510768082</ele>
        <time>2021-11-18T07:56:20Z</time>
      </trkpt>
      <trkpt lat="46.47874" lon="0.37379">
        <ele>120.79955774732</ele>
        <time>2021-11-18T07:56:22Z</time>
      </trkpt>
      <trkpt lat="46.47876" lon="0.3738">
        <ele>120.69629831612</ele>
        <time>2021-11-18T07:56:24Z</time>
      </trkpt>
      <trkpt lat="46.4788" lon="0.3738">
        <ele>120.70627027098</ele>
        <time>2021-11-18T07:56:26Z</time>
      </trkpt>
      <trkpt lat="46.47882" lon="0.37381">
        <ele>120.27424684819</ele>
        <time>2021-11-18T07:56:28Z</time>
      </trkpt>
      <trkpt lat="46.47886" lon="0.37381">
        <ele>120.4908032557</ele>
        <time>2021-11-18T07:56:30Z</time>
      </trkpt>
      <trkpt lat="46.47889" lon="0.37381">
        <ele>120.79384675901</ele>
        <time>2021-11-18T07:56:31Z</time>
      </trkpt>
      <trkpt lat="46.47891" lon="0.37381">
        <ele>120.56435011514</ele>
        <time>2021-11-18T07:56:33Z</time>
      </trkpt>
      <trkpt lat="46.47894" lon="0.3738">
        <ele>120.55173463281</ele>
        <time>2021-11-18T07:56:35Z</time>
      </trkpt>
      <trkpt lat="46.47895" lon="0.3738">
        <ele>120.78183950949</ele>
        <time>2021-11-18T07:56:36Z</time>
      </trkpt>
      <trkpt lat="46.47898" lon="0.3738">
        <ele>120.56782593857</ele>
        <time>2021-11-18T07:56:38Z</time>
      </trkpt>
      <trkpt lat="46.47901" lon="0.3738">
        <ele>120.48429132253</ele>
        <time>2021-11-18T07:56:40Z</time>
      </trkpt>
      <trkpt lat="46.47903" lon="0.3738">
        <ele>120.02978570294</ele>
        <time>2021-11-18T07:56:42Z</time>
      </trkpt>
      <trkpt lat="46.47905" lon="0.37379">
        <ele>120.18575338274</ele>
        <time>2021-11-18T07:56:44Z</time>
      </trkpt>
      <trkpt lat="46.47908" lon="0.37379">
        <ele>120.1317455126</ele>
        <time>2021-11-18T07:56:46Z</time>
      </trkpt>
      <trkpt lat="46.47909" lon="0.37379">
        <ele>119.94564708322</ele>
        <time>2021-11-18T07:56:47Z</time>
      </trkpt>
      <trkpt lat="46.47912" lon="0.3738">
        <ele>119.98883756343</ele>
        <time>2021-11-18T07:56:49Z</time>
      </trkpt>
      <trkpt lat="46.47914" lon="0.37381">
        <ele>119.99184492324</ele>
        <time>2021-11-18T07:56:51Z</time>
      </trkpt>
      <trkpt lat="46.47917" lon="0.3738">
        <ele>119.74146141205</ele>
        <time>2021-11-18T07:56:53Z</time>
      </trkpt>
      <trkpt lat="46.4792" lon="0.3738">
        <ele>119.49667456001</ele>
        <time>2021-11-18T07:56:55Z</time>
      </trkpt>
      <trkpt lat="46.47923" lon="0.3738">
        <ele>119.79826657567</ele>
        <time>2021-11-18T07:56:57Z</time>
      </trkpt>
      <trkpt lat="46.47925" lon="0.3738">
        <ele>119.49988657702</ele>
        <time>2021-11-18T07:56:59Z</time>
      </trkpt>
      <trkpt lat="46.47927" lon="0.3738">
        <ele>119.26277777366</ele>
        <time>2021-11-18T07:57:01Z</time>
      </trkpt>
      <trkpt lat="46.4793" lon="0.37381">
        <ele>119.0892643379</ele>
        <time>2021-11-18T07:57:03Z</time>
      </trkpt>
      <trkpt lat="46.47933" lon="0.37381">
        <ele>118.84468271304</ele>
        <time>2021-11-18T07:57:05Z</time>
      </trkpt>
      <trkpt lat="46.47935" lon="0.37382">
        <ele>118.9049058212</ele>
        <time>2021-11-18T07:57:07Z</time>
      </trkpt>
      <trkpt lat="46.47937" lon="0.37381">
        <ele>118.3987531988</ele>
        <time>2021-11-18T07:57:09Z</time>
      </trkpt>
      <trkpt lat="46.4794" lon="0.37381">
        <ele>119.01456908416</ele>
        <time>2021-11-18T07:57:11Z</time>
      </trkpt>
      <trkpt lat="46.47943" lon="0.37382">
        <ele>118.65316171758</ele>
        <time>2021-11-18T07:57:14Z</time>
      </trkpt>
      <trkpt lat="46.47945" lon="0.37383">
        <ele>119.12773655914</ele>
        <time>2021-11-18T07:57:16Z</time>
      </trkpt>
      <trkpt lat="46.47947" lon="0.37384">
        <ele>118.65770664718</ele>
        <time>2021-11-18T07:57:18Z</time>
      </trkpt>
      <trkpt lat="46.47951" lon="0.37385">
        <ele>118.60947506223</ele>
        <time>2021-11-18T07:57:20Z</time>
      </trkpt>
      <trkpt lat="46.47954" lon="0.37385">
        <ele>118.94545067288</ele>
        <time>2021-11-18T07:57:22Z</time>
      </trkpt>
      <trkpt lat="46.47956" lon="0.37386">
        <ele>118.53724082094</ele>
        <time>2021-11-18T07:57:24Z</time>
      </trkpt>
      <trkpt lat="46.47959" lon="0.37386">
        <ele>118.30224198755</ele>
        <time>2021-11-18T07:57:26Z</time>
      </trkpt>
      <trkpt lat="46.47961" lon="0.37388">
        <ele>118.2198420288</ele>
        <time>2021-11-18T07:57:28Z</time>
      </trkpt>
      <trkpt lat="46.47964" lon="0.37388">
        <ele>118.33691510651</ele>
        <time>2021-11-18T07:57:30Z</time>
      </trkpt>
      <trkpt lat="46.47967" lon="0.37389">
        <ele>118.17193533108</ele>
        <time>2021-11-18T07:57:32Z</time>
      </trkpt>
      <trkpt lat="46.47969" lon="0.3739">
        <ele>118.69750675932</ele>
        <time>2021-11-18T07:57:34Z</time>
      </trkpt>
      <trkpt lat="46.47972" lon="0.3739">
        <ele>117.98723579943</ele>
        <time>2021-11-18T07:57:36Z</time>
      </trkpt>
      <trkpt lat="46.47974" lon="0.37391">
        <ele>117.8744559316</ele>
        <time>2021-11-18T07:57:38Z</time>
      </trkpt>
      <trkpt lat="46.47976" lon="0.3739">
        <ele>118.09734907653</ele>
        <time>2021-11-18T07:57:40Z</time>
      </trkpt>
      <trkpt lat="46.47978" lon="0.3739">
        <ele>117.97208013106</ele>
        <time>2021-11-18T07:57:42Z</time>
      </trkpt>
      <trkpt lat="46.47979" lon="0.3739">
        <ele>117.98078369908</ele>
        <time>2021-11-18T07:57:44Z</time>
      </trkpt>
      <trkpt lat="46.47982" lon="0.3739">
        <ele>117.73986227997</ele>
        <time>2021-11-18T07:57:47Z</time>
      </trkpt>
      <trkpt lat="46.47985" lon="0.37391">
        <ele>117.9481315231</ele>
        <time>2021-11-18T07:57:49Z</time>
      </trkpt>
      <trkpt lat="46.47987" lon="0.37391">
        <ele>117.89187197201</ele>
        <time>2021-11-18T07:57:51Z</time>
      </trkpt>
      <trkpt lat="46.47989" lon="0.37392">
        <ele>118.15209982451</ele>
        <time>2021-11-18T07:57:53Z</time>
      </trkpt>
      <trkpt lat="46.47991" lon="0.37392">
        <ele>117.60921811219</ele>
        <time>2021-11-18T07:57:55Z</time>
      </trkpt>
      <trkpt lat="46.47993" lon="0.37393">
        <ele>117.8229825329</ele>
        <time>2021-11-18T07:57:57Z</time>
      </trkpt>
      <trkpt lat="46.47995" lon="0.37393">
        <ele>118.00152148493</ele>
        <time>2021-11-18T07:57:59Z</time>
      </trkpt>
      <trkpt lat="46.47998" lon="0.37394">
        <ele>117.79141389299</ele>
        <time>2021-11-18T07:58:01Z</time>
      </trkpt>
      <trkpt lat="46.48" lon="0.37395">
        <ele>117.98503303062</ele>
        <time>2021-11-18T07:58:03Z</time>
      </trkpt>
      <trkpt lat="46.48002" lon="0.37396">
        <ele>117.89738977794</ele>
        <time>2021-11-18T07:58:05Z</time>
      </trkpt>
      <trkpt lat="46.48004" lon="0.37395">
        <ele>118.09162617475</ele>
        <time>2021-11-18T07:58:07Z</time>
      </trkpt>
      <trkpt lat="46.48007" lon="0.37395">
        <ele>117.95372536313</ele>
        <time>2021-11-18T07:58:09Z</time>
      </trkpt>
      <trkpt lat="46.48009" lon="0.37396">
        <ele>117.83560218755</ele>
        <time>2021-11-18T07:58:11Z</time>
      </trkpt>
      <trkpt lat="46.48012" lon="0.37395">
        <ele>118.02089318819</ele>
        <time>2021-11-18T07:58:13Z</time>
      </trkpt>
      <trkpt lat="46.48014" lon="0.37396">
        <ele>117.65083265118</ele>
        <time>2021-11-18T07:58:15Z</time>
      </trkpt>
      <trkpt lat="46.48016" lon="0.37396">
        <ele>118.08991802204</ele>
        <time>2021-11-18T07:58:17Z</time>
      </trkpt>
      <trkpt lat="46.48019" lon="0.37396">
        <ele>117.69303711597</ele>
        <time>2021-11-18T07:58:19Z</time>
      </trkpt>
      <trkpt lat="46.48021" lon="0.37396">
        <ele>117.23342614248</ele>
        <time>2021-11-18T07:58:21Z</time>
      </trkpt>
      <trkpt lat="46.48024" lon="0.37396">
        <ele>117.77344378177</ele>
        <time>2021-11-18T07:58:23Z</time>
      </trkpt>
      <trkpt lat="46.48026" lon="0.37396">
        <ele>117.47872543056</ele>
        <time>2021-11-18T07:58:25Z</time>
      </trkpt>
      <trkpt lat="46.48029" lon="0.37396">
        <ele>117.24437438883</ele>
        <time>2021-11-18T07:58:27Z</time>
      </trkpt>
      <trkpt lat="46.48031" lon="0.37397">
        <ele>117.39955029543</ele>
        <time>2021-11-18T07:58:29Z</time>
      </trkpt>
      <trkpt lat="46.48033" lon="0.37397">
        <ele>117.22634475958</ele>
        <time>2021-11-18T07:58:31Z</time>
      </trkpt>
      <trkpt lat="46.48036" lon="0.37397">
        <ele>117.364702099</ele>
        <time>2021-11-18T07:58:33Z</time>
      </trkpt>
      <trkpt lat="46.48039" lon="0.37398">
        <ele>117.33707278874</ele>
        <time>2021-11-18T07:58:35Z</time>
      </trkpt>
      <trkpt lat="46.48041" lon="0.37399">
        <ele>117.05096947588</ele>
        <time>2021-11-18T07:58:37Z</time>
      </trkpt>
      <trkpt lat="46.48044" lon="0.374">
        <ele>117.28799113724</ele>
        <time>2021-11-18T07:58:39Z</time>
      </trkpt>
      <trkpt lat="46.48047" lon="0.37401">
        <ele>117.75673957355</ele>
        <time>2021-11-18T07:58:41Z</time>
      </trkpt>
      <trkpt lat="46.4805" lon="0.37403">
        <ele>117.27377124038</ele>
        <time>2021-11-18T07:58:43Z</time>
      </trkpt>
      <trkpt lat="46.48053" lon="0.37404">
        <ele>117.20146993548</ele>
        <time>2021-11-18T07:58:45Z</time>
      </trkpt>
      <trkpt lat="46.48056" lon="0.37404">
        <ele>117.02979428507</ele>
        <time>2021-11-18T07:58:47Z</time>
      </trkpt>
      <trkpt lat="46.48059" lon="0.37405">
        <ele>117.24839260522</ele>
        <time>2021-11-18T07:58:49Z</time>
      </trkpt>
      <trkpt lat="46.48061" lon="0.37406">
        <ele>117.40438724682</ele>
        <time>2021-11-18T07:58:51Z</time>
      </trkpt>
      <trkpt lat="46.48064" lon="0.37406">
        <ele>117.34364136495</ele>
        <time>2021-11-18T07:58:53Z</time>
      </trkpt>
      <trkpt lat="46.48066" lon="0.37407">
        <ele>117.47395147663</ele>
        <time>2021-11-18T07:58:55Z</time>
      </trkpt>
      <trkpt lat="46.48068" lon="0.37407">
        <ele>117.52561026905</ele>
        <time>2021-11-18T07:58:57Z</time>
      </trkpt>
      <trkpt lat="46.48071" lon="0.37407">
        <ele>117.50348030776</ele>
        <time>2021-11-18T07:58:59Z</time>
      </trkpt>
      <trkpt lat="46.48073" lon="0.37408">
        <ele>117.57198674325</ele>
        <time>2021-11-18T07:59:01Z</time>
      </trkpt>
      <trkpt lat="46.48076" lon="0.37409">
        <ele>117.64654517546</ele>
        <time>2021-11-18T07:59:03Z</time>
      </trkpt>
      <trkpt lat="46.48078" lon="0.37409">
        <ele>117.25804389827</ele>
        <time>2021-11-18T07:59:05Z</time>
      </trkpt>
      <trkpt lat="46.4808" lon="0.37409">
        <ele>117.43189181108</ele>
        <time>2021-11-18T07:59:07Z</time>
      </trkpt>
      <trkpt lat="46.48083" lon="0.37409">
        <ele>117.72657262534</ele>
        <time>2021-11-18T07:59:10Z</time>
      </trkpt>
      <trkpt lat="46.48085" lon="0.3741">
        <ele>117.48984033056</ele>
        <time>2021-11-18T07:59:12Z</time>
      </trkpt>
      <trkpt lat="46.48087" lon="0.37411">
        <ele>117.54712991416</ele>
        <time>2021-11-18T07:59:14Z</time>
      </trkpt>
      <trkpt lat="46.48089" lon="0.3741">
        <ele>117.7162502408</ele>
        <time>2021-11-18T07:59:16Z</time>
      </trkpt>
      <trkpt lat="46.48092" lon="0.37411">
        <ele>117.90279339254</ele>
        <time>2021-11-18T07:59:18Z</time>
      </trkpt>
      <trkpt lat="46.48095" lon="0.37411">
        <ele>117.59384112246</ele>
        <time>2021-11-18T07:59:20Z</time>
      </trkpt>
      <trkpt lat="46.48098" lon="0.37412">
        <ele>117.81826084293</ele>
        <time>2021-11-18T07:59:22Z</time>
      </trkpt>
      <trkpt lat="46.48101" lon="0.37411">
        <ele>117.6657771226</ele>
        <time>2021-11-18T07:59:24Z</time>
      </trkpt>
      <trkpt lat="46.48104" lon="0.3741">
        <ele>117.76419134997</ele>
        <time>2021-11-18T07:59:26Z</time>
      </trkpt>
      <trkpt lat="46.48106" lon="0.3741">
        <ele>117.7600772446</ele>
        <time>2021-11-18T07:59:28Z</time>
      </trkpt>
      <trkpt lat="46.48109" lon="0.37409">
        <ele>118.4183704257</ele>
        <time>2021-11-18T07:59:30Z</time>
      </trkpt>
      <trkpt lat="46.48111" lon="0.37408">
        <ele>118.10982000269</ele>
        <time>2021-11-18T07:59:32Z</time>
      </trkpt>
      <trkpt lat="46.48114" lon="0.37408">
        <ele>118.19632689748</ele>
        <time>2021-11-18T07:59:34Z</time>
      </trkpt>
      <trkpt lat="46.48117" lon="0.37408">
        <ele>118.38708177768</ele>
        <time>2021-11-18T07:59:36Z</time>
      </trkpt>
      <trkpt lat="46.48119" lon="0.37408">
        <ele>118.25249065179</ele>
        <time>2021-11-18T07:59:38Z</time>
      </trkpt>
      <trkpt lat="46.48122" lon="0.37407">
        <ele>118.25569545478</ele>
        <time>2021-11-18T07:59:40Z</time>
      </trkpt>
      <trkpt lat="46.48125" lon="0.37406">
        <ele>118.35882511549</ele>
        <time>2021-11-18T07:59:42Z</time>
      </trkpt>
      <trkpt lat="46.48127" lon="0.37406">
        <ele>118.3927859664</ele>
        <time>2021-11-18T07:59:44Z</time>
      </trkpt>
      <trkpt lat="46.48129" lon="0.37406">
        <ele>118.55785486382</ele>
        <time>2021-11-18T07:59:46Z</time>
      </trkpt>
      <trkpt lat="46.48131" lon="0.37406">
        <ele>118.43414810393</ele>
        <time>2021-11-18T07:59:48Z</time>
      </trkpt>
      <trkpt lat="46.48133" lon="0.37407">
        <ele>118.45448186435</ele>
        <time>2021-11-18T07:59:50Z</time>
      </trkpt>
      <trkpt lat="46.48136" lon="0.37408">
        <ele>118.37674142793</ele>
        <time>2021-11-18T07:59:52Z</time>
      </trkpt>
      <trkpt lat="46.48139" lon="0.3741">
        <ele>118.66645221692</ele>
        <time>2021-11-18T07:59:54Z</time>
      </trkpt>
      <trkpt lat="46.48141" lon="0.37413">
        <ele>118.29411149584</ele>
        <time>2021-11-18T07:59:56Z</time>
      </trkpt>
      <trkpt lat="46.48144" lon="0.37414">
        <ele>118.81355597917</ele>
        <time>2021-11-18T07:59:58Z</time>
      </trkpt>
      <trkpt lat="46.48146" lon="0.37417">
        <ele>118.91806026362</ele>
        <time>2021-11-18T08:00:00Z</time>
      </trkpt>
      <trkpt lat="46.48148" lon="0.37418">
        <ele>118.80775758345</ele>
        <time>2021-11-18T08:00:02Z</time>
      </trkpt>
      <trkpt lat="46.4815" lon="0.3742">
        <ele>118.89322505519</ele>
        <time>2021-11-18T08:00:04Z</time>
      </trkpt>
      <trkpt lat="46.48152" lon="0.37421">
        <ele>118.6934720343</ele>
        <time>2021-11-18T08:00:06Z</time>
      </trkpt>
      <trkpt lat="46.48154" lon="0.37423">
        <ele>119.20307491068</ele>
        <time>2021-11-18T08:00:08Z</time>
      </trkpt>
      <trkpt lat="46.48155" lon="0.37425">
        <ele>119.16974374559</ele>
        <time>2021-11-18T08:00:10Z</time>
      </trkpt>
      <trkpt lat="46.48158" lon="0.37427">
        <ele>119.40866070334</ele>
        <time>2021-11-18T08:00:13Z</time>
      </trkpt>
      <trkpt lat="46.4816" lon="0.37428">
        <ele>119.10239861254</ele>
        <time>2021-11-18T08:00:15Z</time>
      </trkpt>
      <trkpt lat="46.48162" lon="0.37431">
        <ele>119.4706209423</ele>
        <time>2021-11-18T08:00:17Z</time>
      </trkpt>
      <trkpt lat="46.48164" lon="0.37432">
        <ele>119.42469692044</ele>
        <time>2021-11-18T08:00:19Z</time>
      </trkpt>
      <trkpt lat="46.48166" lon="0.37434">
        <ele>119.40728902258</ele>
        <time>2021-11-18T08:00:21Z</time>
      </trkpt>
      <trkpt lat="46.48168" lon="0.37436">
        <ele>119.34840259422</ele>
        <time>2021-11-18T08:00:23Z</time>
      </trkpt>
      <trkpt lat="46.4817" lon="0.37438">
        <ele>119.68515854701</ele>
        <time>2021-11-18T08:00:25Z</time>
      </trkpt>
      <trkpt lat="46.48172" lon="0.37441">
        <ele>119.85385188833</ele>
        <time>2021-11-18T08:00:27Z</time>
      </trkpt>
      <trkpt lat="46.48174" lon="0.37443">
        <ele>119.51451057289</ele>
        <time>2021-11-18T08:00:29Z</time>
      </trkpt>
      <trkpt lat="46.48176" lon="0.37445">
        <ele>119.46366155893</ele>
        <time>2021-11-18T08:00:31Z</time>
      </trkpt>
      <trkpt lat="46.48177" lon="0.37448">
        <ele>120.11291481648</ele>
        <time>2021-11-18T08:00:33Z</time>
      </trkpt>
      <trkpt lat="46.48178" lon="0.37451">
        <ele>119.74676979613</ele>
        <time>2021-11-18T08:00:35Z</time>
      </trkpt>
      <trkpt lat="46.48179" lon="0.37454">
        <ele>119.9385029804</ele>
        <time>2021-11-18T08:00:37Z</time>
      </trkpt>
      <trkpt lat="46.4818" lon="0.37457">
        <ele>120.00797440205</ele>
        <time>2021-11-18T08:00:39Z</time>
      </trkpt>
      <trkpt lat="46.4818" lon="0.37461">
        <ele>119.82903354615</ele>
        <time>2021-11-18T08:00:41Z</time>
      </trkpt>
      <trkpt lat="46.48179" lon="0.37464">
        <ele>119.78443273436</ele>
        <time>2021-11-18T08:00:43Z</time>
      </trkpt>
      <trkpt lat="46.48179" lon="0.37468">
        <ele>120.12170400005</ele>
        <time>2021-11-18T08:00:45Z</time>
      </trkpt>
      <trkpt lat="46.48178" lon="0.37472">
        <ele>119.96979836281</ele>
        <time>2021-11-18T08:00:48Z</time>
      </trkpt>
      <trkpt lat="46.48177" lon="0.37475">
        <ele>119.85569302924</ele>
        <time>2021-11-18T08:00:50Z</time>
      </trkpt>
      <trkpt lat="46.48176" lon="0.37478">
        <ele>120.01837075688</ele>
        <time>2021-11-18T08:00:52Z</time>
      </trkpt>
      <trkpt lat="46.48175" lon="0.37481">
        <ele>120.20576102193</ele>
        <time>2021-11-18T08:00:54Z</time>
      </trkpt>
      <trkpt lat="46.48175" lon="0.37484">
        <ele>119.85414990038</ele>
        <time>2021-11-18T08:00:56Z</time>
      </trkpt>
      <trkpt lat="46.48175" lon="0.37486">
        <ele>120.11165624298</ele>
        <time>2021-11-18T08:00:58Z</time>
      </trkpt>
      <trkpt lat="46.48174" lon="0.3749">
        <ele>119.89319664799</ele>
        <time>2021-11-18T08:01:01Z</time>
      </trkpt>
      <trkpt lat="46.48175" lon="0.37493">
        <ele>120.24337727204</ele>
        <time>2021-11-18T08:01:03Z</time>
      </trkpt>
      <trkpt lat="46.48174" lon="0.37498">
        <ele>119.9459049711</ele>
        <time>2021-11-18T08:01:05Z</time>
      </trkpt>
      <trkpt lat="46.48174" lon="0.37501">
        <ele>119.94810798764</ele>
        <time>2021-11-18T08:01:07Z</time>
      </trkpt>
      <trkpt lat="46.48174" lon="0.37503">
        <ele>120.16813271027</ele>
        <time>2021-11-18T08:01:08Z</time>
      </trkpt>
      <trkpt lat="46.48173" lon="0.37507">
        <ele>120.20067591127</ele>
        <time>2021-11-18T08:01:10Z</time>
      </trkpt>
      <trkpt lat="46.48173" lon="0.37511">
        <ele>120.00225007813</ele>
        <time>2021-11-18T08:01:12Z</time>
      </trkpt>
      <trkpt lat="46.48172" lon="0.37515">
        <ele>120.05770851579</ele>
        <time>2021-11-18T08:01:14Z</time>
      </trkpt>
      <trkpt lat="46.48172" lon="0.37518">
        <ele>120.51667309739</ele>
        <time>2021-11-18T08:01:16Z</time>
      </trkpt>
      <trkpt lat="46.48171" lon="0.37522">
        <ele>120.13470145967</ele>
        <time>2021-11-18T08:01:18Z</time>
      </trkpt>
      <trkpt lat="46.48171" lon="0.37525">
        <ele>120.12916877773</ele>
        <time>2021-11-18T08:01:20Z</time>
      </trkpt>
      <trkpt lat="46.48171" lon="0.37529">
        <ele>120.1184924664</ele>
        <time>2021-11-18T08:01:22Z</time>
      </trkpt>
      <trkpt lat="46.4817" lon="0.37532">
        <ele>119.76129570045</ele>
        <time>2021-11-18T08:01:24Z</time>
      </trkpt>
      <trkpt lat="46.48169" lon="0.37536">
        <ele>120.24314593058</ele>
        <time>2021-11-18T08:01:26Z</time>
      </trkpt>
      <trkpt lat="46.48168" lon="0.37539">
        <ele>120.3002016861</ele>
        <time>2021-11-18T08:01:28Z</time>
      </trkpt>
      <trkpt lat="46.48168" lon="0.37542">
        <ele>120.22808015253</ele>
        <time>2021-11-18T08:01:30Z</time>
      </trkpt>
      <trkpt lat="46.48168" lon="0.37546">
        <ele>119.98734144494</ele>
        <time>2021-11-18T08:01:33Z</time>
      </trkpt>
      <trkpt lat="46.48167" lon="0.3755">
        <ele>120.01602212805</ele>
        <time>2021-11-18T08:01:35Z</time>
      </trkpt>
      <trkpt lat="46.48167" lon="0.37554">
        <ele>119.68112664856</ele>
        <time>2021-11-18T08:01:37Z</time>
      </trkpt>
      <trkpt lat="46.48167" lon="0.37557">
        <ele>119.90403046738</ele>
        <time>2021-11-18T08:01:38Z</time>
      </trkpt>
      <trkpt lat="46.48168" lon="0.37561">
        <ele>120.15293011907</ele>
        <time>2021-11-18T08:01:41Z</time>
      </trkpt>
      <trkpt lat="46.48168" lon="0.37564">
        <ele>119.97476363089</ele>
        <time>2021-11-18T08:01:43Z</time>
      </trkpt>
      <trkpt lat="46.48168" lon="0.37567">
        <ele>120.26008787099</ele>
        <time>2021-11-18T08:01:45Z</time>
      </trkpt>
      <trkpt lat="46.48168" lon="0.3757">
        <ele>120.00501498394</ele>
        <time>2021-11-18T08:01:47Z</time>
      </trkpt>
      <trkpt lat="46.48168" lon="0.37574">
        <ele>120.29623959213</ele>
        <time>2021-11-18T08:01:49Z</time>
      </trkpt>
      <trkpt lat="46.48169" lon="0.37577">
        <ele>120.13524943125</ele>
        <time>2021-11-18T08:01:50Z</time>
      </trkpt>
      <trkpt lat="46.48169" lon="0.37581">
        <ele>119.87417305261</ele>
        <time>2021-11-18T08:01:52Z</time>
      </trkpt>
      <trkpt lat="46.48169" lon="0.37584">
        <ele>119.89466852602</ele>
        <time>2021-11-18T08:01:54Z</time>
      </trkpt>
      <trkpt lat="46.48169" lon="0.37588">
        <ele>119.83966531977</ele>
        <time>2021-11-18T08:01:56Z</time>
      </trkpt>
      <trkpt lat="46.48169" lon="0.37591">
        <ele>119.2431609612</ele>
        <time>2021-11-18T08:01:58Z</time>
      </trkpt>
      <trkpt lat="46.4817" lon="0.37596">
        <ele>119.87592481449</ele>
        <time>2021-11-18T08:02:00Z</time>
      </trkpt>
      <trkpt lat="46.48169" lon="0.37599">
        <ele>119.97724049259</ele>
        <time>2021-11-18T08:02:02Z</time>
      </trkpt>
      <trkpt lat="46.48169" lon="0.37603">
        <ele>120.16089078877</ele>
        <time>2021-11-18T08:02:04Z</time>
      </trkpt>
      <trkpt lat="46.4817" lon="0.37607">
        <ele>119.88207718357</ele>
        <time>2021-11-18T08:02:06Z</time>
      </trkpt>
      <trkpt lat="46.4817" lon="0.3761">
        <ele>120.17503419984</ele>
        <time>2021-11-18T08:02:08Z</time>
      </trkpt>
      <trkpt lat="46.48171" lon="0.37614">
        <ele>119.68264829647</ele>
        <time>2021-11-18T08:02:10Z</time>
      </trkpt>
      <trkpt lat="46.48171" lon="0.37617">
        <ele>120.10664915945</ele>
        <time>2021-11-18T08:02:12Z</time>
      </trkpt>
      <trkpt lat="46.48172" lon="0.37622">
        <ele>119.8295755405</ele>
        <time>2021-11-18T08:02:14Z</time>
      </trkpt>
      <trkpt lat="46.48172" lon="0.37625">
        <ele>119.96539259795</ele>
        <time>2021-11-18T08:02:16Z</time>
      </trkpt>
      <trkpt lat="46.48172" lon="0.37629">
        <ele>119.87027309276</ele>
        <time>2021-11-18T08:02:19Z</time>
      </trkpt>
      <trkpt lat="46.48173" lon="0.37632">
        <ele>120.03174446896</ele>
        <time>2021-11-18T08:02:21Z</time>
      </trkpt>
      <trkpt lat="46.48173" lon="0.37634">
        <ele>119.72236531228</ele>
        <time>2021-11-18T08:02:23Z</time>
      </trkpt>
      <trkpt lat="46.48173" lon="0.37638">
        <ele>119.70938761719</ele>
        <time>2021-11-18T08:02:25Z</time>
      </trkpt>
      <trkpt lat="46.48173" lon="0.37641">
        <ele>119.92003620602</ele>
        <time>2021-11-18T08:02:28Z</time>
      </trkpt>
      <trkpt lat="46.48174" lon="0.37644">
        <ele>119.59642348904</ele>
        <time>2021-11-18T08:02:30Z</time>
      </trkpt>
      <trkpt lat="46.48175" lon="0.37648">
        <ele>119.55976193771</ele>
        <time>2021-11-18T08:02:32Z</time>
      </trkpt>
      <trkpt lat="46.48174" lon="0.37651">
        <ele>119.56222349219</ele>
        <time>2021-11-18T08:02:34Z</time>
      </trkpt>
      <trkpt lat="46.48175" lon="0.37654">
        <ele>119.52419355884</ele>
        <time>2021-11-18T08:02:36Z</time>
      </trkpt>
      <trkpt lat="46.48175" lon="0.37658">
        <ele>119.38848238625</ele>
        <time>2021-11-18T08:02:38Z</time>
      </trkpt>
      <trkpt lat="46.48175" lon="0.37661">
        <ele>119.32212387305</ele>
        <time>2021-11-18T08:02:40Z</time>
      </trkpt>
      <trkpt lat="46.48177" lon="0.37664">
        <ele>119.25854916777</ele>
        <time>2021-11-18T08:02:42Z</time>
      </trkpt>
      <trkpt lat="46.48177" lon="0.37669">
        <ele>119.35518556181</ele>
        <time>2021-11-18T08:02:44Z</time>
      </trkpt>
      <trkpt lat="46.48178" lon="0.37673">
        <ele>118.89620004315</ele>
        <time>2021-11-18T08:02:46Z</time>
      </trkpt>
      <trkpt lat="46.48178" lon="0.37677">
        <ele>118.59300110396</ele>
        <time>2021-11-18T08:02:48Z</time>
      </trkpt>
      <trkpt lat="46.48178" lon="0.3768">
        <ele>118.53399562929</ele>
        <time>2021-11-18T08:02:50Z</time>
      </trkpt>
      <trkpt lat="46.48178" lon="0.37683">
        <ele>118.49292786513</ele>
        <time>2021-11-18T08:02:52Z</time>
      </trkpt>
      <trkpt lat="46.48179" lon="0.37687">
        <ele>118.34715271648</ele>
        <time>2021-11-18T08:02:54Z</time>
      </trkpt>
      <trkpt lat="46.4818" lon="0.3769">
        <ele>118.30560410675</ele>
        <time>2021-11-18T08:02:56Z</time>
      </trkpt>
      <trkpt lat="46.4818" lon="0.37694">
        <ele>117.75863903388</ele>
        <time>2021-11-18T08:02:58Z</time>
      </trkpt>
      <trkpt lat="46.48181" lon="0.37697">
        <ele>118.04288940504</ele>
        <time>2021-11-18T08:03:00Z</time>
      </trkpt>
      <trkpt lat="46.48181" lon="0.37701">
        <ele>117.48150269222</ele>
        <time>2021-11-18T08:03:02Z</time>
      </trkpt>
      <trkpt lat="46.48181" lon="0.37704">
        <ele>117.21976878401</ele>
        <time>2021-11-18T08:03:04Z</time>
      </trkpt>
      <trkpt lat="46.48181" lon="0.37707">
        <ele>117.14438543282</ele>
        <time>2021-11-18T08:03:06Z</time>
      </trkpt>
      <trkpt lat="46.48181" lon="0.37711">
        <ele>117.00062916148</ele>
        <time>2021-11-18T08:03:08Z</time>
      </trkpt>
      <trkpt lat="46.48181" lon="0.37714">
        <ele>117.00282325223</ele>
        <time>2021-11-18T08:03:10Z</time>
      </trkpt>
      <trkpt lat="46.48182" lon="0.37717">
        <ele>116.34256728366</ele>
        <time>2021-11-18T08:03:12Z</time>
      </trkpt>
      <trkpt lat="46.48183" lon="0.37721">
        <ele>116.36244128179</ele>
        <time>2021-11-18T08:03:14Z</time>
      </trkpt>
      <trkpt lat="46.48183" lon="0.37724">
        <ele>116.06165535469</ele>
        <time>2021-11-18T08:03:16Z</time>
      </trkpt>
      <trkpt lat="46.48183" lon="0.37728">
        <ele>115.43036239874</ele>
        <time>2021-11-18T08:03:18Z</time>
      </trkpt>
      <trkpt lat="46.48184" lon="0.37731">
        <ele>115.71160760149</ele>
        <time>2021-11-18T08:03:20Z</time>
      </trkpt>
      <trkpt lat="46.48185" lon="0.37734">
        <ele>115.45687503181</ele>
        <time>2021-11-18T08:03:22Z</time>
      </trkpt>
      <trkpt lat="46.48186" lon="0.37738">
        <ele>115.06504511554</ele>
        <time>2021-11-18T08:03:24Z</time>
      </trkpt>
      <trkpt lat="46.48187" lon="0.37742">
        <ele>114.71849865839</ele>
        <time>2021-11-18T08:03:26Z</time>
      </trkpt>
      <trkpt lat="46.48188" lon="0.37745">
        <ele>114.9359510839</ele>
        <time>2021-11-18T08:03:28Z</time>
      </trkpt>
      <trkpt lat="46.48187" lon="0.37749">
        <ele>114.56329691969</ele>
        <time>2021-11-18T08:03:30Z</time>
      </trkpt>
      <trkpt lat="46.48188" lon="0.37752">
        <ele>114.15983141121</ele>
        <time>2021-11-18T08:03:32Z</time>
      </trkpt>
      <trkpt lat="46.48188" lon="0.37755">
        <ele>114.10629836936</ele>
        <time>2021-11-18T08:03:34Z</time>
      </trkpt>
      <trkpt lat="46.48188" lon="0.37758">
        <ele>113.95597229339</ele>
        <time>2021-11-18T08:03:36Z</time>
      </trkpt>
      <trkpt lat="46.48189" lon="0.37762">
        <ele>113.5510635851</ele>
        <time>2021-11-18T08:03:38Z</time>
      </trkpt>
      <trkpt lat="46.48189" lon="0.37764">
        <ele>113.48369494919</ele>
        <time>2021-11-18T08:03:40Z</time>
      </trkpt>
      <trkpt lat="46.48191" lon="0.37767">
        <ele>112.99533088971</ele>
        <time>2021-11-18T08:03:42Z</time>
      </trkpt>
      <trkpt lat="46.48192" lon="0.3777">
        <ele>113.17569991015</ele>
        <time>2021-11-18T08:03:44Z</time>
      </trkpt>
      <trkpt lat="46.48193" lon="0.37773">
        <ele>112.63909686636</ele>
        <time>2021-11-18T08:03:46Z</time>
      </trkpt>
      <trkpt lat="46.48193" lon="0.37776">
        <ele>112.57936992031</ele>
        <time>2021-11-18T08:03:48Z</time>
      </trkpt>
      <trkpt lat="46.48194" lon="0.37779">
        <ele>112.14699479938</ele>
        <time>2021-11-18T08:03:50Z</time>
      </trkpt>
      <trkpt lat="46.48195" lon="0.37782">
        <ele>112.18605292216</ele>
        <time>2021-11-18T08:03:52Z</time>
      </trkpt>
      <trkpt lat="46.48195" lon="0.37786">
        <ele>112.10198346619</ele>
        <time>2021-11-18T08:03:54Z</time>
      </trkpt>
      <trkpt lat="46.48196" lon="0.3779">
        <ele>112.15085236169</ele>
        <time>2021-11-18T08:03:56Z</time>
      </trkpt>
      <trkpt lat="46.48196" lon="0.37793">
        <ele>111.76915409323</ele>
        <time>2021-11-18T08:03:58Z</time>
      </trkpt>
      <trkpt lat="46.48196" lon="0.37796">
        <ele>112.0915531069</ele>
        <time>2021-11-18T08:03:59Z</time>
      </trkpt>
      <trkpt lat="46.48196" lon="0.378">
        <ele>112.00148386415</ele>
        <time>2021-11-18T08:04:01Z</time>
      </trkpt>
      <trkpt lat="46.48196" lon="0.37804">
        <ele>112.27640192397</ele>
        <time>2021-11-18T08:04:03Z</time>
      </trkpt>
      <trkpt lat="46.48196" lon="0.37807">
        <ele>112.080808606</ele>
        <time>2021-11-18T08:04:05Z</time>
      </trkpt>
      <trkpt lat="46.48197" lon="0.37811">
        <ele>111.93281420879</ele>
        <time>2021-11-18T08:04:07Z</time>
      </trkpt>
      <trkpt lat="46.48198" lon="0.37815">
        <ele>111.89091009181</ele>
        <time>2021-11-18T08:04:09Z</time>
      </trkpt>
      <trkpt lat="46.48198" lon="0.37819">
        <ele>112.14840367716</ele>
        <time>2021-11-18T08:04:11Z</time>
      </trkpt>
      <trkpt lat="46.48199" lon="0.37823">
        <ele>111.70946202986</ele>
        <time>2021-11-18T08:04:13Z</time>
      </trkpt>
      <trkpt lat="46.48199" lon="0.37827">
        <ele>111.78412616812</ele>
        <time>2021-11-18T08:04:15Z</time>
      </trkpt>
      <trkpt lat="46.48201" lon="0.3783">
        <ele>111.81302171946</ele>
        <time>2021-11-18T08:04:17Z</time>
      </trkpt>
      <trkpt lat="46.48201" lon="0.37834">
        <ele>112.48207723256</ele>
        <time>2021-11-18T08:04:19Z</time>
      </trkpt>
      <trkpt lat="46.48202" lon="0.37837">
        <ele>112.17986369319</ele>
        <time>2021-11-18T08:04:21Z</time>
      </trkpt>
      <trkpt lat="46.48204" lon="0.37839">
        <ele>112.20387305599</ele>
        <time>2021-11-18T08:04:23Z</time>
      </trkpt>
      <trkpt lat="46.48207" lon="0.37839">
        <ele>112.25737346336</ele>
        <time>2021-11-18T08:04:26Z</time>
      </trkpt>
      <trkpt lat="46.48209" lon="0.37841">
        <ele>112.6551379282</ele>
        <time>2021-11-18T08:04:29Z</time>
      </trkpt>
      <trkpt lat="46.48211" lon="0.37843">
        <ele>112.42898626346</ele>
        <time>2021-11-18T08:04:32Z</time>
      </trkpt>
      <trkpt lat="46.48213" lon="0.37843">
        <ele>112.90512818843</ele>
        <time>2021-11-18T08:04:34Z</time>
      </trkpt>
      <trkpt lat="46.48216" lon="0.37843">
        <ele>112.85593240149</ele>
        <time>2021-11-18T08:04:36Z</time>
      </trkpt>
      <trkpt lat="46.48218" lon="0.37843">
        <ele>112.85596246831</ele>
        <time>2021-11-18T08:04:37Z</time>
      </trkpt>
      <trkpt lat="46.48221" lon="0.37846">
        <ele>112.86377926916</ele>
        <time>2021-11-18T08:04:39Z</time>
      </trkpt>
      <trkpt lat="46.48223" lon="0.37846">
        <ele>112.82113229949</ele>
        <time>2021-11-18T08:04:40Z</time>
      </trkpt>
      <trkpt lat="46.48226" lon="0.37848">
        <ele>112.96709435619</ele>
        <time>2021-11-18T08:04:42Z</time>
      </trkpt>
      <trkpt lat="46.48228" lon="0.3785">
        <ele>113.14606817253</ele>
        <time>2021-11-18T08:04:44Z</time>
      </trkpt>
      <trkpt lat="46.4823" lon="0.37853">
        <ele>113.19703907147</ele>
        <time>2021-11-18T08:04:46Z</time>
      </trkpt>
      <trkpt lat="46.48231" lon="0.37856">
        <ele>113.50946393143</ele>
        <time>2021-11-18T08:04:48Z</time>
      </trkpt>
      <trkpt lat="46.48232" lon="0.37859">
        <ele>113.50509783067</ele>
        <time>2021-11-18T08:04:50Z</time>
      </trkpt>
      <trkpt lat="46.48233" lon="0.37862">
        <ele>113.83392182738</ele>
        <time>2021-11-18T08:04:52Z</time>
      </trkpt>
      <trkpt lat="46.48233" lon="0.37865">
        <ele>114.18609085027</ele>
        <time>2021-11-18T08:04:54Z</time>
      </trkpt>
      <trkpt lat="46.48231" lon="0.37869">
        <ele>114.19214472268</ele>
        <time>2021-11-18T08:04:56Z</time>
      </trkpt>
      <trkpt lat="46.4823" lon="0.37872">
        <ele>114.31036330387</ele>
        <time>2021-11-18T08:04:58Z</time>
      </trkpt>
      <trkpt lat="46.48228" lon="0.37874">
        <ele>114.45767577924</ele>
        <time>2021-11-18T08:05:00Z</time>
      </trkpt>
      <trkpt lat="46.48227" lon="0.37877">
        <ele>114.64106574096</ele>
        <time>2021-11-18T08:05:02Z</time>
      </trkpt>
      <trkpt lat="46.48225" lon="0.37879">
        <ele>114.61067156307</ele>
        <time>2021-11-18T08:05:04Z</time>
      </trkpt>
      <trkpt lat="46.48224" lon="0.37882">
        <ele>114.70446615666</ele>
        <time>2021-11-18T08:05:06Z</time>
      </trkpt>
      <trkpt lat="46.48222" lon="0.37884">
        <ele>114.82869364228</ele>
        <time>2021-11-18T08:05:08Z</time>
      </trkpt>
      <trkpt lat="46.48221" lon="0.37887">
        <ele>114.95252796914</ele>
        <time>2021-11-18T08:05:10Z</time>
      </trkpt>
      <trkpt lat="46.48219" lon="0.37889">
        <ele>114.94637200236</ele>
        <time>2021-11-18T08:05:12Z</time>
      </trkpt>
      <trkpt lat="46.48218" lon="0.37893">
        <ele>115.28722570185</ele>
        <time>2021-11-18T08:05:14Z</time>
      </trkpt>
      <trkpt lat="46.48217" lon="0.37896">
        <ele>115.35655566677</ele>
        <time>2021-11-18T08:05:16Z</time>
      </trkpt>
      <trkpt lat="46.48216" lon="0.37899">
        <ele>115.59716555849</ele>
        <time>2021-11-18T08:05:18Z</time>
      </trkpt>
      <trkpt lat="46.48215" lon="0.37902">
        <ele>115.7429346703</ele>
        <time>2021-11-18T08:05:20Z</time>
      </trkpt>
      <trkpt lat="46.48215" lon="0.37906">
        <ele>116.09953647293</ele>
        <time>2021-11-18T08:05:22Z</time>
      </trkpt>
      <trkpt lat="46.48214" lon="0.37909">
        <ele>116.38365499675</ele>
        <time>2021-11-18T08:05:24Z</time>
      </trkpt>
      <trkpt lat="46.48214" lon="0.37913">
        <ele>116.49890080746</ele>
        <time>2021-11-18T08:05:26Z</time>
      </trkpt>
      <trkpt lat="46.48214" lon="0.37916">
        <ele>116.44106610585</ele>
        <time>2021-11-18T08:05:28Z</time>
      </trkpt>
      <trkpt lat="46.48214" lon="0.37919">
        <ele>116.85882029403</ele>
        <time>2021-11-18T08:05:30Z</time>
      </trkpt>
      <trkpt lat="46.48214" lon="0.37923">
        <ele>116.97578421701</ele>
        <time>2021-11-18T08:05:33Z</time>
      </trkpt>
      <trkpt lat="46.48214" lon="0.37926">
        <ele>117.19708495867</ele>
        <time>2021-11-18T08:05:35Z</time>
      </trkpt>
      <trkpt lat="46.48214" lon="0.37929">
        <ele>117.22370260581</ele>
        <time>2021-11-18T08:05:37Z</time>
      </trkpt>
      <trkpt lat="46.48216" lon="0.37931">
        <ele>117.31376348436</ele>
        <time>2021-11-18T08:05:39Z</time>
      </trkpt>
      <trkpt lat="46.48216" lon="0.37935">
        <ele>117.44746501092</ele>
        <time>2021-11-18T08:05:41Z</time>
      </trkpt>
      <trkpt lat="46.48216" lon="0.37939">
        <ele>117.60084362421</ele>
        <time>2021-11-18T08:05:43Z</time>
      </trkpt>
      <trkpt lat="46.48216" lon="0.37942">
        <ele>117.53933433909</ele>
        <time>2021-11-18T08:05:45Z</time>
      </trkpt>
      <trkpt lat="46.48216" lon="0.37946">
        <ele>117.90950520057</ele>
        <time>2021-11-18T08:05:47Z</time>
      </trkpt>
      <trkpt lat="46.48215" lon="0.3795">
        <ele>117.94598805532</ele>
        <time>2021-11-18T08:05:49Z</time>
      </trkpt>
      <trkpt lat="46.48216" lon="0.37954">
        <ele>118.04763833154</ele>
        <time>2021-11-18T08:05:51Z</time>
      </trkpt>
      <trkpt lat="46.48215" lon="0.37956">
        <ele>117.92889268417</ele>
        <time>2021-11-18T08:05:53Z</time>
      </trkpt>
      <trkpt lat="46.48216" lon="0.3796">
        <ele>117.87857512571</ele>
        <time>2021-11-18T08:05:55Z</time>
      </trkpt>
      <trkpt lat="46.48216" lon="0.37963">
        <ele>117.77063404955</ele>
        <time>2021-11-18T08:05:57Z</time>
      </trkpt>
      <trkpt lat="46.48216" lon="0.37967">
        <ele>117.71950187627</ele>
        <time>2021-11-18T08:05:59Z</time>
      </trkpt>
      <trkpt lat="46.48217" lon="0.3797">
        <ele>118.51458927616</ele>
        <time>2021-11-18T08:06:01Z</time>
      </trkpt>
      <trkpt lat="46.48217" lon="0.37974">
        <ele>118.1047385307</ele>
        <time>2021-11-18T08:06:03Z</time>
      </trkpt>
      <trkpt lat="46.48217" lon="0.37977">
        <ele>118.15856247023</ele>
        <time>2021-11-18T08:06:05Z</time>
      </trkpt>
      <trkpt lat="46.48217" lon="0.3798">
        <ele>118.00401433557</ele>
        <time>2021-11-18T08:06:07Z</time>
      </trkpt>
      <trkpt lat="46.48217" lon="0.37984">
        <ele>118.42086841259</ele>
        <time>2021-11-18T08:06:09Z</time>
      </trkpt>
      <trkpt lat="46.48217" lon="0.37987">
        <ele>118.32824148796</ele>
        <time>2021-11-18T08:06:11Z</time>
      </trkpt>
      <trkpt lat="46.48217" lon="0.37991">
        <ele>118.71653841995</ele>
        <time>2021-11-18T08:06:13Z</time>
      </trkpt>
      <trkpt lat="46.48217" lon="0.37994">
        <ele>118.51769520994</ele>
        <time>2021-11-18T08:06:15Z</time>
      </trkpt>
      <trkpt lat="46.48217" lon="0.37997">
        <ele>118.83604513761</ele>
        <time>2021-11-18T08:06:17Z</time>
      </trkpt>
      <trkpt lat="46.48216" lon="0.38001">
        <ele>118.7048600968</ele>
        <time>2021-11-18T08:06:19Z</time>
      </trkpt>
      <trkpt lat="46.48216" lon="0.38005">
        <ele>119.04688659124</ele>
        <time>2021-11-18T08:06:21Z</time>
      </trkpt>
      <trkpt lat="46.48216" lon="0.38009">
        <ele>118.83677123953</ele>
        <time>2021-11-18T08:06:23Z</time>
      </trkpt>
      <trkpt lat="46.48217" lon="0.38013">
        <ele>119.21430171095</ele>
        <time>2021-11-18T08:06:25Z</time>
      </trkpt>
      <trkpt lat="46.48217" lon="0.38016">
        <ele>118.88544216473</ele>
        <time>2021-11-18T08:06:27Z</time>
      </trkpt>
      <trkpt lat="46.48217" lon="0.38019">
        <ele>119.12117289379</ele>
        <time>2021-11-18T08:06:29Z</time>
      </trkpt>
      <trkpt lat="46.48217" lon="0.38022">
        <ele>119.03229739983</ele>
        <time>2021-11-18T08:06:31Z</time>
      </trkpt>
      <trkpt lat="46.48217" lon="0.38025">
        <ele>119.28317906428</ele>
        <time>2021-11-18T08:06:33Z</time>
      </trkpt>
      <trkpt lat="46.48217" lon="0.38028">
        <ele>119.1377757946</ele>
        <time>2021-11-18T08:06:35Z</time>
      </trkpt>
      <trkpt lat="46.48217" lon="0.38031">
        <ele>119.18917950522</ele>
        <time>2021-11-18T08:06:37Z</time>
      </trkpt>
      <trkpt lat="46.48217" lon="0.38035">
        <ele>119.34006998315</ele>
        <time>2021-11-18T08:06:39Z</time>
      </trkpt>
      <trkpt lat="46.48217" lon="0.38038">
        <ele>119.35946793295</ele>
        <time>2021-11-18T08:06:41Z</time>
      </trkpt>
      <trkpt lat="46.48218" lon="0.38042">
        <ele>119.38706665486</ele>
        <time>2021-11-18T08:06:44Z</time>
      </trkpt>
      <trkpt lat="46.48218" lon="0.38044">
        <ele>119.43655210733</ele>
        <time>2021-11-18T08:06:46Z</time>
      </trkpt>
      <trkpt lat="46.48218" lon="0.38048">
        <ele>119.8383374149</ele>
        <time>2021-11-18T08:06:48Z</time>
      </trkpt>
      <trkpt lat="46.48217" lon="0.38052">
        <ele>119.80567957833</ele>
        <time>2021-11-18T08:06:50Z</time>
      </trkpt>
      <trkpt lat="46.48217" lon="0.38056">
        <ele>119.99922756013</ele>
        <time>2021-11-18T08:06:52Z</time>
      </trkpt>
      <trkpt lat="46.48217" lon="0.38059">
        <ele>119.88177336846</ele>
        <time>2021-11-18T08:06:54Z</time>
      </trkpt>
      <trkpt lat="46.48217" lon="0.38062">
        <ele>120.08239461575</ele>
        <time>2021-11-18T08:06:56Z</time>
      </trkpt>
      <trkpt lat="46.48217" lon="0.38065">
        <ele>119.6161738541</ele>
        <time>2021-11-18T08:06:58Z</time>
      </trkpt>
      <trkpt lat="46.48217" lon="0.38068">
        <ele>120.00609983504</ele>
        <time>2021-11-18T08:07:00Z</time>
      </trkpt>
      <trkpt lat="46.48217" lon="0.38071">
        <ele>120.19814390969</ele>
        <time>2021-11-18T08:07:02Z</time>
      </trkpt>
      <trkpt lat="46.48217" lon="0.38075">
        <ele>119.88865122572</ele>
        <time>2021-11-18T08:07:04Z</time>
      </trkpt>
      <trkpt lat="46.48216" lon="0.38079">
        <ele>120.10263752751</ele>
        <time>2021-11-18T08:07:06Z</time>
      </trkpt>
      <trkpt lat="46.48216" lon="0.38083">
        <ele>120.04433826543</ele>
        <time>2021-11-18T08:07:08Z</time>
      </trkpt>
      <trkpt lat="46.48216" lon="0.38085">
        <ele>120.22821748722</ele>
        <time>2021-11-18T08:07:10Z</time>
      </trkpt>
      <trkpt lat="46.48216" lon="0.38089">
        <ele>120.09612573124</ele>
        <time>2021-11-18T08:07:12Z</time>
      </trkpt>
      <trkpt lat="46.48216" lon="0.38093">
        <ele>119.93727068417</ele>
        <time>2021-11-18T08:07:14Z</time>
      </trkpt>
      <trkpt lat="46.48217" lon="0.38096">
        <ele>120.24431566708</ele>
        <time>2021-11-18T08:07:16Z</time>
      </trkpt>
      <trkpt lat="46.48216" lon="0.381">
        <ele>120.46776318271</ele>
        <time>2021-11-18T08:07:18Z</time>
      </trkpt>
      <trkpt lat="46.48216" lon="0.38103">
        <ele>119.95675105508</ele>
        <time>2021-11-18T08:07:20Z</time>
      </trkpt>
      <trkpt lat="46.48216" lon="0.38107">
        <ele>120.50472553913</ele>
        <time>2021-11-18T08:07:22Z</time>
      </trkpt>
      <trkpt lat="46.48216" lon="0.3811">
        <ele>120.1355484752</ele>
        <time>2021-11-18T08:07:24Z</time>
      </trkpt>
      <trkpt lat="46.48217" lon="0.38114">
        <ele>119.99600589275</ele>
        <time>2021-11-18T08:07:26Z</time>
      </trkpt>
      <trkpt lat="46.48217" lon="0.38118">
        <ele>120.35646026302</ele>
        <time>2021-11-18T08:07:28Z</time>
      </trkpt>
      <trkpt lat="46.48217" lon="0.38122">
        <ele>120.42681125924</ele>
        <time>2021-11-18T08:07:30Z</time>
      </trkpt>
      <trkpt lat="46.48217" lon="0.38125">
        <ele>119.98828843702</ele>
        <time>2021-11-18T08:07:32Z</time>
      </trkpt>
      <trkpt lat="46.48217" lon="0.38128">
        <ele>120.23421704303</ele>
        <time>2021-11-18T08:07:34Z</time>
      </trkpt>
      <trkpt lat="46.48217" lon="0.38131">
        <ele>119.96230605152</ele>
        <time>2021-11-18T08:07:36Z</time>
      </trkpt>
      <trkpt lat="46.48217" lon="0.38134">
        <ele>120.09463464376</ele>
        <time>2021-11-18T08:07:37Z</time>
      </trkpt>
      <trkpt lat="46.48217" lon="0.38138">
        <ele>120.41486305371</ele>
        <time>2021-11-18T08:07:39Z</time>
      </trkpt>
      <trkpt lat="46.48217" lon="0.38141">
        <ele>120.00909628998</ele>
        <time>2021-11-18T08:07:41Z</time>
      </trkpt>
      <trkpt lat="46.48217" lon="0.38145">
        <ele>120.36638566293</ele>
        <time>2021-11-18T08:07:43Z</time>
      </trkpt>
      <trkpt lat="46.48217" lon="0.38149">
        <ele>120.64829056524</ele>
        <time>2021-11-18T08:07:45Z</time>
      </trkpt>
      <trkpt lat="46.48218" lon="0.38152">
        <ele>120.58717626892</ele>
        <time>2021-11-18T08:07:48Z</time>
      </trkpt>
      <trkpt lat="46.48218" lon="0.38156">
        <ele>120.13446806278</ele>
        <time>2021-11-18T08:07:50Z</time>
      </trkpt>
      <trkpt lat="46.48218" lon="0.3816">
        <ele>120.77382787503</ele>
        <time>2021-11-18T08:07:52Z</time>
      </trkpt>
      <trkpt lat="46.48218" lon="0.38163">
        <ele>121.11577584594</ele>
        <time>2021-11-18T08:07:53Z</time>
      </trkpt>
      <trkpt lat="46.48218" lon="0.38166">
        <ele>120.89731687959</ele>
        <time>2021-11-18T08:07:55Z</time>
      </trkpt>
      <trkpt lat="46.48219" lon="0.3817">
        <ele>121.04912440479</ele>
        <time>2021-11-18T08:07:57Z</time>
      </trkpt>
      <trkpt lat="46.48219" lon="0.38173">
        <ele>120.87150241714</ele>
        <time>2021-11-18T08:07:59Z</time>
      </trkpt>
      <trkpt lat="46.48219" lon="0.38177">
        <ele>121.22628631163</ele>
        <time>2021-11-18T08:08:01Z</time>
      </trkpt>
      <trkpt lat="46.48218" lon="0.3818">
        <ele>121.15971193463</ele>
        <time>2021-11-18T08:08:03Z</time>
      </trkpt>
      <trkpt lat="46.48218" lon="0.38184">
        <ele>121.22794120852</ele>
        <time>2021-11-18T08:08:05Z</time>
      </trkpt>
      <trkpt lat="46.48219" lon="0.38187">
        <ele>121.25134767499</ele>
        <time>2021-11-18T08:08:08Z</time>
      </trkpt>
      <trkpt lat="46.48219" lon="0.3819">
        <ele>121.38035032991</ele>
        <time>2021-11-18T08:08:10Z</time>
      </trkpt>
      <trkpt lat="46.4822" lon="0.38194">
        <ele>121.52920629177</ele>
        <time>2021-11-18T08:08:12Z</time>
      </trkpt>
      <trkpt lat="46.4822" lon="0.38197">
        <ele>121.33356007002</ele>
        <time>2021-11-18T08:08:14Z</time>
      </trkpt>
      <trkpt lat="46.48221" lon="0.38201">
        <ele>120.9320876915</ele>
        <time>2021-11-18T08:08:16Z</time>
      </trkpt>
      <trkpt lat="46.48221" lon="0.38205">
        <ele>121.10503392015</ele>
        <time>2021-11-18T08:08:18Z</time>
      </trkpt>
      <trkpt lat="46.4822" lon="0.38209">
        <ele>121.09360448271</ele>
        <time>2021-11-18T08:08:20Z</time>
      </trkpt>
      <trkpt lat="46.4822" lon="0.38212">
        <ele>121.26303071808</ele>
        <time>2021-11-18T08:08:23Z</time>
      </trkpt>
      <trkpt lat="46.48221" lon="0.38216">
        <ele>121.25946047064</ele>
        <time>2021-11-18T08:08:25Z</time>
      </trkpt>
      <trkpt lat="46.4822" lon="0.3822">
        <ele>121.33133864775</ele>
        <time>2021-11-18T08:08:27Z</time>
      </trkpt>
      <trkpt lat="46.48221" lon="0.38222">
        <ele>121.38522381987</ele>
        <time>2021-11-18T08:08:28Z</time>
      </trkpt>
      <trkpt lat="46.48219" lon="0.38225">
        <ele>121.51653547212</ele>
        <time>2021-11-18T08:08:29Z</time>
      </trkpt>
      <trkpt lat="46.48219" lon="0.38228">
        <ele>121.28826283477</ele>
        <time>2021-11-18T08:08:30Z</time>
      </trkpt>
      <trkpt lat="46.4822" lon="0.38231">
        <ele>121.29316563625</ele>
        <time>2021-11-18T08:08:32Z</time>
      </trkpt>
      <trkpt lat="46.48221" lon="0.38235">
        <ele>121.28887832444</ele>
        <time>2021-11-18T08:08:34Z</time>
      </trkpt>
      <trkpt lat="46.48221" lon="0.38239">
        <ele>121.02258017659</ele>
        <time>2021-11-18T08:08:36Z</time>
      </trkpt>
      <trkpt lat="46.48222" lon="0.38242">
        <ele>121.44495927542</ele>
        <time>2021-11-18T08:08:38Z</time>
      </trkpt>
      <trkpt lat="46.48222" lon="0.38246">
        <ele>121.16756406892</ele>
        <time>2021-11-18T08:08:40Z</time>
      </trkpt>
      <trkpt lat="46.48223" lon="0.38249">
        <ele>120.90067140199</ele>
        <time>2021-11-18T08:08:42Z</time>
      </trkpt>
      <trkpt lat="46.48224" lon="0.38252">
        <ele>121.2365111243</ele>
        <time>2021-11-18T08:08:44Z</time>
      </trkpt>
      <trkpt lat="46.48224" lon="0.38256">
        <ele>121.09676900972</ele>
        <time>2021-11-18T08:08:46Z</time>
      </trkpt>
      <trkpt lat="46.48224" lon="0.38259">
        <ele>121.13383884262</ele>
        <time>2021-11-18T08:08:48Z</time>
      </trkpt>
      <trkpt lat="46.48224" lon="0.38263">
        <ele>121.34463838767</ele>
        <time>2021-11-18T08:08:50Z</time>
      </trkpt>
      <trkpt lat="46.48225" lon="0.38266">
        <ele>121.06048109755</ele>
        <time>2021-11-18T08:08:52Z</time>
      </trkpt>
      <trkpt lat="46.48225" lon="0.38269">
        <ele>121.07236477174</ele>
        <time>2021-11-18T08:08:54Z</time>
      </trkpt>
      <trkpt lat="46.48226" lon="0.38272">
        <ele>121.35844563041</ele>
        <time>2021-11-18T08:08:56Z</time>
      </trkpt>
      <trkpt lat="46.48227" lon="0.38275">
        <ele>121.10095104482</ele>
        <time>2021-11-18T08:08:58Z</time>
      </trkpt>
      <trkpt lat="46.48227" lon="0.38278">
        <ele>121.195008968</ele>
        <time>2021-11-18T08:09:00Z</time>
      </trkpt>
      <trkpt lat="46.48228" lon="0.38281">
        <ele>121.09833509475</ele>
        <time>2021-11-18T08:09:02Z</time>
      </trkpt>
      <trkpt lat="46.48228" lon="0.38284">
        <ele>121.32072401326</ele>
        <time>2021-11-18T08:09:05Z</time>
      </trkpt>
      <trkpt lat="46.48229" lon="0.38286">
        <ele>121.30317508988</ele>
        <time>2021-11-18T08:09:07Z</time>
      </trkpt>
      <trkpt lat="46.48231" lon="0.38288">
        <ele>121.31453142222</ele>
        <time>2021-11-18T08:09:09Z</time>
      </trkpt>
      <trkpt lat="46.48232" lon="0.38292">
        <ele>121.35987362266</ele>
        <time>2021-11-18T08:09:12Z</time>
      </trkpt>
      <trkpt lat="46.48232" lon="0.38295">
        <ele>121.25430486072</ele>
        <time>2021-11-18T08:09:15Z</time>
      </trkpt>
      <trkpt lat="46.48233" lon="0.38299">
        <ele>121.90453581885</ele>
        <time>2021-11-18T08:09:18Z</time>
      </trkpt>
      <trkpt lat="46.48233" lon="0.38302">
        <ele>122.19830043614</ele>
        <time>2021-11-18T08:09:20Z</time>
      </trkpt>
      <trkpt lat="46.48233" lon="0.38305">
        <ele>121.36616433784</ele>
        <time>2021-11-18T08:09:22Z</time>
      </trkpt>
      <trkpt lat="46.48234" lon="0.38308">
        <ele>121.9782777559</ele>
        <time>2021-11-18T08:09:24Z</time>
      </trkpt>
      <trkpt lat="46.48235" lon="0.38312">
        <ele>121.87922826502</ele>
        <time>2021-11-18T08:09:26Z</time>
      </trkpt>
      <trkpt lat="46.48236" lon="0.38315">
        <ele>121.69751134329</ele>
        <time>2021-11-18T08:09:28Z</time>
      </trkpt>
      <trkpt lat="46.48237" lon="0.38318">
        <ele>121.93604510278</ele>
        <time>2021-11-18T08:09:30Z</time>
      </trkpt>
      <trkpt lat="46.48238" lon="0.38321">
        <ele>122.03518476058</ele>
        <time>2021-11-18T08:09:32Z</time>
      </trkpt>
      <trkpt lat="46.4824" lon="0.38323">
        <ele>121.79743405897</ele>
        <time>2021-11-18T08:09:34Z</time>
      </trkpt>
      <trkpt lat="46.48242" lon="0.38326">
        <ele>122.09406455979</ele>
        <time>2021-11-18T08:09:36Z</time>
      </trkpt>
      <trkpt lat="46.48243" lon="0.38328">
        <ele>122.05954067875</ele>
        <time>2021-11-18T08:09:38Z</time>
      </trkpt>
      <trkpt lat="46.48245" lon="0.38331">
        <ele>122.06638798118</ele>
        <time>2021-11-18T08:09:40Z</time>
      </trkpt>
      <trkpt lat="46.48246" lon="0.38333">
        <ele>121.87327561807</ele>
        <time>2021-11-18T08:09:41Z</time>
      </trkpt>
      <trkpt lat="46.48248" lon="0.38337">
        <ele>121.96531575173</ele>
        <time>2021-11-18T08:09:43Z</time>
      </trkpt>
      <trkpt lat="46.48249" lon="0.3834">
        <ele>121.96447067894</ele>
        <time>2021-11-18T08:09:45Z</time>
      </trkpt>
      <trkpt lat="46.48251" lon="0.38343">
        <ele>121.64074229635</ele>
        <time>2021-11-18T08:09:47Z</time>
      </trkpt>
      <trkpt lat="46.48251" lon="0.38347">
        <ele>121.93157491647</ele>
        <time>2021-11-18T08:09:49Z</time>
      </trkpt>
      <trkpt lat="46.48253" lon="0.3835">
        <ele>121.95155526139</ele>
        <time>2021-11-18T08:09:51Z</time>
      </trkpt>
      <trkpt lat="46.48254" lon="0.38353">
        <ele>121.82922931109</ele>
        <time>2021-11-18T08:09:53Z</time>
      </trkpt>
      <trkpt lat="46.48256" lon="0.38356">
        <ele>121.65172795113</ele>
        <time>2021-11-18T08:09:56Z</time>
      </trkpt>
      <trkpt lat="46.48257" lon="0.38359">
        <ele>121.70755027514</ele>
        <time>2021-11-18T08:09:58Z</time>
      </trkpt>
      <trkpt lat="46.48259" lon="0.38361">
        <ele>121.71457130555</ele>
        <time>2021-11-18T08:10:00Z</time>
      </trkpt>
      <trkpt lat="46.48261" lon="0.38364">
        <ele>121.55589048937</ele>
        <time>2021-11-18T08:10:02Z</time>
      </trkpt>
      <trkpt lat="46.48261" lon="0.38366">
        <ele>121.70056140609</ele>
        <time>2021-11-18T08:10:04Z</time>
      </trkpt>
      <trkpt lat="46.48263" lon="0.3837">
        <ele>121.55932192877</ele>
        <time>2021-11-18T08:10:06Z</time>
      </trkpt>
      <trkpt lat="46.48264" lon="0.38374">
        <ele>121.27458277903</ele>
        <time>2021-11-18T08:10:08Z</time>
      </trkpt>
      <trkpt lat="46.48264" lon="0.38379">
        <ele>121.48262861464</ele>
        <time>2021-11-18T08:10:10Z</time>
      </trkpt>
      <trkpt lat="46.48265" lon="0.38381">
        <ele>121.57374148071</ele>
        <time>2021-11-18T08:10:12Z</time>
      </trkpt>
      <trkpt lat="46.48267" lon="0.38386">
        <ele>121.32770628948</ele>
        <time>2021-11-18T08:10:14Z</time>
      </trkpt>
      <trkpt lat="46.48267" lon="0.38389">
        <ele>121.57120931707</ele>
        <time>2021-11-18T08:10:15Z</time>
      </trkpt>
      <trkpt lat="46.48268" lon="0.38393">
        <ele>121.2505113529</ele>
        <time>2021-11-18T08:10:17Z</time>
      </trkpt>
      <trkpt lat="46.48269" lon="0.38396">
        <ele>121.58155965433</ele>
        <time>2021-11-18T08:10:19Z</time>
      </trkpt>
      <trkpt lat="46.4827" lon="0.38399">
        <ele>121.0988859022</ele>
        <time>2021-11-18T08:10:22Z</time>
      </trkpt>
      <trkpt lat="46.48271" lon="0.38402">
        <ele>121.15858893655</ele>
        <time>2021-11-18T08:10:24Z</time>
      </trkpt>
      <trkpt lat="46.48272" lon="0.38405">
        <ele>121.23678788729</ele>
        <time>2021-11-18T08:10:26Z</time>
      </trkpt>
      <trkpt lat="46.48273" lon="0.38409">
        <ele>121.37659049965</ele>
        <time>2021-11-18T08:10:29Z</time>
      </trkpt>
      <trkpt lat="46.48274" lon="0.38413">
        <ele>121.3186906185</ele>
        <time>2021-11-18T08:10:32Z</time>
      </trkpt>
      <trkpt lat="46.48274" lon="0.38416">
        <ele>120.95329993684</ele>
        <time>2021-11-18T08:10:34Z</time>
      </trkpt>
      <trkpt lat="46.48275" lon="0.3842">
        <ele>121.19206530042</ele>
        <time>2021-11-18T08:10:36Z</time>
      </trkpt>
      <trkpt lat="46.48277" lon="0.38423">
        <ele>121.09937218949</ele>
        <time>2021-11-18T08:10:38Z</time>
      </trkpt>
      <trkpt lat="46.48278" lon="0.38426">
        <ele>120.91786800791</ele>
        <time>2021-11-18T08:10:41Z</time>
      </trkpt>
      <trkpt lat="46.48279" lon="0.3843">
        <ele>121.14825327601</ele>
        <time>2021-11-18T08:10:43Z</time>
      </trkpt>
      <trkpt lat="46.4828" lon="0.38433">
        <ele>120.93733581621</ele>
        <time>2021-11-18T08:10:45Z</time>
      </trkpt>
      <trkpt lat="46.48281" lon="0.38438">
        <ele>121.0786757553</ele>
        <time>2021-11-18T08:10:47Z</time>
      </trkpt>
      <trkpt lat="46.48282" lon="0.38441">
        <ele>120.92716168053</ele>
        <time>2021-11-18T08:10:49Z</time>
      </trkpt>
      <trkpt lat="46.48283" lon="0.38445">
        <ele>120.70532639697</ele>
        <time>2021-11-18T08:10:51Z</time>
      </trkpt>
      <trkpt lat="46.48284" lon="0.3845">
        <ele>120.68378113676</ele>
        <time>2021-11-18T08:10:53Z</time>
      </trkpt>
      <trkpt lat="46.48285" lon="0.38454">
        <ele>120.75945822429</ele>
        <time>2021-11-18T08:10:55Z</time>
      </trkpt>
      <trkpt lat="46.48285" lon="0.38458">
        <ele>120.92306472361</ele>
        <time>2021-11-18T08:10:57Z</time>
      </trkpt>
      <trkpt lat="46.48286" lon="0.38462">
        <ele>120.74372160994</ele>
        <time>2021-11-18T08:10:59Z</time>
      </trkpt>
      <trkpt lat="46.48288" lon="0.38464">
        <ele>120.64173434582</ele>
        <time>2021-11-18T08:11:01Z</time>
      </trkpt>
      <trkpt lat="46.48288" lon="0.38468">
        <ele>120.89135742746</ele>
        <time>2021-11-18T08:11:03Z</time>
      </trkpt>
      <trkpt lat="46.48289" lon="0.38473">
        <ele>120.61004481371</ele>
        <time>2021-11-18T08:11:05Z</time>
      </trkpt>
      <trkpt lat="46.48289" lon="0.38476">
        <ele>120.39945946168</ele>
        <time>2021-11-18T08:11:07Z</time>
      </trkpt>
      <trkpt lat="46.4829" lon="0.38479">
        <ele>120.57328674756</ele>
        <time>2021-11-18T08:11:09Z</time>
      </trkpt>
      <trkpt lat="46.48291" lon="0.38483">
        <ele>120.60003211256</ele>
        <time>2021-11-18T08:11:11Z</time>
      </trkpt>
      <trkpt lat="46.48291" lon="0.38486">
        <ele>120.32542501204</ele>
        <time>2021-11-18T08:11:13Z</time>
      </trkpt>
      <trkpt lat="46.48292" lon="0.38489">
        <ele>120.64441358205</ele>
        <time>2021-11-18T08:11:15Z</time>
      </trkpt>
      <trkpt lat="46.48292" lon="0.38493">
        <ele>120.43879640847</ele>
        <time>2021-11-18T08:11:17Z</time>
      </trkpt>
      <trkpt lat="46.48293" lon="0.38497">
        <ele>120.33255364466</ele>
        <time>2021-11-18T08:11:20Z</time>
      </trkpt>
      <trkpt lat="46.48294" lon="0.38501">
        <ele>120.62897175923</ele>
        <time>2021-11-18T08:11:22Z</time>
      </trkpt>
      <trkpt lat="46.48294" lon="0.38505">
        <ele>120.63795593474</ele>
        <time>2021-11-18T08:11:25Z</time>
      </trkpt>
      <trkpt lat="46.48295" lon="0.38508">
        <ele>120.52261333074</ele>
        <time>2021-11-18T08:11:26Z</time>
      </trkpt>
      <trkpt lat="46.48295" lon="0.38511">
        <ele>120.75973857194</ele>
        <time>2021-11-18T08:11:28Z</time>
      </trkpt>
      <trkpt lat="46.48296" lon="0.38515">
        <ele>120.78534066863</ele>
        <time>2021-11-18T08:11:30Z</time>
      </trkpt>
      <trkpt lat="46.48296" lon="0.38518">
        <ele>120.48521824088</ele>
        <time>2021-11-18T08:11:32Z</time>
      </trkpt>
      <trkpt lat="46.48297" lon="0.38521">
        <ele>120.22256577294</ele>
        <time>2021-11-18T08:11:34Z</time>
      </trkpt>
      <trkpt lat="46.48297" lon="0.38525">
        <ele>120.15090959985</ele>
        <time>2021-11-18T08:11:36Z</time>
      </trkpt>
      <trkpt lat="46.48298" lon="0.38529">
        <ele>120.30998186953</ele>
        <time>2021-11-18T08:11:38Z</time>
      </trkpt>
      <trkpt lat="46.48298" lon="0.38533">
        <ele>120.06424850225</ele>
        <time>2021-11-18T08:11:40Z</time>
      </trkpt>
      <trkpt lat="46.48299" lon="0.38537">
        <ele>119.80320243072</ele>
        <time>2021-11-18T08:11:42Z</time>
      </trkpt>
      <trkpt lat="46.48299" lon="0.3854">
        <ele>119.95443193242</ele>
        <time>2021-11-18T08:11:44Z</time>
      </trkpt>
      <trkpt lat="46.48299" lon="0.38543">
        <ele>119.90208738018</ele>
        <time>2021-11-18T08:11:46Z</time>
      </trkpt>
      <trkpt lat="46.483" lon="0.38547">
        <ele>119.93986951374</ele>
        <time>2021-11-18T08:11:48Z</time>
      </trkpt>
      <trkpt lat="46.483" lon="0.3855">
        <ele>120.01951571368</ele>
        <time>2021-11-18T08:11:50Z</time>
      </trkpt>
      <trkpt lat="46.483" lon="0.38553">
        <ele>119.85951970704</ele>
        <time>2021-11-18T08:11:52Z</time>
      </trkpt>
      <trkpt lat="46.48301" lon="0.38557">
        <ele>119.7829936957</ele>
        <time>2021-11-18T08:11:54Z</time>
      </trkpt>
      <trkpt lat="46.48301" lon="0.38561">
        <ele>119.72705778945</ele>
        <time>2021-11-18T08:11:56Z</time>
      </trkpt>
      <trkpt lat="46.48301" lon="0.38565">
        <ele>119.74929822888</ele>
        <time>2021-11-18T08:11:58Z</time>
      </trkpt>
      <trkpt lat="46.48302" lon="0.38567">
        <ele>119.55748034548</ele>
        <time>2021-11-18T08:12:00Z</time>
      </trkpt>
      <trkpt lat="46.48303" lon="0.38571">
        <ele>119.89038644079</ele>
        <time>2021-11-18T08:12:02Z</time>
      </trkpt>
      <trkpt lat="46.48303" lon="0.38573">
        <ele>119.19386824034</ele>
        <time>2021-11-18T08:12:04Z</time>
      </trkpt>
      <trkpt lat="46.48303" lon="0.38577">
        <ele>119.71898889635</ele>
        <time>2021-11-18T08:12:06Z</time>
      </trkpt>
      <trkpt lat="46.48303" lon="0.38581">
        <ele>119.33879799116</ele>
        <time>2021-11-18T08:12:09Z</time>
      </trkpt>
      <trkpt lat="46.48303" lon="0.38584">
        <ele>119.25170479715</ele>
        <time>2021-11-18T08:12:11Z</time>
      </trkpt>
      <trkpt lat="46.48303" lon="0.38587">
        <ele>119.16081671696</ele>
        <time>2021-11-18T08:12:13Z</time>
      </trkpt>
      <trkpt lat="46.48304" lon="0.38591">
        <ele>119.0223511029</ele>
        <time>2021-11-18T08:12:15Z</time>
      </trkpt>
      <trkpt lat="46.48304" lon="0.38594">
        <ele>119.11650617141</ele>
        <time>2021-11-18T08:12:17Z</time>
      </trkpt>
      <trkpt lat="46.48305" lon="0.38598">
        <ele>118.74518958293</ele>
        <time>2021-11-18T08:12:19Z</time>
      </trkpt>
      <trkpt lat="46.48307" lon="0.38601">
        <ele>119.05824250914</ele>
        <time>2021-11-18T08:12:22Z</time>
      </trkpt>
      <trkpt lat="46.48307" lon="0.38605">
        <ele>118.97796099447</ele>
        <time>2021-11-18T08:12:24Z</time>
      </trkpt>
      <trkpt lat="46.48308" lon="0.38608">
        <ele>118.83501714002</ele>
        <time>2021-11-18T08:12:26Z</time>
      </trkpt>
      <trkpt lat="46.48309" lon="0.38612">
        <ele>118.87518088147</ele>
        <time>2021-11-18T08:12:28Z</time>
      </trkpt>
      <trkpt lat="46.48308" lon="0.38615">
        <ele>118.93277406599</ele>
        <time>2021-11-18T08:12:30Z</time>
      </trkpt>
      <trkpt lat="46.48308" lon="0.38619">
        <ele>118.92044340912</ele>
        <time>2021-11-18T08:12:32Z</time>
      </trkpt>
      <trkpt lat="46.48308" lon="0.38622">
        <ele>118.92702500708</ele>
        <time>2021-11-18T08:12:34Z</time>
      </trkpt>
      <trkpt lat="46.48307" lon="0.38625">
        <ele>118.92258913629</ele>
        <time>2021-11-18T08:12:35Z</time>
      </trkpt>
      <trkpt lat="46.48307" lon="0.38628">
        <ele>118.73384912778</ele>
        <time>2021-11-18T08:12:36Z</time>
      </trkpt>
      <trkpt lat="46.48307" lon="0.38632">
        <ele>119.0690290248</ele>
        <time>2021-11-18T08:12:38Z</time>
      </trkpt>
      <trkpt lat="46.48307" lon="0.38636">
        <ele>118.63428363949</ele>
        <time>2021-11-18T08:12:40Z</time>
      </trkpt>
      <trkpt lat="46.48308" lon="0.3864">
        <ele>118.83550540917</ele>
        <time>2021-11-18T08:12:42Z</time>
      </trkpt>
      <trkpt lat="46.48308" lon="0.38644">
        <ele>118.52666230407</ele>
        <time>2021-11-18T08:12:44Z</time>
      </trkpt>
      <trkpt lat="46.48309" lon="0.38647">
        <ele>118.33848715667</ele>
        <time>2021-11-18T08:12:46Z</time>
      </trkpt>
      <trkpt lat="46.4831" lon="0.3865">
        <ele>118.69415895455</ele>
        <time>2021-11-18T08:12:48Z</time>
      </trkpt>
      <trkpt lat="46.48311" lon="0.38653">
        <ele>118.90699325409</ele>
        <time>2021-11-18T08:12:51Z</time>
      </trkpt>
      <trkpt lat="46.48312" lon="0.38656">
        <ele>118.36012366973</ele>
        <time>2021-11-18T08:12:53Z</time>
      </trkpt>
      <trkpt lat="46.48313" lon="0.38659">
        <ele>118.59961073939</ele>
        <time>2021-11-18T08:12:55Z</time>
      </trkpt>
      <trkpt lat="46.48313" lon="0.38662">
        <ele>118.33722346183</ele>
        <time>2021-11-18T08:12:57Z</time>
      </trkpt>
      <trkpt lat="46.48314" lon="0.38666">
        <ele>118.11054145917</ele>
        <time>2021-11-18T08:12:59Z</time>
      </trkpt>
      <trkpt lat="46.48314" lon="0.38669">
        <ele>117.84310820512</ele>
        <time>2021-11-18T08:13:01Z</time>
      </trkpt>
      <trkpt lat="46.48314" lon="0.38673">
        <ele>117.84556816705</ele>
        <time>2021-11-18T08:13:03Z</time>
      </trkpt>
      <trkpt lat="46.48313" lon="0.38676">
        <ele>117.54169656988</ele>
        <time>2021-11-18T08:13:05Z</time>
      </trkpt>
      <trkpt lat="46.48313" lon="0.38679">
        <ele>117.82161264215</ele>
        <time>2021-11-18T08:13:07Z</time>
      </trkpt>
      <trkpt lat="46.48313" lon="0.38682">
        <ele>117.61338406522</ele>
        <time>2021-11-18T08:13:09Z</time>
      </trkpt>
      <trkpt lat="46.48315" lon="0.38686">
        <ele>117.83516081143</ele>
        <time>2021-11-18T08:13:11Z</time>
      </trkpt>
      <trkpt lat="46.48315" lon="0.38689">
        <ele>117.54789162055</ele>
        <time>2021-11-18T08:13:13Z</time>
      </trkpt>
      <trkpt lat="46.48316" lon="0.38693">
        <ele>117.17230306566</ele>
        <time>2021-11-18T08:13:15Z</time>
      </trkpt>
      <trkpt lat="46.48315" lon="0.38696">
        <ele>117.31139289308</ele>
        <time>2021-11-18T08:13:17Z</time>
      </trkpt>
      <trkpt lat="46.48316" lon="0.387">
        <ele>117.05340994243</ele>
        <time>2021-11-18T08:13:19Z</time>
      </trkpt>
      <trkpt lat="46.48315" lon="0.38703">
        <ele>116.9848761037</ele>
        <time>2021-11-18T08:13:21Z</time>
      </trkpt>
      <trkpt lat="46.48315" lon="0.38707">
        <ele>116.70882266108</ele>
        <time>2021-11-18T08:13:23Z</time>
      </trkpt>
      <trkpt lat="46.48316" lon="0.3871">
        <ele>116.82949820533</ele>
        <time>2021-11-18T08:13:25Z</time>
      </trkpt>
      <trkpt lat="46.48316" lon="0.38714">
        <ele>116.58732629102</ele>
        <time>2021-11-18T08:13:27Z</time>
      </trkpt>
      <trkpt lat="46.48316" lon="0.38718">
        <ele>116.40018349513</ele>
        <time>2021-11-18T08:13:29Z</time>
      </trkpt>
      <trkpt lat="46.48317" lon="0.38721">
        <ele>116.24246331118</ele>
        <time>2021-11-18T08:13:31Z</time>
      </trkpt>
      <trkpt lat="46.48318" lon="0.38725">
        <ele>116.00733510964</ele>
        <time>2021-11-18T08:13:33Z</time>
      </trkpt>
      <trkpt lat="46.48318" lon="0.38729">
        <ele>115.85374918394</ele>
        <time>2021-11-18T08:13:35Z</time>
      </trkpt>
      <trkpt lat="46.48318" lon="0.38733">
        <ele>115.64063062239</ele>
        <time>2021-11-18T08:13:37Z</time>
      </trkpt>
      <trkpt lat="46.48319" lon="0.38736">
        <ele>115.49755233433</ele>
        <time>2021-11-18T08:13:39Z</time>
      </trkpt>
      <trkpt lat="46.48319" lon="0.3874">
        <ele>115.07705028076</ele>
        <time>2021-11-18T08:13:41Z</time>
      </trkpt>
      <trkpt lat="46.48318" lon="0.38743">
        <ele>114.95917263813</ele>
        <time>2021-11-18T08:13:43Z</time>
      </trkpt>
      <trkpt lat="46.48317" lon="0.38747">
        <ele>115.19675015006</ele>
        <time>2021-11-18T08:13:45Z</time>
      </trkpt>
      <trkpt lat="46.48316" lon="0.3875">
        <ele>114.97324030381</ele>
        <time>2021-11-18T08:13:47Z</time>
      </trkpt>
      <trkpt lat="46.48316" lon="0.38754">
        <ele>115.02071006969</ele>
        <time>2021-11-18T08:13:49Z</time>
      </trkpt>
      <trkpt lat="46.48315" lon="0.38757">
        <ele>114.87806231622</ele>
        <time>2021-11-18T08:13:51Z</time>
      </trkpt>
      <trkpt lat="46.48315" lon="0.3876">
        <ele>114.85081384331</ele>
        <time>2021-11-18T08:13:53Z</time>
      </trkpt>
      <trkpt lat="46.48315" lon="0.38763">
        <ele>115.03929875698</ele>
        <time>2021-11-18T08:13:55Z</time>
      </trkpt>
      <trkpt lat="46.48314" lon="0.38766">
        <ele>115.01356271841</ele>
        <time>2021-11-18T08:13:57Z</time>
      </trkpt>
      <trkpt lat="46.48315" lon="0.3877">
        <ele>115.23571984377</ele>
        <time>2021-11-18T08:13:59Z</time>
      </trkpt>
      <trkpt lat="46.48314" lon="0.38773">
        <ele>115.70490388665</ele>
        <time>2021-11-18T08:14:02Z</time>
      </trkpt>
      <trkpt lat="46.48314" lon="0.38777">
        <ele>115.87992856</ele>
        <time>2021-11-18T08:14:04Z</time>
      </trkpt>
      <trkpt lat="46.48314" lon="0.38781">
        <ele>116.1697732592</ele>
        <time>2021-11-18T08:14:06Z</time>
      </trkpt>
      <trkpt lat="46.48315" lon="0.38785">
        <ele>116.25337875076</ele>
        <time>2021-11-18T08:14:08Z</time>
      </trkpt>
      <trkpt lat="46.48316" lon="0.38788">
        <ele>116.10425999202</ele>
        <time>2021-11-18T08:14:10Z</time>
      </trkpt>
      <trkpt lat="46.48317" lon="0.38792">
        <ele>116.78050870914</ele>
        <time>2021-11-18T08:14:12Z</time>
      </trkpt>
      <trkpt lat="46.48316" lon="0.38796">
        <ele>116.73092524055</ele>
        <time>2021-11-18T08:14:14Z</time>
      </trkpt>
      <trkpt lat="46.48316" lon="0.388">
        <ele>116.81750529259</ele>
        <time>2021-11-18T08:14:16Z</time>
      </trkpt>
      <trkpt lat="46.48316" lon="0.38803">
        <ele>116.83937711921</ele>
        <time>2021-11-18T08:14:18Z</time>
      </trkpt>
      <trkpt lat="46.48317" lon="0.38807">
        <ele>116.93940374069</ele>
        <time>2021-11-18T08:14:20Z</time>
      </trkpt>
      <trkpt lat="46.48319" lon="0.3881">
        <ele>117.10564061999</ele>
        <time>2021-11-18T08:14:22Z</time>
      </trkpt>
      <trkpt lat="46.48321" lon="0.38812">
        <ele>117.44341573957</ele>
        <time>2021-11-18T08:14:24Z</time>
      </trkpt>
      <trkpt lat="46.48322" lon="0.38815">
        <ele>117.27424999233</ele>
        <time>2021-11-18T08:14:26Z</time>
      </trkpt>
      <trkpt lat="46.48323" lon="0.38818">
        <ele>117.27922621369</ele>
        <time>2021-11-18T08:14:28Z</time>
      </trkpt>
      <trkpt lat="46.48323" lon="0.38821">
        <ele>117.44954431243</ele>
        <time>2021-11-18T08:14:30Z</time>
      </trkpt>
      <trkpt lat="46.48324" lon="0.38825">
        <ele>117.91462881118</ele>
        <time>2021-11-18T08:14:32Z</time>
      </trkpt>
      <trkpt lat="46.48325" lon="0.38827">
        <ele>117.4568331521</ele>
        <time>2021-11-18T08:14:34Z</time>
      </trkpt>
      <trkpt lat="46.48326" lon="0.38831">
        <ele>117.79144017957</ele>
        <time>2021-11-18T08:14:36Z</time>
      </trkpt>
      <trkpt lat="46.48327" lon="0.38835">
        <ele>118.15915079881</ele>
        <time>2021-11-18T08:14:38Z</time>
      </trkpt>
      <trkpt lat="46.48328" lon="0.38838">
        <ele>117.94283284154</ele>
        <time>2021-11-18T08:14:40Z</time>
      </trkpt>
      <trkpt lat="46.4833" lon="0.3884">
        <ele>118.06281457935</ele>
        <time>2021-11-18T08:14:42Z</time>
      </trkpt>
      <trkpt lat="46.48331" lon="0.38843">
        <ele>117.74385367334</ele>
        <time>2021-11-18T08:14:44Z</time>
      </trkpt>
      <trkpt lat="46.48332" lon="0.38846">
        <ele>118.03959992249</ele>
        <time>2021-11-18T08:14:46Z</time>
      </trkpt>
      <trkpt lat="46.48333" lon="0.38849">
        <ele>118.38195679057</ele>
        <time>2021-11-18T08:14:48Z</time>
      </trkpt>
      <trkpt lat="46.48335" lon="0.38851">
        <ele>118.0601784531</ele>
        <time>2021-11-18T08:14:50Z</time>
      </trkpt>
      <trkpt lat="46.48335" lon="0.38855">
        <ele>118.098911996</ele>
        <time>2021-11-18T08:14:52Z</time>
      </trkpt>
      <trkpt lat="46.48337" lon="0.38858">
        <ele>118.30030269641</ele>
        <time>2021-11-18T08:14:54Z</time>
      </trkpt>
      <trkpt lat="46.48339" lon="0.3886">
        <ele>118.0787117416</ele>
        <time>2021-11-18T08:14:56Z</time>
      </trkpt>
      <trkpt lat="46.4834" lon="0.38864">
        <ele>117.8972144397</ele>
        <time>2021-11-18T08:14:58Z</time>
      </trkpt>
      <trkpt lat="46.4834" lon="0.38867">
        <ele>118.17759023607</ele>
        <time>2021-11-18T08:15:00Z</time>
      </trkpt>
      <trkpt lat="46.48341" lon="0.3887">
        <ele>118.30034661852</ele>
        <time>2021-11-18T08:15:02Z</time>
      </trkpt>
      <trkpt lat="46.48343" lon="0.38872">
        <ele>118.29417578597</ele>
        <time>2021-11-18T08:15:04Z</time>
      </trkpt>
      <trkpt lat="46.48344" lon="0.38875">
        <ele>117.98963983543</ele>
        <time>2021-11-18T08:15:06Z</time>
      </trkpt>
      <trkpt lat="46.48345" lon="0.38879">
        <ele>118.29792185593</ele>
        <time>2021-11-18T08:15:08Z</time>
      </trkpt>
      <trkpt lat="46.48346" lon="0.38881">
        <ele>118.28452146333</ele>
        <time>2021-11-18T08:15:10Z</time>
      </trkpt>
      <trkpt lat="46.48348" lon="0.38885">
        <ele>118.06378684752</ele>
        <time>2021-11-18T08:15:12Z</time>
      </trkpt>
      <trkpt lat="46.48349" lon="0.38888">
        <ele>118.51892864704</ele>
        <time>2021-11-18T08:15:14Z</time>
      </trkpt>
      <trkpt lat="46.4835" lon="0.38891">
        <ele>118.3412144687</ele>
        <time>2021-11-18T08:15:16Z</time>
      </trkpt>
      <trkpt lat="46.48351" lon="0.38894">
        <ele>118.46275796741</ele>
        <time>2021-11-18T08:15:18Z</time>
      </trkpt>
      <trkpt lat="46.48352" lon="0.38896">
        <ele>118.37533193361</ele>
        <time>2021-11-18T08:15:20Z</time>
      </trkpt>
      <trkpt lat="46.48353" lon="0.38899">
        <ele>118.29503746238</ele>
        <time>2021-11-18T08:15:22Z</time>
      </trkpt>
      <trkpt lat="46.48355" lon="0.38902">
        <ele>118.28715611249</ele>
        <time>2021-11-18T08:15:24Z</time>
      </trkpt>
      <trkpt lat="46.48356" lon="0.38905">
        <ele>118.25102210511</ele>
        <time>2021-11-18T08:15:26Z</time>
      </trkpt>
      <trkpt lat="46.48358" lon="0.38906">
        <ele>118.1098832693</ele>
        <time>2021-11-18T08:15:28Z</time>
      </trkpt>
      <trkpt lat="46.48359" lon="0.3891">
        <ele>118.16214482021</ele>
        <time>2021-11-18T08:15:30Z</time>
      </trkpt>
      <trkpt lat="46.4836" lon="0.38913">
        <ele>117.77289025392</ele>
        <time>2021-11-18T08:15:32Z</time>
      </trkpt>
      <trkpt lat="46.48361" lon="0.38916">
        <ele>118.08579048514</ele>
        <time>2021-11-18T08:15:34Z</time>
      </trkpt>
      <trkpt lat="46.48362" lon="0.38917">
        <ele>118.0829674257</ele>
        <time>2021-11-18T08:15:36Z</time>
      </trkpt>
      <trkpt lat="46.48363" lon="0.3892">
        <ele>117.90061295591</ele>
        <time>2021-11-18T08:15:38Z</time>
      </trkpt>
      <trkpt lat="46.48365" lon="0.38923">
        <ele>118.16520422697</ele>
        <time>2021-11-18T08:15:40Z</time>
      </trkpt>
      <trkpt lat="46.48366" lon="0.38927">
        <ele>117.69771473482</ele>
        <time>2021-11-18T08:15:45Z</time>
      </trkpt>
      <trkpt lat="46.48368" lon="0.38928">
        <ele>117.80257119983</ele>
        <time>2021-11-18T08:15:47Z</time>
      </trkpt>
      <trkpt lat="46.48368" lon="0.3893">
        <ele>117.69423551951</ele>
        <time>2021-11-18T08:15:49Z</time>
      </trkpt>
      <trkpt lat="46.4837" lon="0.38935">
        <ele>117.90770584065</ele>
        <time>2021-11-18T08:15:51Z</time>
      </trkpt>
      <trkpt lat="46.48371" lon="0.38937">
        <ele>118.00130494777</ele>
        <time>2021-11-18T08:15:53Z</time>
      </trkpt>
      <trkpt lat="46.48372" lon="0.3894">
        <ele>118.01024527289</ele>
        <time>2021-11-18T08:15:55Z</time>
      </trkpt>
      <trkpt lat="46.48374" lon="0.38943">
        <ele>117.82970743626</ele>
        <time>2021-11-18T08:15:58Z</time>
      </trkpt>
      <trkpt lat="46.48375" lon="0.38945">
        <ele>117.91418900061</ele>
        <time>2021-11-18T08:16:00Z</time>
      </trkpt>
      <trkpt lat="46.48376" lon="0.38948">
        <ele>117.82644738629</ele>
        <time>2021-11-18T08:16:03Z</time>
      </trkpt>
      <trkpt lat="46.48379" lon="0.38951">
        <ele>117.67654239759</ele>
        <time>2021-11-18T08:16:06Z</time>
      </trkpt>
      <trkpt lat="46.48381" lon="0.38953">
        <ele>117.74640675541</ele>
        <time>2021-11-18T08:16:08Z</time>
      </trkpt>
      <trkpt lat="46.48382" lon="0.38955">
        <ele>117.79383648187</ele>
        <time>2021-11-18T08:16:10Z</time>
      </trkpt>
      <trkpt lat="46.48384" lon="0.38958">
        <ele>117.55842071585</ele>
        <time>2021-11-18T08:16:12Z</time>
      </trkpt>
      <trkpt lat="46.48384" lon="0.38961">
        <ele>117.52942509204</ele>
        <time>2021-11-18T08:16:14Z</time>
      </trkpt>
      <trkpt lat="46.48385" lon="0.38964">
        <ele>117.53655437659</ele>
        <time>2021-11-18T08:16:17Z</time>
      </trkpt>
      <trkpt lat="46.48386" lon="0.38967">
        <ele>117.17296027858</ele>
        <time>2021-11-18T08:16:21Z</time>
      </trkpt>
      <trkpt lat="46.48387" lon="0.3897">
        <ele>117.39581939206</ele>
        <time>2021-11-18T08:16:26Z</time>
      </trkpt>
      <trkpt lat="46.48387" lon="0.38974">
        <ele>117.1282191975</ele>
        <time>2021-11-18T08:16:47Z</time>
      </trkpt>
      <trkpt lat="46.48388" lon="0.38973">
        <ele>117.05740122125</ele>
        <time>2021-11-18T08:17:43Z</time>
      </trkpt>
      <trkpt lat="46.48388" lon="0.38976">
        <ele>116.99654199556</ele>
        <time>2021-11-18T08:18:31Z</time>
      </trkpt>
      <trkpt lat="46.48387" lon="0.38978">
        <ele>116.72325359005</ele>
        <time>2021-11-18T08:18:45Z</time>
      </trkpt>
      <trkpt lat="46.48388" lon="0.38981">
        <ele>117.03757636808</ele>
        <time>2021-11-18T08:18:49Z</time>
      </trkpt>
      <trkpt lat="46.48391" lon="0.38981">
        <ele>116.91916786227</ele>
        <time>2021-11-18T08:19:15Z</time>
      </trkpt>
      <trkpt lat="46.48389" lon="0.38983">
        <ele>116.81258630101</ele>
        <time>2021-11-18T08:19:23Z</time>
      </trkpt>
      <trkpt lat="46.48391" lon="0.38986">
        <ele>115.86312309373</ele>
        <time>2021-11-18T08:19:28Z</time>
      </trkpt>
      <trkpt lat="46.48392" lon="0.38988">
        <ele>116.11644334346</ele>
        <time>2021-11-18T08:19:31Z</time>
      </trkpt>
      <trkpt lat="46.48394" lon="0.3899">
        <ele>116.09265795536</ele>
        <time>2021-11-18T08:19:35Z</time>
      </trkpt>
      <trkpt lat="46.48396" lon="0.38993">
        <ele>116.81108371262</ele>
        <time>2021-11-18T08:19:38Z</time>
      </trkpt>
      <trkpt lat="46.48398" lon="0.38995">
        <ele>116.5684549734</ele>
        <time>2021-11-18T08:19:41Z</time>
      </trkpt>
      <trkpt lat="46.484" lon="0.38998">
        <ele>116.59308220539</ele>
        <time>2021-11-18T08:19:44Z</time>
      </trkpt>
      <trkpt lat="46.48402" lon="0.39001">
        <ele>116.85050065629</ele>
        <time>2021-11-18T08:19:47Z</time>
      </trkpt>
      <trkpt lat="46.48403" lon="0.39004">
        <ele>116.71421519108</ele>
        <time>2021-11-18T08:19:49Z</time>
      </trkpt>
      <trkpt lat="46.48405" lon="0.39006">
        <ele>116.89586989209</ele>
        <time>2021-11-18T08:19:51Z</time>
      </trkpt>
      <trkpt lat="46.48407" lon="0.39008">
        <ele>116.76080089156</ele>
        <time>2021-11-18T08:19:53Z</time>
      </trkpt>
      <trkpt lat="46.48409" lon="0.3901">
        <ele>117.07890327275</ele>
        <time>2021-11-18T08:19:55Z</time>
      </trkpt>
      <trkpt lat="46.4841" lon="0.39012">
        <ele>116.80155213084</ele>
        <time>2021-11-18T08:19:57Z</time>
      </trkpt>
      <trkpt lat="46.48412" lon="0.39014">
        <ele>116.8324191533</ele>
        <time>2021-11-18T08:19:59Z</time>
      </trkpt>
      <trkpt lat="46.48413" lon="0.39016">
        <ele>117.10778276995</ele>
        <time>2021-11-18T08:20:01Z</time>
      </trkpt>
      <trkpt lat="46.48415" lon="0.39018">
        <ele>116.53755545244</ele>
        <time>2021-11-18T08:20:03Z</time>
      </trkpt>
      <trkpt lat="46.48416" lon="0.3902">
        <ele>117.30840474367</ele>
        <time>2021-11-18T08:20:05Z</time>
      </trkpt>
      <trkpt lat="46.48418" lon="0.39022">
        <ele>116.82780608255</ele>
        <time>2021-11-18T08:20:07Z</time>
      </trkpt>
      <trkpt lat="46.4842" lon="0.39024">
        <ele>116.96133393049</ele>
        <time>2021-11-18T08:20:09Z</time>
      </trkpt>
      <trkpt lat="46.48422" lon="0.39027">
        <ele>117.16639056336</ele>
        <time>2021-11-18T08:20:11Z</time>
      </trkpt>
      <trkpt lat="46.48423" lon="0.39029">
        <ele>117.15727064107</ele>
        <time>2021-11-18T08:20:13Z</time>
      </trkpt>
      <trkpt lat="46.48425" lon="0.39031">
        <ele>116.85371620301</ele>
        <time>2021-11-18T08:20:15Z</time>
      </trkpt>
      <trkpt lat="46.48427" lon="0.39033">
        <ele>117.35266396031</ele>
        <time>2021-11-18T08:20:17Z</time>
      </trkpt>
      <trkpt lat="46.48428" lon="0.39035">
        <ele>117.09731437452</ele>
        <time>2021-11-18T08:20:19Z</time>
      </trkpt>
      <trkpt lat="46.4843" lon="0.39038">
        <ele>116.88123846706</ele>
        <time>2021-11-18T08:20:21Z</time>
      </trkpt>
      <trkpt lat="46.48432" lon="0.3904">
        <ele>117.12279710732</ele>
        <time>2021-11-18T08:20:23Z</time>
      </trkpt>
      <trkpt lat="46.48433" lon="0.39042">
        <ele>116.79759195354</ele>
        <time>2021-11-18T08:20:25Z</time>
      </trkpt>
      <trkpt lat="46.48435" lon="0.39044">
        <ele>116.90407310985</ele>
        <time>2021-11-18T08:20:27Z</time>
      </trkpt>
      <trkpt lat="46.48437" lon="0.39046">
        <ele>116.9607117977</ele>
        <time>2021-11-18T08:20:29Z</time>
      </trkpt>
      <trkpt lat="46.48439" lon="0.39048">
        <ele>117.51831982937</ele>
        <time>2021-11-18T08:20:31Z</time>
      </trkpt>
      <trkpt lat="46.48441" lon="0.3905">
        <ele>116.98650525324</ele>
        <time>2021-11-18T08:20:33Z</time>
      </trkpt>
      <trkpt lat="46.48443" lon="0.39052">
        <ele>117.00958658475</ele>
        <time>2021-11-18T08:20:35Z</time>
      </trkpt>
      <trkpt lat="46.48444" lon="0.39054">
        <ele>117.21334993001</ele>
        <time>2021-11-18T08:20:37Z</time>
      </trkpt>
      <trkpt lat="46.48446" lon="0.39056">
        <ele>117.07728387788</ele>
        <time>2021-11-18T08:20:39Z</time>
      </trkpt>
      <trkpt lat="46.48448" lon="0.39058">
        <ele>116.99007423222</ele>
        <time>2021-11-18T08:20:40Z</time>
      </trkpt>
      <trkpt lat="46.48449" lon="0.3906">
        <ele>116.69688998349</ele>
        <time>2021-11-18T08:20:42Z</time>
      </trkpt>
      <trkpt lat="46.48451" lon="0.39061">
        <ele>116.64672154933</ele>
        <time>2021-11-18T08:20:43Z</time>
      </trkpt>
      <trkpt lat="46.48453" lon="0.39063">
        <ele>116.96512665134</ele>
        <time>2021-11-18T08:20:45Z</time>
      </trkpt>
      <trkpt lat="46.48454" lon="0.39065">
        <ele>116.57744161133</ele>
        <time>2021-11-18T08:20:47Z</time>
      </trkpt>
      <trkpt lat="46.48456" lon="0.39067">
        <ele>116.77055223752</ele>
        <time>2021-11-18T08:20:49Z</time>
      </trkpt>
      <trkpt lat="46.48458" lon="0.39069">
        <ele>116.83919943497</ele>
        <time>2021-11-18T08:20:51Z</time>
      </trkpt>
      <trkpt lat="46.4846" lon="0.39071">
        <ele>116.40707607288</ele>
        <time>2021-11-18T08:20:53Z</time>
      </trkpt>
      <trkpt lat="46.48462" lon="0.39073">
        <ele>116.86575863231</ele>
        <time>2021-11-18T08:20:55Z</time>
      </trkpt>
      <trkpt lat="46.48465" lon="0.39076">
        <ele>117.06001013704</ele>
        <time>2021-11-18T08:20:57Z</time>
      </trkpt>
      <trkpt lat="46.48467" lon="0.39078">
        <ele>116.72092690878</ele>
        <time>2021-11-18T08:20:59Z</time>
      </trkpt>
      <trkpt lat="46.48468" lon="0.3908">
        <ele>116.41006349865</ele>
        <time>2021-11-18T08:21:01Z</time>
      </trkpt>
      <trkpt lat="46.4847" lon="0.39082">
        <ele>116.75751671102</ele>
        <time>2021-11-18T08:21:03Z</time>
      </trkpt>
      <trkpt lat="46.48472" lon="0.39084">
        <ele>116.1695303889</ele>
        <time>2021-11-18T08:21:05Z</time>
      </trkpt>
      <trkpt lat="46.48474" lon="0.39087">
        <ele>116.56396917161</ele>
        <time>2021-11-18T08:21:07Z</time>
      </trkpt>
      <trkpt lat="46.48476" lon="0.3909">
        <ele>116.74339241628</ele>
        <time>2021-11-18T08:21:09Z</time>
      </trkpt>
      <trkpt lat="46.48478" lon="0.39091">
        <ele>116.46676060185</ele>
        <time>2021-11-18T08:21:11Z</time>
      </trkpt>
      <trkpt lat="46.4848" lon="0.39094">
        <ele>116.35446627252</ele>
        <time>2021-11-18T08:21:13Z</time>
      </trkpt>
      <trkpt lat="46.48482" lon="0.39096">
        <ele>116.51616342366</ele>
        <time>2021-11-18T08:21:15Z</time>
      </trkpt>
      <trkpt lat="46.48484" lon="0.39098">
        <ele>116.20362743828</ele>
        <time>2021-11-18T08:21:17Z</time>
      </trkpt>
      <trkpt lat="46.48486" lon="0.391">
        <ele>116.70719852019</ele>
        <time>2021-11-18T08:21:19Z</time>
      </trkpt>
      <trkpt lat="46.48488" lon="0.39102">
        <ele>116.30487344787</ele>
        <time>2021-11-18T08:21:21Z</time>
      </trkpt>
      <trkpt lat="46.4849" lon="0.39105">
        <ele>116.30843422096</ele>
        <time>2021-11-18T08:21:23Z</time>
      </trkpt>
      <trkpt lat="46.48492" lon="0.39108">
        <ele>116.10107582994</ele>
        <time>2021-11-18T08:21:25Z</time>
      </trkpt>
      <trkpt lat="46.48493" lon="0.3911">
        <ele>116.15900858305</ele>
        <time>2021-11-18T08:21:27Z</time>
      </trkpt>
      <trkpt lat="46.48495" lon="0.39113">
        <ele>115.48330094572</ele>
        <time>2021-11-18T08:21:29Z</time>
      </trkpt>
      <trkpt lat="46.48497" lon="0.39114">
        <ele>115.46154400054</ele>
        <time>2021-11-18T08:21:31Z</time>
      </trkpt>
      <trkpt lat="46.485" lon="0.39117">
        <ele>115.68222720455</ele>
        <time>2021-11-18T08:21:33Z</time>
      </trkpt>
      <trkpt lat="46.48502" lon="0.39119">
        <ele>115.42115574237</ele>
        <time>2021-11-18T08:21:35Z</time>
      </trkpt>
      <trkpt lat="46.48503" lon="0.39121">
        <ele>115.43577176612</ele>
        <time>2021-11-18T08:21:37Z</time>
      </trkpt>
      <trkpt lat="46.48505" lon="0.39123">
        <ele>115.18418554589</ele>
        <time>2021-11-18T08:21:39Z</time>
      </trkpt>
      <trkpt lat="46.48507" lon="0.39124">
        <ele>115.13026787154</ele>
        <time>2021-11-18T08:21:41Z</time>
      </trkpt>
      <trkpt lat="46.48508" lon="0.39126">
        <ele>115.15516381338</ele>
        <time>2021-11-18T08:21:43Z</time>
      </trkpt>
      <trkpt lat="46.4851" lon="0.39128">
        <ele>114.8321635928</ele>
        <time>2021-11-18T08:21:45Z</time>
      </trkpt>
      <trkpt lat="46.48513" lon="0.3913">
        <ele>115.04291833285</ele>
        <time>2021-11-18T08:21:47Z</time>
      </trkpt>
      <trkpt lat="46.48514" lon="0.39133">
        <ele>114.22555246949</ele>
        <time>2021-11-18T08:21:50Z</time>
      </trkpt>
      <trkpt lat="46.48517" lon="0.39134">
        <ele>114.34315325506</ele>
        <time>2021-11-18T08:21:52Z</time>
      </trkpt>
      <trkpt lat="46.48518" lon="0.39136">
        <ele>114.27888671309</ele>
        <time>2021-11-18T08:21:54Z</time>
      </trkpt>
      <trkpt lat="46.48521" lon="0.39139">
        <ele>114.05891709868</ele>
        <time>2021-11-18T08:21:56Z</time>
      </trkpt>
      <trkpt lat="46.48523" lon="0.39141">
        <ele>113.68667172734</ele>
        <time>2021-11-18T08:21:58Z</time>
      </trkpt>
      <trkpt lat="46.48525" lon="0.39143">
        <ele>113.92701546382</ele>
        <time>2021-11-18T08:22:00Z</time>
      </trkpt>
      <trkpt lat="46.48527" lon="0.39144">
        <ele>114.03502131253</ele>
        <time>2021-11-18T08:22:02Z</time>
      </trkpt>
      <trkpt lat="46.48529" lon="0.39146">
        <ele>113.602174378</ele>
        <time>2021-11-18T08:22:04Z</time>
      </trkpt>
      <trkpt lat="46.48531" lon="0.39148">
        <ele>114.09318732936</ele>
        <time>2021-11-18T08:22:06Z</time>
      </trkpt>
      <trkpt lat="46.48533" lon="0.3915">
        <ele>113.97105280217</ele>
        <time>2021-11-18T08:22:08Z</time>
      </trkpt>
      <trkpt lat="46.48535" lon="0.39153">
        <ele>114.03651037626</ele>
        <time>2021-11-18T08:22:10Z</time>
      </trkpt>
      <trkpt lat="46.48537" lon="0.39154">
        <ele>113.8589945361</ele>
        <time>2021-11-18T08:22:12Z</time>
      </trkpt>
      <trkpt lat="46.4854" lon="0.39157">
        <ele>114.28086737357</ele>
        <time>2021-11-18T08:22:15Z</time>
      </trkpt>
      <trkpt lat="46.48542" lon="0.39159">
        <ele>113.90863571316</ele>
        <time>2021-11-18T08:22:17Z</time>
      </trkpt>
      <trkpt lat="46.48544" lon="0.39162">
        <ele>114.01723809261</ele>
        <time>2021-11-18T08:22:20Z</time>
      </trkpt>
      <trkpt lat="46.48546" lon="0.39164">
        <ele>113.91025029682</ele>
        <time>2021-11-18T08:22:22Z</time>
      </trkpt>
      <trkpt lat="46.48547" lon="0.39166">
        <ele>113.80570578109</ele>
        <time>2021-11-18T08:22:24Z</time>
      </trkpt>
      <trkpt lat="46.4855" lon="0.39168">
        <ele>114.02414610237</ele>
        <time>2021-11-18T08:22:27Z</time>
      </trkpt>
      <trkpt lat="46.48552" lon="0.3917">
        <ele>113.98250904586</ele>
        <time>2021-11-18T08:22:29Z</time>
      </trkpt>
      <trkpt lat="46.48553" lon="0.39172">
        <ele>113.91071810573</ele>
        <time>2021-11-18T08:22:31Z</time>
      </trkpt>
      <trkpt lat="46.48555" lon="0.39173">
        <ele>113.7782942988</ele>
        <time>2021-11-18T08:22:33Z</time>
      </trkpt>
      <trkpt lat="46.48558" lon="0.39176">
        <ele>113.90454290342</ele>
        <time>2021-11-18T08:22:35Z</time>
      </trkpt>
      <trkpt lat="46.4856" lon="0.39177">
        <ele>113.96072544716</ele>
        <time>2021-11-18T08:22:37Z</time>
      </trkpt>
      <trkpt lat="46.48562" lon="0.39179">
        <ele>113.88200256694</ele>
        <time>2021-11-18T08:22:39Z</time>
      </trkpt>
      <trkpt lat="46.48564" lon="0.39181">
        <ele>113.93714988511</ele>
        <time>2021-11-18T08:22:41Z</time>
      </trkpt>
      <trkpt lat="46.48566" lon="0.39183">
        <ele>114.16128751263</ele>
        <time>2021-11-18T08:22:43Z</time>
      </trkpt>
      <trkpt lat="46.48568" lon="0.39185">
        <ele>113.97585827392</ele>
        <time>2021-11-18T08:22:46Z</time>
      </trkpt>
      <trkpt lat="46.4857" lon="0.39187">
        <ele>114.67534645181</ele>
        <time>2021-11-18T08:22:48Z</time>
      </trkpt>
      <trkpt lat="46.48571" lon="0.3919">
        <ele>114.26891229954</ele>
        <time>2021-11-18T08:22:51Z</time>
      </trkpt>
      <trkpt lat="46.48574" lon="0.39192">
        <ele>114.04142671824</ele>
        <time>2021-11-18T08:22:53Z</time>
      </trkpt>
      <trkpt lat="46.48576" lon="0.39194">
        <ele>114.07230277173</ele>
        <time>2021-11-18T08:22:55Z</time>
      </trkpt>
      <trkpt lat="46.48579" lon="0.39195">
        <ele>114.22263479047</ele>
        <time>2021-11-18T08:22:57Z</time>
      </trkpt>
      <trkpt lat="46.48582" lon="0.39196">
        <ele>114.1231253501</ele>
        <time>2021-11-18T08:22:59Z</time>
      </trkpt>
      <trkpt lat="46.48584" lon="0.39198">
        <ele>113.97892833687</ele>
        <time>2021-11-18T08:23:01Z</time>
      </trkpt>
      <trkpt lat="46.48586" lon="0.39197">
        <ele>114.12210267875</ele>
        <time>2021-11-18T08:23:02Z</time>
      </trkpt>
      <trkpt lat="46.48588" lon="0.39198">
        <ele>113.70488400478</ele>
        <time>2021-11-18T08:23:04Z</time>
      </trkpt>
      <trkpt lat="46.4859" lon="0.392">
        <ele>113.67721613869</ele>
        <time>2021-11-18T08:23:06Z</time>
      </trkpt>
      <trkpt lat="46.48593" lon="0.39201">
        <ele>114.33808471356</ele>
        <time>2021-11-18T08:23:08Z</time>
      </trkpt>
      <trkpt lat="46.48595" lon="0.39203">
        <ele>114.05782897677</ele>
        <time>2021-11-18T08:23:11Z</time>
      </trkpt>
      <trkpt lat="46.48596" lon="0.39206">
        <ele>114.66945981979</ele>
        <time>2021-11-18T08:23:15Z</time>
      </trkpt>
      <trkpt lat="46.48597" lon="0.39209">
        <ele>115.04045665357</ele>
        <time>2021-11-18T08:23:18Z</time>
      </trkpt>
      <trkpt lat="46.48596" lon="0.39213">
        <ele>114.47118158173</ele>
        <time>2021-11-18T08:23:21Z</time>
      </trkpt>
      <trkpt lat="46.48597" lon="0.39215">
        <ele>114.74436636455</ele>
        <time>2021-11-18T08:23:23Z</time>
      </trkpt>
      <trkpt lat="46.48597" lon="0.39218">
        <ele>114.35093507078</ele>
        <time>2021-11-18T08:23:25Z</time>
      </trkpt>
      <trkpt lat="46.48597" lon="0.39221">
        <ele>114.41125542391</ele>
        <time>2021-11-18T08:23:27Z</time>
      </trkpt>
      <trkpt lat="46.48597" lon="0.39224">
        <ele>114.6649746336</ele>
        <time>2021-11-18T08:23:29Z</time>
      </trkpt>
      <trkpt lat="46.48597" lon="0.39228">
        <ele>114.43254003301</ele>
        <time>2021-11-18T08:23:31Z</time>
      </trkpt>
      <trkpt lat="46.48597" lon="0.39231">
        <ele>114.53152197227</ele>
        <time>2021-11-18T08:23:33Z</time>
      </trkpt>
      <trkpt lat="46.48596" lon="0.39235">
        <ele>114.55208915845</ele>
        <time>2021-11-18T08:23:35Z</time>
      </trkpt>
      <trkpt lat="46.48596" lon="0.39238">
        <ele>114.15429883823</ele>
        <time>2021-11-18T08:23:37Z</time>
      </trkpt>
      <trkpt lat="46.48595" lon="0.39241">
        <ele>114.29905722849</ele>
        <time>2021-11-18T08:23:39Z</time>
      </trkpt>
      <trkpt lat="46.48595" lon="0.39244">
        <ele>114.05912175495</ele>
        <time>2021-11-18T08:23:41Z</time>
      </trkpt>
      <trkpt lat="46.48595" lon="0.39247">
        <ele>113.9311094638</ele>
        <time>2021-11-18T08:23:43Z</time>
      </trkpt>
      <trkpt lat="46.48594" lon="0.3925">
        <ele>113.76432956196</ele>
        <time>2021-11-18T08:23:45Z</time>
      </trkpt>
      <trkpt lat="46.48594" lon="0.39253">
        <ele>113.6735404022</ele>
        <time>2021-11-18T08:23:47Z</time>
      </trkpt>
      <trkpt lat="46.48594" lon="0.39257">
        <ele>113.94377626758</ele>
        <time>2021-11-18T08:23:49Z</time>
      </trkpt>
      <trkpt lat="46.48593" lon="0.3926">
        <ele>113.73365075793</ele>
        <time>2021-11-18T08:23:51Z</time>
      </trkpt>
      <trkpt lat="46.48593" lon="0.39263">
        <ele>113.70224801265</ele>
        <time>2021-11-18T08:23:53Z</time>
      </trkpt>
      <trkpt lat="46.48592" lon="0.39267">
        <ele>113.53222612292</ele>
        <time>2021-11-18T08:23:55Z</time>
      </trkpt>
      <trkpt lat="46.48592" lon="0.3927">
        <ele>113.95662794355</ele>
        <time>2021-11-18T08:23:57Z</time>
      </trkpt>
      <trkpt lat="46.48592" lon="0.39273">
        <ele>113.83811021782</ele>
        <time>2021-11-18T08:23:59Z</time>
      </trkpt>
      <trkpt lat="46.48591" lon="0.39276">
        <ele>113.7577236332</ele>
        <time>2021-11-18T08:24:01Z</time>
      </trkpt>
      <trkpt lat="46.48591" lon="0.39279">
        <ele>113.92041864712</ele>
        <time>2021-11-18T08:24:03Z</time>
      </trkpt>
      <trkpt lat="46.4859" lon="0.39282">
        <ele>114.08602936286</ele>
        <time>2021-11-18T08:24:05Z</time>
      </trkpt>
      <trkpt lat="46.4859" lon="0.39286">
        <ele>114.30823433399</ele>
        <time>2021-11-18T08:24:07Z</time>
      </trkpt>
      <trkpt lat="46.4859" lon="0.39289">
        <ele>114.21233674698</ele>
        <time>2021-11-18T08:24:09Z</time>
      </trkpt>
      <trkpt lat="46.48589" lon="0.39292">
        <ele>114.35072357394</ele>
        <time>2021-11-18T08:24:11Z</time>
      </trkpt>
      <trkpt lat="46.48589" lon="0.39295">
        <ele>114.25594626646</ele>
        <time>2021-11-18T08:24:13Z</time>
      </trkpt>
      <trkpt lat="46.48588" lon="0.39298">
        <ele>114.48592968285</ele>
        <time>2021-11-18T08:24:16Z</time>
      </trkpt>
      <trkpt lat="46.48587" lon="0.39301">
        <ele>115.00555789378</ele>
        <time>2021-11-18T08:24:18Z</time>
      </trkpt>
      <trkpt lat="46.48587" lon="0.39304">
        <ele>114.8319403464</ele>
        <time>2021-11-18T08:24:20Z</time>
      </trkpt>
      <trkpt lat="46.48586" lon="0.39307">
        <ele>115.42728285119</ele>
        <time>2021-11-18T08:24:22Z</time>
      </trkpt>
      <trkpt lat="46.48585" lon="0.3931">
        <ele>115.09658194985</ele>
        <time>2021-11-18T08:24:24Z</time>
      </trkpt>
      <trkpt lat="46.48585" lon="0.39314">
        <ele>115.29638142791</ele>
        <time>2021-11-18T08:24:26Z</time>
      </trkpt>
      <trkpt lat="46.48584" lon="0.39317">
        <ele>115.40056484565</ele>
        <time>2021-11-18T08:24:28Z</time>
      </trkpt>
      <trkpt lat="46.48583" lon="0.39321">
        <ele>115.18921071757</ele>
        <time>2021-11-18T08:24:31Z</time>
      </trkpt>
      <trkpt lat="46.48583" lon="0.39324">
        <ele>115.47934899293</ele>
        <time>2021-11-18T08:24:33Z</time>
      </trkpt>
      <trkpt lat="46.48582" lon="0.39327">
        <ele>115.27538376115</ele>
        <time>2021-11-18T08:24:35Z</time>
      </trkpt>
      <trkpt lat="46.48581" lon="0.3933">
        <ele>115.37571732234</ele>
        <time>2021-11-18T08:24:37Z</time>
      </trkpt>
      <trkpt lat="46.48581" lon="0.39333">
        <ele>115.5415841369</ele>
        <time>2021-11-18T08:24:39Z</time>
      </trkpt>
      <trkpt lat="46.4858" lon="0.39336">
        <ele>115.3660340393</ele>
        <time>2021-11-18T08:24:41Z</time>
      </trkpt>
      <trkpt lat="46.4858" lon="0.39339">
        <ele>115.67741641682</ele>
        <time>2021-11-18T08:24:43Z</time>
      </trkpt>
      <trkpt lat="46.48579" lon="0.39342">
        <ele>115.2850942472</ele>
        <time>2021-11-18T08:24:45Z</time>
      </trkpt>
      <trkpt lat="46.48578" lon="0.39345">
        <ele>115.80629284773</ele>
        <time>2021-11-18T08:24:47Z</time>
      </trkpt>
      <trkpt lat="46.48578" lon="0.39347">
        <ele>115.40859987307</ele>
        <time>2021-11-18T08:24:49Z</time>
      </trkpt>
      <trkpt lat="46.48578" lon="0.3935">
        <ele>116.17277082894</ele>
        <time>2021-11-18T08:24:51Z</time>
      </trkpt>
      <trkpt lat="46.48577" lon="0.39353">
        <ele>116.17762297019</ele>
        <time>2021-11-18T08:24:53Z</time>
      </trkpt>
      <trkpt lat="46.48576" lon="0.39356">
        <ele>116.24357207678</ele>
        <time>2021-11-18T08:24:55Z</time>
      </trkpt>
      <trkpt lat="46.48576" lon="0.39359">
        <ele>116.1799645219</ele>
        <time>2021-11-18T08:24:57Z</time>
      </trkpt>
      <trkpt lat="46.48575" lon="0.39362">
        <ele>116.40936425049</ele>
        <time>2021-11-18T08:24:59Z</time>
      </trkpt>
      <trkpt lat="46.48574" lon="0.39365">
        <ele>116.41315818485</ele>
        <time>2021-11-18T08:25:01Z</time>
      </trkpt>
      <trkpt lat="46.48574" lon="0.39368">
        <ele>116.37698647473</ele>
        <time>2021-11-18T08:25:03Z</time>
      </trkpt>
      <trkpt lat="46.48573" lon="0.39371">
        <ele>116.5922947228</ele>
        <time>2021-11-18T08:25:05Z</time>
      </trkpt>
      <trkpt lat="46.48572" lon="0.39374">
        <ele>116.89844916482</ele>
        <time>2021-11-18T08:25:07Z</time>
      </trkpt>
      <trkpt lat="46.48572" lon="0.39378">
        <ele>116.99405503459</ele>
        <time>2021-11-18T08:25:09Z</time>
      </trkpt>
      <trkpt lat="46.48571" lon="0.39381">
        <ele>116.99458073825</ele>
        <time>2021-11-18T08:25:11Z</time>
      </trkpt>
      <trkpt lat="46.48569" lon="0.39383">
        <ele>117.40390392207</ele>
        <time>2021-11-18T08:25:13Z</time>
      </trkpt>
      <trkpt lat="46.48568" lon="0.39386">
        <ele>117.4961865861</ele>
        <time>2021-11-18T08:25:15Z</time>
      </trkpt>
      <trkpt lat="46.48567" lon="0.39389">
        <ele>117.64697098266</ele>
        <time>2021-11-18T08:25:18Z</time>
      </trkpt>
      <trkpt lat="46.48566" lon="0.39392">
        <ele>117.92769388296</ele>
        <time>2021-11-18T08:25:19Z</time>
      </trkpt>
      <trkpt lat="46.48564" lon="0.39396">
        <ele>117.6595090339</ele>
        <time>2021-11-18T08:25:22Z</time>
      </trkpt>
      <trkpt lat="46.48563" lon="0.394">
        <ele>118.00738756452</ele>
        <time>2021-11-18T08:25:24Z</time>
      </trkpt>
      <trkpt lat="46.48563" lon="0.39404">
        <ele>117.89129920676</ele>
        <time>2021-11-18T08:25:26Z</time>
      </trkpt>
      <trkpt lat="46.48562" lon="0.39407">
        <ele>118.34881790541</ele>
        <time>2021-11-18T08:25:29Z</time>
      </trkpt>
      <trkpt lat="46.48561" lon="0.39411">
        <ele>118.46749172453</ele>
        <time>2021-11-18T08:25:31Z</time>
      </trkpt>
      <trkpt lat="46.4856" lon="0.39413">
        <ele>118.51873698551</ele>
        <time>2021-11-18T08:25:34Z</time>
      </trkpt>
      <trkpt lat="46.4856" lon="0.39417">
        <ele>119.11751350667</ele>
        <time>2021-11-18T08:25:37Z</time>
      </trkpt>
      <trkpt lat="46.48559" lon="0.39421">
        <ele>118.59120766912</ele>
        <time>2021-11-18T08:25:38Z</time>
      </trkpt>
      <trkpt lat="46.48558" lon="0.39424">
        <ele>118.98027582653</ele>
        <time>2021-11-18T08:25:40Z</time>
      </trkpt>
      <trkpt lat="46.48557" lon="0.39429">
        <ele>119.18909691088</ele>
        <time>2021-11-18T08:25:42Z</time>
      </trkpt>
      <trkpt lat="46.48556" lon="0.39433">
        <ele>119.05198601354</ele>
        <time>2021-11-18T08:25:44Z</time>
      </trkpt>
      <trkpt lat="46.48555" lon="0.39436">
        <ele>119.43565525953</ele>
        <time>2021-11-18T08:25:47Z</time>
      </trkpt>
      <trkpt lat="46.48553" lon="0.39439">
        <ele>119.75952638127</ele>
        <time>2021-11-18T08:25:49Z</time>
      </trkpt>
      <trkpt lat="46.48553" lon="0.39443">
        <ele>119.93131050747</ele>
        <time>2021-11-18T08:25:52Z</time>
      </trkpt>
      <trkpt lat="46.48552" lon="0.39446">
        <ele>119.94418053143</ele>
        <time>2021-11-18T08:25:54Z</time>
      </trkpt>
      <trkpt lat="46.48552" lon="0.39449">
        <ele>120.25348438695</ele>
        <time>2021-11-18T08:25:57Z</time>
      </trkpt>
      <trkpt lat="46.48552" lon="0.39453">
        <ele>120.2591357911</ele>
        <time>2021-11-18T08:26:00Z</time>
      </trkpt>
      <trkpt lat="46.48551" lon="0.39456">
        <ele>120.21717869584</ele>
        <time>2021-11-18T08:26:02Z</time>
      </trkpt>
      <trkpt lat="46.48551" lon="0.39459">
        <ele>120.31570146978</ele>
        <time>2021-11-18T08:26:04Z</time>
      </trkpt>
      <trkpt lat="46.4855" lon="0.39462">
        <ele>120.51225119643</ele>
        <time>2021-11-18T08:26:07Z</time>
      </trkpt>
      <trkpt lat="46.48549" lon="0.39466">
        <ele>120.72387828864</ele>
        <time>2021-11-18T08:26:09Z</time>
      </trkpt>
      <trkpt lat="46.48549" lon="0.39469">
        <ele>120.50946062803</ele>
        <time>2021-11-18T08:26:12Z</time>
      </trkpt>
      <trkpt lat="46.48548" lon="0.39472">
        <ele>120.34130956419</ele>
        <time>2021-11-18T08:26:13Z</time>
      </trkpt>
      <trkpt lat="46.48547" lon="0.39474">
        <ele>120.40810786933</ele>
        <time>2021-11-18T08:26:14Z</time>
      </trkpt>
      <trkpt lat="46.48545" lon="0.39478">
        <ele>120.59785297979</ele>
        <time>2021-11-18T08:26:16Z</time>
      </trkpt>
      <trkpt lat="46.48544" lon="0.39481">
        <ele>120.78508092836</ele>
        <time>2021-11-18T08:26:18Z</time>
      </trkpt>
      <trkpt lat="46.48542" lon="0.39483">
        <ele>121.02374778409</ele>
        <time>2021-11-18T08:26:20Z</time>
      </trkpt>
      <trkpt lat="46.48541" lon="0.39487">
        <ele>120.96835310012</ele>
        <time>2021-11-18T08:26:22Z</time>
      </trkpt>
      <trkpt lat="46.48541" lon="0.3949">
        <ele>120.79138612747</ele>
        <time>2021-11-18T08:26:23Z</time>
      </trkpt>
      <trkpt lat="46.48539" lon="0.39491">
        <ele>120.99291902594</ele>
        <time>2021-11-18T08:26:25Z</time>
      </trkpt>
      <trkpt lat="46.48537" lon="0.39494">
        <ele>121.54694119282</ele>
        <time>2021-11-18T08:26:30Z</time>
      </trkpt>
      <trkpt lat="46.48537" lon="0.39496">
        <ele>121.30187071394</ele>
        <time>2021-11-18T08:26:31Z</time>
      </trkpt>
      <trkpt lat="46.48536" lon="0.39499">
        <ele>121.83321809955</ele>
        <time>2021-11-18T08:26:33Z</time>
      </trkpt>
      <trkpt lat="46.48534" lon="0.39502">
        <ele>121.82356609125</ele>
        <time>2021-11-18T08:26:35Z</time>
      </trkpt>
      <trkpt lat="46.48533" lon="0.39505">
        <ele>121.88064255193</ele>
        <time>2021-11-18T08:26:37Z</time>
      </trkpt>
      <trkpt lat="46.48532" lon="0.39507">
        <ele>121.63719688542</ele>
        <time>2021-11-18T08:26:39Z</time>
      </trkpt>
      <trkpt lat="46.48531" lon="0.39511">
        <ele>121.93567336816</ele>
        <time>2021-11-18T08:26:42Z</time>
      </trkpt>
      <trkpt lat="46.48531" lon="0.39514">
        <ele>121.99489776418</ele>
        <time>2021-11-18T08:26:44Z</time>
      </trkpt>
      <trkpt lat="46.4853" lon="0.39517">
        <ele>122.25916607399</ele>
        <time>2021-11-18T08:26:46Z</time>
      </trkpt>
      <trkpt lat="46.48529" lon="0.39521">
        <ele>122.08572302852</ele>
        <time>2021-11-18T08:26:49Z</time>
      </trkpt>
      <trkpt lat="46.48528" lon="0.39523">
        <ele>122.00175621081</ele>
        <time>2021-11-18T08:26:51Z</time>
      </trkpt>
      <trkpt lat="46.48527" lon="0.39526">
        <ele>122.20429255813</ele>
        <time>2021-11-18T08:26:53Z</time>
      </trkpt>
      <trkpt lat="46.48526" lon="0.39528">
        <ele>122.23846948892</ele>
        <time>2021-11-18T08:26:55Z</time>
      </trkpt>
      <trkpt lat="46.48524" lon="0.39532">
        <ele>122.16207711026</ele>
        <time>2021-11-18T08:26:57Z</time>
      </trkpt>
      <trkpt lat="46.48523" lon="0.39534">
        <ele>122.45394865517</ele>
        <time>2021-11-18T08:26:59Z</time>
      </trkpt>
      <trkpt lat="46.48522" lon="0.39538">
        <ele>122.59285960346</ele>
        <time>2021-11-18T08:27:02Z</time>
      </trkpt>
      <trkpt lat="46.48521" lon="0.39541">
        <ele>122.37377054803</ele>
        <time>2021-11-18T08:27:03Z</time>
      </trkpt>
      <trkpt lat="46.4852" lon="0.39543">
        <ele>122.45350668579</ele>
        <time>2021-11-18T08:27:04Z</time>
      </trkpt>
      <trkpt lat="46.48519" lon="0.39547">
        <ele>123.14410950616</ele>
        <time>2021-11-18T08:27:06Z</time>
      </trkpt>
      <trkpt lat="46.48518" lon="0.3955">
        <ele>122.99826148245</ele>
        <time>2021-11-18T08:27:09Z</time>
      </trkpt>
      <trkpt lat="46.48517" lon="0.39553">
        <ele>123.19557591993</ele>
        <time>2021-11-18T08:27:11Z</time>
      </trkpt>
      <trkpt lat="46.48517" lon="0.39556">
        <ele>123.61189940758</ele>
        <time>2021-11-18T08:27:13Z</time>
      </trkpt>
      <trkpt lat="46.48515" lon="0.3956">
        <ele>123.13487390336</ele>
        <time>2021-11-18T08:27:15Z</time>
      </trkpt>
      <trkpt lat="46.48514" lon="0.39562">
        <ele>123.66739848815</ele>
        <time>2021-11-18T08:27:17Z</time>
      </trkpt>
      <trkpt lat="46.48514" lon="0.39566">
        <ele>123.13148002885</ele>
        <time>2021-11-18T08:27:19Z</time>
      </trkpt>
      <trkpt lat="46.48513" lon="0.39569">
        <ele>123.4856800884</ele>
        <time>2021-11-18T08:27:21Z</time>
      </trkpt>
      <trkpt lat="46.48512" lon="0.39572">
        <ele>123.61669457424</ele>
        <time>2021-11-18T08:27:23Z</time>
      </trkpt>
      <trkpt lat="46.48511" lon="0.39574">
        <ele>123.68479954358</ele>
        <time>2021-11-18T08:27:25Z</time>
      </trkpt>
      <trkpt lat="46.48511" lon="0.39577">
        <ele>123.59355348721</ele>
        <time>2021-11-18T08:27:27Z</time>
      </trkpt>
      <trkpt lat="46.4851" lon="0.3958">
        <ele>123.46623171028</ele>
        <time>2021-11-18T08:27:29Z</time>
      </trkpt>
      <trkpt lat="46.48509" lon="0.39582">
        <ele>123.7603708813</ele>
        <time>2021-11-18T08:27:31Z</time>
      </trkpt>
      <trkpt lat="46.48509" lon="0.39585">
        <ele>123.7343115611</ele>
        <time>2021-11-18T08:27:33Z</time>
      </trkpt>
      <trkpt lat="46.48508" lon="0.39587">
        <ele>123.71892807633</ele>
        <time>2021-11-18T08:27:35Z</time>
      </trkpt>
      <trkpt lat="46.48507" lon="0.3959">
        <ele>123.96459725127</ele>
        <time>2021-11-18T08:27:37Z</time>
      </trkpt>
      <trkpt lat="46.48507" lon="0.39593">
        <ele>123.73537496105</ele>
        <time>2021-11-18T08:27:39Z</time>
      </trkpt>
      <trkpt lat="46.48505" lon="0.39596">
        <ele>123.83746113256</ele>
        <time>2021-11-18T08:27:41Z</time>
      </trkpt>
      <trkpt lat="46.48504" lon="0.39599">
        <ele>123.56869920343</ele>
        <time>2021-11-18T08:27:43Z</time>
      </trkpt>
      <trkpt lat="46.48504" lon="0.39603">
        <ele>124.03381481674</ele>
        <time>2021-11-18T08:27:45Z</time>
      </trkpt>
      <trkpt lat="46.48503" lon="0.39605">
        <ele>123.94225684088</ele>
        <time>2021-11-18T08:27:47Z</time>
      </trkpt>
      <trkpt lat="46.48502" lon="0.39608">
        <ele>123.82952397689</ele>
        <time>2021-11-18T08:27:49Z</time>
      </trkpt>
      <trkpt lat="46.48501" lon="0.39611">
        <ele>123.9980390761</ele>
        <time>2021-11-18T08:27:51Z</time>
      </trkpt>
      <trkpt lat="46.48501" lon="0.39614">
        <ele>124.24178853165</ele>
        <time>2021-11-18T08:27:53Z</time>
      </trkpt>
      <trkpt lat="46.485" lon="0.39617">
        <ele>123.93214233406</ele>
        <time>2021-11-18T08:27:55Z</time>
      </trkpt>
      <trkpt lat="46.48499" lon="0.3962">
        <ele>123.88219048362</ele>
        <time>2021-11-18T08:27:57Z</time>
      </trkpt>
      <trkpt lat="46.48499" lon="0.39624">
        <ele>124.35337453429</ele>
        <time>2021-11-18T08:27:59Z</time>
      </trkpt>
      <trkpt lat="46.48498" lon="0.39626">
        <ele>124.06999222282</ele>
        <time>2021-11-18T08:28:01Z</time>
      </trkpt>
      <trkpt lat="46.48498" lon="0.3963">
        <ele>124.20128887147</ele>
        <time>2021-11-18T08:28:03Z</time>
      </trkpt>
      <trkpt lat="46.48497" lon="0.39633">
        <ele>123.95270069689</ele>
        <time>2021-11-18T08:28:05Z</time>
      </trkpt>
      <trkpt lat="46.48497" lon="0.39636">
        <ele>124.00597803947</ele>
        <time>2021-11-18T08:28:07Z</time>
      </trkpt>
      <trkpt lat="46.48496" lon="0.3964">
        <ele>123.86463353876</ele>
        <time>2021-11-18T08:28:09Z</time>
      </trkpt>
      <trkpt lat="46.48495" lon="0.39644">
        <ele>124.64529457688</ele>
        <time>2021-11-18T08:28:11Z</time>
      </trkpt>
      <trkpt lat="46.48495" lon="0.39648">
        <ele>124.02197611611</ele>
        <time>2021-11-18T08:28:14Z</time>
      </trkpt>
      <trkpt lat="46.48494" lon="0.39651">
        <ele>123.81092090998</ele>
        <time>2021-11-18T08:28:16Z</time>
      </trkpt>
      <trkpt lat="46.48493" lon="0.39654">
        <ele>123.74978690781</ele>
        <time>2021-11-18T08:28:18Z</time>
      </trkpt>
      <trkpt lat="46.48492" lon="0.39658">
        <ele>124.10116115212</ele>
        <time>2021-11-18T08:28:20Z</time>
      </trkpt>
      <trkpt lat="46.48491" lon="0.39661">
        <ele>124.28717364091</ele>
        <time>2021-11-18T08:28:22Z</time>
      </trkpt>
      <trkpt lat="46.48489" lon="0.39666">
        <ele>124.12339436635</ele>
        <time>2021-11-18T08:28:24Z</time>
      </trkpt>
      <trkpt lat="46.48488" lon="0.39669">
        <ele>123.77762466297</ele>
        <time>2021-11-18T08:28:26Z</time>
      </trkpt>
      <trkpt lat="46.48488" lon="0.39672">
        <ele>123.8502612859</ele>
        <time>2021-11-18T08:28:28Z</time>
      </trkpt>
      <trkpt lat="46.48487" lon="0.39675">
        <ele>123.94296359736</ele>
        <time>2021-11-18T08:28:30Z</time>
      </trkpt>
      <trkpt lat="46.48486" lon="0.39678">
        <ele>123.67013800982</ele>
        <time>2021-11-18T08:28:32Z</time>
      </trkpt>
      <trkpt lat="46.48485" lon="0.39682">
        <ele>123.58141450584</ele>
        <time>2021-11-18T08:28:34Z</time>
      </trkpt>
      <trkpt lat="46.48485" lon="0.39685">
        <ele>123.73495747335</ele>
        <time>2021-11-18T08:28:36Z</time>
      </trkpt>
      <trkpt lat="46.48485" lon="0.39688">
        <ele>124.28684975207</ele>
        <time>2021-11-18T08:28:38Z</time>
      </trkpt>
      <trkpt lat="46.48485" lon="0.39691">
        <ele>123.44981947355</ele>
        <time>2021-11-18T08:28:40Z</time>
      </trkpt>
      <trkpt lat="46.48485" lon="0.39694">
        <ele>123.57194959652</ele>
        <time>2021-11-18T08:28:42Z</time>
      </trkpt>
      <trkpt lat="46.48484" lon="0.39697">
        <ele>123.29685095605</ele>
        <time>2021-11-18T08:28:44Z</time>
      </trkpt>
      <trkpt lat="46.48484" lon="0.397">
        <ele>123.40621471219</ele>
        <time>2021-11-18T08:28:46Z</time>
      </trkpt>
      <trkpt lat="46.48484" lon="0.39703">
        <ele>123.06295628101</ele>
        <time>2021-11-18T08:28:48Z</time>
      </trkpt>
      <trkpt lat="46.48484" lon="0.39707">
        <ele>123.4715701919</ele>
        <time>2021-11-18T08:28:50Z</time>
      </trkpt>
      <trkpt lat="46.48483" lon="0.3971">
        <ele>123.01554419473</ele>
        <time>2021-11-18T08:28:52Z</time>
      </trkpt>
      <trkpt lat="46.48483" lon="0.39714">
        <ele>123.07239762228</ele>
        <time>2021-11-18T08:28:54Z</time>
      </trkpt>
      <trkpt lat="46.48483" lon="0.39717">
        <ele>123.14879970811</ele>
        <time>2021-11-18T08:28:56Z</time>
      </trkpt>
      <trkpt lat="46.48483" lon="0.3972">
        <ele>122.92786638066</ele>
        <time>2021-11-18T08:28:58Z</time>
      </trkpt>
      <trkpt lat="46.48483" lon="0.39722">
        <ele>122.88276152685</ele>
        <time>2021-11-18T08:29:00Z</time>
      </trkpt>
      <trkpt lat="46.48483" lon="0.39726">
        <ele>122.66018980648</ele>
        <time>2021-11-18T08:29:02Z</time>
      </trkpt>
      <trkpt lat="46.48483" lon="0.39729">
        <ele>123.10831194837</ele>
        <time>2021-11-18T08:29:04Z</time>
      </trkpt>
      <trkpt lat="46.48482" lon="0.39733">
        <ele>122.80847619846</ele>
        <time>2021-11-18T08:29:06Z</time>
      </trkpt>
      <trkpt lat="46.48482" lon="0.39736">
        <ele>123.15911059733</ele>
        <time>2021-11-18T08:29:08Z</time>
      </trkpt>
      <trkpt lat="46.48482" lon="0.39739">
        <ele>122.82271727081</ele>
        <time>2021-11-18T08:29:10Z</time>
      </trkpt>
      <trkpt lat="46.48481" lon="0.39742">
        <ele>122.42261562683</ele>
        <time>2021-11-18T08:29:12Z</time>
      </trkpt>
      <trkpt lat="46.48482" lon="0.39746">
        <ele>122.72749014385</ele>
        <time>2021-11-18T08:29:14Z</time>
      </trkpt>
      <trkpt lat="46.48481" lon="0.3975">
        <ele>122.48274591006</ele>
        <time>2021-11-18T08:29:16Z</time>
      </trkpt>
      <trkpt lat="46.48481" lon="0.39753">
        <ele>122.5814769743</ele>
        <time>2021-11-18T08:29:18Z</time>
      </trkpt>
      <trkpt lat="46.4848" lon="0.39757">
        <ele>122.41299749073</ele>
        <time>2021-11-18T08:29:20Z</time>
      </trkpt>
      <trkpt lat="46.4848" lon="0.3976">
        <ele>122.58300403971</ele>
        <time>2021-11-18T08:29:22Z</time>
      </trkpt>
      <trkpt lat="46.48479" lon="0.39764">
        <ele>122.11002281401</ele>
        <time>2021-11-18T08:29:24Z</time>
      </trkpt>
      <trkpt lat="46.48479" lon="0.39768">
        <ele>122.62058085296</ele>
        <time>2021-11-18T08:29:26Z</time>
      </trkpt>
      <trkpt lat="46.48479" lon="0.39772">
        <ele>122.11310139857</ele>
        <time>2021-11-18T08:29:28Z</time>
      </trkpt>
      <trkpt lat="46.48478" lon="0.39776">
        <ele>122.27427931782</ele>
        <time>2021-11-18T08:29:30Z</time>
      </trkpt>
      <trkpt lat="46.48478" lon="0.3978">
        <ele>121.78910216037</ele>
        <time>2021-11-18T08:29:32Z</time>
      </trkpt>
      <trkpt lat="46.48477" lon="0.39784">
        <ele>121.82788589038</ele>
        <time>2021-11-18T08:29:34Z</time>
      </trkpt>
      <trkpt lat="46.48477" lon="0.39787">
        <ele>121.7830963321</ele>
        <time>2021-11-18T08:29:36Z</time>
      </trkpt>
      <trkpt lat="46.48477" lon="0.3979">
        <ele>121.85531326476</ele>
        <time>2021-11-18T08:29:38Z</time>
      </trkpt>
      <trkpt lat="46.48477" lon="0.39793">
        <ele>122.11477431748</ele>
        <time>2021-11-18T08:29:40Z</time>
      </trkpt>
      <trkpt lat="46.48477" lon="0.39796">
        <ele>121.68956394307</ele>
        <time>2021-11-18T08:29:42Z</time>
      </trkpt>
      <trkpt lat="46.48477" lon="0.39799">
        <ele>121.76350545976</ele>
        <time>2021-11-18T08:29:44Z</time>
      </trkpt>
      <trkpt lat="46.48476" lon="0.39803">
        <ele>121.74663109612</ele>
        <time>2021-11-18T08:29:46Z</time>
      </trkpt>
      <trkpt lat="46.48477" lon="0.39806">
        <ele>121.74181360006</ele>
        <time>2021-11-18T08:29:48Z</time>
      </trkpt>
      <trkpt lat="46.48476" lon="0.3981">
        <ele>121.67442184035</ele>
        <time>2021-11-18T08:29:50Z</time>
      </trkpt>
      <trkpt lat="46.48476" lon="0.39813">
        <ele>121.66022617742</ele>
        <time>2021-11-18T08:29:52Z</time>
      </trkpt>
      <trkpt lat="46.48476" lon="0.39816">
        <ele>121.33887348697</ele>
        <time>2021-11-18T08:29:54Z</time>
      </trkpt>
      <trkpt lat="46.48476" lon="0.39819">
        <ele>121.69318803586</ele>
        <time>2021-11-18T08:29:56Z</time>
      </trkpt>
      <trkpt lat="46.48476" lon="0.39822">
        <ele>121.48633982707</ele>
        <time>2021-11-18T08:29:58Z</time>
      </trkpt>
      <trkpt lat="46.48476" lon="0.39826">
        <ele>121.01234431099</ele>
        <time>2021-11-18T08:30:00Z</time>
      </trkpt>
      <trkpt lat="46.48476" lon="0.39829">
        <ele>121.0892028762</ele>
        <time>2021-11-18T08:30:02Z</time>
      </trkpt>
      <trkpt lat="46.48476" lon="0.39833">
        <ele>121.19971382897</ele>
        <time>2021-11-18T08:30:04Z</time>
      </trkpt>
      <trkpt lat="46.48475" lon="0.39836">
        <ele>120.78130162694</ele>
        <time>2021-11-18T08:30:06Z</time>
      </trkpt>
      <trkpt lat="46.48474" lon="0.3984">
        <ele>121.01247698441</ele>
        <time>2021-11-18T08:30:08Z</time>
      </trkpt>
      <trkpt lat="46.48474" lon="0.39843">
        <ele>120.76883325353</ele>
        <time>2021-11-18T08:30:10Z</time>
      </trkpt>
      <trkpt lat="46.48474" lon="0.39847">
        <ele>120.8382865591</ele>
        <time>2021-11-18T08:30:12Z</time>
      </trkpt>
      <trkpt lat="46.48473" lon="0.39851">
        <ele>120.86520107184</ele>
        <time>2021-11-18T08:30:14Z</time>
      </trkpt>
      <trkpt lat="46.48473" lon="0.39854">
        <ele>120.85552276485</ele>
        <time>2021-11-18T08:30:16Z</time>
      </trkpt>
      <trkpt lat="46.48472" lon="0.39858">
        <ele>120.83948133606</ele>
        <time>2021-11-18T08:30:19Z</time>
      </trkpt>
      <trkpt lat="46.48473" lon="0.39861">
        <ele>120.87373496126</ele>
        <time>2021-11-18T08:30:22Z</time>
      </trkpt>
      <trkpt lat="46.48473" lon="0.39863">
        <ele>120.98517093435</ele>
        <time>2021-11-18T08:30:25Z</time>
      </trkpt>
      <trkpt lat="46.48472" lon="0.39866">
        <ele>120.73647321016</ele>
        <time>2021-11-18T08:30:27Z</time>
      </trkpt>
      <trkpt lat="46.48472" lon="0.3987">
        <ele>120.66875276249</ele>
        <time>2021-11-18T08:30:29Z</time>
      </trkpt>
      <trkpt lat="46.4847" lon="0.39872">
        <ele>120.26208606083</ele>
        <time>2021-11-18T08:30:31Z</time>
      </trkpt>
      <trkpt lat="46.4847" lon="0.39875">
        <ele>120.65291045606</ele>
        <time>2021-11-18T08:30:33Z</time>
      </trkpt>
      <trkpt lat="46.4847" lon="0.39878">
        <ele>120.32978033926</ele>
        <time>2021-11-18T08:30:35Z</time>
      </trkpt>
      <trkpt lat="46.48469" lon="0.39881">
        <ele>120.42139639892</ele>
        <time>2021-11-18T08:30:37Z</time>
      </trkpt>
      <trkpt lat="46.48468" lon="0.39885">
        <ele>120.00234888867</ele>
        <time>2021-11-18T08:30:40Z</time>
      </trkpt>
      <trkpt lat="46.48468" lon="0.39888">
        <ele>120.02126753796</ele>
        <time>2021-11-18T08:30:42Z</time>
      </trkpt>
      <trkpt lat="46.48468" lon="0.39892">
        <ele>120.10430203285</ele>
        <time>2021-11-18T08:30:45Z</time>
      </trkpt>
      <trkpt lat="46.48467" lon="0.39894">
        <ele>120.23710965551</ele>
        <time>2021-11-18T08:30:48Z</time>
      </trkpt>
      <trkpt lat="46.48464" lon="0.39895">
        <ele>119.86628792062</ele>
        <time>2021-11-18T08:30:51Z</time>
      </trkpt>
      <trkpt lat="46.48462" lon="0.39895">
        <ele>120.38402924594</ele>
        <time>2021-11-18T08:30:53Z</time>
      </trkpt>
      <trkpt lat="46.4846" lon="0.39894">
        <ele>120.01971599553</ele>
        <time>2021-11-18T08:30:55Z</time>
      </trkpt>
      <trkpt lat="46.48458" lon="0.3989">
        <ele>119.96993832104</ele>
        <time>2021-11-18T08:30:58Z</time>
      </trkpt>
      <trkpt lat="46.48456" lon="0.39887">
        <ele>120.21570236329</ele>
        <time>2021-11-18T08:31:01Z</time>
      </trkpt>
      <trkpt lat="46.48455" lon="0.39885">
        <ele>120.11479912698</ele>
        <time>2021-11-18T08:31:03Z</time>
      </trkpt>
      <trkpt lat="46.48454" lon="0.39883">
        <ele>120.11390098743</ele>
        <time>2021-11-18T08:31:05Z</time>
      </trkpt>
      <trkpt lat="46.48452" lon="0.39881">
        <ele>120.04302766919</ele>
        <time>2021-11-18T08:31:07Z</time>
      </trkpt>
      <trkpt lat="46.48451" lon="0.39878">
        <ele>120.0222843634</ele>
        <time>2021-11-18T08:31:09Z</time>
      </trkpt>
      <trkpt lat="46.48449" lon="0.39877">
        <ele>120.42239015363</ele>
        <time>2021-11-18T08:31:11Z</time>
      </trkpt>
      <trkpt lat="46.48447" lon="0.39876">
        <ele>120.50449691527</ele>
        <time>2021-11-18T08:31:13Z</time>
      </trkpt>
      <trkpt lat="46.48446" lon="0.39875">
        <ele>120.59445174225</ele>
        <time>2021-11-18T08:31:15Z</time>
      </trkpt>
      <trkpt lat="46.48444" lon="0.39873">
        <ele>120.42327417061</ele>
        <time>2021-11-18T08:31:17Z</time>
      </trkpt>
      <trkpt lat="46.48443" lon="0.39871">
        <ele>120.57554114889</ele>
        <time>2021-11-18T08:31:19Z</time>
      </trkpt>
      <trkpt lat="46.48442" lon="0.39868">
        <ele>120.521413045</ele>
        <time>2021-11-18T08:31:21Z</time>
      </trkpt>
      <trkpt lat="46.4844" lon="0.39865">
        <ele>120.61117776111</ele>
        <time>2021-11-18T08:31:23Z</time>
      </trkpt>
      <trkpt lat="46.48438" lon="0.39864">
        <ele>120.748848469</ele>
        <time>2021-11-18T08:31:25Z</time>
      </trkpt>
      <trkpt lat="46.48436" lon="0.39861">
        <ele>120.96466670372</ele>
        <time>2021-11-18T08:31:27Z</time>
      </trkpt>
      <trkpt lat="46.48434" lon="0.39859">
        <ele>121.2566060042</ele>
        <time>2021-11-18T08:31:29Z</time>
      </trkpt>
      <trkpt lat="46.48433" lon="0.39857">
        <ele>121.26207179669</ele>
        <time>2021-11-18T08:31:31Z</time>
      </trkpt>
      <trkpt lat="46.48431" lon="0.39854">
        <ele>121.06677123718</ele>
        <time>2021-11-18T08:31:34Z</time>
      </trkpt>
      <trkpt lat="46.48428" lon="0.39852">
        <ele>121.30029924121</ele>
        <time>2021-11-18T08:31:36Z</time>
      </trkpt>
      <trkpt lat="46.48426" lon="0.39849">
        <ele>121.12903054059</ele>
        <time>2021-11-18T08:31:38Z</time>
      </trkpt>
      <trkpt lat="46.48424" lon="0.39847">
        <ele>121.30795823224</ele>
        <time>2021-11-18T08:31:40Z</time>
      </trkpt>
      <trkpt lat="46.48423" lon="0.39845">
        <ele>121.34171086736</ele>
        <time>2021-11-18T08:31:42Z</time>
      </trkpt>
      <trkpt lat="46.4842" lon="0.39843">
        <ele>121.19318725727</ele>
        <time>2021-11-18T08:31:44Z</time>
      </trkpt>
      <trkpt lat="46.48419" lon="0.39842">
        <ele>121.71901719365</ele>
        <time>2021-11-18T08:31:46Z</time>
      </trkpt>
      <trkpt lat="46.48417" lon="0.39838">
        <ele>121.73207132053</ele>
        <time>2021-11-18T08:31:48Z</time>
      </trkpt>
      <trkpt lat="46.48414" lon="0.39836">
        <ele>121.63838502578</ele>
        <time>2021-11-18T08:31:50Z</time>
      </trkpt>
      <trkpt lat="46.48412" lon="0.39835">
        <ele>121.77468073741</ele>
        <time>2021-11-18T08:31:52Z</time>
      </trkpt>
      <trkpt lat="46.4841" lon="0.39833">
        <ele>122.44415274635</ele>
        <time>2021-11-18T08:31:54Z</time>
      </trkpt>
      <trkpt lat="46.48408" lon="0.39832">
        <ele>122.17420066148</ele>
        <time>2021-11-18T08:31:56Z</time>
      </trkpt>
      <trkpt lat="46.48406" lon="0.39831">
        <ele>122.2187166037</ele>
        <time>2021-11-18T08:31:58Z</time>
      </trkpt>
      <trkpt lat="46.48404" lon="0.39829">
        <ele>122.12095889077</ele>
        <time>2021-11-18T08:32:00Z</time>
      </trkpt>
      <trkpt lat="46.48402" lon="0.39828">
        <ele>122.0225012172</ele>
        <time>2021-11-18T08:32:02Z</time>
      </trkpt>
      <trkpt lat="46.484" lon="0.39826">
        <ele>122.63741734531</ele>
        <time>2021-11-18T08:32:04Z</time>
      </trkpt>
      <trkpt lat="46.48397" lon="0.39824">
        <ele>122.40678472538</ele>
        <time>2021-11-18T08:32:06Z</time>
      </trkpt>
      <trkpt lat="46.48395" lon="0.39823">
        <ele>122.59218941815</ele>
        <time>2021-11-18T08:32:09Z</time>
      </trkpt>
      <trkpt lat="46.48392" lon="0.39821">
        <ele>122.90454167034</ele>
        <time>2021-11-18T08:32:12Z</time>
      </trkpt>
      <trkpt lat="46.4839" lon="0.39819">
        <ele>122.67534894682</ele>
        <time>2021-11-18T08:32:14Z</time>
      </trkpt>
      <trkpt lat="46.48389" lon="0.39817">
        <ele>122.78194961697</ele>
        <time>2021-11-18T08:32:16Z</time>
      </trkpt>
      <trkpt lat="46.48386" lon="0.39817">
        <ele>122.46748615243</ele>
        <time>2021-11-18T08:32:18Z</time>
      </trkpt>
      <trkpt lat="46.48384" lon="0.39816">
        <ele>122.77590924967</ele>
        <time>2021-11-18T08:32:20Z</time>
      </trkpt>
      <trkpt lat="46.48382" lon="0.39814">
        <ele>122.68608938158</ele>
        <time>2021-11-18T08:32:22Z</time>
      </trkpt>
      <trkpt lat="46.4838" lon="0.39813">
        <ele>123.02498137206</ele>
        <time>2021-11-18T08:32:24Z</time>
      </trkpt>
      <trkpt lat="46.48378" lon="0.39811">
        <ele>123.17239502445</ele>
        <time>2021-11-18T08:32:26Z</time>
      </trkpt>
      <trkpt lat="46.48376" lon="0.39808">
        <ele>122.81393765938</ele>
        <time>2021-11-18T08:32:28Z</time>
      </trkpt>
      <trkpt lat="46.48374" lon="0.39806">
        <ele>123.32377889939</ele>
        <time>2021-11-18T08:32:30Z</time>
      </trkpt>
      <trkpt lat="46.48372" lon="0.39805">
        <ele>123.41565494332</ele>
        <time>2021-11-18T08:32:32Z</time>
      </trkpt>
      <trkpt lat="46.4837" lon="0.39802">
        <ele>123.0210004095</ele>
        <time>2021-11-18T08:32:34Z</time>
      </trkpt>
      <trkpt lat="46.48368" lon="0.39801">
        <ele>123.07041242905</ele>
        <time>2021-11-18T08:32:37Z</time>
      </trkpt>
      <trkpt lat="46.48365" lon="0.398">
        <ele>123.29184999969</ele>
        <time>2021-11-18T08:32:39Z</time>
      </trkpt>
      <trkpt lat="46.48364" lon="0.39798">
        <ele>123.58840588201</ele>
        <time>2021-11-18T08:32:41Z</time>
      </trkpt>
      <trkpt lat="46.48362" lon="0.39796">
        <ele>123.29651613533</ele>
        <time>2021-11-18T08:32:43Z</time>
      </trkpt>
      <trkpt lat="46.48361" lon="0.39793">
        <ele>123.52120516356</ele>
        <time>2021-11-18T08:32:45Z</time>
      </trkpt>
      <trkpt lat="46.48358" lon="0.39791">
        <ele>123.45423364453</ele>
        <time>2021-11-18T08:32:47Z</time>
      </trkpt>
      <trkpt lat="46.48356" lon="0.3979">
        <ele>124.0253142966</ele>
        <time>2021-11-18T08:32:49Z</time>
      </trkpt>
      <trkpt lat="46.48354" lon="0.39788">
        <ele>123.51070664637</ele>
        <time>2021-11-18T08:32:51Z</time>
      </trkpt>
      <trkpt lat="46.48352" lon="0.39787">
        <ele>123.44505298138</ele>
        <time>2021-11-18T08:32:53Z</time>
      </trkpt>
      <trkpt lat="46.4835" lon="0.39786">
        <ele>123.68865299225</ele>
        <time>2021-11-18T08:32:55Z</time>
      </trkpt>
      <trkpt lat="46.48348" lon="0.39784">
        <ele>123.98060616013</ele>
        <time>2021-11-18T08:32:57Z</time>
      </trkpt>
      <trkpt lat="46.48346" lon="0.39782">
        <ele>123.91932325438</ele>
        <time>2021-11-18T08:32:59Z</time>
      </trkpt>
      <trkpt lat="46.48344" lon="0.39781">
        <ele>123.70047624968</ele>
        <time>2021-11-18T08:33:01Z</time>
      </trkpt>
      <trkpt lat="46.48341" lon="0.3978">
        <ele>123.95298744738</ele>
        <time>2021-11-18T08:33:04Z</time>
      </trkpt>
      <trkpt lat="46.48339" lon="0.39779">
        <ele>123.78919948544</ele>
        <time>2021-11-18T08:33:06Z</time>
      </trkpt>
      <trkpt lat="46.48336" lon="0.39778">
        <ele>124.16066778358</ele>
        <time>2021-11-18T08:33:08Z</time>
      </trkpt>
      <trkpt lat="46.48334" lon="0.39778">
        <ele>124.21422431804</ele>
        <time>2021-11-18T08:33:10Z</time>
      </trkpt>
      <trkpt lat="46.48332" lon="0.39778">
        <ele>124.10288748704</ele>
        <time>2021-11-18T08:33:12Z</time>
      </trkpt>
      <trkpt lat="46.4833" lon="0.39777">
        <ele>124.3368566623</ele>
        <time>2021-11-18T08:33:14Z</time>
      </trkpt>
      <trkpt lat="46.48327" lon="0.39776">
        <ele>124.52685947716</ele>
        <time>2021-11-18T08:33:16Z</time>
      </trkpt>
      <trkpt lat="46.48324" lon="0.39776">
        <ele>124.45599885006</ele>
        <time>2021-11-18T08:33:19Z</time>
      </trkpt>
      <trkpt lat="46.48323" lon="0.39775">
        <ele>124.5953516392</ele>
        <time>2021-11-18T08:33:21Z</time>
      </trkpt>
      <trkpt lat="46.48321" lon="0.39774">
        <ele>124.64813297708</ele>
        <time>2021-11-18T08:33:23Z</time>
      </trkpt>
      <trkpt lat="46.48319" lon="0.39774">
        <ele>124.66969163436</ele>
        <time>2021-11-18T08:33:25Z</time>
      </trkpt>
      <trkpt lat="46.48316" lon="0.39774">
        <ele>124.94911075011</ele>
        <time>2021-11-18T08:33:28Z</time>
      </trkpt>
      <trkpt lat="46.48313" lon="0.39773">
        <ele>124.99812029675</ele>
        <time>2021-11-18T08:33:30Z</time>
      </trkpt>
      <trkpt lat="46.48312" lon="0.39772">
        <ele>124.99188270699</ele>
        <time>2021-11-18T08:33:32Z</time>
      </trkpt>
      <trkpt lat="46.48309" lon="0.39771">
        <ele>124.92402222101</ele>
        <time>2021-11-18T08:33:35Z</time>
      </trkpt>
      <trkpt lat="46.48306" lon="0.39769">
        <ele>125.04690324143</ele>
        <time>2021-11-18T08:33:38Z</time>
      </trkpt>
      <trkpt lat="46.48304" lon="0.39768">
        <ele>125.05945012625</ele>
        <time>2021-11-18T08:33:40Z</time>
      </trkpt>
      <trkpt lat="46.48302" lon="0.39768">
        <ele>124.96116419509</ele>
        <time>2021-11-18T08:33:42Z</time>
      </trkpt>
      <trkpt lat="46.483" lon="0.39767">
        <ele>125.46891417913</ele>
        <time>2021-11-18T08:33:44Z</time>
      </trkpt>
      <trkpt lat="46.48297" lon="0.39767">
        <ele>125.27885487862</ele>
        <time>2021-11-18T08:33:46Z</time>
      </trkpt>
      <trkpt lat="46.48295" lon="0.39766">
        <ele>125.77807156462</ele>
        <time>2021-11-18T08:33:48Z</time>
      </trkpt>
      <trkpt lat="46.48293" lon="0.39765">
        <ele>125.20321445726</ele>
        <time>2021-11-18T08:33:50Z</time>
      </trkpt>
      <trkpt lat="46.4829" lon="0.39763">
        <ele>125.06829118077</ele>
        <time>2021-11-18T08:33:52Z</time>
      </trkpt>
      <trkpt lat="46.48288" lon="0.39762">
        <ele>125.55352543201</ele>
        <time>2021-11-18T08:33:54Z</time>
      </trkpt>
      <trkpt lat="46.48287" lon="0.39761">
        <ele>125.62122183759</ele>
        <time>2021-11-18T08:33:56Z</time>
      </trkpt>
      <trkpt lat="46.48285" lon="0.39758">
        <ele>125.31462283619</ele>
        <time>2021-11-18T08:33:59Z</time>
      </trkpt>
      <trkpt lat="46.48282" lon="0.39756">
        <ele>125.55820965301</ele>
        <time>2021-11-18T08:34:02Z</time>
      </trkpt>
      <trkpt lat="46.48281" lon="0.39754">
        <ele>126.00049886759</ele>
        <time>2021-11-18T08:34:04Z</time>
      </trkpt>
      <trkpt lat="46.48279" lon="0.39753">
        <ele>125.84948773403</ele>
        <time>2021-11-18T08:34:06Z</time>
      </trkpt>
      <trkpt lat="46.48277" lon="0.3975">
        <ele>126.05334324762</ele>
        <time>2021-11-18T08:34:09Z</time>
      </trkpt>
      <trkpt lat="46.48275" lon="0.39748">
        <ele>126.38175195828</ele>
        <time>2021-11-18T08:34:11Z</time>
      </trkpt>
      <trkpt lat="46.48274" lon="0.39747">
        <ele>126.26469559222</ele>
        <time>2021-11-18T08:34:13Z</time>
      </trkpt>
      <trkpt lat="46.48272" lon="0.39746">
        <ele>126.5875003878</ele>
        <time>2021-11-18T08:34:15Z</time>
      </trkpt>
      <trkpt lat="46.4827" lon="0.39744">
        <ele>126.51229486242</ele>
        <time>2021-11-18T08:34:17Z</time>
      </trkpt>
      <trkpt lat="46.48267" lon="0.39742">
        <ele>126.54824395012</ele>
        <time>2021-11-18T08:34:19Z</time>
      </trkpt>
      <trkpt lat="46.48265" lon="0.3974">
        <ele>126.44218265358</ele>
        <time>2021-11-18T08:34:21Z</time>
      </trkpt>
      <trkpt lat="46.48263" lon="0.39738">
        <ele>126.71168932505</ele>
        <time>2021-11-18T08:34:23Z</time>
      </trkpt>
      <trkpt lat="46.48262" lon="0.39737">
        <ele>126.73188671656</ele>
        <time>2021-11-18T08:34:25Z</time>
      </trkpt>
      <trkpt lat="46.4826" lon="0.39735">
        <ele>126.61344291456</ele>
        <time>2021-11-18T08:34:27Z</time>
      </trkpt>
      <trkpt lat="46.48257" lon="0.39734">
        <ele>126.57819161844</ele>
        <time>2021-11-18T08:34:29Z</time>
      </trkpt>
      <trkpt lat="46.48255" lon="0.39732">
        <ele>126.61054298282</ele>
        <time>2021-11-18T08:34:31Z</time>
      </trkpt>
      <trkpt lat="46.48253" lon="0.3973">
        <ele>126.83604023419</ele>
        <time>2021-11-18T08:34:33Z</time>
      </trkpt>
      <trkpt lat="46.48251" lon="0.39728">
        <ele>126.67829141114</ele>
        <time>2021-11-18T08:34:35Z</time>
      </trkpt>
      <trkpt lat="46.48249" lon="0.39725">
        <ele>127.13113589492</ele>
        <time>2021-11-18T08:34:38Z</time>
      </trkpt>
      <trkpt lat="46.48247" lon="0.39724">
        <ele>126.8223598171</ele>
        <time>2021-11-18T08:34:40Z</time>
      </trkpt>
      <trkpt lat="46.48245" lon="0.39721">
        <ele>127.17359788157</ele>
        <time>2021-11-18T08:34:42Z</time>
      </trkpt>
      <trkpt lat="46.48243" lon="0.39719">
        <ele>126.99625565298</ele>
        <time>2021-11-18T08:34:44Z</time>
      </trkpt>
      <trkpt lat="46.48242" lon="0.39718">
        <ele>127.02439417597</ele>
        <time>2021-11-18T08:34:46Z</time>
      </trkpt>
      <trkpt lat="46.48239" lon="0.39715">
        <ele>127.09869670309</ele>
        <time>2021-11-18T08:34:49Z</time>
      </trkpt>
      <trkpt lat="46.48236" lon="0.39714">
        <ele>127.1582887331</ele>
        <time>2021-11-18T08:34:52Z</time>
      </trkpt>
      <trkpt lat="46.48235" lon="0.39712">
        <ele>127.54111196287</ele>
        <time>2021-11-18T08:34:54Z</time>
      </trkpt>
      <trkpt lat="46.48233" lon="0.3971">
        <ele>127.27226581611</ele>
        <time>2021-11-18T08:34:56Z</time>
      </trkpt>
      <trkpt lat="46.4823" lon="0.39708">
        <ele>127.0186338881</ele>
        <time>2021-11-18T08:34:59Z</time>
      </trkpt>
      <trkpt lat="46.48229" lon="0.39706">
        <ele>127.23457840923</ele>
        <time>2021-11-18T08:35:01Z</time>
      </trkpt>
      <trkpt lat="46.48227" lon="0.39705">
        <ele>127.61066395417</ele>
        <time>2021-11-18T08:35:03Z</time>
      </trkpt>
      <trkpt lat="46.48226" lon="0.39703">
        <ele>127.64338838868</ele>
        <time>2021-11-18T08:35:05Z</time>
      </trkpt>
      <trkpt lat="46.48223" lon="0.39702">
        <ele>127.11445989739</ele>
        <time>2021-11-18T08:35:07Z</time>
      </trkpt>
      <trkpt lat="46.48222" lon="0.39699">
        <ele>127.12451408524</ele>
        <time>2021-11-18T08:35:09Z</time>
      </trkpt>
      <trkpt lat="46.48219" lon="0.39698">
        <ele>127.16546086967</ele>
        <time>2021-11-18T08:35:11Z</time>
      </trkpt>
      <trkpt lat="46.48216" lon="0.39697">
        <ele>127.02425044309</ele>
        <time>2021-11-18T08:35:13Z</time>
      </trkpt>
      <trkpt lat="46.48215" lon="0.39696">
        <ele>127.00079680514</ele>
        <time>2021-11-18T08:35:15Z</time>
      </trkpt>
      <trkpt lat="46.48212" lon="0.39695">
        <ele>127.26407788135</ele>
        <time>2021-11-18T08:35:17Z</time>
      </trkpt>
      <trkpt lat="46.48209" lon="0.39694">
        <ele>127.34530580696</ele>
        <time>2021-11-18T08:35:19Z</time>
      </trkpt>
      <trkpt lat="46.48207" lon="0.39692">
        <ele>127.36994603742</ele>
        <time>2021-11-18T08:35:21Z</time>
      </trkpt>
      <trkpt lat="46.48204" lon="0.3969">
        <ele>127.73927558213</ele>
        <time>2021-11-18T08:35:24Z</time>
      </trkpt>
      <trkpt lat="46.48202" lon="0.3969">
        <ele>127.73098283075</ele>
        <time>2021-11-18T08:35:26Z</time>
      </trkpt>
      <trkpt lat="46.482" lon="0.3969">
        <ele>127.57480217516</ele>
        <time>2021-11-18T08:35:28Z</time>
      </trkpt>
      <trkpt lat="46.48197" lon="0.39689">
        <ele>127.67867705319</ele>
        <time>2021-11-18T08:35:30Z</time>
      </trkpt>
      <trkpt lat="46.48195" lon="0.39687">
        <ele>127.81232303008</ele>
        <time>2021-11-18T08:35:32Z</time>
      </trkpt>
      <trkpt lat="46.48193" lon="0.39685">
        <ele>128.07169718761</ele>
        <time>2021-11-18T08:35:35Z</time>
      </trkpt>
      <trkpt lat="46.48191" lon="0.39684">
        <ele>128.01734592579</ele>
        <time>2021-11-18T08:35:37Z</time>
      </trkpt>
      <trkpt lat="46.4819" lon="0.39681">
        <ele>128.36271689646</ele>
        <time>2021-11-18T08:35:39Z</time>
      </trkpt>
      <trkpt lat="46.48186" lon="0.3968">
        <ele>127.99954553694</ele>
        <time>2021-11-18T08:35:41Z</time>
      </trkpt>
      <trkpt lat="46.48184" lon="0.39678">
        <ele>128.06505068671</ele>
        <time>2021-11-18T08:35:43Z</time>
      </trkpt>
      <trkpt lat="46.48182" lon="0.39677">
        <ele>128.13415191323</ele>
        <time>2021-11-18T08:35:45Z</time>
      </trkpt>
      <trkpt lat="46.4818" lon="0.39676">
        <ele>128.07137584407</ele>
        <time>2021-11-18T08:35:46Z</time>
      </trkpt>
      <trkpt lat="46.48178" lon="0.39675">
        <ele>128.20325632859</ele>
        <time>2021-11-18T08:35:48Z</time>
      </trkpt>
      <trkpt lat="46.48175" lon="0.39674">
        <ele>127.92179248482</ele>
        <time>2021-11-18T08:35:50Z</time>
      </trkpt>
      <trkpt lat="46.48174" lon="0.39672">
        <ele>127.78386972938</ele>
        <time>2021-11-18T08:35:52Z</time>
      </trkpt>
      <trkpt lat="46.48171" lon="0.3967">
        <ele>128.20977105107</ele>
        <time>2021-11-18T08:35:54Z</time>
      </trkpt>
      <trkpt lat="46.48169" lon="0.39668">
        <ele>128.46539969556</ele>
        <time>2021-11-18T08:35:56Z</time>
      </trkpt>
      <trkpt lat="46.48167" lon="0.39667">
        <ele>128.12424566038</ele>
        <time>2021-11-18T08:35:58Z</time>
      </trkpt>
      <trkpt lat="46.48165" lon="0.39666">
        <ele>128.24436808936</ele>
        <time>2021-11-18T08:36:00Z</time>
      </trkpt>
      <trkpt lat="46.48164" lon="0.39664">
        <ele>127.99763254263</ele>
        <time>2021-11-18T08:36:02Z</time>
      </trkpt>
      <trkpt lat="46.48162" lon="0.39663">
        <ele>128.00459920801</ele>
        <time>2021-11-18T08:36:04Z</time>
      </trkpt>
      <trkpt lat="46.48159" lon="0.39662">
        <ele>128.38610986527</ele>
        <time>2021-11-18T08:36:06Z</time>
      </trkpt>
      <trkpt lat="46.48157" lon="0.39659">
        <ele>128.23979781102</ele>
        <time>2021-11-18T08:36:08Z</time>
      </trkpt>
      <trkpt lat="46.48155" lon="0.39659">
        <ele>128.12717057671</ele>
        <time>2021-11-18T08:36:10Z</time>
      </trkpt>
      <trkpt lat="46.48153" lon="0.39657">
        <ele>128.3108619703</ele>
        <time>2021-11-18T08:36:13Z</time>
      </trkpt>
      <trkpt lat="46.48151" lon="0.39656">
        <ele>128.01570448186</ele>
        <time>2021-11-18T08:36:15Z</time>
      </trkpt>
      <trkpt lat="46.48148" lon="0.39655">
        <ele>128.15935500246</ele>
        <time>2021-11-18T08:36:17Z</time>
      </trkpt>
      <trkpt lat="46.48146" lon="0.39653">
        <ele>128.16728204023</ele>
        <time>2021-11-18T08:36:19Z</time>
      </trkpt>
      <trkpt lat="46.48143" lon="0.39651">
        <ele>128.48692501709</ele>
        <time>2021-11-18T08:36:21Z</time>
      </trkpt>
      <trkpt lat="46.48142" lon="0.3965">
        <ele>128.30463470891</ele>
        <time>2021-11-18T08:36:22Z</time>
      </trkpt>
      <trkpt lat="46.48139" lon="0.39649">
        <ele>127.76750649046</ele>
        <time>2021-11-18T08:36:24Z</time>
      </trkpt>
      <trkpt lat="46.48137" lon="0.39649">
        <ele>128.36205102224</ele>
        <time>2021-11-18T08:36:27Z</time>
      </trkpt>
      <trkpt lat="46.48134" lon="0.39647">
        <ele>128.01354471408</ele>
        <time>2021-11-18T08:36:30Z</time>
      </trkpt>
      <trkpt lat="46.48132" lon="0.39647">
        <ele>128.11232201476</ele>
        <time>2021-11-18T08:36:32Z</time>
      </trkpt>
      <trkpt lat="46.4813" lon="0.39646">
        <ele>128.05726621859</ele>
        <time>2021-11-18T08:36:35Z</time>
      </trkpt>
      <trkpt lat="46.48128" lon="0.39644">
        <ele>128.26502265781</ele>
        <time>2021-11-18T08:36:37Z</time>
      </trkpt>
      <trkpt lat="46.48126" lon="0.39644">
        <ele>128.0936760921</ele>
        <time>2021-11-18T08:36:39Z</time>
      </trkpt>
      <trkpt lat="46.48124" lon="0.39642">
        <ele>128.04986709543</ele>
        <time>2021-11-18T08:36:42Z</time>
      </trkpt>
      <trkpt lat="46.48123" lon="0.3964">
        <ele>128.22536454722</ele>
        <time>2021-11-18T08:36:46Z</time>
      </trkpt>
      <trkpt lat="46.48121" lon="0.39639">
        <ele>128.21134063788</ele>
        <time>2021-11-18T08:36:50Z</time>
      </trkpt>
      <trkpt lat="46.48119" lon="0.39638">
        <ele>127.94917920325</ele>
        <time>2021-11-18T08:36:52Z</time>
      </trkpt>
      <trkpt lat="46.48121" lon="0.3964">
        <ele>128.17743579578</ele>
        <time>2021-11-18T08:37:17Z</time>
      </trkpt>
      <trkpt lat="46.48122" lon="0.39637">
        <ele>128.12224593479</ele>
        <time>2021-11-18T08:37:25Z</time>
      </trkpt>
      <trkpt lat="46.4812" lon="0.39635">
        <ele>128.31850449834</ele>
        <time>2021-11-18T08:37:32Z</time>
      </trkpt>
      <trkpt lat="46.4812" lon="0.39639">
        <ele>128.36075549107</ele>
        <time>2021-11-18T08:38:12Z</time>
      </trkpt>
      <trkpt lat="46.48118" lon="0.39639">
        <ele>128.11219534464</ele>
        <time>2021-11-18T08:38:21Z</time>
      </trkpt>
      <trkpt lat="46.48115" lon="0.3964">
        <ele>127.99596898165</ele>
        <time>2021-11-18T08:38:30Z</time>
      </trkpt>
      <trkpt lat="46.48117" lon="0.39641">
        <ele>128.36760412902</ele>
        <time>2021-11-18T08:38:55Z</time>
      </trkpt>
      <trkpt lat="46.48118" lon="0.39638">
        <ele>128.25052612741</ele>
        <time>2021-11-18T08:39:02Z</time>
      </trkpt>
      <trkpt lat="46.48121" lon="0.39637">
        <ele>128.40131512377</ele>
        <time>2021-11-18T08:39:05Z</time>
      </trkpt>
      <trkpt lat="46.48123" lon="0.39633">
        <ele>128.27330422029</ele>
        <time>2021-11-18T08:39:17Z</time>
      </trkpt>
      <trkpt lat="46.48124" lon="0.39631">
        <ele>128.38238954637</ele>
        <time>2021-11-18T08:39:37Z</time>
      </trkpt>
      <trkpt lat="46.48123" lon="0.39628">
        <ele>128.98054796644</ele>
        <time>2021-11-18T08:39:45Z</time>
      </trkpt>
      <trkpt lat="46.48122" lon="0.39631">
        <ele>128.57543406077</ele>
        <time>2021-11-18T08:40:08Z</time>
      </trkpt>
      <trkpt lat="46.4812" lon="0.39632">
        <ele>128.33378610946</ele>
        <time>2021-11-18T08:40:22Z</time>
      </trkpt>
      <trkpt lat="46.48119" lon="0.39634">
        <ele>128.38608088251</ele>
        <time>2021-11-18T08:40:29Z</time>
      </trkpt>
      <trkpt lat="46.48121" lon="0.39634">
        <ele>128.34791996889</ele>
        <time>2021-11-18T08:40:42Z</time>
      </trkpt>
      <trkpt lat="46.4812" lon="0.39631">
        <ele>128.56731033605</ele>
        <time>2021-11-18T08:41:05Z</time>
      </trkpt>
      <trkpt lat="46.48121" lon="0.39634">
        <ele>128.39622321259</ele>
        <time>2021-11-18T08:41:09Z</time>
      </trkpt>
      <trkpt lat="46.48121" lon="0.39637">
        <ele>128.59505839832</ele>
        <time>2021-11-18T08:41:29Z</time>
      </trkpt>
      <trkpt lat="46.48119" lon="0.39639">
        <ele>128.27902688272</ele>
        <time>2021-11-18T08:41:33Z</time>
      </trkpt>
      <trkpt lat="46.48119" lon="0.39636">
        <ele>128.096651203</ele>
        <time>2021-11-18T08:41:57Z</time>
      </trkpt>
      <trkpt lat="46.4812" lon="0.39638">
        <ele>128.29856791627</ele>
        <time>2021-11-18T08:42:03Z</time>
      </trkpt>
      <trkpt lat="46.48122" lon="0.39635">
        <ele>128.39957673289</ele>
        <time>2021-11-18T08:42:10Z</time>
      </trkpt>
      <trkpt lat="46.4812" lon="0.39632">
        <ele>128.42656621151</ele>
        <time>2021-11-18T08:42:28Z</time>
      </trkpt>
      <trkpt lat="46.4812" lon="0.39629">
        <ele>128.6360808583</ele>
        <time>2021-11-18T08:42:55Z</time>
      </trkpt>
      <trkpt lat="46.4812" lon="0.39632">
        <ele>128.54651208129</ele>
        <time>2021-11-18T08:43:43Z</time>
      </trkpt>
      <trkpt lat="46.48118" lon="0.39634">
        <ele>128.55759641062</ele>
        <time>2021-11-18T08:44:01Z</time>
      </trkpt>
      <trkpt lat="46.48117" lon="0.39636">
        <ele>128.46158699784</ele>
        <time>2021-11-18T08:44:25Z</time>
      </trkpt>
      <trkpt lat="46.48115" lon="0.39634">
        <ele>128.3227990903</ele>
        <time>2021-11-18T08:45:05Z</time>
      </trkpt>
      <trkpt lat="46.48113" lon="0.39633">
        <ele>128.06692920998</ele>
        <time>2021-11-18T08:45:08Z</time>
      </trkpt>
      <trkpt lat="46.48113" lon="0.39636">
        <ele>128.20586369745</ele>
        <time>2021-11-18T08:45:18Z</time>
      </trkpt>
      <trkpt lat="46.48113" lon="0.39638">
        <ele>128.82475209422</ele>
        <time>2021-11-18T08:45:21Z</time>
      </trkpt>
      <trkpt lat="46.48112" lon="0.39639">
        <ele>127.82668861002</ele>
        <time>2021-11-18T08:45:51Z</time>
      </trkpt>
      <trkpt lat="46.48111" lon="0.39642">
        <ele>128.17299362738</ele>
        <time>2021-11-18T08:46:24Z</time>
      </trkpt>
      <trkpt lat="46.4811" lon="0.39639">
        <ele>128.28120802715</ele>
        <time>2021-11-18T08:46:36Z</time>
      </trkpt>
      <trkpt lat="46.48112" lon="0.39638">
        <ele>128.20424479805</ele>
        <time>2021-11-18T08:46:48Z</time>
      </trkpt>
      <trkpt lat="46.4811" lon="0.39639">
        <ele>129.49176053423</ele>
        <time>2021-11-18T08:48:12Z</time>
      </trkpt>
      <trkpt lat="46.48112" lon="0.39639">
        <ele>128.2421636479</ele>
        <time>2021-11-18T08:48:14Z</time>
      </trkpt>
      <trkpt lat="46.48114" lon="0.39636">
        <ele>128.33658003993</ele>
        <time>2021-11-18T08:48:23Z</time>
      </trkpt>
      <trkpt lat="46.48116" lon="0.39635">
        <ele>128.34853067063</ele>
        <time>2021-11-18T08:48:33Z</time>
      </trkpt>
      <trkpt lat="46.48117" lon="0.39632">
        <ele>128.37086968496</ele>
        <time>2021-11-18T08:48:37Z</time>
      </trkpt>
      <trkpt lat="46.48118" lon="0.39636">
        <ele>128.59932714608</ele>
        <time>2021-11-18T08:50:05Z</time>
      </trkpt>
      <trkpt lat="46.4812" lon="0.39631">
        <ele>128.36044890434</ele>
        <time>2021-11-18T08:51:15Z</time>
      </trkpt>
      <trkpt lat="46.48117" lon="0.3963">
        <ele>128.47545202635</ele>
        <time>2021-11-18T08:51:46Z</time>
      </trkpt>
      <trkpt lat="46.48115" lon="0.39634">
        <ele>128.49271608423</ele>
        <time>2021-11-18T08:52:01Z</time>
      </trkpt>
      <trkpt lat="46.48118" lon="0.39633">
        <ele>128.38938212488</ele>
        <time>2021-11-18T08:52:12Z</time>
      </trkpt>
      <trkpt lat="46.48118" lon="0.3963">
        <ele>128.297618201</ele>
        <time>2021-11-18T08:52:25Z</time>
      </trkpt>
      <trkpt lat="46.48119" lon="0.39628">
        <ele>128.21197812539</ele>
        <time>2021-11-18T08:53:28Z</time>
      </trkpt>
      <trkpt lat="46.48116" lon="0.39628">
        <ele>128.27122137416</ele>
        <time>2021-11-18T08:53:31Z</time>
      </trkpt>
      <trkpt lat="46.48114" lon="0.39627">
        <ele>128.41060086619</ele>
        <time>2021-11-18T08:53:33Z</time>
      </trkpt>
      <trkpt lat="46.48111" lon="0.39625">
        <ele>128.59381314553</ele>
        <time>2021-11-18T08:53:35Z</time>
      </trkpt>
      <trkpt lat="46.48108" lon="0.39624">
        <ele>128.5701050479</ele>
        <time>2021-11-18T08:53:38Z</time>
      </trkpt>
      <trkpt lat="46.48106" lon="0.39623">
        <ele>128.64855271764</ele>
        <time>2021-11-18T08:53:40Z</time>
      </trkpt>
      <trkpt lat="46.48103" lon="0.39621">
        <ele>128.57960420288</ele>
        <time>2021-11-18T08:53:43Z</time>
      </trkpt>
      <trkpt lat="46.48101" lon="0.3962">
        <ele>128.88598529343</ele>
        <time>2021-11-18T08:53:45Z</time>
      </trkpt>
      <trkpt lat="46.48099" lon="0.39619">
        <ele>128.54635903612</ele>
        <time>2021-11-18T08:53:47Z</time>
      </trkpt>
      <trkpt lat="46.48096" lon="0.39617">
        <ele>129.16939140484</ele>
        <time>2021-11-18T08:53:49Z</time>
      </trkpt>
      <trkpt lat="46.48095" lon="0.39615">
        <ele>129.14619903173</ele>
        <time>2021-11-18T08:53:51Z</time>
      </trkpt>
      <trkpt lat="46.48091" lon="0.39615">
        <ele>128.77291983645</ele>
        <time>2021-11-18T08:53:54Z</time>
      </trkpt>
      <trkpt lat="46.4809" lon="0.39614">
        <ele>129.07156981342</ele>
        <time>2021-11-18T08:53:56Z</time>
      </trkpt>
      <trkpt lat="46.48088" lon="0.39612">
        <ele>128.82753798552</ele>
        <time>2021-11-18T08:53:58Z</time>
      </trkpt>
      <trkpt lat="46.48085" lon="0.39611">
        <ele>129.24973434396</ele>
        <time>2021-11-18T08:54:00Z</time>
      </trkpt>
      <trkpt lat="46.48083" lon="0.3961">
        <ele>128.82196696475</ele>
        <time>2021-11-18T08:54:02Z</time>
      </trkpt>
      <trkpt lat="46.48081" lon="0.39608">
        <ele>129.07416575309</ele>
        <time>2021-11-18T08:54:04Z</time>
      </trkpt>
      <trkpt lat="46.48079" lon="0.39607">
        <ele>128.98989710212</ele>
        <time>2021-11-18T08:54:06Z</time>
      </trkpt>
      <trkpt lat="46.48077" lon="0.39606">
        <ele>129.16484592576</ele>
        <time>2021-11-18T08:54:08Z</time>
      </trkpt>
      <trkpt lat="46.48075" lon="0.39604">
        <ele>129.00720165763</ele>
        <time>2021-11-18T08:54:10Z</time>
      </trkpt>
      <trkpt lat="46.48072" lon="0.39602">
        <ele>128.81491725333</ele>
        <time>2021-11-18T08:54:12Z</time>
      </trkpt>
      <trkpt lat="46.4807" lon="0.39601">
        <ele>129.11267839931</ele>
        <time>2021-11-18T08:54:14Z</time>
      </trkpt>
      <trkpt lat="46.48069" lon="0.396">
        <ele>128.82835967373</ele>
        <time>2021-11-18T08:54:16Z</time>
      </trkpt>
      <trkpt lat="46.48066" lon="0.39598">
        <ele>128.72815147508</ele>
        <time>2021-11-18T08:54:18Z</time>
      </trkpt>
      <trkpt lat="46.48065" lon="0.39596">
        <ele>128.76870409213</ele>
        <time>2021-11-18T08:54:19Z</time>
      </trkpt>
      <trkpt lat="46.48062" lon="0.39595">
        <ele>128.63126437459</ele>
        <time>2021-11-18T08:54:22Z</time>
      </trkpt>
      <trkpt lat="46.48061" lon="0.39593">
        <ele>128.84398730844</ele>
        <time>2021-11-18T08:54:23Z</time>
      </trkpt>
      <trkpt lat="46.48059" lon="0.39592">
        <ele>128.52355917264</ele>
        <time>2021-11-18T08:54:25Z</time>
      </trkpt>
      <trkpt lat="46.48055" lon="0.39591">
        <ele>128.65630317293</ele>
        <time>2021-11-18T08:54:27Z</time>
      </trkpt>
      <trkpt lat="46.48054" lon="0.39589">
        <ele>128.73529910017</ele>
        <time>2021-11-18T08:54:29Z</time>
      </trkpt>
      <trkpt lat="46.48052" lon="0.39587">
        <ele>129.11838227231</ele>
        <time>2021-11-18T08:54:31Z</time>
      </trkpt>
      <trkpt lat="46.4805" lon="0.39586">
        <ele>128.7145390166</ele>
        <time>2021-11-18T08:54:33Z</time>
      </trkpt>
      <trkpt lat="46.48047" lon="0.39584">
        <ele>128.92009072378</ele>
        <time>2021-11-18T08:54:35Z</time>
      </trkpt>
      <trkpt lat="46.48046" lon="0.39582">
        <ele>128.83796106558</ele>
        <time>2021-11-18T08:54:37Z</time>
      </trkpt>
      <trkpt lat="46.48043" lon="0.39581">
        <ele>129.36034341902</ele>
        <time>2021-11-18T08:54:39Z</time>
      </trkpt>
      <trkpt lat="46.48041" lon="0.3958">
        <ele>129.07636406086</ele>
        <time>2021-11-18T08:54:41Z</time>
      </trkpt>
      <trkpt lat="46.48039" lon="0.39578">
        <ele>129.31167905778</ele>
        <time>2021-11-18T08:54:43Z</time>
      </trkpt>
      <trkpt lat="46.48037" lon="0.39577">
        <ele>129.09557343088</ele>
        <time>2021-11-18T08:54:45Z</time>
      </trkpt>
      <trkpt lat="46.48034" lon="0.39575">
        <ele>128.83559112065</ele>
        <time>2021-11-18T08:54:47Z</time>
      </trkpt>
      <trkpt lat="46.48032" lon="0.39573">
        <ele>129.52240462508</ele>
        <time>2021-11-18T08:54:49Z</time>
      </trkpt>
      <trkpt lat="46.4803" lon="0.39572">
        <ele>129.00875711162</ele>
        <time>2021-11-18T08:54:51Z</time>
      </trkpt>
      <trkpt lat="46.48028" lon="0.39571">
        <ele>129.1190834064</ele>
        <time>2021-11-18T08:54:53Z</time>
      </trkpt>
      <trkpt lat="46.48025" lon="0.3957">
        <ele>128.979594348</ele>
        <time>2021-11-18T08:54:55Z</time>
      </trkpt>
      <trkpt lat="46.48023" lon="0.39569">
        <ele>129.43007520586</ele>
        <time>2021-11-18T08:54:57Z</time>
      </trkpt>
      <trkpt lat="46.48022" lon="0.39567">
        <ele>128.97560876328</ele>
        <time>2021-11-18T08:54:59Z</time>
      </trkpt>
      <trkpt lat="46.4802" lon="0.39567">
        <ele>129.48485215288</ele>
        <time>2021-11-18T08:55:01Z</time>
      </trkpt>
      <trkpt lat="46.48018" lon="0.39565">
        <ele>128.72264829744</ele>
        <time>2021-11-18T08:55:03Z</time>
      </trkpt>
      <trkpt lat="46.48015" lon="0.39564">
        <ele>128.98953355756</ele>
        <time>2021-11-18T08:55:05Z</time>
      </trkpt>
      <trkpt lat="46.48013" lon="0.39563">
        <ele>129.04162360821</ele>
        <time>2021-11-18T08:55:07Z</time>
      </trkpt>
      <trkpt lat="46.48011" lon="0.39562">
        <ele>129.21110820863</ele>
        <time>2021-11-18T08:55:09Z</time>
      </trkpt>
      <trkpt lat="46.48009" lon="0.3956">
        <ele>128.98480865918</ele>
        <time>2021-11-18T08:55:11Z</time>
      </trkpt>
      <trkpt lat="46.48007" lon="0.39559">
        <ele>128.87498634495</ele>
        <time>2021-11-18T08:55:13Z</time>
      </trkpt>
      <trkpt lat="46.48004" lon="0.39557">
        <ele>128.87101432029</ele>
        <time>2021-11-18T08:55:15Z</time>
      </trkpt>
      <trkpt lat="46.48002" lon="0.39557">
        <ele>128.9236096479</ele>
        <time>2021-11-18T08:55:17Z</time>
      </trkpt>
      <trkpt lat="46.48" lon="0.39556">
        <ele>129.30956905242</ele>
        <time>2021-11-18T08:55:19Z</time>
      </trkpt>
      <trkpt lat="46.47998" lon="0.39555">
        <ele>129.04374592379</ele>
        <time>2021-11-18T08:55:21Z</time>
      </trkpt>
      <trkpt lat="46.47995" lon="0.39554">
        <ele>129.30033732764</ele>
        <time>2021-11-18T08:55:23Z</time>
      </trkpt>
      <trkpt lat="46.47993" lon="0.39552">
        <ele>128.98377926182</ele>
        <time>2021-11-18T08:55:25Z</time>
      </trkpt>
      <trkpt lat="46.47991" lon="0.39552">
        <ele>129.09060984012</ele>
        <time>2021-11-18T08:55:27Z</time>
      </trkpt>
      <trkpt lat="46.47989" lon="0.39551">
        <ele>128.93042578828</ele>
        <time>2021-11-18T08:55:29Z</time>
      </trkpt>
      <trkpt lat="46.47986" lon="0.3955">
        <ele>129.52716137003</ele>
        <time>2021-11-18T08:55:31Z</time>
      </trkpt>
      <trkpt lat="46.47984" lon="0.39549">
        <ele>128.96398839075</ele>
        <time>2021-11-18T08:55:33Z</time>
      </trkpt>
      <trkpt lat="46.47982" lon="0.39547">
        <ele>129.05035639834</ele>
        <time>2021-11-18T08:55:36Z</time>
      </trkpt>
      <trkpt lat="46.4798" lon="0.39546">
        <ele>129.17292785365</ele>
        <time>2021-11-18T08:55:38Z</time>
      </trkpt>
      <trkpt lat="46.47978" lon="0.39545">
        <ele>129.09662080836</ele>
        <time>2021-11-18T08:55:40Z</time>
      </trkpt>
      <trkpt lat="46.47976" lon="0.39544">
        <ele>128.94466157537</ele>
        <time>2021-11-18T08:55:42Z</time>
      </trkpt>
      <trkpt lat="46.47974" lon="0.39543">
        <ele>129.28628872149</ele>
        <time>2021-11-18T08:55:44Z</time>
      </trkpt>
      <trkpt lat="46.47972" lon="0.39542">
        <ele>129.46514225379</ele>
        <time>2021-11-18T08:55:46Z</time>
      </trkpt>
      <trkpt lat="46.4797" lon="0.3954">
        <ele>129.22983094957</ele>
        <time>2021-11-18T08:55:48Z</time>
      </trkpt>
      <trkpt lat="46.47968" lon="0.39539">
        <ele>129.28664346505</ele>
        <time>2021-11-18T08:55:50Z</time>
      </trkpt>
      <trkpt lat="46.47966" lon="0.39539">
        <ele>128.8598600775</ele>
        <time>2021-11-18T08:55:52Z</time>
      </trkpt>
      <trkpt lat="46.47964" lon="0.39538">
        <ele>128.99077484012</ele>
        <time>2021-11-18T08:55:54Z</time>
      </trkpt>
      <trkpt lat="46.47962" lon="0.39536">
        <ele>128.96600098349</ele>
        <time>2021-11-18T08:55:56Z</time>
      </trkpt>
      <trkpt lat="46.4796" lon="0.39535">
        <ele>129.21338863857</ele>
        <time>2021-11-18T08:55:58Z</time>
      </trkpt>
      <trkpt lat="46.47958" lon="0.39534">
        <ele>129.19242652878</ele>
        <time>2021-11-18T08:56:00Z</time>
      </trkpt>
      <trkpt lat="46.47955" lon="0.39533">
        <ele>129.65625576861</ele>
        <time>2021-11-18T08:56:02Z</time>
      </trkpt>
      <trkpt lat="46.47953" lon="0.39533">
        <ele>128.88656366989</ele>
        <time>2021-11-18T08:56:04Z</time>
      </trkpt>
      <trkpt lat="46.47951" lon="0.39531">
        <ele>129.2390467599</ele>
        <time>2021-11-18T08:56:06Z</time>
      </trkpt>
      <trkpt lat="46.47949" lon="0.39531">
        <ele>129.41536407452</ele>
        <time>2021-11-18T08:56:08Z</time>
      </trkpt>
      <trkpt lat="46.47946" lon="0.39529">
        <ele>129.13130488899</ele>
        <time>2021-11-18T08:56:10Z</time>
      </trkpt>
      <trkpt lat="46.47944" lon="0.39528">
        <ele>129.35451957211</ele>
        <time>2021-11-18T08:56:12Z</time>
      </trkpt>
      <trkpt lat="46.47942" lon="0.39527">
        <ele>129.3700032467</ele>
        <time>2021-11-18T08:56:14Z</time>
      </trkpt>
      <trkpt lat="46.4794" lon="0.39526">
        <ele>128.96119885892</ele>
        <time>2021-11-18T08:56:16Z</time>
      </trkpt>
      <trkpt lat="46.47937" lon="0.39525">
        <ele>129.36883581057</ele>
        <time>2021-11-18T08:56:18Z</time>
      </trkpt>
      <trkpt lat="46.47934" lon="0.39524">
        <ele>129.10255888011</ele>
        <time>2021-11-18T08:56:20Z</time>
      </trkpt>
      <trkpt lat="46.47932" lon="0.39523">
        <ele>129.35541184526</ele>
        <time>2021-11-18T08:56:22Z</time>
      </trkpt>
      <trkpt lat="46.4793" lon="0.39522">
        <ele>129.15724509861</ele>
        <time>2021-11-18T08:56:24Z</time>
      </trkpt>
      <trkpt lat="46.47927" lon="0.39521">
        <ele>129.87971920334</ele>
        <time>2021-11-18T08:56:26Z</time>
      </trkpt>
      <trkpt lat="46.47925" lon="0.3952">
        <ele>129.46727390587</ele>
        <time>2021-11-18T08:56:28Z</time>
      </trkpt>
      <trkpt lat="46.47923" lon="0.3952">
        <ele>129.50058564264</ele>
        <time>2021-11-18T08:56:30Z</time>
      </trkpt>
      <trkpt lat="46.4792" lon="0.39518">
        <ele>129.20883354545</ele>
        <time>2021-11-18T08:56:32Z</time>
      </trkpt>
      <trkpt lat="46.47918" lon="0.39517">
        <ele>129.59805312939</ele>
        <time>2021-11-18T08:56:34Z</time>
      </trkpt>
      <trkpt lat="46.47916" lon="0.39516">
        <ele>129.20327916835</ele>
        <time>2021-11-18T08:56:36Z</time>
      </trkpt>
      <trkpt lat="46.47914" lon="0.39515">
        <ele>129.45695601311</ele>
        <time>2021-11-18T08:56:38Z</time>
      </trkpt>
      <trkpt lat="46.47912" lon="0.39513">
        <ele>129.62618084624</ele>
        <time>2021-11-18T08:56:41Z</time>
      </trkpt>
      <trkpt lat="46.4791" lon="0.39513">
        <ele>129.26386695728</ele>
        <time>2021-11-18T08:56:43Z</time>
      </trkpt>
      <trkpt lat="46.47908" lon="0.39512">
        <ele>129.22995844856</ele>
        <time>2021-11-18T08:56:45Z</time>
      </trkpt>
      <trkpt lat="46.47906" lon="0.39512">
        <ele>128.77275403775</ele>
        <time>2021-11-18T08:56:47Z</time>
      </trkpt>
      <trkpt lat="46.47904" lon="0.3951">
        <ele>129.21448843647</ele>
        <time>2021-11-18T08:56:49Z</time>
      </trkpt>
      <trkpt lat="46.47902" lon="0.3951">
        <ele>129.04446306173</ele>
        <time>2021-11-18T08:56:51Z</time>
      </trkpt>
      <trkpt lat="46.479" lon="0.3951">
        <ele>129.17028900422</ele>
        <time>2021-11-18T08:56:53Z</time>
      </trkpt>
      <trkpt lat="46.47898" lon="0.39508">
        <ele>129.3419862166</ele>
        <time>2021-11-18T08:56:55Z</time>
      </trkpt>
      <trkpt lat="46.47896" lon="0.39508">
        <ele>129.19141920935</ele>
        <time>2021-11-18T08:56:57Z</time>
      </trkpt>
      <trkpt lat="46.47895" lon="0.39507">
        <ele>128.75997145846</ele>
        <time>2021-11-18T08:56:59Z</time>
      </trkpt>
      <trkpt lat="46.47893" lon="0.39505">
        <ele>129.26212684345</ele>
        <time>2021-11-18T08:57:01Z</time>
      </trkpt>
      <trkpt lat="46.47891" lon="0.39504">
        <ele>129.19793384057</ele>
        <time>2021-11-18T08:57:03Z</time>
      </trkpt>
      <trkpt lat="46.47888" lon="0.39505">
        <ele>129.347275557</ele>
        <time>2021-11-18T08:57:05Z</time>
      </trkpt>
      <trkpt lat="46.47886" lon="0.39504">
        <ele>129.28432254307</ele>
        <time>2021-11-18T08:57:07Z</time>
      </trkpt>
      <trkpt lat="46.47883" lon="0.39503">
        <ele>128.9632129157</ele>
        <time>2021-11-18T08:57:09Z</time>
      </trkpt>
      <trkpt lat="46.47881" lon="0.39503">
        <ele>129.12480758689</ele>
        <time>2021-11-18T08:57:11Z</time>
      </trkpt>
      <trkpt lat="46.47879" lon="0.39501">
        <ele>129.62041479163</ele>
        <time>2021-11-18T08:57:13Z</time>
      </trkpt>
      <trkpt lat="46.47877" lon="0.39501">
        <ele>128.94432023447</ele>
        <time>2021-11-18T08:57:15Z</time>
      </trkpt>
      <trkpt lat="46.47874" lon="0.39501">
        <ele>129.2401477173</ele>
        <time>2021-11-18T08:57:17Z</time>
      </trkpt>
      <trkpt lat="46.47872" lon="0.395">
        <ele>129.225077237</ele>
        <time>2021-11-18T08:57:19Z</time>
      </trkpt>
      <trkpt lat="46.4787" lon="0.395">
        <ele>129.29818646051</ele>
        <time>2021-11-18T08:57:21Z</time>
      </trkpt>
      <trkpt lat="46.47868" lon="0.39499">
        <ele>129.22247751988</ele>
        <time>2021-11-18T08:57:23Z</time>
      </trkpt>
      <trkpt lat="46.47866" lon="0.39497">
        <ele>129.28469788563</ele>
        <time>2021-11-18T08:57:25Z</time>
      </trkpt>
      <trkpt lat="46.47864" lon="0.39497">
        <ele>128.92675406486</ele>
        <time>2021-11-18T08:57:27Z</time>
      </trkpt>
      <trkpt lat="46.47862" lon="0.39496">
        <ele>129.13246153016</ele>
        <time>2021-11-18T08:57:30Z</time>
      </trkpt>
      <trkpt lat="46.47859" lon="0.39496">
        <ele>128.99331923015</ele>
        <time>2021-11-18T08:57:32Z</time>
      </trkpt>
      <trkpt lat="46.47857" lon="0.39495">
        <ele>129.2990104882</ele>
        <time>2021-11-18T08:57:34Z</time>
      </trkpt>
      <trkpt lat="46.47854" lon="0.39495">
        <ele>129.3256752016</ele>
        <time>2021-11-18T08:57:36Z</time>
      </trkpt>
      <trkpt lat="46.47852" lon="0.39496">
        <ele>129.05581191927</ele>
        <time>2021-11-18T08:57:39Z</time>
      </trkpt>
      <trkpt lat="46.4785" lon="0.39495">
        <ele>129.42553430423</ele>
        <time>2021-11-18T08:57:41Z</time>
      </trkpt>
      <trkpt lat="46.47847" lon="0.39496">
        <ele>129.4321789192</ele>
        <time>2021-11-18T08:57:43Z</time>
      </trkpt>
      <trkpt lat="46.47845" lon="0.39496">
        <ele>129.29904853366</ele>
        <time>2021-11-18T08:57:45Z</time>
      </trkpt>
      <trkpt lat="46.47842" lon="0.39495">
        <ele>129.31186337397</ele>
        <time>2021-11-18T08:57:47Z</time>
      </trkpt>
      <trkpt lat="46.4784" lon="0.39495">
        <ele>129.21534862928</ele>
        <time>2021-11-18T08:57:49Z</time>
      </trkpt>
      <trkpt lat="46.47837" lon="0.39496">
        <ele>129.17462148517</ele>
        <time>2021-11-18T08:57:51Z</time>
      </trkpt>
      <trkpt lat="46.47835" lon="0.39496">
        <ele>129.22301552631</ele>
        <time>2021-11-18T08:57:53Z</time>
      </trkpt>
      <trkpt lat="46.47832" lon="0.39496">
        <ele>129.21966036223</ele>
        <time>2021-11-18T08:57:55Z</time>
      </trkpt>
      <trkpt lat="46.4783" lon="0.39497">
        <ele>129.38317270949</ele>
        <time>2021-11-18T08:57:57Z</time>
      </trkpt>
      <trkpt lat="46.47828" lon="0.39497">
        <ele>129.0982178105</ele>
        <time>2021-11-18T08:57:59Z</time>
      </trkpt>
      <trkpt lat="46.47825" lon="0.39496">
        <ele>129.54735394381</ele>
        <time>2021-11-18T08:58:01Z</time>
      </trkpt>
      <trkpt lat="46.47822" lon="0.39496">
        <ele>128.69332201965</ele>
        <time>2021-11-18T08:58:03Z</time>
      </trkpt>
      <trkpt lat="46.47819" lon="0.39496">
        <ele>129.2307816809</ele>
        <time>2021-11-18T08:58:06Z</time>
      </trkpt>
      <trkpt lat="46.47817" lon="0.39497">
        <ele>129.06310193427</ele>
        <time>2021-11-18T08:58:08Z</time>
      </trkpt>
      <trkpt lat="46.47815" lon="0.39496">
        <ele>129.45341102872</ele>
        <time>2021-11-18T08:58:10Z</time>
      </trkpt>
      <trkpt lat="46.47812" lon="0.39495">
        <ele>129.10260946304</ele>
        <time>2021-11-18T08:58:13Z</time>
      </trkpt>
      <trkpt lat="46.47809" lon="0.39493">
        <ele>129.1178002581</ele>
        <time>2021-11-18T08:58:15Z</time>
      </trkpt>
      <trkpt lat="46.47807" lon="0.39491">
        <ele>129.15665920265</ele>
        <time>2021-11-18T08:58:17Z</time>
      </trkpt>
      <trkpt lat="46.47805" lon="0.3949">
        <ele>129.06914163847</ele>
        <time>2021-11-18T08:58:19Z</time>
      </trkpt>
      <trkpt lat="46.47803" lon="0.39486">
        <ele>129.21879663691</ele>
        <time>2021-11-18T08:58:21Z</time>
      </trkpt>
      <trkpt lat="46.47801" lon="0.39485">
        <ele>129.24381488096</ele>
        <time>2021-11-18T08:58:23Z</time>
      </trkpt>
      <trkpt lat="46.47799" lon="0.39486">
        <ele>129.18456677254</ele>
        <time>2021-11-18T08:58:26Z</time>
      </trkpt>
      <trkpt lat="46.47797" lon="0.39485">
        <ele>129.0124784559</ele>
        <time>2021-11-18T08:58:28Z</time>
      </trkpt>
      <trkpt lat="46.47795" lon="0.39484">
        <ele>129.4169255048</ele>
        <time>2021-11-18T08:58:30Z</time>
      </trkpt>
      <trkpt lat="46.47792" lon="0.39483">
        <ele>129.45391701069</ele>
        <time>2021-11-18T08:58:32Z</time>
      </trkpt>
      <trkpt lat="46.47791" lon="0.39482">
        <ele>129.3292455934</ele>
        <time>2021-11-18T08:58:33Z</time>
      </trkpt>
      <trkpt lat="46.47788" lon="0.39481">
        <ele>129.17683880683</ele>
        <time>2021-11-18T08:58:35Z</time>
      </trkpt>
      <trkpt lat="46.47786" lon="0.3948">
        <ele>129.36153558083</ele>
        <time>2021-11-18T08:58:37Z</time>
      </trkpt>
      <trkpt lat="46.47784" lon="0.39479">
        <ele>129.2139123017</ele>
        <time>2021-11-18T08:58:39Z</time>
      </trkpt>
      <trkpt lat="46.47783" lon="0.39478">
        <ele>129.51586873643</ele>
        <time>2021-11-18T08:58:41Z</time>
      </trkpt>
      <trkpt lat="46.4778" lon="0.39476">
        <ele>129.54830087628</ele>
        <time>2021-11-18T08:58:43Z</time>
      </trkpt>
      <trkpt lat="46.47777" lon="0.39475">
        <ele>129.78989468142</ele>
        <time>2021-11-18T08:58:45Z</time>
      </trkpt>
      <trkpt lat="46.47775" lon="0.39473">
        <ele>129.6985448217</ele>
        <time>2021-11-18T08:58:48Z</time>
      </trkpt>
      <trkpt lat="46.47773" lon="0.39471">
        <ele>130.10347834416</ele>
        <time>2021-11-18T08:58:50Z</time>
      </trkpt>
      <trkpt lat="46.47771" lon="0.3947">
        <ele>129.9121404551</ele>
        <time>2021-11-18T08:58:52Z</time>
      </trkpt>
      <trkpt lat="46.47769" lon="0.39468">
        <ele>129.94539668877</ele>
        <time>2021-11-18T08:58:54Z</time>
      </trkpt>
      <trkpt lat="46.47767" lon="0.39466">
        <ele>130.05895118136</ele>
        <time>2021-11-18T08:58:56Z</time>
      </trkpt>
      <trkpt lat="46.47765" lon="0.39463">
        <ele>129.85733718425</ele>
        <time>2021-11-18T08:58:58Z</time>
      </trkpt>
      <trkpt lat="46.47763" lon="0.39461">
        <ele>130.23454516381</ele>
        <time>2021-11-18T08:59:00Z</time>
      </trkpt>
      <trkpt lat="46.4776" lon="0.3946">
        <ele>129.93200847041</ele>
        <time>2021-11-18T08:59:02Z</time>
      </trkpt>
      <trkpt lat="46.47758" lon="0.39458">
        <ele>130.0994398417</ele>
        <time>2021-11-18T08:59:04Z</time>
      </trkpt>
      <trkpt lat="46.47756" lon="0.39457">
        <ele>129.95557397511</ele>
        <time>2021-11-18T08:59:06Z</time>
      </trkpt>
      <trkpt lat="46.47754" lon="0.39454">
        <ele>130.19047238398</ele>
        <time>2021-11-18T08:59:08Z</time>
      </trkpt>
      <trkpt lat="46.47752" lon="0.39453">
        <ele>130.12715393957</ele>
        <time>2021-11-18T08:59:11Z</time>
      </trkpt>
      <trkpt lat="46.4775" lon="0.39451">
        <ele>130.17493486032</ele>
        <time>2021-11-18T08:59:13Z</time>
      </trkpt>
      <trkpt lat="46.47748" lon="0.39449">
        <ele>130.34247909673</ele>
        <time>2021-11-18T08:59:15Z</time>
      </trkpt>
      <trkpt lat="46.47747" lon="0.39447">
        <ele>129.98361435439</ele>
        <time>2021-11-18T08:59:16Z</time>
      </trkpt>
      <trkpt lat="46.47745" lon="0.39445">
        <ele>130.08636056166</ele>
        <time>2021-11-18T08:59:18Z</time>
      </trkpt>
      <trkpt lat="46.47743" lon="0.39442">
        <ele>130.00641589612</ele>
        <time>2021-11-18T08:59:20Z</time>
      </trkpt>
      <trkpt lat="46.47741" lon="0.3944">
        <ele>130.12769484613</ele>
        <time>2021-11-18T08:59:22Z</time>
      </trkpt>
      <trkpt lat="46.47739" lon="0.39439">
        <ele>130.09288867749</ele>
        <time>2021-11-18T08:59:24Z</time>
      </trkpt>
      <trkpt lat="46.47737" lon="0.39436">
        <ele>130.31480357517</ele>
        <time>2021-11-18T08:59:26Z</time>
      </trkpt>
      <trkpt lat="46.47735" lon="0.39434">
        <ele>130.4351658849</ele>
        <time>2021-11-18T08:59:28Z</time>
      </trkpt>
      <trkpt lat="46.47733" lon="0.39432">
        <ele>130.0890132105</ele>
        <time>2021-11-18T08:59:30Z</time>
      </trkpt>
      <trkpt lat="46.47732" lon="0.39429">
        <ele>129.89175069425</ele>
        <time>2021-11-18T08:59:32Z</time>
      </trkpt>
      <trkpt lat="46.4773" lon="0.39427">
        <ele>130.35700114537</ele>
        <time>2021-11-18T08:59:34Z</time>
      </trkpt>
      <trkpt lat="46.47729" lon="0.39425">
        <ele>130.47663751058</ele>
        <time>2021-11-18T08:59:36Z</time>
      </trkpt>
      <trkpt lat="46.47727" lon="0.39423">
        <ele>130.2930160407</ele>
        <time>2021-11-18T08:59:39Z</time>
      </trkpt>
      <trkpt lat="46.47725" lon="0.39421">
        <ele>130.09791755956</ele>
        <time>2021-11-18T08:59:41Z</time>
      </trkpt>
      <trkpt lat="46.47723" lon="0.39418">
        <ele>129.89913783316</ele>
        <time>2021-11-18T08:59:43Z</time>
      </trkpt>
      <trkpt lat="46.47721" lon="0.39415">
        <ele>130.07022061478</ele>
        <time>2021-11-18T08:59:44Z</time>
      </trkpt>
      <trkpt lat="46.47719" lon="0.39413">
        <ele>129.7570599895</ele>
        <time>2021-11-18T08:59:46Z</time>
      </trkpt>
      <trkpt lat="46.47717" lon="0.39411">
        <ele>130.00080823246</ele>
        <time>2021-11-18T08:59:48Z</time>
      </trkpt>
      <trkpt lat="46.47715" lon="0.39409">
        <ele>130.39084050339</ele>
        <time>2021-11-18T08:59:50Z</time>
      </trkpt>
      <trkpt lat="46.47713" lon="0.39407">
        <ele>130.12771038804</ele>
        <time>2021-11-18T08:59:53Z</time>
      </trkpt>
      <trkpt lat="46.47711" lon="0.39404">
        <ele>129.60471586045</ele>
        <time>2021-11-18T08:59:55Z</time>
      </trkpt>
      <trkpt lat="46.47709" lon="0.39402">
        <ele>129.52365317196</ele>
        <time>2021-11-18T08:59:57Z</time>
      </trkpt>
      <trkpt lat="46.47707" lon="0.39399">
        <ele>129.42047663871</ele>
        <time>2021-11-18T08:59:59Z</time>
      </trkpt>
      <trkpt lat="46.47705" lon="0.39397">
        <ele>129.91153315268</ele>
        <time>2021-11-18T09:00:01Z</time>
      </trkpt>
      <trkpt lat="46.47703" lon="0.39394">
        <ele>129.57233740017</ele>
        <time>2021-11-18T09:00:04Z</time>
      </trkpt>
      <trkpt lat="46.47702" lon="0.39391">
        <ele>129.14302073792</ele>
        <time>2021-11-18T09:00:06Z</time>
      </trkpt>
      <trkpt lat="46.47701" lon="0.39389">
        <ele>129.81750210281</ele>
        <time>2021-11-18T09:00:08Z</time>
      </trkpt>
      <trkpt lat="46.47699" lon="0.39387">
        <ele>129.38130178861</ele>
        <time>2021-11-18T09:00:10Z</time>
      </trkpt>
      <trkpt lat="46.47697" lon="0.39385">
        <ele>129.15577854216</ele>
        <time>2021-11-18T09:00:12Z</time>
      </trkpt>
      <trkpt lat="46.47696" lon="0.39383">
        <ele>129.2308297269</ele>
        <time>2021-11-18T09:00:14Z</time>
      </trkpt>
      <trkpt lat="46.47694" lon="0.3938">
        <ele>129.33881347068</ele>
        <time>2021-11-18T09:00:16Z</time>
      </trkpt>
      <trkpt lat="46.47693" lon="0.39378">
        <ele>129.54009407666</ele>
        <time>2021-11-18T09:00:18Z</time>
      </trkpt>
      <trkpt lat="46.47691" lon="0.39375">
        <ele>129.37531734817</ele>
        <time>2021-11-18T09:00:20Z</time>
      </trkpt>
      <trkpt lat="46.47689" lon="0.39373">
        <ele>129.15939697716</ele>
        <time>2021-11-18T09:00:22Z</time>
      </trkpt>
      <trkpt lat="46.47688" lon="0.3937">
        <ele>129.48247843143</ele>
        <time>2021-11-18T09:00:24Z</time>
      </trkpt>
      <trkpt lat="46.47686" lon="0.39368">
        <ele>129.12238008622</ele>
        <time>2021-11-18T09:00:26Z</time>
      </trkpt>
      <trkpt lat="46.47684" lon="0.39366">
        <ele>129.04997994658</ele>
        <time>2021-11-18T09:00:28Z</time>
      </trkpt>
      <trkpt lat="46.47682" lon="0.39365">
        <ele>128.91374542937</ele>
        <time>2021-11-18T09:00:30Z</time>
      </trkpt>
      <trkpt lat="46.4768" lon="0.39363">
        <ele>128.97737572528</ele>
        <time>2021-11-18T09:00:32Z</time>
      </trkpt>
      <trkpt lat="46.47678" lon="0.3936">
        <ele>129.2746921014</ele>
        <time>2021-11-18T09:00:35Z</time>
      </trkpt>
      <trkpt lat="46.47677" lon="0.39358">
        <ele>129.40132592805</ele>
        <time>2021-11-18T09:00:37Z</time>
      </trkpt>
      <trkpt lat="46.47675" lon="0.39356">
        <ele>129.07458943129</ele>
        <time>2021-11-18T09:00:39Z</time>
      </trkpt>
      <trkpt lat="46.47674" lon="0.39353">
        <ele>129.11834066454</ele>
        <time>2021-11-18T09:00:41Z</time>
      </trkpt>
      <trkpt lat="46.47672" lon="0.3935">
        <ele>129.14834327344</ele>
        <time>2021-11-18T09:00:43Z</time>
      </trkpt>
      <trkpt lat="46.47671" lon="0.39347">
        <ele>129.26585785765</ele>
        <time>2021-11-18T09:00:45Z</time>
      </trkpt>
      <trkpt lat="46.4767" lon="0.39344">
        <ele>129.09636337124</ele>
        <time>2021-11-18T09:00:47Z</time>
      </trkpt>
      <trkpt lat="46.47668" lon="0.39342">
        <ele>129.08697175141</ele>
        <time>2021-11-18T09:00:49Z</time>
      </trkpt>
      <trkpt lat="46.47666" lon="0.3934">
        <ele>129.20319752768</ele>
        <time>2021-11-18T09:00:51Z</time>
      </trkpt>
      <trkpt lat="46.47665" lon="0.39338">
        <ele>129.14244037401</ele>
        <time>2021-11-18T09:00:53Z</time>
      </trkpt>
      <trkpt lat="46.47664" lon="0.39335">
        <ele>128.98282423057</ele>
        <time>2021-11-18T09:00:55Z</time>
      </trkpt>
      <trkpt lat="46.47662" lon="0.39332">
        <ele>129.02874386497</ele>
        <time>2021-11-18T09:00:57Z</time>
      </trkpt>
      <trkpt lat="46.47661" lon="0.3933">
        <ele>129.58447055239</ele>
        <time>2021-11-18T09:00:59Z</time>
      </trkpt>
      <trkpt lat="46.4766" lon="0.39328">
        <ele>129.20980464667</ele>
        <time>2021-11-18T09:01:01Z</time>
      </trkpt>
      <trkpt lat="46.47658" lon="0.39326">
        <ele>129.59866298549</ele>
        <time>2021-11-18T09:01:03Z</time>
      </trkpt>
      <trkpt lat="46.47657" lon="0.39324">
        <ele>129.35530578159</ele>
        <time>2021-11-18T09:01:05Z</time>
      </trkpt>
      <trkpt lat="46.47655" lon="0.39321">
        <ele>129.60773298051</ele>
        <time>2021-11-18T09:01:07Z</time>
      </trkpt>
      <trkpt lat="46.47653" lon="0.39318">
        <ele>129.29561291914</ele>
        <time>2021-11-18T09:01:09Z</time>
      </trkpt>
      <trkpt lat="46.47651" lon="0.39315">
        <ele>129.3945626216</ele>
        <time>2021-11-18T09:01:11Z</time>
      </trkpt>
      <trkpt lat="46.47649" lon="0.39313">
        <ele>129.62471712194</ele>
        <time>2021-11-18T09:01:13Z</time>
      </trkpt>
      <trkpt lat="46.47648" lon="0.3931">
        <ele>129.61208398733</ele>
        <time>2021-11-18T09:01:15Z</time>
      </trkpt>
      <trkpt lat="46.47646" lon="0.39308">
        <ele>129.32465930376</ele>
        <time>2021-11-18T09:01:17Z</time>
      </trkpt>
      <trkpt lat="46.47644" lon="0.39305">
        <ele>129.45955573022</ele>
        <time>2021-11-18T09:01:19Z</time>
      </trkpt>
      <trkpt lat="46.47643" lon="0.39303">
        <ele>129.53352341801</ele>
        <time>2021-11-18T09:01:21Z</time>
      </trkpt>
      <trkpt lat="46.47641" lon="0.39301">
        <ele>129.05774263199</ele>
        <time>2021-11-18T09:01:24Z</time>
      </trkpt>
      <trkpt lat="46.47638" lon="0.39298">
        <ele>129.1811043378</ele>
        <time>2021-11-18T09:01:27Z</time>
      </trkpt>
      <trkpt lat="46.47636" lon="0.39297">
        <ele>129.30085098464</ele>
        <time>2021-11-18T09:01:29Z</time>
      </trkpt>
      <trkpt lat="46.47634" lon="0.39295">
        <ele>128.87798612192</ele>
        <time>2021-11-18T09:01:31Z</time>
      </trkpt>
      <trkpt lat="46.47633" lon="0.39293">
        <ele>129.37028222997</ele>
        <time>2021-11-18T09:01:33Z</time>
      </trkpt>
      <trkpt lat="46.47631" lon="0.39291">
        <ele>129.41070043482</ele>
        <time>2021-11-18T09:01:35Z</time>
      </trkpt>
      <trkpt lat="46.4763" lon="0.39289">
        <ele>129.27341674827</ele>
        <time>2021-11-18T09:01:37Z</time>
      </trkpt>
      <trkpt lat="46.47628" lon="0.39287">
        <ele>129.47292245552</ele>
        <time>2021-11-18T09:01:39Z</time>
      </trkpt>
      <trkpt lat="46.47626" lon="0.39284">
        <ele>129.25230247155</ele>
        <time>2021-11-18T09:01:42Z</time>
      </trkpt>
      <trkpt lat="46.47624" lon="0.39283">
        <ele>129.4029117208</ele>
        <time>2021-11-18T09:01:44Z</time>
      </trkpt>
      <trkpt lat="46.47623" lon="0.39281">
        <ele>129.10725044366</ele>
        <time>2021-11-18T09:01:46Z</time>
      </trkpt>
      <trkpt lat="46.47621" lon="0.39279">
        <ele>129.7652063733</ele>
        <time>2021-11-18T09:01:49Z</time>
      </trkpt>
      <trkpt lat="46.47619" lon="0.39277">
        <ele>129.91736089624</ele>
        <time>2021-11-18T09:01:50Z</time>
      </trkpt>
      <trkpt lat="46.47618" lon="0.39275">
        <ele>129.8884060625</ele>
        <time>2021-11-18T09:01:52Z</time>
      </trkpt>
      <trkpt lat="46.47616" lon="0.39273">
        <ele>129.87782361172</ele>
        <time>2021-11-18T09:01:54Z</time>
      </trkpt>
      <trkpt lat="46.47614" lon="0.39272">
        <ele>129.60166562628</ele>
        <time>2021-11-18T09:01:56Z</time>
      </trkpt>
      <trkpt lat="46.47612" lon="0.3927">
        <ele>129.68491086923</ele>
        <time>2021-11-18T09:01:58Z</time>
      </trkpt>
      <trkpt lat="46.4761" lon="0.39268">
        <ele>130.07839846611</ele>
        <time>2021-11-18T09:02:01Z</time>
      </trkpt>
      <trkpt lat="46.47608" lon="0.39267">
        <ele>130.36742855143</ele>
        <time>2021-11-18T09:02:03Z</time>
      </trkpt>
      <trkpt lat="46.47606" lon="0.39266">
        <ele>130.05165353324</ele>
        <time>2021-11-18T09:02:05Z</time>
      </trkpt>
      <trkpt lat="46.47604" lon="0.39264">
        <ele>130.22827774379</ele>
        <time>2021-11-18T09:02:07Z</time>
      </trkpt>
      <trkpt lat="46.47602" lon="0.39263">
        <ele>130.13102299161</ele>
        <time>2021-11-18T09:02:08Z</time>
      </trkpt>
      <trkpt lat="46.476" lon="0.39261">
        <ele>129.80596695188</ele>
        <time>2021-11-18T09:02:11Z</time>
      </trkpt>
      <trkpt lat="46.47598" lon="0.39259">
        <ele>129.66720157862</ele>
        <time>2021-11-18T09:02:14Z</time>
      </trkpt>
      <trkpt lat="46.47596" lon="0.39257">
        <ele>129.86931771226</ele>
        <time>2021-11-18T09:02:16Z</time>
      </trkpt>
      <trkpt lat="46.47594" lon="0.39256">
        <ele>129.9830667926</ele>
        <time>2021-11-18T09:02:18Z</time>
      </trkpt>
      <trkpt lat="46.47593" lon="0.39253">
        <ele>129.55070298351</ele>
        <time>2021-11-18T09:02:20Z</time>
      </trkpt>
      <trkpt lat="46.47592" lon="0.3925">
        <ele>129.64327068068</ele>
        <time>2021-11-18T09:02:22Z</time>
      </trkpt>
      <trkpt lat="46.47592" lon="0.39246">
        <ele>129.59833705425</ele>
        <time>2021-11-18T09:02:24Z</time>
      </trkpt>
      <trkpt lat="46.47593" lon="0.39243">
        <ele>129.41445268039</ele>
        <time>2021-11-18T09:02:26Z</time>
      </trkpt>
      <trkpt lat="46.47594" lon="0.39241">
        <ele>129.48919963185</ele>
        <time>2021-11-18T09:02:28Z</time>
      </trkpt>
      <trkpt lat="46.47595" lon="0.39238">
        <ele>129.48390468769</ele>
        <time>2021-11-18T09:02:30Z</time>
      </trkpt>
      <trkpt lat="46.47597" lon="0.39236">
        <ele>129.50653934572</ele>
        <time>2021-11-18T09:02:32Z</time>
      </trkpt>
      <trkpt lat="46.47599" lon="0.39234">
        <ele>129.7190097915</ele>
        <time>2021-11-18T09:02:35Z</time>
      </trkpt>
      <trkpt lat="46.47601" lon="0.39232">
        <ele>129.64943595231</ele>
        <time>2021-11-18T09:02:37Z</time>
      </trkpt>
      <trkpt lat="46.47603" lon="0.3923">
        <ele>129.67906781286</ele>
        <time>2021-11-18T09:02:39Z</time>
      </trkpt>
      <trkpt lat="46.47604" lon="0.39229">
        <ele>129.45830454398</ele>
        <time>2021-11-18T09:02:41Z</time>
      </trkpt>
      <trkpt lat="46.47606" lon="0.39227">
        <ele>129.44677111693</ele>
        <time>2021-11-18T09:02:43Z</time>
      </trkpt>
      <trkpt lat="46.47609" lon="0.39225">
        <ele>129.6189429285</ele>
        <time>2021-11-18T09:02:45Z</time>
      </trkpt>
      <trkpt lat="46.47611" lon="0.39223">
        <ele>129.52681211568</ele>
        <time>2021-11-18T09:02:47Z</time>
      </trkpt>
      <trkpt lat="46.47613" lon="0.39222">
        <ele>129.35791046545</ele>
        <time>2021-11-18T09:02:49Z</time>
      </trkpt>
      <trkpt lat="46.47616" lon="0.39219">
        <ele>129.15770148113</ele>
        <time>2021-11-18T09:02:51Z</time>
      </trkpt>
      <trkpt lat="46.47617" lon="0.39218">
        <ele>129.3832177138</ele>
        <time>2021-11-18T09:02:53Z</time>
      </trkpt>
      <trkpt lat="46.47619" lon="0.39217">
        <ele>129.3438218087</ele>
        <time>2021-11-18T09:02:55Z</time>
      </trkpt>
      <trkpt lat="46.47622" lon="0.39215">
        <ele>128.93297218718</ele>
        <time>2021-11-18T09:02:57Z</time>
      </trkpt>
      <trkpt lat="46.47624" lon="0.39212">
        <ele>129.15146161616</ele>
        <time>2021-11-18T09:02:59Z</time>
      </trkpt>
      <trkpt lat="46.47625" lon="0.39211">
        <ele>129.0003167456</ele>
        <time>2021-11-18T09:03:01Z</time>
      </trkpt>
      <trkpt lat="46.47627" lon="0.39209">
        <ele>128.97817249224</ele>
        <time>2021-11-18T09:03:03Z</time>
      </trkpt>
      <trkpt lat="46.47629" lon="0.39207">
        <ele>129.25053220242</ele>
        <time>2021-11-18T09:03:05Z</time>
      </trkpt>
      <trkpt lat="46.47632" lon="0.39205">
        <ele>128.94061805587</ele>
        <time>2021-11-18T09:03:07Z</time>
      </trkpt>
      <trkpt lat="46.47634" lon="0.39204">
        <ele>128.88763446547</ele>
        <time>2021-11-18T09:03:09Z</time>
      </trkpt>
      <trkpt lat="46.47636" lon="0.39202">
        <ele>128.8806731021</ele>
        <time>2021-11-18T09:03:11Z</time>
      </trkpt>
      <trkpt lat="46.47638" lon="0.392">
        <ele>128.82061029691</ele>
        <time>2021-11-18T09:03:12Z</time>
      </trkpt>
      <trkpt lat="46.47639" lon="0.39199">
        <ele>128.68758885004</ele>
        <time>2021-11-18T09:03:14Z</time>
      </trkpt>
      <trkpt lat="46.47641" lon="0.39198">
        <ele>128.67962732073</ele>
        <time>2021-11-18T09:03:16Z</time>
      </trkpt>
      <trkpt lat="46.47644" lon="0.39196">
        <ele>128.80442254525</ele>
        <time>2021-11-18T09:03:18Z</time>
      </trkpt>
      <trkpt lat="46.47646" lon="0.39195">
        <ele>128.53862481844</ele>
        <time>2021-11-18T09:03:20Z</time>
      </trkpt>
      <trkpt lat="46.47648" lon="0.39193">
        <ele>128.89579591807</ele>
        <time>2021-11-18T09:03:22Z</time>
      </trkpt>
      <trkpt lat="46.4765" lon="0.39191">
        <ele>128.74687657785</ele>
        <time>2021-11-18T09:03:24Z</time>
      </trkpt>
      <trkpt lat="46.47652" lon="0.3919">
        <ele>128.49648071546</ele>
        <time>2021-11-18T09:03:26Z</time>
      </trkpt>
      <trkpt lat="46.47653" lon="0.39188">
        <ele>128.46323934849</ele>
        <time>2021-11-18T09:03:28Z</time>
      </trkpt>
      <trkpt lat="46.47655" lon="0.39187">
        <ele>128.79383399338</ele>
        <time>2021-11-18T09:03:30Z</time>
      </trkpt>
      <trkpt lat="46.47657" lon="0.39186">
        <ele>128.37473464105</ele>
        <time>2021-11-18T09:03:32Z</time>
      </trkpt>
      <trkpt lat="46.47659" lon="0.39184">
        <ele>128.45081153605</ele>
        <time>2021-11-18T09:03:34Z</time>
      </trkpt>
      <trkpt lat="46.4766" lon="0.39183">
        <ele>128.02785721421</ele>
        <time>2021-11-18T09:03:36Z</time>
      </trkpt>
      <trkpt lat="46.47663" lon="0.39181">
        <ele>128.42800212838</ele>
        <time>2021-11-18T09:03:38Z</time>
      </trkpt>
      <trkpt lat="46.47665" lon="0.39179">
        <ele>128.0077806646</ele>
        <time>2021-11-18T09:03:40Z</time>
      </trkpt>
      <trkpt lat="46.47667" lon="0.39179">
        <ele>127.93364909664</ele>
        <time>2021-11-18T09:03:42Z</time>
      </trkpt>
      <trkpt lat="46.47669" lon="0.39177">
        <ele>128.23741231579</ele>
        <time>2021-11-18T09:03:44Z</time>
      </trkpt>
      <trkpt lat="46.47671" lon="0.39175">
        <ele>127.79413401987</ele>
        <time>2021-11-18T09:03:46Z</time>
      </trkpt>
      <trkpt lat="46.47673" lon="0.39173">
        <ele>128.13970539626</ele>
        <time>2021-11-18T09:03:48Z</time>
      </trkpt>
      <trkpt lat="46.47675" lon="0.39171">
        <ele>128.2414078163</ele>
        <time>2021-11-18T09:03:51Z</time>
      </trkpt>
      <trkpt lat="46.47678" lon="0.39169">
        <ele>128.36979005113</ele>
        <time>2021-11-18T09:03:54Z</time>
      </trkpt>
      <trkpt lat="46.47681" lon="0.39167">
        <ele>128.23446422257</ele>
        <time>2021-11-18T09:03:58Z</time>
      </trkpt>
      <trkpt lat="46.47683" lon="0.39166">
        <ele>128.26339818351</ele>
        <time>2021-11-18T09:04:00Z</time>
      </trkpt>
      <trkpt lat="46.47685" lon="0.39164">
        <ele>128.4988174215</ele>
        <time>2021-11-18T09:04:02Z</time>
      </trkpt>
      <trkpt lat="46.47687" lon="0.39162">
        <ele>128.25715969596</ele>
        <time>2021-11-18T09:04:04Z</time>
      </trkpt>
      <trkpt lat="46.47689" lon="0.39161">
        <ele>128.68887908291</ele>
        <time>2021-11-18T09:04:06Z</time>
      </trkpt>
      <trkpt lat="46.47691" lon="0.39159">
        <ele>128.60933492426</ele>
        <time>2021-11-18T09:04:08Z</time>
      </trkpt>
      <trkpt lat="46.47693" lon="0.39157">
        <ele>128.47822300252</ele>
        <time>2021-11-18T09:04:10Z</time>
      </trkpt>
      <trkpt lat="46.47695" lon="0.39155">
        <ele>128.49849955365</ele>
        <time>2021-11-18T09:04:12Z</time>
      </trkpt>
      <trkpt lat="46.47697" lon="0.39153">
        <ele>128.50851203129</ele>
        <time>2021-11-18T09:04:14Z</time>
      </trkpt>
      <trkpt lat="46.47698" lon="0.39151">
        <ele>128.43926082831</ele>
        <time>2021-11-18T09:04:16Z</time>
      </trkpt>
      <trkpt lat="46.477" lon="0.39148">
        <ele>128.53826873377</ele>
        <time>2021-11-18T09:04:18Z</time>
      </trkpt>
      <trkpt lat="46.47702" lon="0.39146">
        <ele>128.14440122154</ele>
        <time>2021-11-18T09:04:21Z</time>
      </trkpt>
      <trkpt lat="46.47704" lon="0.39144">
        <ele>128.12722398713</ele>
        <time>2021-11-18T09:04:23Z</time>
      </trkpt>
      <trkpt lat="46.47705" lon="0.39142">
        <ele>128.23096896056</ele>
        <time>2021-11-18T09:04:24Z</time>
      </trkpt>
      <trkpt lat="46.47706" lon="0.39139">
        <ele>128.5209605312</ele>
        <time>2021-11-18T09:04:26Z</time>
      </trkpt>
      <trkpt lat="46.47708" lon="0.39136">
        <ele>127.84764894191</ele>
        <time>2021-11-18T09:04:29Z</time>
      </trkpt>
      <trkpt lat="46.4771" lon="0.39134">
        <ele>127.85297440272</ele>
        <time>2021-11-18T09:04:31Z</time>
      </trkpt>
      <trkpt lat="46.47711" lon="0.39131">
        <ele>127.87738827895</ele>
        <time>2021-11-18T09:04:33Z</time>
      </trkpt>
      <trkpt lat="46.47713" lon="0.39127">
        <ele>127.81535208784</ele>
        <time>2021-11-18T09:04:35Z</time>
      </trkpt>
      <trkpt lat="46.47714" lon="0.39125">
        <ele>127.88107727747</ele>
        <time>2021-11-18T09:04:37Z</time>
      </trkpt>
      <trkpt lat="46.47716" lon="0.39121">
        <ele>127.82354198489</ele>
        <time>2021-11-18T09:04:39Z</time>
      </trkpt>
      <trkpt lat="46.47717" lon="0.39119">
        <ele>127.96988730039</ele>
        <time>2021-11-18T09:04:41Z</time>
      </trkpt>
      <trkpt lat="46.47718" lon="0.39117">
        <ele>128.01064756885</ele>
        <time>2021-11-18T09:04:43Z</time>
      </trkpt>
      <trkpt lat="46.4772" lon="0.39114">
        <ele>127.8558087172</ele>
        <time>2021-11-18T09:04:45Z</time>
      </trkpt>
      <trkpt lat="46.47721" lon="0.39111">
        <ele>127.98166949768</ele>
        <time>2021-11-18T09:04:47Z</time>
      </trkpt>
      <trkpt lat="46.47723" lon="0.39109">
        <ele>128.10204078164</ele>
        <time>2021-11-18T09:04:49Z</time>
      </trkpt>
      <trkpt lat="46.47724" lon="0.39107">
        <ele>127.87620252091</ele>
        <time>2021-11-18T09:04:51Z</time>
      </trkpt>
      <trkpt lat="46.47726" lon="0.39104">
        <ele>128.05411051679</ele>
        <time>2021-11-18T09:04:53Z</time>
      </trkpt>
      <trkpt lat="46.47727" lon="0.39102">
        <ele>127.31150578894</ele>
        <time>2021-11-18T09:04:55Z</time>
      </trkpt>
      <trkpt lat="46.47729" lon="0.39099">
        <ele>127.86145343445</ele>
        <time>2021-11-18T09:04:57Z</time>
      </trkpt>
      <trkpt lat="46.47731" lon="0.39096">
        <ele>127.89715206064</ele>
        <time>2021-11-18T09:04:59Z</time>
      </trkpt>
      <trkpt lat="46.47732" lon="0.39094">
        <ele>127.24035678804</ele>
        <time>2021-11-18T09:05:01Z</time>
      </trkpt>
      <trkpt lat="46.47734" lon="0.39091">
        <ele>127.24504406005</ele>
        <time>2021-11-18T09:05:03Z</time>
      </trkpt>
      <trkpt lat="46.47736" lon="0.39088">
        <ele>127.19651460089</ele>
        <time>2021-11-18T09:05:05Z</time>
      </trkpt>
      <trkpt lat="46.47737" lon="0.39085">
        <ele>126.68811235484</ele>
        <time>2021-11-18T09:05:07Z</time>
      </trkpt>
      <trkpt lat="46.47738" lon="0.39082">
        <ele>126.59297062829</ele>
        <time>2021-11-18T09:05:09Z</time>
      </trkpt>
      <trkpt lat="46.4774" lon="0.39079">
        <ele>126.71557471063</ele>
        <time>2021-11-18T09:05:11Z</time>
      </trkpt>
      <trkpt lat="46.47741" lon="0.39077">
        <ele>126.58810832351</ele>
        <time>2021-11-18T09:05:12Z</time>
      </trkpt>
      <trkpt lat="46.47742" lon="0.39073">
        <ele>126.37687667646</ele>
        <time>2021-11-18T09:05:14Z</time>
      </trkpt>
      <trkpt lat="46.47743" lon="0.3907">
        <ele>126.11471936759</ele>
        <time>2021-11-18T09:05:16Z</time>
      </trkpt>
      <trkpt lat="46.47745" lon="0.39067">
        <ele>126.56170537788</ele>
        <time>2021-11-18T09:05:18Z</time>
      </trkpt>
      <trkpt lat="46.47746" lon="0.39064">
        <ele>126.19437304605</ele>
        <time>2021-11-18T09:05:20Z</time>
      </trkpt>
      <trkpt lat="46.47747" lon="0.3906">
        <ele>126.41414798889</ele>
        <time>2021-11-18T09:05:23Z</time>
      </trkpt>
      <trkpt lat="46.47748" lon="0.39057">
        <ele>126.01873705816</ele>
        <time>2021-11-18T09:05:25Z</time>
      </trkpt>
      <trkpt lat="46.4775" lon="0.39054">
        <ele>126.46937469766</ele>
        <time>2021-11-18T09:05:27Z</time>
      </trkpt>
      <trkpt lat="46.47751" lon="0.39052">
        <ele>126.18430162501</ele>
        <time>2021-11-18T09:05:29Z</time>
      </trkpt>
      <trkpt lat="46.47753" lon="0.3905">
        <ele>126.08330538776</ele>
        <time>2021-11-18T09:05:31Z</time>
      </trkpt>
      <trkpt lat="46.47754" lon="0.39047">
        <ele>126.08528617676</ele>
        <time>2021-11-18T09:05:33Z</time>
      </trkpt>
      <trkpt lat="46.47755" lon="0.39043">
        <ele>126.31167333759</ele>
        <time>2021-11-18T09:05:35Z</time>
      </trkpt>
      <trkpt lat="46.47756" lon="0.39041">
        <ele>125.76112750638</ele>
        <time>2021-11-18T09:05:37Z</time>
      </trkpt>
      <trkpt lat="46.47756" lon="0.39037">
        <ele>126.01429243293</ele>
        <time>2021-11-18T09:05:39Z</time>
      </trkpt>
      <trkpt lat="46.47758" lon="0.39035">
        <ele>125.97342410684</ele>
        <time>2021-11-18T09:05:41Z</time>
      </trkpt>
      <trkpt lat="46.4776" lon="0.39032">
        <ele>126.12028592173</ele>
        <time>2021-11-18T09:05:43Z</time>
      </trkpt>
      <trkpt lat="46.47762" lon="0.39029">
        <ele>125.48386545479</ele>
        <time>2021-11-18T09:05:46Z</time>
      </trkpt>
      <trkpt lat="46.47763" lon="0.39026">
        <ele>125.5115128113</ele>
        <time>2021-11-18T09:05:48Z</time>
      </trkpt>
      <trkpt lat="46.47764" lon="0.39024">
        <ele>125.47564175073</ele>
        <time>2021-11-18T09:05:50Z</time>
      </trkpt>
      <trkpt lat="46.47765" lon="0.39021">
        <ele>125.33572057635</ele>
        <time>2021-11-18T09:05:52Z</time>
      </trkpt>
      <trkpt lat="46.47766" lon="0.39018">
        <ele>125.74862544052</ele>
        <time>2021-11-18T09:05:54Z</time>
      </trkpt>
      <trkpt lat="46.47767" lon="0.39014">
        <ele>125.29443701636</ele>
        <time>2021-11-18T09:05:56Z</time>
      </trkpt>
      <trkpt lat="46.47768" lon="0.39011">
        <ele>125.30568055715</ele>
        <time>2021-11-18T09:05:58Z</time>
      </trkpt>
      <trkpt lat="46.4777" lon="0.39009">
        <ele>125.43339212053</ele>
        <time>2021-11-18T09:06:00Z</time>
      </trkpt>
      <trkpt lat="46.47771" lon="0.39006">
        <ele>125.13821304124</ele>
        <time>2021-11-18T09:06:02Z</time>
      </trkpt>
      <trkpt lat="46.47772" lon="0.39003">
        <ele>124.92072524317</ele>
        <time>2021-11-18T09:06:04Z</time>
      </trkpt>
      <trkpt lat="46.47773" lon="0.39">
        <ele>124.8826235719</ele>
        <time>2021-11-18T09:06:06Z</time>
      </trkpt>
      <trkpt lat="46.47775" lon="0.38996">
        <ele>124.86165754218</ele>
        <time>2021-11-18T09:06:08Z</time>
      </trkpt>
      <trkpt lat="46.47777" lon="0.38994">
        <ele>125.28047988564</ele>
        <time>2021-11-18T09:06:10Z</time>
      </trkpt>
      <trkpt lat="46.47778" lon="0.38992">
        <ele>125.05177316442</ele>
        <time>2021-11-18T09:06:12Z</time>
      </trkpt>
      <trkpt lat="46.4778" lon="0.38989">
        <ele>125.09791433718</ele>
        <time>2021-11-18T09:06:15Z</time>
      </trkpt>
      <trkpt lat="46.47781" lon="0.38987">
        <ele>124.07876385562</ele>
        <time>2021-11-18T09:06:17Z</time>
      </trkpt>
      <trkpt lat="46.47783" lon="0.38985">
        <ele>124.40687196795</ele>
        <time>2021-11-18T09:06:19Z</time>
      </trkpt>
      <trkpt lat="46.47785" lon="0.38982">
        <ele>124.34895034973</ele>
        <time>2021-11-18T09:06:21Z</time>
      </trkpt>
      <trkpt lat="46.47787" lon="0.38981">
        <ele>124.45561005734</ele>
        <time>2021-11-18T09:06:23Z</time>
      </trkpt>
      <trkpt lat="46.47788" lon="0.38979">
        <ele>124.08693090919</ele>
        <time>2021-11-18T09:06:25Z</time>
      </trkpt>
      <trkpt lat="46.4779" lon="0.38976">
        <ele>124.11349760927</ele>
        <time>2021-11-18T09:06:27Z</time>
      </trkpt>
      <trkpt lat="46.47792" lon="0.38974">
        <ele>124.07507329807</ele>
        <time>2021-11-18T09:06:29Z</time>
      </trkpt>
      <trkpt lat="46.47794" lon="0.38971">
        <ele>124.06870102137</ele>
        <time>2021-11-18T09:06:31Z</time>
      </trkpt>
      <trkpt lat="46.47795" lon="0.38967">
        <ele>124.01777277049</ele>
        <time>2021-11-18T09:06:33Z</time>
      </trkpt>
      <trkpt lat="46.47796" lon="0.38964">
        <ele>124.1367877489</ele>
        <time>2021-11-18T09:06:35Z</time>
      </trkpt>
      <trkpt lat="46.47796" lon="0.38961">
        <ele>123.8227053443</ele>
        <time>2021-11-18T09:06:37Z</time>
      </trkpt>
      <trkpt lat="46.47795" lon="0.38958">
        <ele>124.19254862517</ele>
        <time>2021-11-18T09:06:39Z</time>
      </trkpt>
      <trkpt lat="46.47793" lon="0.38956">
        <ele>123.82388506178</ele>
        <time>2021-11-18T09:06:41Z</time>
      </trkpt>
      <trkpt lat="46.47791" lon="0.38954">
        <ele>123.78733206075</ele>
        <time>2021-11-18T09:06:43Z</time>
      </trkpt>
      <trkpt lat="46.47789" lon="0.38953">
        <ele>123.77517422568</ele>
        <time>2021-11-18T09:06:45Z</time>
      </trkpt>
      <trkpt lat="46.47787" lon="0.38952">
        <ele>123.77966863196</ele>
        <time>2021-11-18T09:06:47Z</time>
      </trkpt>
      <trkpt lat="46.47784" lon="0.3895">
        <ele>124.27933390532</ele>
        <time>2021-11-18T09:06:49Z</time>
      </trkpt>
      <trkpt lat="46.47782" lon="0.38949">
        <ele>124.11309084017</ele>
        <time>2021-11-18T09:06:51Z</time>
      </trkpt>
      <trkpt lat="46.4778" lon="0.38947">
        <ele>124.34274359979</ele>
        <time>2021-11-18T09:06:53Z</time>
      </trkpt>
      <trkpt lat="46.47778" lon="0.38946">
        <ele>124.09991664905</ele>
        <time>2021-11-18T09:06:55Z</time>
      </trkpt>
      <trkpt lat="46.47776" lon="0.38945">
        <ele>124.01458644215</ele>
        <time>2021-11-18T09:06:57Z</time>
      </trkpt>
      <trkpt lat="46.47774" lon="0.38945">
        <ele>124.21258616168</ele>
        <time>2021-11-18T09:06:59Z</time>
      </trkpt>
      <trkpt lat="46.47771" lon="0.38944">
        <ele>124.13788361195</ele>
        <time>2021-11-18T09:07:01Z</time>
      </trkpt>
      <trkpt lat="46.47769" lon="0.38943">
        <ele>124.66960081365</ele>
        <time>2021-11-18T09:07:03Z</time>
      </trkpt>
      <trkpt lat="46.47767" lon="0.38941">
        <ele>124.43318836018</ele>
        <time>2021-11-18T09:07:05Z</time>
      </trkpt>
      <trkpt lat="46.47765" lon="0.38941">
        <ele>124.35984145198</ele>
        <time>2021-11-18T09:07:07Z</time>
      </trkpt>
      <trkpt lat="46.47762" lon="0.3894">
        <ele>124.55865216441</ele>
        <time>2021-11-18T09:07:09Z</time>
      </trkpt>
      <trkpt lat="46.47761" lon="0.38939">
        <ele>124.68574228045</ele>
        <time>2021-11-18T09:07:11Z</time>
      </trkpt>
      <trkpt lat="46.47758" lon="0.38937">
        <ele>124.91763278935</ele>
        <time>2021-11-18T09:07:13Z</time>
      </trkpt>
      <trkpt lat="46.47756" lon="0.38936">
        <ele>124.94537542015</ele>
        <time>2021-11-18T09:07:15Z</time>
      </trkpt>
      <trkpt lat="46.47754" lon="0.38936">
        <ele>124.98682850786</ele>
        <time>2021-11-18T09:07:17Z</time>
      </trkpt>
      <trkpt lat="46.47751" lon="0.38936">
        <ele>124.92557438463</ele>
        <time>2021-11-18T09:07:19Z</time>
      </trkpt>
      <trkpt lat="46.47749" lon="0.38934">
        <ele>125.11364808306</ele>
        <time>2021-11-18T09:07:21Z</time>
      </trkpt>
      <trkpt lat="46.47746" lon="0.38933">
        <ele>125.07323223725</ele>
        <time>2021-11-18T09:07:23Z</time>
      </trkpt>
      <trkpt lat="46.47745" lon="0.38932">
        <ele>125.19227355625</ele>
        <time>2021-11-18T09:07:25Z</time>
      </trkpt>
      <trkpt lat="46.47742" lon="0.3893">
        <ele>125.03845645953</ele>
        <time>2021-11-18T09:07:27Z</time>
      </trkpt>
      <trkpt lat="46.4774" lon="0.38929">
        <ele>125.69216483366</ele>
        <time>2021-11-18T09:07:30Z</time>
      </trkpt>
      <trkpt lat="46.47738" lon="0.38926">
        <ele>125.21684699878</ele>
        <time>2021-11-18T09:07:32Z</time>
      </trkpt>
      <trkpt lat="46.47736" lon="0.38925">
        <ele>125.74680093583</ele>
        <time>2021-11-18T09:07:34Z</time>
      </trkpt>
      <trkpt lat="46.47734" lon="0.38924">
        <ele>125.38785360567</ele>
        <time>2021-11-18T09:07:36Z</time>
      </trkpt>
      <trkpt lat="46.47731" lon="0.38923">
        <ele>125.70440533757</ele>
        <time>2021-11-18T09:07:38Z</time>
      </trkpt>
      <trkpt lat="46.47729" lon="0.38922">
        <ele>125.71230463777</ele>
        <time>2021-11-18T09:07:40Z</time>
      </trkpt>
      <trkpt lat="46.47727" lon="0.3892">
        <ele>125.67232408281</ele>
        <time>2021-11-18T09:07:42Z</time>
      </trkpt>
      <trkpt lat="46.47726" lon="0.38919">
        <ele>126.13841384463</ele>
        <time>2021-11-18T09:07:44Z</time>
      </trkpt>
      <trkpt lat="46.47723" lon="0.38918">
        <ele>125.92672508676</ele>
        <time>2021-11-18T09:07:47Z</time>
      </trkpt>
      <trkpt lat="46.47721" lon="0.38917">
        <ele>126.07699624915</ele>
        <time>2021-11-18T09:07:49Z</time>
      </trkpt>
      <trkpt lat="46.47719" lon="0.38916">
        <ele>126.02650183812</ele>
        <time>2021-11-18T09:07:51Z</time>
      </trkpt>
      <trkpt lat="46.47717" lon="0.38914">
        <ele>126.27275902499</ele>
        <time>2021-11-18T09:07:53Z</time>
      </trkpt>
      <trkpt lat="46.47715" lon="0.38913">
        <ele>126.23306570109</ele>
        <time>2021-11-18T09:07:55Z</time>
      </trkpt>
      <trkpt lat="46.47713" lon="0.38911">
        <ele>126.42778736167</ele>
        <time>2021-11-18T09:07:57Z</time>
      </trkpt>
      <trkpt lat="46.47711" lon="0.38909">
        <ele>126.47052200511</ele>
        <time>2021-11-18T09:07:59Z</time>
      </trkpt>
      <trkpt lat="46.47709" lon="0.38908">
        <ele>126.41841303278</ele>
        <time>2021-11-18T09:08:01Z</time>
      </trkpt>
      <trkpt lat="46.47707" lon="0.38908">
        <ele>126.70481477678</ele>
        <time>2021-11-18T09:08:03Z</time>
      </trkpt>
      <trkpt lat="46.47704" lon="0.38906">
        <ele>126.56886219792</ele>
        <time>2021-11-18T09:08:05Z</time>
      </trkpt>
      <trkpt lat="46.47703" lon="0.38904">
        <ele>126.93092490267</ele>
        <time>2021-11-18T09:08:07Z</time>
      </trkpt>
      <trkpt lat="46.477" lon="0.38902">
        <ele>126.89120134152</ele>
        <time>2021-11-18T09:08:09Z</time>
      </trkpt>
      <trkpt lat="46.47697" lon="0.38901">
        <ele>127.06056300551</ele>
        <time>2021-11-18T09:08:11Z</time>
      </trkpt>
      <trkpt lat="46.47694" lon="0.38899">
        <ele>127.3929114854</ele>
        <time>2021-11-18T09:08:13Z</time>
      </trkpt>
      <trkpt lat="46.47692" lon="0.38898">
        <ele>127.16255737841</ele>
        <time>2021-11-18T09:08:15Z</time>
      </trkpt>
      <trkpt lat="46.4769" lon="0.38896">
        <ele>127.30824412499</ele>
        <time>2021-11-18T09:08:17Z</time>
      </trkpt>
      <trkpt lat="46.47688" lon="0.38896">
        <ele>127.39599780273</ele>
        <time>2021-11-18T09:08:19Z</time>
      </trkpt>
      <trkpt lat="46.47685" lon="0.38896">
        <ele>127.31632660329</ele>
        <time>2021-11-18T09:08:21Z</time>
      </trkpt>
      <trkpt lat="46.47683" lon="0.38895">
        <ele>127.57341561001</ele>
        <time>2021-11-18T09:08:23Z</time>
      </trkpt>
      <trkpt lat="46.47681" lon="0.38894">
        <ele>127.58642594237</ele>
        <time>2021-11-18T09:08:25Z</time>
      </trkpt>
      <trkpt lat="46.47678" lon="0.38893">
        <ele>127.6183558153</ele>
        <time>2021-11-18T09:08:27Z</time>
      </trkpt>
      <trkpt lat="46.47676" lon="0.38893">
        <ele>127.53290644195</ele>
        <time>2021-11-18T09:08:29Z</time>
      </trkpt>
      <trkpt lat="46.47673" lon="0.38893">
        <ele>127.81530953478</ele>
        <time>2021-11-18T09:08:31Z</time>
      </trkpt>
      <trkpt lat="46.47671" lon="0.38893">
        <ele>128.07738047466</ele>
        <time>2021-11-18T09:08:33Z</time>
      </trkpt>
      <trkpt lat="46.47669" lon="0.38892">
        <ele>127.82171240356</ele>
        <time>2021-11-18T09:08:35Z</time>
      </trkpt>
      <trkpt lat="46.47667" lon="0.38893">
        <ele>127.88937909715</ele>
        <time>2021-11-18T09:08:37Z</time>
      </trkpt>
      <trkpt lat="46.47664" lon="0.38893">
        <ele>128.07515893038</ele>
        <time>2021-11-18T09:08:39Z</time>
      </trkpt>
      <trkpt lat="46.47662" lon="0.38894">
        <ele>128.202218391</ele>
        <time>2021-11-18T09:08:41Z</time>
      </trkpt>
      <trkpt lat="46.4766" lon="0.38894">
        <ele>128.26728179026</ele>
        <time>2021-11-18T09:08:43Z</time>
      </trkpt>
      <trkpt lat="46.47658" lon="0.38895">
        <ele>128.19264746271</ele>
        <time>2021-11-18T09:08:45Z</time>
      </trkpt>
      <trkpt lat="46.47655" lon="0.38896">
        <ele>128.33518162556</ele>
        <time>2021-11-18T09:08:47Z</time>
      </trkpt>
      <trkpt lat="46.47653" lon="0.38897">
        <ele>128.33269743435</ele>
        <time>2021-11-18T09:08:49Z</time>
      </trkpt>
      <trkpt lat="46.47652" lon="0.38899">
        <ele>128.37436105218</ele>
        <time>2021-11-18T09:08:51Z</time>
      </trkpt>
      <trkpt lat="46.47649" lon="0.389">
        <ele>128.87605649419</ele>
        <time>2021-11-18T09:08:53Z</time>
      </trkpt>
      <trkpt lat="46.47647" lon="0.38901">
        <ele>128.39305802062</ele>
        <time>2021-11-18T09:08:55Z</time>
      </trkpt>
      <trkpt lat="46.47645" lon="0.38902">
        <ele>128.67588236276</ele>
        <time>2021-11-18T09:08:57Z</time>
      </trkpt>
      <trkpt lat="46.47643" lon="0.38903">
        <ele>128.90727909189</ele>
        <time>2021-11-18T09:08:59Z</time>
      </trkpt>
      <trkpt lat="46.47641" lon="0.38904">
        <ele>129.08560408</ele>
        <time>2021-11-18T09:09:01Z</time>
      </trkpt>
      <trkpt lat="46.47639" lon="0.38905">
        <ele>128.97610066738</ele>
        <time>2021-11-18T09:09:03Z</time>
      </trkpt>
      <trkpt lat="46.47637" lon="0.38906">
        <ele>129.36943408847</ele>
        <time>2021-11-18T09:09:05Z</time>
      </trkpt>
      <trkpt lat="46.47635" lon="0.38907">
        <ele>129.29962371103</ele>
        <time>2021-11-18T09:09:07Z</time>
      </trkpt>
      <trkpt lat="46.47632" lon="0.38908">
        <ele>129.30611436162</ele>
        <time>2021-11-18T09:09:09Z</time>
      </trkpt>
      <trkpt lat="46.4763" lon="0.3891">
        <ele>129.20336708985</ele>
        <time>2021-11-18T09:09:11Z</time>
      </trkpt>
      <trkpt lat="46.47628" lon="0.38911">
        <ele>129.35108327772</ele>
        <time>2021-11-18T09:09:13Z</time>
      </trkpt>
      <trkpt lat="46.47626" lon="0.38912">
        <ele>129.57591336872</ele>
        <time>2021-11-18T09:09:15Z</time>
      </trkpt>
      <trkpt lat="46.47624" lon="0.38913">
        <ele>129.18326574937</ele>
        <time>2021-11-18T09:09:17Z</time>
      </trkpt>
      <trkpt lat="46.47622" lon="0.38914">
        <ele>129.24340784084</ele>
        <time>2021-11-18T09:09:19Z</time>
      </trkpt>
      <trkpt lat="46.4762" lon="0.38915">
        <ele>129.07806574367</ele>
        <time>2021-11-18T09:09:21Z</time>
      </trkpt>
      <trkpt lat="46.47618" lon="0.38916">
        <ele>129.10967972875</ele>
        <time>2021-11-18T09:09:23Z</time>
      </trkpt>
      <trkpt lat="46.47616" lon="0.38916">
        <ele>129.37465062179</ele>
        <time>2021-11-18T09:09:25Z</time>
      </trkpt>
      <trkpt lat="46.47614" lon="0.38918">
        <ele>129.18940603826</ele>
        <time>2021-11-18T09:09:27Z</time>
      </trkpt>
      <trkpt lat="46.47611" lon="0.3892">
        <ele>129.62376187555</ele>
        <time>2021-11-18T09:09:29Z</time>
      </trkpt>
      <trkpt lat="46.47609" lon="0.38921">
        <ele>129.16958570853</ele>
        <time>2021-11-18T09:09:31Z</time>
      </trkpt>
      <trkpt lat="46.47606" lon="0.38922">
        <ele>129.40922897682</ele>
        <time>2021-11-18T09:09:33Z</time>
      </trkpt>
      <trkpt lat="46.47604" lon="0.38923">
        <ele>129.30908824131</ele>
        <time>2021-11-18T09:09:35Z</time>
      </trkpt>
      <trkpt lat="46.47602" lon="0.38924">
        <ele>129.00104169268</ele>
        <time>2021-11-18T09:09:37Z</time>
      </trkpt>
      <trkpt lat="46.476" lon="0.38925">
        <ele>129.24398574885</ele>
        <time>2021-11-18T09:09:39Z</time>
      </trkpt>
      <trkpt lat="46.47597" lon="0.38927">
        <ele>129.25814110134</ele>
        <time>2021-11-18T09:09:41Z</time>
      </trkpt>
      <trkpt lat="46.47595" lon="0.38928">
        <ele>128.99789504334</ele>
        <time>2021-11-18T09:09:43Z</time>
      </trkpt>
      <trkpt lat="46.47593" lon="0.3893">
        <ele>129.2795427572</ele>
        <time>2021-11-18T09:09:45Z</time>
      </trkpt>
      <trkpt lat="46.47591" lon="0.38931">
        <ele>129.26785086002</ele>
        <time>2021-11-18T09:09:47Z</time>
      </trkpt>
      <trkpt lat="46.47589" lon="0.38932">
        <ele>129.26448043343</ele>
        <time>2021-11-18T09:09:49Z</time>
      </trkpt>
      <trkpt lat="46.47586" lon="0.38934">
        <ele>128.96038685739</ele>
        <time>2021-11-18T09:09:51Z</time>
      </trkpt>
      <trkpt lat="46.47584" lon="0.38936">
        <ele>129.11817619856</ele>
        <time>2021-11-18T09:09:53Z</time>
      </trkpt>
      <trkpt lat="46.47582" lon="0.38937">
        <ele>129.1505645318</ele>
        <time>2021-11-18T09:09:55Z</time>
      </trkpt>
      <trkpt lat="46.4758" lon="0.38939">
        <ele>129.25078327768</ele>
        <time>2021-11-18T09:09:57Z</time>
      </trkpt>
      <trkpt lat="46.47578" lon="0.38941">
        <ele>129.10605398007</ele>
        <time>2021-11-18T09:09:59Z</time>
      </trkpt>
      <trkpt lat="46.47577" lon="0.38943">
        <ele>129.08902312908</ele>
        <time>2021-11-18T09:10:01Z</time>
      </trkpt>
      <trkpt lat="46.47574" lon="0.38945">
        <ele>128.81820667628</ele>
        <time>2021-11-18T09:10:03Z</time>
      </trkpt>
      <trkpt lat="46.47573" lon="0.38947">
        <ele>129.1693494413</ele>
        <time>2021-11-18T09:10:05Z</time>
      </trkpt>
      <trkpt lat="46.47571" lon="0.38949">
        <ele>129.64585300628</ele>
        <time>2021-11-18T09:10:07Z</time>
      </trkpt>
      <trkpt lat="46.47569" lon="0.38951">
        <ele>129.41573102772</ele>
        <time>2021-11-18T09:10:09Z</time>
      </trkpt>
      <trkpt lat="46.47566" lon="0.38953">
        <ele>129.34586543124</ele>
        <time>2021-11-18T09:10:11Z</time>
      </trkpt>
      <trkpt lat="46.47565" lon="0.38954">
        <ele>129.46754379477</ele>
        <time>2021-11-18T09:10:13Z</time>
      </trkpt>
      <trkpt lat="46.47562" lon="0.38956">
        <ele>129.40934598166</ele>
        <time>2021-11-18T09:10:15Z</time>
      </trkpt>
      <trkpt lat="46.4756" lon="0.38959">
        <ele>129.64960162248</ele>
        <time>2021-11-18T09:10:17Z</time>
      </trkpt>
      <trkpt lat="46.47558" lon="0.3896">
        <ele>129.6777917631</ele>
        <time>2021-11-18T09:10:19Z</time>
      </trkpt>
      <trkpt lat="46.47557" lon="0.38962">
        <ele>129.88273762446</ele>
        <time>2021-11-18T09:10:21Z</time>
      </trkpt>
      <trkpt lat="46.47555" lon="0.38964">
        <ele>129.76790116075</ele>
        <time>2021-11-18T09:10:23Z</time>
      </trkpt>
      <trkpt lat="46.47553" lon="0.38967">
        <ele>129.87038602587</ele>
        <time>2021-11-18T09:10:25Z</time>
      </trkpt>
      <trkpt lat="46.4755" lon="0.38969">
        <ele>129.79948921222</ele>
        <time>2021-11-18T09:10:27Z</time>
      </trkpt>
      <trkpt lat="46.47548" lon="0.38971">
        <ele>129.93877363391</ele>
        <time>2021-11-18T09:10:29Z</time>
      </trkpt>
      <trkpt lat="46.47546" lon="0.38973">
        <ele>130.00105846953</ele>
        <time>2021-11-18T09:10:31Z</time>
      </trkpt>
      <trkpt lat="46.47544" lon="0.38974">
        <ele>130.16385195032</ele>
        <time>2021-11-18T09:10:33Z</time>
      </trkpt>
      <trkpt lat="46.47541" lon="0.38976">
        <ele>130.15008978266</ele>
        <time>2021-11-18T09:10:35Z</time>
      </trkpt>
      <trkpt lat="46.47539" lon="0.38977">
        <ele>130.25775234308</ele>
        <time>2021-11-18T09:10:37Z</time>
      </trkpt>
      <trkpt lat="46.47538" lon="0.38978">
        <ele>129.84196450096</ele>
        <time>2021-11-18T09:10:39Z</time>
      </trkpt>
      <trkpt lat="46.47535" lon="0.38979">
        <ele>130.0753044663</ele>
        <time>2021-11-18T09:10:41Z</time>
      </trkpt>
      <trkpt lat="46.47533" lon="0.3898">
        <ele>129.54007747769</ele>
        <time>2021-11-18T09:10:43Z</time>
      </trkpt>
      <trkpt lat="46.47531" lon="0.38981">
        <ele>129.75211672764</ele>
        <time>2021-11-18T09:10:45Z</time>
      </trkpt>
      <trkpt lat="46.47529" lon="0.38982">
        <ele>130.00581565872</ele>
        <time>2021-11-18T09:10:47Z</time>
      </trkpt>
      <trkpt lat="46.47527" lon="0.38983">
        <ele>129.7886545565</ele>
        <time>2021-11-18T09:10:49Z</time>
      </trkpt>
      <trkpt lat="46.47525" lon="0.38984">
        <ele>129.55551110301</ele>
        <time>2021-11-18T09:10:51Z</time>
      </trkpt>
      <trkpt lat="46.47523" lon="0.38984">
        <ele>130.04852083977</ele>
        <time>2021-11-18T09:10:53Z</time>
      </trkpt>
      <trkpt lat="46.4752" lon="0.38985">
        <ele>129.75852919742</ele>
        <time>2021-11-18T09:10:55Z</time>
      </trkpt>
      <trkpt lat="46.47518" lon="0.38985">
        <ele>129.9987822799</ele>
        <time>2021-11-18T09:10:57Z</time>
      </trkpt>
      <trkpt lat="46.47516" lon="0.38986">
        <ele>129.92110441811</ele>
        <time>2021-11-18T09:10:59Z</time>
      </trkpt>
      <trkpt lat="46.47514" lon="0.38986">
        <ele>129.77272697911</ele>
        <time>2021-11-18T09:11:01Z</time>
      </trkpt>
      <trkpt lat="46.47512" lon="0.38987">
        <ele>129.8059041556</ele>
        <time>2021-11-18T09:11:03Z</time>
      </trkpt>
      <trkpt lat="46.47509" lon="0.38986">
        <ele>129.69352437276</ele>
        <time>2021-11-18T09:11:05Z</time>
      </trkpt>
      <trkpt lat="46.47507" lon="0.38987">
        <ele>130.22375127394</ele>
        <time>2021-11-18T09:11:07Z</time>
      </trkpt>
      <trkpt lat="46.47505" lon="0.38987">
        <ele>129.45620450377</ele>
        <time>2021-11-18T09:11:09Z</time>
      </trkpt>
      <trkpt lat="46.47503" lon="0.38988">
        <ele>129.56883050129</ele>
        <time>2021-11-18T09:11:11Z</time>
      </trkpt>
      <trkpt lat="46.47501" lon="0.38989">
        <ele>129.72949427087</ele>
        <time>2021-11-18T09:11:13Z</time>
      </trkpt>
      <trkpt lat="46.47498" lon="0.3899">
        <ele>129.69724671077</ele>
        <time>2021-11-18T09:11:15Z</time>
      </trkpt>
      <trkpt lat="46.47495" lon="0.38991">
        <ele>129.4640525328</ele>
        <time>2021-11-18T09:11:17Z</time>
      </trkpt>
      <trkpt lat="46.47494" lon="0.38993">
        <ele>129.31464074273</ele>
        <time>2021-11-18T09:11:19Z</time>
      </trkpt>
      <trkpt lat="46.47491" lon="0.38994">
        <ele>129.40343307052</ele>
        <time>2021-11-18T09:11:21Z</time>
      </trkpt>
      <trkpt lat="46.47489" lon="0.38996">
        <ele>129.55616874713</ele>
        <time>2021-11-18T09:11:23Z</time>
      </trkpt>
      <trkpt lat="46.47487" lon="0.38998">
        <ele>129.52906976081</ele>
        <time>2021-11-18T09:11:26Z</time>
      </trkpt>
      <trkpt lat="46.47485" lon="0.39001">
        <ele>129.71633361466</ele>
        <time>2021-11-18T09:11:28Z</time>
      </trkpt>
      <trkpt lat="46.47483" lon="0.39002">
        <ele>129.42015690636</ele>
        <time>2021-11-18T09:11:30Z</time>
      </trkpt>
      <trkpt lat="46.47482" lon="0.39005">
        <ele>129.32739833649</ele>
        <time>2021-11-18T09:11:32Z</time>
      </trkpt>
      <trkpt lat="46.4748" lon="0.39007">
        <ele>129.34331248794</ele>
        <time>2021-11-18T09:11:34Z</time>
      </trkpt>
      <trkpt lat="46.47479" lon="0.39009">
        <ele>129.34473858122</ele>
        <time>2021-11-18T09:11:36Z</time>
      </trkpt>
      <trkpt lat="46.47477" lon="0.39012">
        <ele>129.56623237114</ele>
        <time>2021-11-18T09:11:38Z</time>
      </trkpt>
      <trkpt lat="46.47475" lon="0.39014">
        <ele>129.18051250186</ele>
        <time>2021-11-18T09:11:40Z</time>
      </trkpt>
      <trkpt lat="46.47473" lon="0.39016">
        <ele>128.95218239538</ele>
        <time>2021-11-18T09:11:42Z</time>
      </trkpt>
      <trkpt lat="46.47471" lon="0.39019">
        <ele>129.10330773983</ele>
        <time>2021-11-18T09:11:44Z</time>
      </trkpt>
      <trkpt lat="46.47469" lon="0.3902">
        <ele>128.7228731364</ele>
        <time>2021-11-18T09:11:46Z</time>
      </trkpt>
      <trkpt lat="46.47466" lon="0.39021">
        <ele>128.86059714202</ele>
        <time>2021-11-18T09:11:48Z</time>
      </trkpt>
      <trkpt lat="46.47464" lon="0.39022">
        <ele>128.99371720944</ele>
        <time>2021-11-18T09:11:51Z</time>
      </trkpt>
      <trkpt lat="46.47462" lon="0.39023">
        <ele>128.93312379159</ele>
        <time>2021-11-18T09:11:53Z</time>
      </trkpt>
      <trkpt lat="46.47459" lon="0.39024">
        <ele>128.88556400035</ele>
        <time>2021-11-18T09:11:55Z</time>
      </trkpt>
      <trkpt lat="46.47457" lon="0.39024">
        <ele>128.86789672077</ele>
        <time>2021-11-18T09:11:57Z</time>
      </trkpt>
      <trkpt lat="46.47456" lon="0.39025">
        <ele>129.117275103</ele>
        <time>2021-11-18T09:11:59Z</time>
      </trkpt>
      <trkpt lat="46.47454" lon="0.39026">
        <ele>129.06789352931</ele>
        <time>2021-11-18T09:12:01Z</time>
      </trkpt>
      <trkpt lat="46.47451" lon="0.39027">
        <ele>129.07682293653</ele>
        <time>2021-11-18T09:12:03Z</time>
      </trkpt>
      <trkpt lat="46.47449" lon="0.39027">
        <ele>129.06838423014</ele>
        <time>2021-11-18T09:12:05Z</time>
      </trkpt>
      <trkpt lat="46.47447" lon="0.39028">
        <ele>128.83413349744</ele>
        <time>2021-11-18T09:12:07Z</time>
      </trkpt>
      <trkpt lat="46.47445" lon="0.39028">
        <ele>129.03949245345</ele>
        <time>2021-11-18T09:12:09Z</time>
      </trkpt>
      <trkpt lat="46.47442" lon="0.39028">
        <ele>129.18395249918</ele>
        <time>2021-11-18T09:12:11Z</time>
      </trkpt>
      <trkpt lat="46.47439" lon="0.39028">
        <ele>128.94808831159</ele>
        <time>2021-11-18T09:12:13Z</time>
      </trkpt>
      <trkpt lat="46.47436" lon="0.39029">
        <ele>128.95134445559</ele>
        <time>2021-11-18T09:12:15Z</time>
      </trkpt>
      <trkpt lat="46.47433" lon="0.3903">
        <ele>128.98436102923</ele>
        <time>2021-11-18T09:12:18Z</time>
      </trkpt>
      <trkpt lat="46.47431" lon="0.3903">
        <ele>128.75344238151</ele>
        <time>2021-11-18T09:12:20Z</time>
      </trkpt>
      <trkpt lat="46.47428" lon="0.3903">
        <ele>129.24556643236</ele>
        <time>2021-11-18T09:12:22Z</time>
      </trkpt>
      <trkpt lat="46.47427" lon="0.39031">
        <ele>129.35024772584</ele>
        <time>2021-11-18T09:12:24Z</time>
      </trkpt>
      <trkpt lat="46.47425" lon="0.39031">
        <ele>128.79573752172</ele>
        <time>2021-11-18T09:12:26Z</time>
      </trkpt>
      <trkpt lat="46.47422" lon="0.39032">
        <ele>129.01810770575</ele>
        <time>2021-11-18T09:12:28Z</time>
      </trkpt>
      <trkpt lat="46.47421" lon="0.39031">
        <ele>128.91358178295</ele>
        <time>2021-11-18T09:12:30Z</time>
      </trkpt>
      <trkpt lat="46.47419" lon="0.39032">
        <ele>129.01109448262</ele>
        <time>2021-11-18T09:12:32Z</time>
      </trkpt>
      <trkpt lat="46.47417" lon="0.39031">
        <ele>129.21743099857</ele>
        <time>2021-11-18T09:12:34Z</time>
      </trkpt>
      <trkpt lat="46.47415" lon="0.3903">
        <ele>128.86631811876</ele>
        <time>2021-11-18T09:12:36Z</time>
      </trkpt>
      <trkpt lat="46.47413" lon="0.39029">
        <ele>128.68940497842</ele>
        <time>2021-11-18T09:12:38Z</time>
      </trkpt>
      <trkpt lat="46.4741" lon="0.39027">
        <ele>128.88738436066</ele>
        <time>2021-11-18T09:12:40Z</time>
      </trkpt>
      <trkpt lat="46.47408" lon="0.39026">
        <ele>128.94541988801</ele>
        <time>2021-11-18T09:12:42Z</time>
      </trkpt>
      <trkpt lat="46.47407" lon="0.39024">
        <ele>129.13370401133</ele>
        <time>2021-11-18T09:12:44Z</time>
      </trkpt>
      <trkpt lat="46.47405" lon="0.39023">
        <ele>128.82068236731</ele>
        <time>2021-11-18T09:12:46Z</time>
      </trkpt>
      <trkpt lat="46.47404" lon="0.39021">
        <ele>128.92405439634</ele>
        <time>2021-11-18T09:12:48Z</time>
      </trkpt>
      <trkpt lat="46.47402" lon="0.3902">
        <ele>128.52829129808</ele>
        <time>2021-11-18T09:12:51Z</time>
      </trkpt>
      <trkpt lat="46.474" lon="0.39019">
        <ele>128.5312757194</ele>
        <time>2021-11-18T09:12:54Z</time>
      </trkpt>
      <trkpt lat="46.47398" lon="0.39017">
        <ele>128.42951956112</ele>
        <time>2021-11-18T09:12:56Z</time>
      </trkpt>
      <trkpt lat="46.47396" lon="0.39017">
        <ele>128.68644736335</ele>
        <time>2021-11-18T09:12:58Z</time>
      </trkpt>
      <trkpt lat="46.47394" lon="0.39014">
        <ele>128.3044209918</ele>
        <time>2021-11-18T09:13:00Z</time>
      </trkpt>
      <trkpt lat="46.47393" lon="0.39012">
        <ele>128.70943047758</ele>
        <time>2021-11-18T09:13:02Z</time>
      </trkpt>
      <trkpt lat="46.47392" lon="0.3901">
        <ele>128.22744971421</ele>
        <time>2021-11-18T09:13:04Z</time>
      </trkpt>
      <trkpt lat="46.47392" lon="0.39007">
        <ele>128.50958738476</ele>
        <time>2021-11-18T09:13:06Z</time>
      </trkpt>
      <trkpt lat="46.47392" lon="0.39005">
        <ele>128.25288363174</ele>
        <time>2021-11-18T09:13:08Z</time>
      </trkpt>
      <trkpt lat="46.47391" lon="0.39002">
        <ele>128.45003041811</ele>
        <time>2021-11-18T09:13:10Z</time>
      </trkpt>
      <trkpt lat="46.47391" lon="0.38999">
        <ele>128.36565743107</ele>
        <time>2021-11-18T09:13:12Z</time>
      </trkpt>
      <trkpt lat="46.4739" lon="0.38996">
        <ele>128.15191700403</ele>
        <time>2021-11-18T09:13:14Z</time>
      </trkpt>
      <trkpt lat="46.4739" lon="0.38993">
        <ele>128.15319085587</ele>
        <time>2021-11-18T09:13:16Z</time>
      </trkpt>
      <trkpt lat="46.4739" lon="0.38989">
        <ele>128.13974846434</ele>
        <time>2021-11-18T09:13:19Z</time>
      </trkpt>
      <trkpt lat="46.4739" lon="0.38986">
        <ele>128.09583095275</ele>
        <time>2021-11-18T09:13:21Z</time>
      </trkpt>
      <trkpt lat="46.4739" lon="0.38983">
        <ele>128.27403932251</ele>
        <time>2021-11-18T09:13:23Z</time>
      </trkpt>
      <trkpt lat="46.4739" lon="0.38979">
        <ele>128.023483078</ele>
        <time>2021-11-18T09:13:25Z</time>
      </trkpt>
      <trkpt lat="46.4739" lon="0.38976">
        <ele>128.06129355915</ele>
        <time>2021-11-18T09:13:27Z</time>
      </trkpt>
      <trkpt lat="46.47389" lon="0.38973">
        <ele>128.33175320458</ele>
        <time>2021-11-18T09:13:29Z</time>
      </trkpt>
      <trkpt lat="46.47389" lon="0.3897">
        <ele>127.98704541009</ele>
        <time>2021-11-18T09:13:31Z</time>
      </trkpt>
      <trkpt lat="46.47388" lon="0.38967">
        <ele>127.92351399362</ele>
        <time>2021-11-18T09:13:33Z</time>
      </trkpt>
      <trkpt lat="46.47388" lon="0.38964">
        <ele>127.81218532193</ele>
        <time>2021-11-18T09:13:35Z</time>
      </trkpt>
      <trkpt lat="46.47386" lon="0.38962">
        <ele>127.99678400345</ele>
        <time>2021-11-18T09:13:37Z</time>
      </trkpt>
      <trkpt lat="46.47385" lon="0.38958">
        <ele>128.14108145609</ele>
        <time>2021-11-18T09:13:39Z</time>
      </trkpt>
      <trkpt lat="46.47383" lon="0.38956">
        <ele>127.92267465685</ele>
        <time>2021-11-18T09:13:41Z</time>
      </trkpt>
      <trkpt lat="46.47381" lon="0.38953">
        <ele>128.27986590564</ele>
        <time>2021-11-18T09:13:43Z</time>
      </trkpt>
      <trkpt lat="46.4738" lon="0.38951">
        <ele>128.16328017972</ele>
        <time>2021-11-18T09:13:45Z</time>
      </trkpt>
      <trkpt lat="46.47378" lon="0.38949">
        <ele>128.29486706108</ele>
        <time>2021-11-18T09:13:47Z</time>
      </trkpt>
      <trkpt lat="46.47377" lon="0.38946">
        <ele>128.03126862366</ele>
        <time>2021-11-18T09:13:49Z</time>
      </trkpt>
      <trkpt lat="46.47375" lon="0.38945">
        <ele>128.2728685569</ele>
        <time>2021-11-18T09:13:51Z</time>
      </trkpt>
      <trkpt lat="46.47373" lon="0.38941">
        <ele>127.98945888132</ele>
        <time>2021-11-18T09:13:53Z</time>
      </trkpt>
      <trkpt lat="46.47372" lon="0.38939">
        <ele>128.21795879491</ele>
        <time>2021-11-18T09:13:55Z</time>
      </trkpt>
      <trkpt lat="46.4737" lon="0.38937">
        <ele>127.97915019467</ele>
        <time>2021-11-18T09:13:57Z</time>
      </trkpt>
      <trkpt lat="46.47368" lon="0.38935">
        <ele>128.17296053283</ele>
        <time>2021-11-18T09:13:59Z</time>
      </trkpt>
      <trkpt lat="46.47366" lon="0.38933">
        <ele>127.89363765437</ele>
        <time>2021-11-18T09:14:02Z</time>
      </trkpt>
      <trkpt lat="46.47363" lon="0.3893">
        <ele>128.43171119597</ele>
        <time>2021-11-18T09:14:04Z</time>
      </trkpt>
      <trkpt lat="46.47362" lon="0.38928">
        <ele>128.03937460389</ele>
        <time>2021-11-18T09:14:06Z</time>
      </trkpt>
      <trkpt lat="46.4736" lon="0.38926">
        <ele>127.95372385345</ele>
        <time>2021-11-18T09:14:08Z</time>
      </trkpt>
      <trkpt lat="46.47358" lon="0.38923">
        <ele>127.97150459047</ele>
        <time>2021-11-18T09:14:10Z</time>
      </trkpt>
      <trkpt lat="46.47356" lon="0.38921">
        <ele>128.02059318125</ele>
        <time>2021-11-18T09:14:12Z</time>
      </trkpt>
      <trkpt lat="46.47355" lon="0.38919">
        <ele>128.19826026261</ele>
        <time>2021-11-18T09:14:14Z</time>
      </trkpt>
      <trkpt lat="46.47353" lon="0.38916">
        <ele>127.93837064691</ele>
        <time>2021-11-18T09:14:17Z</time>
      </trkpt>
      <trkpt lat="46.47351" lon="0.38914">
        <ele>127.77750838362</ele>
        <time>2021-11-18T09:14:19Z</time>
      </trkpt>
      <trkpt lat="46.47349" lon="0.38911">
        <ele>128.18749808148</ele>
        <time>2021-11-18T09:14:21Z</time>
      </trkpt>
      <trkpt lat="46.47347" lon="0.38908">
        <ele>128.07882954087</ele>
        <time>2021-11-18T09:14:24Z</time>
      </trkpt>
      <trkpt lat="46.47346" lon="0.38906">
        <ele>128.18449393008</ele>
        <time>2021-11-18T09:14:26Z</time>
      </trkpt>
      <trkpt lat="46.47344" lon="0.38902">
        <ele>127.65977606177</ele>
        <time>2021-11-18T09:14:28Z</time>
      </trkpt>
      <trkpt lat="46.47343" lon="0.389">
        <ele>127.98171618767</ele>
        <time>2021-11-18T09:14:31Z</time>
      </trkpt>
      <trkpt lat="46.47342" lon="0.38897">
        <ele>127.78791342489</ele>
        <time>2021-11-18T09:14:32Z</time>
      </trkpt>
      <trkpt lat="46.47341" lon="0.38894">
        <ele>127.51355989091</ele>
        <time>2021-11-18T09:14:34Z</time>
      </trkpt>
      <trkpt lat="46.47339" lon="0.38892">
        <ele>127.59756430518</ele>
        <time>2021-11-18T09:14:35Z</time>
      </trkpt>
      <trkpt lat="46.47337" lon="0.38891">
        <ele>127.33898634184</ele>
        <time>2021-11-18T09:14:37Z</time>
      </trkpt>
      <trkpt lat="46.47336" lon="0.38888">
        <ele>127.44599633664</ele>
        <time>2021-11-18T09:14:39Z</time>
      </trkpt>
      <trkpt lat="46.47334" lon="0.38885">
        <ele>127.17821160704</ele>
        <time>2021-11-18T09:14:41Z</time>
      </trkpt>
      <trkpt lat="46.47333" lon="0.38882">
        <ele>127.14621500764</ele>
        <time>2021-11-18T09:14:43Z</time>
      </trkpt>
      <trkpt lat="46.47332" lon="0.38879">
        <ele>126.95780366287</ele>
        <time>2021-11-18T09:14:46Z</time>
      </trkpt>
      <trkpt lat="46.47331" lon="0.38877">
        <ele>127.10185219906</ele>
        <time>2021-11-18T09:14:48Z</time>
      </trkpt>
      <trkpt lat="46.47329" lon="0.38874">
        <ele>127.27024339512</ele>
        <time>2021-11-18T09:14:51Z</time>
      </trkpt>
      <trkpt lat="46.47328" lon="0.38872">
        <ele>126.88962946087</ele>
        <time>2021-11-18T09:14:53Z</time>
      </trkpt>
      <trkpt lat="46.47326" lon="0.38869">
        <ele>127.36522168014</ele>
        <time>2021-11-18T09:14:55Z</time>
      </trkpt>
      <trkpt lat="46.47325" lon="0.38865">
        <ele>127.40193693805</ele>
        <time>2021-11-18T09:14:58Z</time>
      </trkpt>
      <trkpt lat="46.47324" lon="0.38862">
        <ele>127.28790052887</ele>
        <time>2021-11-18T09:15:00Z</time>
      </trkpt>
      <trkpt lat="46.47323" lon="0.3886">
        <ele>126.97741993796</ele>
        <time>2021-11-18T09:15:02Z</time>
      </trkpt>
      <trkpt lat="46.47322" lon="0.38856">
        <ele>127.4126538299</ele>
        <time>2021-11-18T09:15:04Z</time>
      </trkpt>
      <trkpt lat="46.47321" lon="0.38854">
        <ele>126.94388878159</ele>
        <time>2021-11-18T09:15:06Z</time>
      </trkpt>
      <trkpt lat="46.47319" lon="0.3885">
        <ele>127.21160317864</ele>
        <time>2021-11-18T09:15:08Z</time>
      </trkpt>
      <trkpt lat="46.47318" lon="0.38846">
        <ele>127.19748302922</ele>
        <time>2021-11-18T09:15:10Z</time>
      </trkpt>
      <trkpt lat="46.47317" lon="0.38843">
        <ele>127.20157033857</ele>
        <time>2021-11-18T09:15:13Z</time>
      </trkpt>
      <trkpt lat="46.47316" lon="0.3884">
        <ele>127.24322936591</ele>
        <time>2021-11-18T09:15:15Z</time>
      </trkpt>
      <trkpt lat="46.47314" lon="0.38836">
        <ele>126.80146390665</ele>
        <time>2021-11-18T09:15:17Z</time>
      </trkpt>
      <trkpt lat="46.47313" lon="0.38832">
        <ele>127.3977964716</ele>
        <time>2021-11-18T09:15:19Z</time>
      </trkpt>
      <trkpt lat="46.47311" lon="0.38828">
        <ele>127.16722895391</ele>
        <time>2021-11-18T09:15:21Z</time>
      </trkpt>
      <trkpt lat="46.4731" lon="0.38825">
        <ele>127.18693463784</ele>
        <time>2021-11-18T09:15:23Z</time>
      </trkpt>
      <trkpt lat="46.47309" lon="0.38822">
        <ele>127.01343708392</ele>
        <time>2021-11-18T09:15:25Z</time>
      </trkpt>
      <trkpt lat="46.47308" lon="0.38819">
        <ele>126.95289208274</ele>
        <time>2021-11-18T09:15:27Z</time>
      </trkpt>
      <trkpt lat="46.47307" lon="0.38815">
        <ele>127.27095676865</ele>
        <time>2021-11-18T09:15:30Z</time>
      </trkpt>
      <trkpt lat="46.47306" lon="0.38813">
        <ele>127.14397838525</ele>
        <time>2021-11-18T09:15:32Z</time>
      </trkpt>
      <trkpt lat="46.47305" lon="0.3881">
        <ele>127.0407665791</ele>
        <time>2021-11-18T09:15:34Z</time>
      </trkpt>
      <trkpt lat="46.47304" lon="0.38808">
        <ele>126.96807234548</ele>
        <time>2021-11-18T09:15:36Z</time>
      </trkpt>
      <trkpt lat="46.47303" lon="0.38804">
        <ele>126.91297942214</ele>
        <time>2021-11-18T09:15:38Z</time>
      </trkpt>
      <trkpt lat="46.47302" lon="0.388">
        <ele>127.05094969086</ele>
        <time>2021-11-18T09:15:40Z</time>
      </trkpt>
      <trkpt lat="46.47302" lon="0.38797">
        <ele>126.70466253627</ele>
        <time>2021-11-18T09:15:41Z</time>
      </trkpt>
      <trkpt lat="46.473" lon="0.38795">
        <ele>126.72198988777</ele>
        <time>2021-11-18T09:15:43Z</time>
      </trkpt>
      <trkpt lat="46.47299" lon="0.38792">
        <ele>126.78909542412</ele>
        <time>2021-11-18T09:15:45Z</time>
      </trkpt>
      <trkpt lat="46.47298" lon="0.38789">
        <ele>127.19856222346</ele>
        <time>2021-11-18T09:15:47Z</time>
      </trkpt>
      <trkpt lat="46.47297" lon="0.38786">
        <ele>126.98003715277</ele>
        <time>2021-11-18T09:15:49Z</time>
      </trkpt>
      <trkpt lat="46.47296" lon="0.38784">
        <ele>126.86565926019</ele>
        <time>2021-11-18T09:15:51Z</time>
      </trkpt>
      <trkpt lat="46.47294" lon="0.38781">
        <ele>126.884934403</ele>
        <time>2021-11-18T09:15:53Z</time>
      </trkpt>
      <trkpt lat="46.47293" lon="0.38778">
        <ele>126.59035156481</ele>
        <time>2021-11-18T09:15:55Z</time>
      </trkpt>
      <trkpt lat="46.47292" lon="0.38776">
        <ele>126.44160178397</ele>
        <time>2021-11-18T09:15:57Z</time>
      </trkpt>
      <trkpt lat="46.47291" lon="0.38772">
        <ele>125.90099066496</ele>
        <time>2021-11-18T09:15:59Z</time>
      </trkpt>
      <trkpt lat="46.47289" lon="0.3877">
        <ele>126.20226242952</ele>
        <time>2021-11-18T09:16:01Z</time>
      </trkpt>
      <trkpt lat="46.47287" lon="0.38767">
        <ele>126.25125560351</ele>
        <time>2021-11-18T09:16:03Z</time>
      </trkpt>
      <trkpt lat="46.47286" lon="0.38764">
        <ele>126.51494681276</ele>
        <time>2021-11-18T09:16:05Z</time>
      </trkpt>
      <trkpt lat="46.47285" lon="0.38761">
        <ele>126.40986700915</ele>
        <time>2021-11-18T09:16:07Z</time>
      </trkpt>
      <trkpt lat="46.47284" lon="0.38758">
        <ele>126.53574877325</ele>
        <time>2021-11-18T09:16:09Z</time>
      </trkpt>
      <trkpt lat="46.47283" lon="0.38755">
        <ele>126.86561232246</ele>
        <time>2021-11-18T09:16:11Z</time>
      </trkpt>
      <trkpt lat="46.47283" lon="0.38752">
        <ele>126.53243096359</ele>
        <time>2021-11-18T09:16:13Z</time>
      </trkpt>
      <trkpt lat="46.47281" lon="0.3875">
        <ele>126.77696233056</ele>
        <time>2021-11-18T09:16:15Z</time>
      </trkpt>
      <trkpt lat="46.4728" lon="0.38745">
        <ele>126.88170529716</ele>
        <time>2021-11-18T09:16:17Z</time>
      </trkpt>
      <trkpt lat="46.47279" lon="0.38741">
        <ele>126.67014671583</ele>
        <time>2021-11-18T09:16:19Z</time>
      </trkpt>
      <trkpt lat="46.47277" lon="0.38738">
        <ele>126.69580448698</ele>
        <time>2021-11-18T09:16:21Z</time>
      </trkpt>
      <trkpt lat="46.47277" lon="0.38734">
        <ele>126.78039043024</ele>
        <time>2021-11-18T09:16:23Z</time>
      </trkpt>
      <trkpt lat="46.47276" lon="0.38732">
        <ele>126.63903503679</ele>
        <time>2021-11-18T09:16:25Z</time>
      </trkpt>
      <trkpt lat="46.47275" lon="0.38728">
        <ele>126.49574698228</ele>
        <time>2021-11-18T09:16:27Z</time>
      </trkpt>
      <trkpt lat="46.47273" lon="0.38726">
        <ele>126.26867894456</ele>
        <time>2021-11-18T09:16:29Z</time>
      </trkpt>
      <trkpt lat="46.47272" lon="0.38723">
        <ele>126.36879862659</ele>
        <time>2021-11-18T09:16:31Z</time>
      </trkpt>
      <trkpt lat="46.47271" lon="0.3872">
        <ele>126.15760455932</ele>
        <time>2021-11-18T09:16:33Z</time>
      </trkpt>
      <trkpt lat="46.47271" lon="0.38716">
        <ele>126.53410619125</ele>
        <time>2021-11-18T09:16:35Z</time>
      </trkpt>
      <trkpt lat="46.47269" lon="0.38713">
        <ele>126.07327688392</ele>
        <time>2021-11-18T09:16:37Z</time>
      </trkpt>
      <trkpt lat="46.47268" lon="0.3871">
        <ele>126.09248781577</ele>
        <time>2021-11-18T09:16:39Z</time>
      </trkpt>
      <trkpt lat="46.47267" lon="0.38708">
        <ele>126.15135865193</ele>
        <time>2021-11-18T09:16:41Z</time>
      </trkpt>
      <trkpt lat="46.47267" lon="0.38705">
        <ele>125.67618481535</ele>
        <time>2021-11-18T09:16:43Z</time>
      </trkpt>
      <trkpt lat="46.47266" lon="0.38702">
        <ele>125.81147730723</ele>
        <time>2021-11-18T09:16:45Z</time>
      </trkpt>
      <trkpt lat="46.47264" lon="0.38699">
        <ele>125.39388910308</ele>
        <time>2021-11-18T09:16:47Z</time>
      </trkpt>
      <trkpt lat="46.47263" lon="0.38696">
        <ele>125.50832421146</ele>
        <time>2021-11-18T09:16:49Z</time>
      </trkpt>
      <trkpt lat="46.47261" lon="0.38693">
        <ele>125.43640732672</ele>
        <time>2021-11-18T09:16:51Z</time>
      </trkpt>
      <trkpt lat="46.47261" lon="0.3869">
        <ele>125.59334328491</ele>
        <time>2021-11-18T09:16:53Z</time>
      </trkpt>
      <trkpt lat="46.4726" lon="0.38687">
        <ele>125.27067425195</ele>
        <time>2021-11-18T09:16:55Z</time>
      </trkpt>
      <trkpt lat="46.4726" lon="0.38684">
        <ele>125.49726407323</ele>
        <time>2021-11-18T09:16:57Z</time>
      </trkpt>
      <trkpt lat="46.47258" lon="0.38681">
        <ele>125.27292493172</ele>
        <time>2021-11-18T09:16:59Z</time>
      </trkpt>
      <trkpt lat="46.47257" lon="0.38678">
        <ele>125.40456967056</ele>
        <time>2021-11-18T09:17:01Z</time>
      </trkpt>
      <trkpt lat="46.47257" lon="0.38675">
        <ele>125.25574745983</ele>
        <time>2021-11-18T09:17:03Z</time>
      </trkpt>
      <trkpt lat="46.47255" lon="0.38672">
        <ele>125.42971461359</ele>
        <time>2021-11-18T09:17:05Z</time>
      </trkpt>
      <trkpt lat="46.47254" lon="0.38668">
        <ele>125.40355836973</ele>
        <time>2021-11-18T09:17:07Z</time>
      </trkpt>
      <trkpt lat="46.47254" lon="0.38665">
        <ele>125.15566139854</ele>
        <time>2021-11-18T09:17:09Z</time>
      </trkpt>
      <trkpt lat="46.47253" lon="0.38662">
        <ele>125.11308630556</ele>
        <time>2021-11-18T09:17:11Z</time>
      </trkpt>
      <trkpt lat="46.47252" lon="0.3866">
        <ele>124.88873892184</ele>
        <time>2021-11-18T09:17:13Z</time>
      </trkpt>
      <trkpt lat="46.47251" lon="0.38656">
        <ele>124.96878924128</ele>
        <time>2021-11-18T09:17:15Z</time>
      </trkpt>
      <trkpt lat="46.47251" lon="0.38653">
        <ele>125.04029921908</ele>
        <time>2021-11-18T09:17:17Z</time>
      </trkpt>
      <trkpt lat="46.4725" lon="0.38651">
        <ele>124.95160640776</ele>
        <time>2021-11-18T09:17:19Z</time>
      </trkpt>
      <trkpt lat="46.47249" lon="0.38648">
        <ele>125.00719832629</ele>
        <time>2021-11-18T09:17:21Z</time>
      </trkpt>
      <trkpt lat="46.47248" lon="0.38644">
        <ele>125.2926206179</ele>
        <time>2021-11-18T09:17:23Z</time>
      </trkpt>
      <trkpt lat="46.47247" lon="0.38641">
        <ele>125.07609678525</ele>
        <time>2021-11-18T09:17:25Z</time>
      </trkpt>
      <trkpt lat="46.47246" lon="0.38639">
        <ele>125.0249191625</ele>
        <time>2021-11-18T09:17:27Z</time>
      </trkpt>
      <trkpt lat="46.47245" lon="0.38635">
        <ele>125.02126941085</ele>
        <time>2021-11-18T09:17:29Z</time>
      </trkpt>
      <trkpt lat="46.47244" lon="0.38631">
        <ele>125.02522342745</ele>
        <time>2021-11-18T09:17:31Z</time>
      </trkpt>
      <trkpt lat="46.47243" lon="0.38628">
        <ele>124.77575740032</ele>
        <time>2021-11-18T09:17:33Z</time>
      </trkpt>
      <trkpt lat="46.47242" lon="0.38626">
        <ele>124.62472763378</ele>
        <time>2021-11-18T09:17:35Z</time>
      </trkpt>
      <trkpt lat="46.47242" lon="0.38622">
        <ele>125.01944433525</ele>
        <time>2021-11-18T09:17:37Z</time>
      </trkpt>
      <trkpt lat="46.47241" lon="0.38619">
        <ele>124.72645903565</ele>
        <time>2021-11-18T09:17:39Z</time>
      </trkpt>
      <trkpt lat="46.4724" lon="0.38616">
        <ele>124.78182328958</ele>
        <time>2021-11-18T09:17:40Z</time>
      </trkpt>
      <trkpt lat="46.47239" lon="0.38612">
        <ele>124.69799050968</ele>
        <time>2021-11-18T09:17:42Z</time>
      </trkpt>
      <trkpt lat="46.47239" lon="0.38609">
        <ele>124.36572764348</ele>
        <time>2021-11-18T09:17:44Z</time>
      </trkpt>
      <trkpt lat="46.47238" lon="0.38605">
        <ele>124.59590538405</ele>
        <time>2021-11-18T09:17:46Z</time>
      </trkpt>
      <trkpt lat="46.47237" lon="0.38602">
        <ele>124.51782408077</ele>
        <time>2021-11-18T09:17:47Z</time>
      </trkpt>
      <trkpt lat="46.47237" lon="0.386">
        <ele>124.614342154</ele>
        <time>2021-11-18T09:17:50Z</time>
      </trkpt>
      <trkpt lat="46.47236" lon="0.38596">
        <ele>124.60320214368</ele>
        <time>2021-11-18T09:17:52Z</time>
      </trkpt>
      <trkpt lat="46.47235" lon="0.38593">
        <ele>124.64083083719</ele>
        <time>2021-11-18T09:17:54Z</time>
      </trkpt>
      <trkpt lat="46.47234" lon="0.3859">
        <ele>124.54759748094</ele>
        <time>2021-11-18T09:17:56Z</time>
      </trkpt>
      <trkpt lat="46.47233" lon="0.38588">
        <ele>124.87128095329</ele>
        <time>2021-11-18T09:17:58Z</time>
      </trkpt>
      <trkpt lat="46.47233" lon="0.38584">
        <ele>124.49083202239</ele>
        <time>2021-11-18T09:18:00Z</time>
      </trkpt>
      <trkpt lat="46.47232" lon="0.3858">
        <ele>124.7166195102</ele>
        <time>2021-11-18T09:18:02Z</time>
      </trkpt>
      <trkpt lat="46.47231" lon="0.38575">
        <ele>125.02562323492</ele>
        <time>2021-11-18T09:18:04Z</time>
      </trkpt>
      <trkpt lat="46.4723" lon="0.38571">
        <ele>124.38123702817</ele>
        <time>2021-11-18T09:18:06Z</time>
      </trkpt>
      <trkpt lat="46.47229" lon="0.38567">
        <ele>124.5616168743</ele>
        <time>2021-11-18T09:18:08Z</time>
      </trkpt>
      <trkpt lat="46.4723" lon="0.38564">
        <ele>124.86925591901</ele>
        <time>2021-11-18T09:18:10Z</time>
      </trkpt>
      <trkpt lat="46.4723" lon="0.3856">
        <ele>124.32414673269</ele>
        <time>2021-11-18T09:18:13Z</time>
      </trkpt>
      <trkpt lat="46.47229" lon="0.38558">
        <ele>124.09157561325</ele>
        <time>2021-11-18T09:18:17Z</time>
      </trkpt>
      <trkpt lat="46.47228" lon="0.38554">
        <ele>123.73122582585</ele>
        <time>2021-11-18T09:18:19Z</time>
      </trkpt>
      <trkpt lat="46.47228" lon="0.38551">
        <ele>123.97564006411</ele>
        <time>2021-11-18T09:18:22Z</time>
      </trkpt>
      <trkpt lat="46.47227" lon="0.38549">
        <ele>123.99578055553</ele>
        <time>2021-11-18T09:18:24Z</time>
      </trkpt>
      <trkpt lat="46.47225" lon="0.38546">
        <ele>123.90015280712</ele>
        <time>2021-11-18T09:18:26Z</time>
      </trkpt>
      <trkpt lat="46.47225" lon="0.38543">
        <ele>124.10375962872</ele>
        <time>2021-11-18T09:18:28Z</time>
      </trkpt>
      <trkpt lat="46.47224" lon="0.3854">
        <ele>124.17427874729</ele>
        <time>2021-11-18T09:18:30Z</time>
      </trkpt>
      <trkpt lat="46.47223" lon="0.38536">
        <ele>123.87589081377</ele>
        <time>2021-11-18T09:18:32Z</time>
      </trkpt>
      <trkpt lat="46.47222" lon="0.38532">
        <ele>124.03037072718</ele>
        <time>2021-11-18T09:18:34Z</time>
      </trkpt>
      <trkpt lat="46.47221" lon="0.3853">
        <ele>124.20071596093</ele>
        <time>2021-11-18T09:18:35Z</time>
      </trkpt>
      <trkpt lat="46.4722" lon="0.38526">
        <ele>124.17980240099</ele>
        <time>2021-11-18T09:18:37Z</time>
      </trkpt>
      <trkpt lat="46.47219" lon="0.38524">
        <ele>124.02048393618</ele>
        <time>2021-11-18T09:18:38Z</time>
      </trkpt>
      <trkpt lat="46.47218" lon="0.38521">
        <ele>123.9702962311</ele>
        <time>2021-11-18T09:18:40Z</time>
      </trkpt>
      <trkpt lat="46.47217" lon="0.38518">
        <ele>124.45891431626</ele>
        <time>2021-11-18T09:18:42Z</time>
      </trkpt>
      <trkpt lat="46.47216" lon="0.38515">
        <ele>124.15990690142</ele>
        <time>2021-11-18T09:18:44Z</time>
      </trkpt>
      <trkpt lat="46.47215" lon="0.38513">
        <ele>124.23026533891</ele>
        <time>2021-11-18T09:18:46Z</time>
      </trkpt>
      <trkpt lat="46.47215" lon="0.3851">
        <ele>124.11085494235</ele>
        <time>2021-11-18T09:18:49Z</time>
      </trkpt>
      <trkpt lat="46.47213" lon="0.38507">
        <ele>124.38751818892</ele>
        <time>2021-11-18T09:18:51Z</time>
      </trkpt>
      <trkpt lat="46.47211" lon="0.38503">
        <ele>124.10850102268</ele>
        <time>2021-11-18T09:18:53Z</time>
      </trkpt>
      <trkpt lat="46.4721" lon="0.385">
        <ele>124.14363938197</ele>
        <time>2021-11-18T09:18:55Z</time>
      </trkpt>
      <trkpt lat="46.47208" lon="0.38498">
        <ele>124.1902689999</ele>
        <time>2021-11-18T09:18:57Z</time>
      </trkpt>
      <trkpt lat="46.47207" lon="0.38496">
        <ele>124.22112183645</ele>
        <time>2021-11-18T09:18:59Z</time>
      </trkpt>
      <trkpt lat="46.47205" lon="0.38494">
        <ele>124.10922174249</ele>
        <time>2021-11-18T09:19:01Z</time>
      </trkpt>
      <trkpt lat="46.47204" lon="0.38491">
        <ele>123.96847188566</ele>
        <time>2021-11-18T09:19:03Z</time>
      </trkpt>
      <trkpt lat="46.47202" lon="0.38488">
        <ele>124.12624325044</ele>
        <time>2021-11-18T09:19:05Z</time>
      </trkpt>
      <trkpt lat="46.472" lon="0.38485">
        <ele>123.92738026846</ele>
        <time>2021-11-18T09:19:07Z</time>
      </trkpt>
      <trkpt lat="46.47199" lon="0.38481">
        <ele>124.08078376204</ele>
        <time>2021-11-18T09:19:09Z</time>
      </trkpt>
      <trkpt lat="46.47197" lon="0.38478">
        <ele>124.11954968888</ele>
        <time>2021-11-18T09:19:11Z</time>
      </trkpt>
      <trkpt lat="46.47196" lon="0.38475">
        <ele>123.87476519402</ele>
        <time>2021-11-18T09:19:13Z</time>
      </trkpt>
      <trkpt lat="46.47195" lon="0.38471">
        <ele>124.07273774873</ele>
        <time>2021-11-18T09:19:15Z</time>
      </trkpt>
      <trkpt lat="46.47194" lon="0.38468">
        <ele>124.17424980551</ele>
        <time>2021-11-18T09:19:17Z</time>
      </trkpt>
      <trkpt lat="46.47192" lon="0.38465">
        <ele>123.8853081679</ele>
        <time>2021-11-18T09:19:19Z</time>
      </trkpt>
      <trkpt lat="46.47192" lon="0.38462">
        <ele>124.10975542292</ele>
        <time>2021-11-18T09:19:21Z</time>
      </trkpt>
      <trkpt lat="46.47192" lon="0.38459">
        <ele>124.05061795283</ele>
        <time>2021-11-18T09:19:23Z</time>
      </trkpt>
      <trkpt lat="46.47191" lon="0.38455">
        <ele>124.06652855314</ele>
        <time>2021-11-18T09:19:25Z</time>
      </trkpt>
      <trkpt lat="46.4719" lon="0.38451">
        <ele>123.92227846384</ele>
        <time>2021-11-18T09:19:30Z</time>
      </trkpt>
      <trkpt lat="46.47189" lon="0.38449">
        <ele>124.1991236154</ele>
        <time>2021-11-18T09:19:32Z</time>
      </trkpt>
      <trkpt lat="46.47186" lon="0.38448">
        <ele>124.07750976179</ele>
        <time>2021-11-18T09:19:36Z</time>
      </trkpt>
      <trkpt lat="46.47186" lon="0.38443">
        <ele>124.32623496186</ele>
        <time>2021-11-18T09:19:38Z</time>
      </trkpt>
      <trkpt lat="46.47184" lon="0.3844">
        <ele>124.07262375765</ele>
        <time>2021-11-18T09:19:40Z</time>
      </trkpt>
      <trkpt lat="46.47183" lon="0.38437">
        <ele>123.95786420256</ele>
        <time>2021-11-18T09:19:42Z</time>
      </trkpt>
      <trkpt lat="46.47183" lon="0.38434">
        <ele>124.04548971634</ele>
        <time>2021-11-18T09:19:44Z</time>
      </trkpt>
      <trkpt lat="46.47182" lon="0.38429">
        <ele>123.917768104</ele>
        <time>2021-11-18T09:19:46Z</time>
      </trkpt>
      <trkpt lat="46.47181" lon="0.38426">
        <ele>123.66888604593</ele>
        <time>2021-11-18T09:19:48Z</time>
      </trkpt>
      <trkpt lat="46.4718" lon="0.38423">
        <ele>124.0911153974</ele>
        <time>2021-11-18T09:19:50Z</time>
      </trkpt>
      <trkpt lat="46.47178" lon="0.3842">
        <ele>123.81612587441</ele>
        <time>2021-11-18T09:19:52Z</time>
      </trkpt>
      <trkpt lat="46.47177" lon="0.38416">
        <ele>123.37895780243</ele>
        <time>2021-11-18T09:19:54Z</time>
      </trkpt>
      <trkpt lat="46.47176" lon="0.38414">
        <ele>123.78089652956</ele>
        <time>2021-11-18T09:19:55Z</time>
      </trkpt>
      <trkpt lat="46.47175" lon="0.38409">
        <ele>123.62335070595</ele>
        <time>2021-11-18T09:19:57Z</time>
      </trkpt>
      <trkpt lat="46.47175" lon="0.38407">
        <ele>123.4488464985</ele>
        <time>2021-11-18T09:19:58Z</time>
      </trkpt>
      <trkpt lat="46.47174" lon="0.38402">
        <ele>123.39034986682</ele>
        <time>2021-11-18T09:20:00Z</time>
      </trkpt>
      <trkpt lat="46.47174" lon="0.38398">
        <ele>123.44619687553</ele>
        <time>2021-11-18T09:20:02Z</time>
      </trkpt>
      <trkpt lat="46.47173" lon="0.38395">
        <ele>123.52668411378</ele>
        <time>2021-11-18T09:20:04Z</time>
      </trkpt>
      <trkpt lat="46.47172" lon="0.38391">
        <ele>123.37082287762</ele>
        <time>2021-11-18T09:20:06Z</time>
      </trkpt>
      <trkpt lat="46.47172" lon="0.38388">
        <ele>123.57424069941</ele>
        <time>2021-11-18T09:20:08Z</time>
      </trkpt>
      <trkpt lat="46.4717" lon="0.38383">
        <ele>123.41573638655</ele>
        <time>2021-11-18T09:20:12Z</time>
      </trkpt>
      <trkpt lat="46.47169" lon="0.3838">
        <ele>123.04169890843</ele>
        <time>2021-11-18T09:20:14Z</time>
      </trkpt>
      <trkpt lat="46.47169" lon="0.38377">
        <ele>122.9446578091</ele>
        <time>2021-11-18T09:20:16Z</time>
      </trkpt>
      <trkpt lat="46.47169" lon="0.38374">
        <ele>123.07725133095</ele>
        <time>2021-11-18T09:20:18Z</time>
      </trkpt>
      <trkpt lat="46.4717" lon="0.38371">
        <ele>123.14921921957</ele>
        <time>2021-11-18T09:20:20Z</time>
      </trkpt>
      <trkpt lat="46.4717" lon="0.38368">
        <ele>123.16892312746</ele>
        <time>2021-11-18T09:20:23Z</time>
      </trkpt>
      <trkpt lat="46.47169" lon="0.38364">
        <ele>123.04510442819</ele>
        <time>2021-11-18T09:20:25Z</time>
      </trkpt>
      <trkpt lat="46.47169" lon="0.3836">
        <ele>122.80801465176</ele>
        <time>2021-11-18T09:20:28Z</time>
      </trkpt>
      <trkpt lat="46.47169" lon="0.38357">
        <ele>122.93214508705</ele>
        <time>2021-11-18T09:20:31Z</time>
      </trkpt>
      <trkpt lat="46.47169" lon="0.38354">
        <ele>123.21598627511</ele>
        <time>2021-11-18T09:20:33Z</time>
      </trkpt>
      <trkpt lat="46.47168" lon="0.38351">
        <ele>122.92929233145</ele>
        <time>2021-11-18T09:20:35Z</time>
      </trkpt>
      <trkpt lat="46.47167" lon="0.38347">
        <ele>122.98507497553</ele>
        <time>2021-11-18T09:20:37Z</time>
      </trkpt>
      <trkpt lat="46.47168" lon="0.38343">
        <ele>122.99499263428</ele>
        <time>2021-11-18T09:20:39Z</time>
      </trkpt>
      <trkpt lat="46.47166" lon="0.38338">
        <ele>122.92235216405</ele>
        <time>2021-11-18T09:20:41Z</time>
      </trkpt>
      <trkpt lat="46.47165" lon="0.38334">
        <ele>122.87080777902</ele>
        <time>2021-11-18T09:20:43Z</time>
      </trkpt>
      <trkpt lat="46.47164" lon="0.38331">
        <ele>123.30291878898</ele>
        <time>2021-11-18T09:20:45Z</time>
      </trkpt>
      <trkpt lat="46.47163" lon="0.38327">
        <ele>122.94788616616</ele>
        <time>2021-11-18T09:20:47Z</time>
      </trkpt>
      <trkpt lat="46.47162" lon="0.38325">
        <ele>122.82677580882</ele>
        <time>2021-11-18T09:20:48Z</time>
      </trkpt>
      <trkpt lat="46.47161" lon="0.38322">
        <ele>122.91869754344</ele>
        <time>2021-11-18T09:20:50Z</time>
      </trkpt>
      <trkpt lat="46.4716" lon="0.38319">
        <ele>122.65562726744</ele>
        <time>2021-11-18T09:20:52Z</time>
      </trkpt>
      <trkpt lat="46.47159" lon="0.38316">
        <ele>122.38852414954</ele>
        <time>2021-11-18T09:20:54Z</time>
      </trkpt>
      <trkpt lat="46.47158" lon="0.38312">
        <ele>122.33866571914</ele>
        <time>2021-11-18T09:20:56Z</time>
      </trkpt>
      <trkpt lat="46.47157" lon="0.38309">
        <ele>122.483189472</ele>
        <time>2021-11-18T09:20:58Z</time>
      </trkpt>
      <trkpt lat="46.47156" lon="0.38306">
        <ele>122.25821942464</ele>
        <time>2021-11-18T09:21:00Z</time>
      </trkpt>
      <trkpt lat="46.47155" lon="0.38303">
        <ele>122.31705074944</ele>
        <time>2021-11-18T09:21:02Z</time>
      </trkpt>
      <trkpt lat="46.47154" lon="0.38299">
        <ele>122.21175842918</ele>
        <time>2021-11-18T09:21:05Z</time>
      </trkpt>
      <trkpt lat="46.47153" lon="0.38297">
        <ele>122.29522683471</ele>
        <time>2021-11-18T09:21:06Z</time>
      </trkpt>
      <trkpt lat="46.47152" lon="0.38294">
        <ele>122.21236588713</ele>
        <time>2021-11-18T09:21:09Z</time>
      </trkpt>
      <trkpt lat="46.4715" lon="0.38291">
        <ele>121.7554984102</ele>
        <time>2021-11-18T09:21:11Z</time>
      </trkpt>
      <trkpt lat="46.47149" lon="0.38289">
        <ele>122.23611504864</ele>
        <time>2021-11-18T09:21:13Z</time>
      </trkpt>
      <trkpt lat="46.47148" lon="0.38286">
        <ele>121.92540651001</ele>
        <time>2021-11-18T09:21:15Z</time>
      </trkpt>
      <trkpt lat="46.47146" lon="0.38283">
        <ele>121.91764183342</ele>
        <time>2021-11-18T09:21:17Z</time>
      </trkpt>
      <trkpt lat="46.47145" lon="0.3828">
        <ele>121.63587657735</ele>
        <time>2021-11-18T09:21:19Z</time>
      </trkpt>
      <trkpt lat="46.47144" lon="0.38277">
        <ele>121.41702495422</ele>
        <time>2021-11-18T09:21:21Z</time>
      </trkpt>
      <trkpt lat="46.47142" lon="0.38274">
        <ele>121.19295869861</ele>
        <time>2021-11-18T09:21:23Z</time>
      </trkpt>
      <trkpt lat="46.47141" lon="0.38271">
        <ele>121.13268611021</ele>
        <time>2021-11-18T09:21:25Z</time>
      </trkpt>
      <trkpt lat="46.47139" lon="0.38269">
        <ele>121.24315735139</ele>
        <time>2021-11-18T09:21:27Z</time>
      </trkpt>
      <trkpt lat="46.47137" lon="0.38266">
        <ele>120.93040967081</ele>
        <time>2021-11-18T09:21:29Z</time>
      </trkpt>
      <trkpt lat="46.47135" lon="0.38263">
        <ele>121.11361385975</ele>
        <time>2021-11-18T09:21:31Z</time>
      </trkpt>
      <trkpt lat="46.47133" lon="0.38261">
        <ele>121.10581163689</ele>
        <time>2021-11-18T09:21:33Z</time>
      </trkpt>
      <trkpt lat="46.47132" lon="0.38258">
        <ele>120.83268389106</ele>
        <time>2021-11-18T09:21:36Z</time>
      </trkpt>
      <trkpt lat="46.4713" lon="0.38256">
        <ele>121.0882797474</ele>
        <time>2021-11-18T09:21:38Z</time>
      </trkpt>
      <trkpt lat="46.47128" lon="0.38253">
        <ele>120.89660965186</ele>
        <time>2021-11-18T09:21:40Z</time>
      </trkpt>
      <trkpt lat="46.47126" lon="0.38251">
        <ele>121.02098568063</ele>
        <time>2021-11-18T09:21:42Z</time>
      </trkpt>
      <trkpt lat="46.47124" lon="0.38249">
        <ele>121.04806307144</ele>
        <time>2021-11-18T09:21:44Z</time>
      </trkpt>
      <trkpt lat="46.47123" lon="0.38247">
        <ele>121.03991696984</ele>
        <time>2021-11-18T09:21:46Z</time>
      </trkpt>
      <trkpt lat="46.47121" lon="0.38245">
        <ele>121.18742844369</ele>
        <time>2021-11-18T09:21:48Z</time>
      </trkpt>
      <trkpt lat="46.4712" lon="0.38241">
        <ele>120.75342278928</ele>
        <time>2021-11-18T09:21:50Z</time>
      </trkpt>
      <trkpt lat="46.47119" lon="0.38239">
        <ele>120.75718727987</ele>
        <time>2021-11-18T09:21:52Z</time>
      </trkpt>
      <trkpt lat="46.47117" lon="0.38235">
        <ele>120.7841265006</ele>
        <time>2021-11-18T09:21:55Z</time>
      </trkpt>
      <trkpt lat="46.47116" lon="0.38234">
        <ele>120.56624138448</ele>
        <time>2021-11-18T09:21:56Z</time>
      </trkpt>
      <trkpt lat="46.47114" lon="0.38231">
        <ele>120.6901635481</ele>
        <time>2021-11-18T09:21:58Z</time>
      </trkpt>
      <trkpt lat="46.47113" lon="0.38228">
        <ele>120.77760500368</ele>
        <time>2021-11-18T09:22:00Z</time>
      </trkpt>
      <trkpt lat="46.47112" lon="0.38226">
        <ele>120.41453627124</ele>
        <time>2021-11-18T09:22:02Z</time>
      </trkpt>
      <trkpt lat="46.4711" lon="0.38224">
        <ele>120.19583102968</ele>
        <time>2021-11-18T09:22:04Z</time>
      </trkpt>
      <trkpt lat="46.47108" lon="0.3822">
        <ele>120.50449580699</ele>
        <time>2021-11-18T09:22:06Z</time>
      </trkpt>
      <trkpt lat="46.47106" lon="0.38217">
        <ele>119.93849948887</ele>
        <time>2021-11-18T09:22:08Z</time>
      </trkpt>
      <trkpt lat="46.47105" lon="0.38215">
        <ele>120.07449080516</ele>
        <time>2021-11-18T09:22:10Z</time>
      </trkpt>
      <trkpt lat="46.47104" lon="0.38213">
        <ele>120.02395579871</ele>
        <time>2021-11-18T09:22:12Z</time>
      </trkpt>
      <trkpt lat="46.47103" lon="0.3821">
        <ele>120.02596510015</ele>
        <time>2021-11-18T09:22:14Z</time>
      </trkpt>
      <trkpt lat="46.47102" lon="0.38207">
        <ele>120.06640443951</ele>
        <time>2021-11-18T09:22:16Z</time>
      </trkpt>
      <trkpt lat="46.47101" lon="0.38204">
        <ele>120.12879110686</ele>
        <time>2021-11-18T09:22:18Z</time>
      </trkpt>
      <trkpt lat="46.47099" lon="0.38201">
        <ele>119.94828174543</ele>
        <time>2021-11-18T09:22:21Z</time>
      </trkpt>
      <trkpt lat="46.47098" lon="0.38199">
        <ele>120.12731016427</ele>
        <time>2021-11-18T09:22:23Z</time>
      </trkpt>
      <trkpt lat="46.47096" lon="0.38197">
        <ele>119.94161904603</ele>
        <time>2021-11-18T09:22:25Z</time>
      </trkpt>
      <trkpt lat="46.47095" lon="0.38194">
        <ele>119.90103010088</ele>
        <time>2021-11-18T09:22:27Z</time>
      </trkpt>
      <trkpt lat="46.47093" lon="0.38192">
        <ele>119.71448843088</ele>
        <time>2021-11-18T09:22:29Z</time>
      </trkpt>
      <trkpt lat="46.47091" lon="0.38188">
        <ele>119.51363226119</ele>
        <time>2021-11-18T09:22:31Z</time>
      </trkpt>
      <trkpt lat="46.47089" lon="0.38185">
        <ele>119.90740052238</ele>
        <time>2021-11-18T09:22:33Z</time>
      </trkpt>
      <trkpt lat="46.47088" lon="0.38182">
        <ele>119.9021404488</ele>
        <time>2021-11-18T09:22:35Z</time>
      </trkpt>
      <trkpt lat="46.47087" lon="0.38179">
        <ele>119.47058510035</ele>
        <time>2021-11-18T09:22:37Z</time>
      </trkpt>
      <trkpt lat="46.47085" lon="0.38176">
        <ele>119.28220040258</ele>
        <time>2021-11-18T09:22:39Z</time>
      </trkpt>
      <trkpt lat="46.47083" lon="0.38173">
        <ele>119.28317819536</ele>
        <time>2021-11-18T09:22:42Z</time>
      </trkpt>
      <trkpt lat="46.47082" lon="0.38169">
        <ele>119.20852557663</ele>
        <time>2021-11-18T09:22:44Z</time>
      </trkpt>
      <trkpt lat="46.47081" lon="0.38166">
        <ele>118.96841084305</ele>
        <time>2021-11-18T09:22:46Z</time>
      </trkpt>
      <trkpt lat="46.47079" lon="0.38164">
        <ele>119.04202649556</ele>
        <time>2021-11-18T09:22:48Z</time>
      </trkpt>
      <trkpt lat="46.47077" lon="0.38162">
        <ele>118.66408697143</ele>
        <time>2021-11-18T09:22:50Z</time>
      </trkpt>
      <trkpt lat="46.47076" lon="0.38158">
        <ele>118.88453971501</ele>
        <time>2021-11-18T09:22:53Z</time>
      </trkpt>
      <trkpt lat="46.47075" lon="0.38155">
        <ele>119.03384376131</ele>
        <time>2021-11-18T09:22:55Z</time>
      </trkpt>
      <trkpt lat="46.47074" lon="0.38153">
        <ele>119.16611646023</ele>
        <time>2021-11-18T09:22:57Z</time>
      </trkpt>
      <trkpt lat="46.47072" lon="0.3815">
        <ele>119.09000460431</ele>
        <time>2021-11-18T09:22:59Z</time>
      </trkpt>
      <trkpt lat="46.47071" lon="0.38147">
        <ele>119.0985292187</ele>
        <time>2021-11-18T09:23:01Z</time>
      </trkpt>
      <trkpt lat="46.4707" lon="0.38146">
        <ele>118.90574839246</ele>
        <time>2021-11-18T09:23:03Z</time>
      </trkpt>
      <trkpt lat="46.47068" lon="0.38143">
        <ele>119.088224696</ele>
        <time>2021-11-18T09:23:05Z</time>
      </trkpt>
      <trkpt lat="46.47067" lon="0.3814">
        <ele>119.30906076636</ele>
        <time>2021-11-18T09:23:07Z</time>
      </trkpt>
      <trkpt lat="46.47066" lon="0.38138">
        <ele>118.96728151757</ele>
        <time>2021-11-18T09:23:09Z</time>
      </trkpt>
      <trkpt lat="46.47065" lon="0.38134">
        <ele>119.07704976294</ele>
        <time>2021-11-18T09:23:11Z</time>
      </trkpt>
      <trkpt lat="46.47063" lon="0.3813">
        <ele>119.23758956511</ele>
        <time>2021-11-18T09:23:13Z</time>
      </trkpt>
      <trkpt lat="46.47062" lon="0.38127">
        <ele>119.60492793657</ele>
        <time>2021-11-18T09:23:15Z</time>
      </trkpt>
      <trkpt lat="46.4706" lon="0.38123">
        <ele>119.06930453796</ele>
        <time>2021-11-18T09:23:17Z</time>
      </trkpt>
      <trkpt lat="46.47059" lon="0.38119">
        <ele>119.63339736871</ele>
        <time>2021-11-18T09:23:19Z</time>
      </trkpt>
      <trkpt lat="46.47057" lon="0.38115">
        <ele>119.80759936851</ele>
        <time>2021-11-18T09:23:21Z</time>
      </trkpt>
      <trkpt lat="46.47056" lon="0.38111">
        <ele>119.7602678407</ele>
        <time>2021-11-18T09:23:23Z</time>
      </trkpt>
      <trkpt lat="46.47054" lon="0.38108">
        <ele>119.74160777312</ele>
        <time>2021-11-18T09:23:25Z</time>
      </trkpt>
      <trkpt lat="46.47053" lon="0.38104">
        <ele>120.03995023202</ele>
        <time>2021-11-18T09:23:27Z</time>
      </trkpt>
      <trkpt lat="46.47053" lon="0.381">
        <ele>120.3984892834</ele>
        <time>2021-11-18T09:23:29Z</time>
      </trkpt>
      <trkpt lat="46.47052" lon="0.38097">
        <ele>120.58199698757</ele>
        <time>2021-11-18T09:23:31Z</time>
      </trkpt>
      <trkpt lat="46.47051" lon="0.38093">
        <ele>120.53765055072</ele>
        <time>2021-11-18T09:23:33Z</time>
      </trkpt>
      <trkpt lat="46.4705" lon="0.3809">
        <ele>120.89248594269</ele>
        <time>2021-11-18T09:23:35Z</time>
      </trkpt>
      <trkpt lat="46.47049" lon="0.38087">
        <ele>120.88381798752</ele>
        <time>2021-11-18T09:23:37Z</time>
      </trkpt>
      <trkpt lat="46.47048" lon="0.38083">
        <ele>121.18999931309</ele>
        <time>2021-11-18T09:23:39Z</time>
      </trkpt>
      <trkpt lat="46.47047" lon="0.3808">
        <ele>121.53812610544</ele>
        <time>2021-11-18T09:23:41Z</time>
      </trkpt>
      <trkpt lat="46.47046" lon="0.38077">
        <ele>121.51772178151</ele>
        <time>2021-11-18T09:23:44Z</time>
      </trkpt>
      <trkpt lat="46.47045" lon="0.38074">
        <ele>121.84054162353</ele>
        <time>2021-11-18T09:23:46Z</time>
      </trkpt>
      <trkpt lat="46.47044" lon="0.3807">
        <ele>121.82268676348</ele>
        <time>2021-11-18T09:23:49Z</time>
      </trkpt>
      <trkpt lat="46.47042" lon="0.38066">
        <ele>121.75973064359</ele>
        <time>2021-11-18T09:23:51Z</time>
      </trkpt>
      <trkpt lat="46.47041" lon="0.38063">
        <ele>122.28376200516</ele>
        <time>2021-11-18T09:23:53Z</time>
      </trkpt>
      <trkpt lat="46.4704" lon="0.38061">
        <ele>122.3314232463</ele>
        <time>2021-11-18T09:23:56Z</time>
      </trkpt>
      <trkpt lat="46.47039" lon="0.38058">
        <ele>122.74213883467</ele>
        <time>2021-11-18T09:23:58Z</time>
      </trkpt>
      <trkpt lat="46.47038" lon="0.38054">
        <ele>122.68228353653</ele>
        <time>2021-11-18T09:24:00Z</time>
      </trkpt>
      <trkpt lat="46.47038" lon="0.38052">
        <ele>122.83207414206</ele>
        <time>2021-11-18T09:24:02Z</time>
      </trkpt>
      <trkpt lat="46.47036" lon="0.38049">
        <ele>122.90715673659</ele>
        <time>2021-11-18T09:24:04Z</time>
      </trkpt>
      <trkpt lat="46.47035" lon="0.38047">
        <ele>123.28879204206</ele>
        <time>2021-11-18T09:24:06Z</time>
      </trkpt>
      <trkpt lat="46.47033" lon="0.38044">
        <ele>123.51175022777</ele>
        <time>2021-11-18T09:24:09Z</time>
      </trkpt>
      <trkpt lat="46.47032" lon="0.3804">
        <ele>123.24780873768</ele>
        <time>2021-11-18T09:24:12Z</time>
      </trkpt>
      <trkpt lat="46.47031" lon="0.38037">
        <ele>123.72999687586</ele>
        <time>2021-11-18T09:24:14Z</time>
      </trkpt>
      <trkpt lat="46.4703" lon="0.38035">
        <ele>123.6275679497</ele>
        <time>2021-11-18T09:24:16Z</time>
      </trkpt>
      <trkpt lat="46.47028" lon="0.38032">
        <ele>124.07887016796</ele>
        <time>2021-11-18T09:24:18Z</time>
      </trkpt>
      <trkpt lat="46.47027" lon="0.38029">
        <ele>124.09901304543</ele>
        <time>2021-11-18T09:24:20Z</time>
      </trkpt>
      <trkpt lat="46.47026" lon="0.38027">
        <ele>124.09406504035</ele>
        <time>2021-11-18T09:24:22Z</time>
      </trkpt>
      <trkpt lat="46.47025" lon="0.38024">
        <ele>124.54042954277</ele>
        <time>2021-11-18T09:24:24Z</time>
      </trkpt>
      <trkpt lat="46.47024" lon="0.38022">
        <ele>124.70354536455</ele>
        <time>2021-11-18T09:24:26Z</time>
      </trkpt>
      <trkpt lat="46.47022" lon="0.38019">
        <ele>124.53294637986</ele>
        <time>2021-11-18T09:24:29Z</time>
      </trkpt>
      <trkpt lat="46.4702" lon="0.38017">
        <ele>124.64404014871</ele>
        <time>2021-11-18T09:24:31Z</time>
      </trkpt>
      <trkpt lat="46.47018" lon="0.38014">
        <ele>124.68713476695</ele>
        <time>2021-11-18T09:24:33Z</time>
      </trkpt>
      <trkpt lat="46.47017" lon="0.38011">
        <ele>124.766162741</ele>
        <time>2021-11-18T09:24:36Z</time>
      </trkpt>
      <trkpt lat="46.47015" lon="0.38009">
        <ele>124.60481877718</ele>
        <time>2021-11-18T09:24:38Z</time>
      </trkpt>
      <trkpt lat="46.47014" lon="0.38006">
        <ele>124.87933682278</ele>
        <time>2021-11-18T09:24:40Z</time>
      </trkpt>
      <trkpt lat="46.47012" lon="0.38004">
        <ele>124.67528924067</ele>
        <time>2021-11-18T09:24:42Z</time>
      </trkpt>
      <trkpt lat="46.4701" lon="0.38002">
        <ele>124.92891557049</ele>
        <time>2021-11-18T09:24:44Z</time>
      </trkpt>
      <trkpt lat="46.47009" lon="0.38">
        <ele>125.21795041673</ele>
        <time>2021-11-18T09:24:46Z</time>
      </trkpt>
      <trkpt lat="46.47007" lon="0.37998">
        <ele>124.99459517282</ele>
        <time>2021-11-18T09:24:48Z</time>
      </trkpt>
      <trkpt lat="46.47005" lon="0.37996">
        <ele>125.11374531966</ele>
        <time>2021-11-18T09:24:50Z</time>
      </trkpt>
      <trkpt lat="46.47004" lon="0.37995">
        <ele>125.40303618927</ele>
        <time>2021-11-18T09:24:52Z</time>
      </trkpt>
      <trkpt lat="46.47002" lon="0.37992">
        <ele>125.61168153211</ele>
        <time>2021-11-18T09:24:55Z</time>
      </trkpt>
      <trkpt lat="46.47001" lon="0.3799">
        <ele>125.67260612268</ele>
        <time>2021-11-18T09:24:57Z</time>
      </trkpt>
      <trkpt lat="46.46999" lon="0.37989">
        <ele>125.68509656843</ele>
        <time>2021-11-18T09:24:59Z</time>
      </trkpt>
      <trkpt lat="46.46997" lon="0.37986">
        <ele>125.96599149425</ele>
        <time>2021-11-18T09:25:01Z</time>
      </trkpt>
      <trkpt lat="46.46996" lon="0.37983">
        <ele>126.00771266315</ele>
        <time>2021-11-18T09:25:03Z</time>
      </trkpt>
      <trkpt lat="46.46994" lon="0.3798">
        <ele>126.00459700264</ele>
        <time>2021-11-18T09:25:05Z</time>
      </trkpt>
      <trkpt lat="46.46992" lon="0.37979">
        <ele>126.27420754824</ele>
        <time>2021-11-18T09:25:07Z</time>
      </trkpt>
      <trkpt lat="46.46991" lon="0.37976">
        <ele>126.55353484675</ele>
        <time>2021-11-18T09:25:09Z</time>
      </trkpt>
      <trkpt lat="46.46989" lon="0.37975">
        <ele>126.63528515305</ele>
        <time>2021-11-18T09:25:12Z</time>
      </trkpt>
      <trkpt lat="46.46987" lon="0.37972">
        <ele>126.71493487898</ele>
        <time>2021-11-18T09:25:14Z</time>
      </trkpt>
      <trkpt lat="46.46984" lon="0.3797">
        <ele>127.04623890854</ele>
        <time>2021-11-18T09:25:16Z</time>
      </trkpt>
      <trkpt lat="46.46983" lon="0.37968">
        <ele>126.97591780219</ele>
        <time>2021-11-18T09:25:18Z</time>
      </trkpt>
      <trkpt lat="46.46982" lon="0.37966">
        <ele>127.08145088796</ele>
        <time>2021-11-18T09:25:20Z</time>
      </trkpt>
      <trkpt lat="46.46981" lon="0.37963">
        <ele>127.28063019644</ele>
        <time>2021-11-18T09:25:22Z</time>
      </trkpt>
      <trkpt lat="46.46979" lon="0.37961">
        <ele>127.23025501333</ele>
        <time>2021-11-18T09:25:24Z</time>
      </trkpt>
      <trkpt lat="46.46978" lon="0.37958">
        <ele>127.19701927528</ele>
        <time>2021-11-18T09:25:26Z</time>
      </trkpt>
      <trkpt lat="46.46976" lon="0.37956">
        <ele>127.11708380934</ele>
        <time>2021-11-18T09:25:28Z</time>
      </trkpt>
      <trkpt lat="46.46974" lon="0.37953">
        <ele>127.16066360287</ele>
        <time>2021-11-18T09:25:31Z</time>
      </trkpt>
      <trkpt lat="46.46973" lon="0.37951">
        <ele>127.40912700631</ele>
        <time>2021-11-18T09:25:33Z</time>
      </trkpt>
      <trkpt lat="46.46971" lon="0.37949">
        <ele>127.45674633514</ele>
        <time>2021-11-18T09:25:35Z</time>
      </trkpt>
      <trkpt lat="46.4697" lon="0.37946">
        <ele>127.41704403423</ele>
        <time>2021-11-18T09:25:38Z</time>
      </trkpt>
      <trkpt lat="46.46968" lon="0.37943">
        <ele>127.8262294149</ele>
        <time>2021-11-18T09:25:40Z</time>
      </trkpt>
      <trkpt lat="46.46967" lon="0.3794">
        <ele>127.36581755616</ele>
        <time>2021-11-18T09:25:42Z</time>
      </trkpt>
      <trkpt lat="46.46965" lon="0.37938">
        <ele>127.6106817415</ele>
        <time>2021-11-18T09:25:44Z</time>
      </trkpt>
      <trkpt lat="46.46964" lon="0.37935">
        <ele>127.54226162378</ele>
        <time>2021-11-18T09:25:46Z</time>
      </trkpt>
      <trkpt lat="46.46963" lon="0.37933">
        <ele>127.86301154178</ele>
        <time>2021-11-18T09:25:48Z</time>
      </trkpt>
      <trkpt lat="46.46961" lon="0.3793">
        <ele>127.84363596421</ele>
        <time>2021-11-18T09:25:50Z</time>
      </trkpt>
      <trkpt lat="46.4696" lon="0.37927">
        <ele>128.22111555748</ele>
        <time>2021-11-18T09:25:52Z</time>
      </trkpt>
      <trkpt lat="46.46959" lon="0.37924">
        <ele>128.04198896512</ele>
        <time>2021-11-18T09:25:54Z</time>
      </trkpt>
      <trkpt lat="46.46958" lon="0.37921">
        <ele>128.09699359629</ele>
        <time>2021-11-18T09:25:56Z</time>
      </trkpt>
      <trkpt lat="46.46956" lon="0.37919">
        <ele>128.07772211917</ele>
        <time>2021-11-18T09:25:58Z</time>
      </trkpt>
      <trkpt lat="46.46955" lon="0.37917">
        <ele>128.27653486002</ele>
        <time>2021-11-18T09:26:00Z</time>
      </trkpt>
      <trkpt lat="46.46954" lon="0.37914">
        <ele>128.01712237298</ele>
        <time>2021-11-18T09:26:02Z</time>
      </trkpt>
      <trkpt lat="46.46952" lon="0.37911">
        <ele>128.40979412571</ele>
        <time>2021-11-18T09:26:04Z</time>
      </trkpt>
      <trkpt lat="46.46951" lon="0.37908">
        <ele>127.83589100465</ele>
        <time>2021-11-18T09:26:07Z</time>
      </trkpt>
      <trkpt lat="46.4695" lon="0.37905">
        <ele>128.25608941633</ele>
        <time>2021-11-18T09:26:09Z</time>
      </trkpt>
      <trkpt lat="46.46948" lon="0.37903">
        <ele>128.28202289063</ele>
        <time>2021-11-18T09:26:11Z</time>
      </trkpt>
      <trkpt lat="46.46947" lon="0.379">
        <ele>128.0700439401</ele>
        <time>2021-11-18T09:26:13Z</time>
      </trkpt>
      <trkpt lat="46.46946" lon="0.37897">
        <ele>127.88709818292</ele>
        <time>2021-11-18T09:26:15Z</time>
      </trkpt>
      <trkpt lat="46.46944" lon="0.37894">
        <ele>127.86268730927</ele>
        <time>2021-11-18T09:26:17Z</time>
      </trkpt>
      <trkpt lat="46.46943" lon="0.37892">
        <ele>128.11701007094</ele>
        <time>2021-11-18T09:26:19Z</time>
      </trkpt>
      <trkpt lat="46.46942" lon="0.37889">
        <ele>128.23668876197</ele>
        <time>2021-11-18T09:26:21Z</time>
      </trkpt>
      <trkpt lat="46.4694" lon="0.37886">
        <ele>128.13509198464</ele>
        <time>2021-11-18T09:26:23Z</time>
      </trkpt>
      <trkpt lat="46.46938" lon="0.37883">
        <ele>128.2956173066</ele>
        <time>2021-11-18T09:26:25Z</time>
      </trkpt>
      <trkpt lat="46.46937" lon="0.3788">
        <ele>128.36144538596</ele>
        <time>2021-11-18T09:26:27Z</time>
      </trkpt>
      <trkpt lat="46.46936" lon="0.37878">
        <ele>128.26503195614</ele>
        <time>2021-11-18T09:26:29Z</time>
      </trkpt>
      <trkpt lat="46.46934" lon="0.37875">
        <ele>128.4558937503</ele>
        <time>2021-11-18T09:26:31Z</time>
      </trkpt>
      <trkpt lat="46.46933" lon="0.37872">
        <ele>128.40744350292</ele>
        <time>2021-11-18T09:26:33Z</time>
      </trkpt>
      <trkpt lat="46.46931" lon="0.3787">
        <ele>128.46419407614</ele>
        <time>2021-11-18T09:26:35Z</time>
      </trkpt>
      <trkpt lat="46.4693" lon="0.37867">
        <ele>128.49886957463</ele>
        <time>2021-11-18T09:26:37Z</time>
      </trkpt>
      <trkpt lat="46.46929" lon="0.37865">
        <ele>128.66401775088</ele>
        <time>2021-11-18T09:26:39Z</time>
      </trkpt>
      <trkpt lat="46.46927" lon="0.37862">
        <ele>128.91615706775</ele>
        <time>2021-11-18T09:26:42Z</time>
      </trkpt>
      <trkpt lat="46.46926" lon="0.37859">
        <ele>128.52832696214</ele>
        <time>2021-11-18T09:26:44Z</time>
      </trkpt>
      <trkpt lat="46.46924" lon="0.37856">
        <ele>128.87250842433</ele>
        <time>2021-11-18T09:26:46Z</time>
      </trkpt>
      <trkpt lat="46.46923" lon="0.37853">
        <ele>128.82094142027</ele>
        <time>2021-11-18T09:26:48Z</time>
      </trkpt>
      <trkpt lat="46.46922" lon="0.3785">
        <ele>128.62900709547</ele>
        <time>2021-11-18T09:26:50Z</time>
      </trkpt>
      <trkpt lat="46.46921" lon="0.37847">
        <ele>128.59514297452</ele>
        <time>2021-11-18T09:26:52Z</time>
      </trkpt>
      <trkpt lat="46.4692" lon="0.37844">
        <ele>128.62481865101</ele>
        <time>2021-11-18T09:26:54Z</time>
      </trkpt>
      <trkpt lat="46.46919" lon="0.37842">
        <ele>128.63092988078</ele>
        <time>2021-11-18T09:26:56Z</time>
      </trkpt>
      <trkpt lat="46.46918" lon="0.3784">
        <ele>128.429609132</ele>
        <time>2021-11-18T09:26:58Z</time>
      </trkpt>
      <trkpt lat="46.46916" lon="0.37837">
        <ele>128.61309177894</ele>
        <time>2021-11-18T09:27:00Z</time>
      </trkpt>
      <trkpt lat="46.46915" lon="0.37834">
        <ele>128.45147833414</ele>
        <time>2021-11-18T09:27:02Z</time>
      </trkpt>
      <trkpt lat="46.46914" lon="0.37831">
        <ele>128.11188619491</ele>
        <time>2021-11-18T09:27:04Z</time>
      </trkpt>
      <trkpt lat="46.46912" lon="0.37828">
        <ele>128.16798782535</ele>
        <time>2021-11-18T09:27:06Z</time>
      </trkpt>
      <trkpt lat="46.46911" lon="0.37826">
        <ele>128.40895179845</ele>
        <time>2021-11-18T09:27:08Z</time>
      </trkpt>
      <trkpt lat="46.4691" lon="0.37823">
        <ele>127.88657521456</ele>
        <time>2021-11-18T09:27:10Z</time>
      </trkpt>
      <trkpt lat="46.46909" lon="0.3782">
        <ele>128.07686565351</ele>
        <time>2021-11-18T09:27:12Z</time>
      </trkpt>
      <trkpt lat="46.46907" lon="0.37817">
        <ele>128.02769694477</ele>
        <time>2021-11-18T09:27:14Z</time>
      </trkpt>
      <trkpt lat="46.46906" lon="0.37814">
        <ele>127.94230923709</ele>
        <time>2021-11-18T09:27:16Z</time>
      </trkpt>
      <trkpt lat="46.46905" lon="0.37811">
        <ele>128.36343529727</ele>
        <time>2021-11-18T09:27:18Z</time>
      </trkpt>
      <trkpt lat="46.46903" lon="0.37809">
        <ele>127.86389796063</ele>
        <time>2021-11-18T09:27:20Z</time>
      </trkpt>
      <trkpt lat="46.46902" lon="0.37806">
        <ele>127.92533198185</ele>
        <time>2021-11-18T09:27:22Z</time>
      </trkpt>
      <trkpt lat="46.46901" lon="0.37804">
        <ele>127.87873691041</ele>
        <time>2021-11-18T09:27:24Z</time>
      </trkpt>
      <trkpt lat="46.469" lon="0.37802">
        <ele>127.99117683899</ele>
        <time>2021-11-18T09:27:26Z</time>
      </trkpt>
      <trkpt lat="46.46899" lon="0.37799">
        <ele>128.06232250761</ele>
        <time>2021-11-18T09:27:28Z</time>
      </trkpt>
      <trkpt lat="46.46897" lon="0.37796">
        <ele>127.71680758148</ele>
        <time>2021-11-18T09:27:30Z</time>
      </trkpt>
      <trkpt lat="46.46896" lon="0.37794">
        <ele>127.95186099317</ele>
        <time>2021-11-18T09:27:32Z</time>
      </trkpt>
      <trkpt lat="46.46895" lon="0.37791">
        <ele>127.57505297661</ele>
        <time>2021-11-18T09:27:35Z</time>
      </trkpt>
      <trkpt lat="46.46894" lon="0.37789">
        <ele>127.47222716827</ele>
        <time>2021-11-18T09:27:37Z</time>
      </trkpt>
      <trkpt lat="46.46893" lon="0.37785">
        <ele>127.41774301603</ele>
        <time>2021-11-18T09:27:40Z</time>
      </trkpt>
      <trkpt lat="46.46892" lon="0.37783">
        <ele>127.83438641392</ele>
        <time>2021-11-18T09:27:42Z</time>
      </trkpt>
      <trkpt lat="46.46891" lon="0.3778">
        <ele>127.55648601148</ele>
        <time>2021-11-18T09:27:44Z</time>
      </trkpt>
      <trkpt lat="46.46892" lon="0.37777">
        <ele>127.24184588622</ele>
        <time>2021-11-18T09:27:46Z</time>
      </trkpt>
      <trkpt lat="46.46894" lon="0.37775">
        <ele>127.02380028553</ele>
        <time>2021-11-18T09:27:49Z</time>
      </trkpt>
      <trkpt lat="46.46896" lon="0.37773">
        <ele>127.25648859609</ele>
        <time>2021-11-18T09:27:51Z</time>
      </trkpt>
      <trkpt lat="46.46899" lon="0.37772">
        <ele>127.04009342752</ele>
        <time>2021-11-18T09:27:53Z</time>
      </trkpt>
      <trkpt lat="46.46901" lon="0.37772">
        <ele>126.95266788546</ele>
        <time>2021-11-18T09:27:55Z</time>
      </trkpt>
      <trkpt lat="46.46903" lon="0.37772">
        <ele>126.86116747651</ele>
        <time>2021-11-18T09:27:57Z</time>
      </trkpt>
      <trkpt lat="46.46905" lon="0.37771">
        <ele>126.75104588456</ele>
        <time>2021-11-18T09:27:59Z</time>
      </trkpt>
      <trkpt lat="46.46908" lon="0.37771">
        <ele>126.94755838811</ele>
        <time>2021-11-18T09:28:01Z</time>
      </trkpt>
      <trkpt lat="46.4691" lon="0.3777">
        <ele>126.66240047012</ele>
        <time>2021-11-18T09:28:03Z</time>
      </trkpt>
      <trkpt lat="46.46912" lon="0.37769">
        <ele>127.26325673517</ele>
        <time>2021-11-18T09:28:05Z</time>
      </trkpt>
      <trkpt lat="46.46914" lon="0.37769">
        <ele>126.98626176361</ele>
        <time>2021-11-18T09:28:07Z</time>
      </trkpt>
      <trkpt lat="46.46917" lon="0.37769">
        <ele>127.06127975322</ele>
        <time>2021-11-18T09:28:09Z</time>
      </trkpt>
      <trkpt lat="46.46919" lon="0.37768">
        <ele>126.90751620755</ele>
        <time>2021-11-18T09:28:11Z</time>
      </trkpt>
      <trkpt lat="46.46921" lon="0.37768">
        <ele>127.14338747505</ele>
        <time>2021-11-18T09:28:13Z</time>
      </trkpt>
      <trkpt lat="46.46923" lon="0.37768">
        <ele>127.17975278385</ele>
        <time>2021-11-18T09:28:15Z</time>
      </trkpt>
      <trkpt lat="46.46925" lon="0.37768">
        <ele>127.16925437655</ele>
        <time>2021-11-18T09:28:17Z</time>
      </trkpt>
      <trkpt lat="46.46928" lon="0.37767">
        <ele>127.03684139438</ele>
        <time>2021-11-18T09:28:19Z</time>
      </trkpt>
      <trkpt lat="46.4693" lon="0.37767">
        <ele>126.86792850867</ele>
        <time>2021-11-18T09:28:21Z</time>
      </trkpt>
      <trkpt lat="46.46933" lon="0.37767">
        <ele>127.04549018759</ele>
        <time>2021-11-18T09:28:24Z</time>
      </trkpt>
      <trkpt lat="46.46935" lon="0.37766">
        <ele>127.42394934408</ele>
        <time>2021-11-18T09:28:26Z</time>
      </trkpt>
      <trkpt lat="46.46937" lon="0.37766">
        <ele>127.11036933959</ele>
        <time>2021-11-18T09:28:28Z</time>
      </trkpt>
      <trkpt lat="46.46939" lon="0.37766">
        <ele>127.05576307233</ele>
        <time>2021-11-18T09:28:30Z</time>
      </trkpt>
      <trkpt lat="46.46942" lon="0.37766">
        <ele>126.96215025242</ele>
        <time>2021-11-18T09:28:32Z</time>
      </trkpt>
      <trkpt lat="46.46944" lon="0.37766">
        <ele>127.11066308245</ele>
        <time>2021-11-18T09:28:34Z</time>
      </trkpt>
      <trkpt lat="46.46946" lon="0.37766">
        <ele>127.17795393895</ele>
        <time>2021-11-18T09:28:36Z</time>
      </trkpt>
      <trkpt lat="46.46948" lon="0.37766">
        <ele>127.05547721032</ele>
        <time>2021-11-18T09:28:38Z</time>
      </trkpt>
      <trkpt lat="46.46951" lon="0.37765">
        <ele>127.04912825022</ele>
        <time>2021-11-18T09:28:40Z</time>
      </trkpt>
      <trkpt lat="46.46953" lon="0.37765">
        <ele>127.15956814587</ele>
        <time>2021-11-18T09:28:42Z</time>
      </trkpt>
      <trkpt lat="46.46955" lon="0.37765">
        <ele>127.32444709819</ele>
        <time>2021-11-18T09:28:44Z</time>
      </trkpt>
      <trkpt lat="46.46958" lon="0.37765">
        <ele>126.98379545938</ele>
        <time>2021-11-18T09:28:46Z</time>
      </trkpt>
      <trkpt lat="46.46961" lon="0.37764">
        <ele>126.97852418292</ele>
        <time>2021-11-18T09:28:49Z</time>
      </trkpt>
      <trkpt lat="46.46963" lon="0.37764">
        <ele>127.24323338736</ele>
        <time>2021-11-18T09:28:51Z</time>
      </trkpt>
      <trkpt lat="46.46965" lon="0.37764">
        <ele>127.08512625191</ele>
        <time>2021-11-18T09:28:53Z</time>
      </trkpt>
      <trkpt lat="46.46967" lon="0.37764">
        <ele>127.09209190775</ele>
        <time>2021-11-18T09:28:55Z</time>
      </trkpt>
      <trkpt lat="46.4697" lon="0.37763">
        <ele>127.45207601879</ele>
        <time>2021-11-18T09:28:57Z</time>
      </trkpt>
      <trkpt lat="46.46972" lon="0.37763">
        <ele>127.00266494509</ele>
        <time>2021-11-18T09:28:59Z</time>
      </trkpt>
      <trkpt lat="46.46974" lon="0.37762">
        <ele>127.21817464475</ele>
        <time>2021-11-18T09:29:01Z</time>
      </trkpt>
      <trkpt lat="46.46976" lon="0.37762">
        <ele>127.20262350887</ele>
        <time>2021-11-18T09:29:03Z</time>
      </trkpt>
      <trkpt lat="46.46979" lon="0.37762">
        <ele>127.16102918144</ele>
        <time>2021-11-18T09:29:06Z</time>
      </trkpt>
      <trkpt lat="46.46981" lon="0.37762">
        <ele>127.23206412885</ele>
        <time>2021-11-18T09:29:08Z</time>
      </trkpt>
      <trkpt lat="46.46983" lon="0.37762">
        <ele>126.96380069386</ele>
        <time>2021-11-18T09:29:09Z</time>
      </trkpt>
      <trkpt lat="46.46985" lon="0.37762">
        <ele>126.9502835637</ele>
        <time>2021-11-18T09:29:11Z</time>
      </trkpt>
      <trkpt lat="46.46987" lon="0.37762">
        <ele>127.06221339293</ele>
        <time>2021-11-18T09:29:13Z</time>
      </trkpt>
      <trkpt lat="46.46989" lon="0.37762">
        <ele>126.73214604333</ele>
        <time>2021-11-18T09:29:15Z</time>
      </trkpt>
      <trkpt lat="46.46991" lon="0.37762">
        <ele>126.92489916924</ele>
        <time>2021-11-18T09:29:17Z</time>
      </trkpt>
      <trkpt lat="46.46993" lon="0.37762">
        <ele>127.07691523898</ele>
        <time>2021-11-18T09:29:19Z</time>
      </trkpt>
      <trkpt lat="46.46996" lon="0.37762">
        <ele>127.21331985015</ele>
        <time>2021-11-18T09:29:21Z</time>
      </trkpt>
      <trkpt lat="46.46998" lon="0.37762">
        <ele>127.10676612891</ele>
        <time>2021-11-18T09:29:23Z</time>
      </trkpt>
      <trkpt lat="46.46999" lon="0.37761">
        <ele>126.73897912074</ele>
        <time>2021-11-18T09:29:25Z</time>
      </trkpt>
      <trkpt lat="46.47002" lon="0.3776">
        <ele>127.08885149658</ele>
        <time>2021-11-18T09:29:28Z</time>
      </trkpt>
      <trkpt lat="46.47004" lon="0.37759">
        <ele>127.14626275655</ele>
        <time>2021-11-18T09:29:30Z</time>
      </trkpt>
      <trkpt lat="46.47006" lon="0.37758">
        <ele>126.92640404403</ele>
        <time>2021-11-18T09:29:32Z</time>
      </trkpt>
      <trkpt lat="46.47007" lon="0.37755">
        <ele>126.90704100113</ele>
        <time>2021-11-18T09:29:34Z</time>
      </trkpt>
      <trkpt lat="46.47008" lon="0.37752">
        <ele>126.89363238495</ele>
        <time>2021-11-18T09:29:36Z</time>
      </trkpt>
      <trkpt lat="46.47008" lon="0.37749">
        <ele>126.73054854479</ele>
        <time>2021-11-18T09:29:38Z</time>
      </trkpt>
      <trkpt lat="46.47008" lon="0.37746">
        <ele>127.07905721292</ele>
        <time>2021-11-18T09:29:40Z</time>
      </trkpt>
      <trkpt lat="46.47009" lon="0.37742">
        <ele>126.6842777133</ele>
        <time>2021-11-18T09:29:43Z</time>
      </trkpt>
      <trkpt lat="46.47009" lon="0.37739">
        <ele>126.64398496412</ele>
        <time>2021-11-18T09:29:45Z</time>
      </trkpt>
      <trkpt lat="46.4701" lon="0.37735">
        <ele>126.61824347824</ele>
        <time>2021-11-18T09:29:47Z</time>
      </trkpt>
      <trkpt lat="46.47011" lon="0.37732">
        <ele>126.41373748519</ele>
        <time>2021-11-18T09:29:50Z</time>
      </trkpt>
      <trkpt lat="46.47012" lon="0.37729">
        <ele>126.21165549103</ele>
        <time>2021-11-18T09:29:53Z</time>
      </trkpt>
      <trkpt lat="46.47012" lon="0.37726">
        <ele>126.37373968028</ele>
        <time>2021-11-18T09:29:55Z</time>
      </trkpt>
      <trkpt lat="46.47013" lon="0.37723">
        <ele>126.38291474525</ele>
        <time>2021-11-18T09:29:57Z</time>
      </trkpt>
      <trkpt lat="46.47013" lon="0.37719">
        <ele>126.11660189461</ele>
        <time>2021-11-18T09:29:59Z</time>
      </trkpt>
      <trkpt lat="46.47014" lon="0.37716">
        <ele>126.18516707327</ele>
        <time>2021-11-18T09:30:01Z</time>
      </trkpt>
      <trkpt lat="46.47014" lon="0.37712">
        <ele>126.05182426143</ele>
        <time>2021-11-18T09:30:03Z</time>
      </trkpt>
      <trkpt lat="46.47015" lon="0.37709">
        <ele>125.86378737167</ele>
        <time>2021-11-18T09:30:05Z</time>
      </trkpt>
      <trkpt lat="46.47015" lon="0.37706">
        <ele>126.04526169505</ele>
        <time>2021-11-18T09:30:07Z</time>
      </trkpt>
      <trkpt lat="46.47016" lon="0.37702">
        <ele>125.51235606801</ele>
        <time>2021-11-18T09:30:10Z</time>
      </trkpt>
      <trkpt lat="46.47016" lon="0.37699">
        <ele>125.73856299091</ele>
        <time>2021-11-18T09:30:12Z</time>
      </trkpt>
      <trkpt lat="46.47017" lon="0.37695">
        <ele>125.85073953401</ele>
        <time>2021-11-18T09:30:15Z</time>
      </trkpt>
      <trkpt lat="46.47018" lon="0.37691">
        <ele>125.35463134851</ele>
        <time>2021-11-18T09:30:18Z</time>
      </trkpt>
      <trkpt lat="46.47018" lon="0.37688">
        <ele>125.17272475548</ele>
        <time>2021-11-18T09:30:20Z</time>
      </trkpt>
      <trkpt lat="46.47019" lon="0.37685">
        <ele>125.47937794309</ele>
        <time>2021-11-18T09:30:22Z</time>
      </trkpt>
      <trkpt lat="46.47019" lon="0.37682">
        <ele>125.22900530789</ele>
        <time>2021-11-18T09:30:24Z</time>
      </trkpt>
      <trkpt lat="46.4702" lon="0.37679">
        <ele>125.21088207699</ele>
        <time>2021-11-18T09:30:26Z</time>
      </trkpt>
      <trkpt lat="46.47021" lon="0.37675">
        <ele>125.09831911884</ele>
        <time>2021-11-18T09:30:28Z</time>
      </trkpt>
      <trkpt lat="46.47021" lon="0.37672">
        <ele>125.14848410245</ele>
        <time>2021-11-18T09:30:30Z</time>
      </trkpt>
      <trkpt lat="46.47023" lon="0.37669">
        <ele>125.17274657544</ele>
        <time>2021-11-18T09:30:33Z</time>
      </trkpt>
      <trkpt lat="46.47023" lon="0.37665">
        <ele>124.80652314611</ele>
        <time>2021-11-18T09:30:35Z</time>
      </trkpt>
      <trkpt lat="46.47024" lon="0.37662">
        <ele>124.83432431705</ele>
        <time>2021-11-18T09:30:37Z</time>
      </trkpt>
      <trkpt lat="46.47024" lon="0.37658">
        <ele>124.84710874502</ele>
        <time>2021-11-18T09:30:39Z</time>
      </trkpt>
      <trkpt lat="46.47024" lon="0.37655">
        <ele>124.52653679252</ele>
        <time>2021-11-18T09:30:41Z</time>
      </trkpt>
      <trkpt lat="46.47025" lon="0.37652">
        <ele>124.31043247227</ele>
        <time>2021-11-18T09:30:43Z</time>
      </trkpt>
      <trkpt lat="46.47026" lon="0.37649">
        <ele>124.38602268323</ele>
        <time>2021-11-18T09:30:45Z</time>
      </trkpt>
      <trkpt lat="46.47027" lon="0.37644">
        <ele>123.81343897805</ele>
        <time>2021-11-18T09:30:47Z</time>
      </trkpt>
      <trkpt lat="46.47028" lon="0.37642">
        <ele>123.56241611857</ele>
        <time>2021-11-18T09:30:49Z</time>
      </trkpt>
      <trkpt lat="46.47028" lon="0.37638">
        <ele>123.42512075417</ele>
        <time>2021-11-18T09:30:51Z</time>
      </trkpt>
      <trkpt lat="46.47028" lon="0.37635">
        <ele>123.07698083762</ele>
        <time>2021-11-18T09:30:53Z</time>
      </trkpt>
      <trkpt lat="46.47029" lon="0.37632">
        <ele>122.67421236914</ele>
        <time>2021-11-18T09:30:55Z</time>
      </trkpt>
      <trkpt lat="46.47029" lon="0.37629">
        <ele>122.78362704813</ele>
        <time>2021-11-18T09:30:57Z</time>
      </trkpt>
      <trkpt lat="46.4703" lon="0.37626">
        <ele>122.88057048246</ele>
        <time>2021-11-18T09:30:59Z</time>
      </trkpt>
      <trkpt lat="46.47031" lon="0.37622">
        <ele>122.22157565784</ele>
        <time>2021-11-18T09:31:01Z</time>
      </trkpt>
      <trkpt lat="46.47031" lon="0.3762">
        <ele>122.11165536009</ele>
        <time>2021-11-18T09:31:03Z</time>
      </trkpt>
      <trkpt lat="46.47032" lon="0.37616">
        <ele>121.89838802349</ele>
        <time>2021-11-18T09:31:06Z</time>
      </trkpt>
      <trkpt lat="46.47032" lon="0.37612">
        <ele>122.12938995101</ele>
        <time>2021-11-18T09:31:08Z</time>
      </trkpt>
      <trkpt lat="46.47033" lon="0.37609">
        <ele>122.04154357035</ele>
        <time>2021-11-18T09:31:10Z</time>
      </trkpt>
      <trkpt lat="46.47034" lon="0.37606">
        <ele>121.79534007236</ele>
        <time>2021-11-18T09:31:12Z</time>
      </trkpt>
      <trkpt lat="46.47034" lon="0.37603">
        <ele>121.63626929466</ele>
        <time>2021-11-18T09:31:14Z</time>
      </trkpt>
      <trkpt lat="46.47035" lon="0.376">
        <ele>121.6312638633</ele>
        <time>2021-11-18T09:31:16Z</time>
      </trkpt>
      <trkpt lat="46.47035" lon="0.37596">
        <ele>121.42983755842</ele>
        <time>2021-11-18T09:31:19Z</time>
      </trkpt>
      <trkpt lat="46.47036" lon="0.37592">
        <ele>121.19036873151</ele>
        <time>2021-11-18T09:31:22Z</time>
      </trkpt>
      <trkpt lat="46.47036" lon="0.37589">
        <ele>121.27834854834</ele>
        <time>2021-11-18T09:31:24Z</time>
      </trkpt>
      <trkpt lat="46.47036" lon="0.37586">
        <ele>121.14848663472</ele>
        <time>2021-11-18T09:31:26Z</time>
      </trkpt>
      <trkpt lat="46.47037" lon="0.37582">
        <ele>121.63849489577</ele>
        <time>2021-11-18T09:31:28Z</time>
      </trkpt>
      <trkpt lat="46.47038" lon="0.37579">
        <ele>121.44875549432</ele>
        <time>2021-11-18T09:31:31Z</time>
      </trkpt>
      <trkpt lat="46.47039" lon="0.37575">
        <ele>121.23529337533</ele>
        <time>2021-11-18T09:31:33Z</time>
      </trkpt>
      <trkpt lat="46.4704" lon="0.37572">
        <ele>121.24876746256</ele>
        <time>2021-11-18T09:31:35Z</time>
      </trkpt>
      <trkpt lat="46.47041" lon="0.37569">
        <ele>121.2080870308</ele>
        <time>2021-11-18T09:31:37Z</time>
      </trkpt>
      <trkpt lat="46.47042" lon="0.37566">
        <ele>121.43661249988</ele>
        <time>2021-11-18T09:31:39Z</time>
      </trkpt>
      <trkpt lat="46.47043" lon="0.37563">
        <ele>121.55253716931</ele>
        <time>2021-11-18T09:31:41Z</time>
      </trkpt>
      <trkpt lat="46.47043" lon="0.3756">
        <ele>121.6086224243</ele>
        <time>2021-11-18T09:31:43Z</time>
      </trkpt>
      <trkpt lat="46.47044" lon="0.37558">
        <ele>121.7938987771</ele>
        <time>2021-11-18T09:31:45Z</time>
      </trkpt>
      <trkpt lat="46.47044" lon="0.37555">
        <ele>121.94126014877</ele>
        <time>2021-11-18T09:31:47Z</time>
      </trkpt>
      <trkpt lat="46.47045" lon="0.37552">
        <ele>121.79967001639</ele>
        <time>2021-11-18T09:31:49Z</time>
      </trkpt>
      <trkpt lat="46.47046" lon="0.37549">
        <ele>122.15030402038</ele>
        <time>2021-11-18T09:31:51Z</time>
      </trkpt>
      <trkpt lat="46.47046" lon="0.37545">
        <ele>121.93536138721</ele>
        <time>2021-11-18T09:31:53Z</time>
      </trkpt>
      <trkpt lat="46.47047" lon="0.37541">
        <ele>121.9130663313</ele>
        <time>2021-11-18T09:31:56Z</time>
      </trkpt>
      <trkpt lat="46.47048" lon="0.37537">
        <ele>121.91743986402</ele>
        <time>2021-11-18T09:31:59Z</time>
      </trkpt>
      <trkpt lat="46.47048" lon="0.37534">
        <ele>121.99044327531</ele>
        <time>2021-11-18T09:32:01Z</time>
      </trkpt>
      <trkpt lat="46.47049" lon="0.37531">
        <ele>122.19458119664</ele>
        <time>2021-11-18T09:32:03Z</time>
      </trkpt>
      <trkpt lat="46.47049" lon="0.37528">
        <ele>122.07553489693</ele>
        <time>2021-11-18T09:32:05Z</time>
      </trkpt>
      <trkpt lat="46.4705" lon="0.37525">
        <ele>122.34939535242</ele>
        <time>2021-11-18T09:32:07Z</time>
      </trkpt>
      <trkpt lat="46.47051" lon="0.37523">
        <ele>122.30606891215</ele>
        <time>2021-11-18T09:32:09Z</time>
      </trkpt>
      <trkpt lat="46.47051" lon="0.3752">
        <ele>122.6545784073</ele>
        <time>2021-11-18T09:32:11Z</time>
      </trkpt>
      <trkpt lat="46.47051" lon="0.37517">
        <ele>122.67335193511</ele>
        <time>2021-11-18T09:32:13Z</time>
      </trkpt>
      <trkpt lat="46.47052" lon="0.37515">
        <ele>122.67867578659</ele>
        <time>2021-11-18T09:32:15Z</time>
      </trkpt>
      <trkpt lat="46.47052" lon="0.37511">
        <ele>122.56016640551</ele>
        <time>2021-11-18T09:32:17Z</time>
      </trkpt>
      <trkpt lat="46.47053" lon="0.37509">
        <ele>122.83290363662</ele>
        <time>2021-11-18T09:32:19Z</time>
      </trkpt>
      <trkpt lat="46.47054" lon="0.37506">
        <ele>123.15916502103</ele>
        <time>2021-11-18T09:32:21Z</time>
      </trkpt>
      <trkpt lat="46.47055" lon="0.37502">
        <ele>123.01163394935</ele>
        <time>2021-11-18T09:32:23Z</time>
      </trkpt>
      <trkpt lat="46.47055" lon="0.37498">
        <ele>122.96599566657</ele>
        <time>2021-11-18T09:32:25Z</time>
      </trkpt>
      <trkpt lat="46.47056" lon="0.37495">
        <ele>123.29669702053</ele>
        <time>2021-11-18T09:32:27Z</time>
      </trkpt>
      <trkpt lat="46.47056" lon="0.37492">
        <ele>123.28100382257</ele>
        <time>2021-11-18T09:32:29Z</time>
      </trkpt>
      <trkpt lat="46.47057" lon="0.37489">
        <ele>123.11826742347</ele>
        <time>2021-11-18T09:32:31Z</time>
      </trkpt>
      <trkpt lat="46.47057" lon="0.37486">
        <ele>123.35234606732</ele>
        <time>2021-11-18T09:32:33Z</time>
      </trkpt>
      <trkpt lat="46.47058" lon="0.37484">
        <ele>123.23543138895</ele>
        <time>2021-11-18T09:32:35Z</time>
      </trkpt>
      <trkpt lat="46.47059" lon="0.37481">
        <ele>122.99639556557</ele>
        <time>2021-11-18T09:32:37Z</time>
      </trkpt>
      <trkpt lat="46.4706" lon="0.37477">
        <ele>122.95544542465</ele>
        <time>2021-11-18T09:32:39Z</time>
      </trkpt>
      <trkpt lat="46.47061" lon="0.37474">
        <ele>123.64292596746</ele>
        <time>2021-11-18T09:32:41Z</time>
      </trkpt>
      <trkpt lat="46.47061" lon="0.3747">
        <ele>122.90218703356</ele>
        <time>2021-11-18T09:32:44Z</time>
      </trkpt>
      <trkpt lat="46.47062" lon="0.37466">
        <ele>122.92911497317</ele>
        <time>2021-11-18T09:32:46Z</time>
      </trkpt>
      <trkpt lat="46.47063" lon="0.37463">
        <ele>122.86269109137</ele>
        <time>2021-11-18T09:32:48Z</time>
      </trkpt>
      <trkpt lat="46.47064" lon="0.37459">
        <ele>122.80316521972</ele>
        <time>2021-11-18T09:32:50Z</time>
      </trkpt>
      <trkpt lat="46.47064" lon="0.37457">
        <ele>122.82229624409</ele>
        <time>2021-11-18T09:32:52Z</time>
      </trkpt>
      <trkpt lat="46.47065" lon="0.37454">
        <ele>122.76312579121</ele>
        <time>2021-11-18T09:32:54Z</time>
      </trkpt>
      <trkpt lat="46.47065" lon="0.3745">
        <ele>122.70025594253</ele>
        <time>2021-11-18T09:32:56Z</time>
      </trkpt>
      <trkpt lat="46.47066" lon="0.37447">
        <ele>122.64386122487</ele>
        <time>2021-11-18T09:32:58Z</time>
      </trkpt>
      <trkpt lat="46.47067" lon="0.37444">
        <ele>122.66558893677</ele>
        <time>2021-11-18T09:33:00Z</time>
      </trkpt>
      <trkpt lat="46.47068" lon="0.37441">
        <ele>122.51879408024</ele>
        <time>2021-11-18T09:33:02Z</time>
      </trkpt>
      <trkpt lat="46.47068" lon="0.37438">
        <ele>122.52300932538</ele>
        <time>2021-11-18T09:33:04Z</time>
      </trkpt>
      <trkpt lat="46.47068" lon="0.37435">
        <ele>122.85645803437</ele>
        <time>2021-11-18T09:33:06Z</time>
      </trkpt>
      <trkpt lat="46.47069" lon="0.37431">
        <ele>122.49152689427</ele>
        <time>2021-11-18T09:33:08Z</time>
      </trkpt>
      <trkpt lat="46.4707" lon="0.37428">
        <ele>122.40923690051</ele>
        <time>2021-11-18T09:33:10Z</time>
      </trkpt>
      <trkpt lat="46.47071" lon="0.37425">
        <ele>122.50518397521</ele>
        <time>2021-11-18T09:33:12Z</time>
      </trkpt>
      <trkpt lat="46.47071" lon="0.37421">
        <ele>122.45434128121</ele>
        <time>2021-11-18T09:33:14Z</time>
      </trkpt>
      <trkpt lat="46.47072" lon="0.37417">
        <ele>122.52592586447</ele>
        <time>2021-11-18T09:33:17Z</time>
      </trkpt>
      <trkpt lat="46.47072" lon="0.37413">
        <ele>122.32946842071</ele>
        <time>2021-11-18T09:33:19Z</time>
      </trkpt>
      <trkpt lat="46.47073" lon="0.37409">
        <ele>122.5227246806</ele>
        <time>2021-11-18T09:33:22Z</time>
      </trkpt>
      <trkpt lat="46.47074" lon="0.37407">
        <ele>122.5254869312</ele>
        <time>2021-11-18T09:33:24Z</time>
      </trkpt>
      <trkpt lat="46.47075" lon="0.37404">
        <ele>122.46110823192</ele>
        <time>2021-11-18T09:33:26Z</time>
      </trkpt>
      <trkpt lat="46.47075" lon="0.374">
        <ele>122.30717764143</ele>
        <time>2021-11-18T09:33:28Z</time>
      </trkpt>
      <trkpt lat="46.47076" lon="0.37397">
        <ele>122.45715257153</ele>
        <time>2021-11-18T09:33:30Z</time>
      </trkpt>
      <trkpt lat="46.47076" lon="0.37393">
        <ele>122.65892392956</ele>
        <time>2021-11-18T09:33:33Z</time>
      </trkpt>
      <trkpt lat="46.47077" lon="0.37389">
        <ele>122.1082680393</ele>
        <time>2021-11-18T09:33:36Z</time>
      </trkpt>
      <trkpt lat="46.47077" lon="0.37385">
        <ele>122.10554242879</ele>
        <time>2021-11-18T09:33:38Z</time>
      </trkpt>
      <trkpt lat="46.47078" lon="0.37382">
        <ele>122.33886285219</ele>
        <time>2021-11-18T09:33:40Z</time>
      </trkpt>
      <trkpt lat="46.47079" lon="0.37379">
        <ele>121.86269282643</ele>
        <time>2021-11-18T09:33:42Z</time>
      </trkpt>
      <trkpt lat="46.47079" lon="0.37376">
        <ele>122.13191170711</ele>
        <time>2021-11-18T09:33:44Z</time>
      </trkpt>
      <trkpt lat="46.4708" lon="0.37373">
        <ele>122.18984601833</ele>
        <time>2021-11-18T09:33:46Z</time>
      </trkpt>
      <trkpt lat="46.4708" lon="0.37369">
        <ele>121.90823914018</ele>
        <time>2021-11-18T09:33:48Z</time>
      </trkpt>
      <trkpt lat="46.47081" lon="0.37366">
        <ele>121.66611597501</ele>
        <time>2021-11-18T09:33:50Z</time>
      </trkpt>
      <trkpt lat="46.47082" lon="0.37363">
        <ele>121.96908687335</ele>
        <time>2021-11-18T09:33:52Z</time>
      </trkpt>
      <trkpt lat="46.47083" lon="0.3736">
        <ele>121.92998269387</ele>
        <time>2021-11-18T09:33:54Z</time>
      </trkpt>
      <trkpt lat="46.47083" lon="0.37356">
        <ele>122.16368206684</ele>
        <time>2021-11-18T09:33:56Z</time>
      </trkpt>
      <trkpt lat="46.47084" lon="0.37353">
        <ele>122.30262451153</ele>
        <time>2021-11-18T09:33:58Z</time>
      </trkpt>
      <trkpt lat="46.47084" lon="0.3735">
        <ele>122.07812287752</ele>
        <time>2021-11-18T09:34:00Z</time>
      </trkpt>
      <trkpt lat="46.47085" lon="0.37346">
        <ele>122.21197797172</ele>
        <time>2021-11-18T09:34:03Z</time>
      </trkpt>
      <trkpt lat="46.47086" lon="0.37343">
        <ele>122.03253435716</ele>
        <time>2021-11-18T09:34:05Z</time>
      </trkpt>
      <trkpt lat="46.47087" lon="0.3734">
        <ele>121.97514719795</ele>
        <time>2021-11-18T09:34:07Z</time>
      </trkpt>
      <trkpt lat="46.47088" lon="0.37336">
        <ele>122.08705468196</ele>
        <time>2021-11-18T09:34:09Z</time>
      </trkpt>
      <trkpt lat="46.47088" lon="0.37333">
        <ele>122.17250477709</ele>
        <time>2021-11-18T09:34:11Z</time>
      </trkpt>
      <trkpt lat="46.47089" lon="0.3733">
        <ele>122.00089028478</ele>
        <time>2021-11-18T09:34:12Z</time>
      </trkpt>
      <trkpt lat="46.47089" lon="0.37327">
        <ele>122.04784558434</ele>
        <time>2021-11-18T09:34:14Z</time>
      </trkpt>
      <trkpt lat="46.4709" lon="0.37324">
        <ele>122.37945628818</ele>
        <time>2021-11-18T09:34:16Z</time>
      </trkpt>
      <trkpt lat="46.4709" lon="0.37321">
        <ele>122.61324396636</ele>
        <time>2021-11-18T09:34:18Z</time>
      </trkpt>
      <trkpt lat="46.4709" lon="0.37317">
        <ele>122.38240232971</ele>
        <time>2021-11-18T09:34:21Z</time>
      </trkpt>
      <trkpt lat="46.47091" lon="0.37313">
        <ele>122.7860585507</ele>
        <time>2021-11-18T09:34:23Z</time>
      </trkpt>
      <trkpt lat="46.47092" lon="0.3731">
        <ele>122.7721915897</ele>
        <time>2021-11-18T09:34:25Z</time>
      </trkpt>
      <trkpt lat="46.47092" lon="0.37307">
        <ele>123.01808856893</ele>
        <time>2021-11-18T09:34:27Z</time>
      </trkpt>
      <trkpt lat="46.47092" lon="0.37304">
        <ele>123.07275971305</ele>
        <time>2021-11-18T09:34:29Z</time>
      </trkpt>
      <trkpt lat="46.47093" lon="0.373">
        <ele>122.92658251524</ele>
        <time>2021-11-18T09:34:31Z</time>
      </trkpt>
      <trkpt lat="46.47093" lon="0.37298">
        <ele>123.19659310021</ele>
        <time>2021-11-18T09:34:33Z</time>
      </trkpt>
      <trkpt lat="46.47094" lon="0.37293">
        <ele>123.20739924256</ele>
        <time>2021-11-18T09:34:35Z</time>
      </trkpt>
      <trkpt lat="46.47095" lon="0.3729">
        <ele>123.54412241187</ele>
        <time>2021-11-18T09:34:37Z</time>
      </trkpt>
      <trkpt lat="46.47095" lon="0.37288">
        <ele>123.33708706032</ele>
        <time>2021-11-18T09:34:39Z</time>
      </trkpt>
      <trkpt lat="46.47096" lon="0.37285">
        <ele>123.44673789758</ele>
        <time>2021-11-18T09:34:41Z</time>
      </trkpt>
      <trkpt lat="46.47097" lon="0.37282">
        <ele>123.39482341148</ele>
        <time>2021-11-18T09:34:43Z</time>
      </trkpt>
      <trkpt lat="46.47097" lon="0.37279">
        <ele>123.47668706905</ele>
        <time>2021-11-18T09:34:45Z</time>
      </trkpt>
      <trkpt lat="46.47098" lon="0.37276">
        <ele>123.68964539934</ele>
        <time>2021-11-18T09:34:47Z</time>
      </trkpt>
      <trkpt lat="46.47099" lon="0.37273">
        <ele>123.67115085479</ele>
        <time>2021-11-18T09:34:49Z</time>
      </trkpt>
      <trkpt lat="46.471" lon="0.37269">
        <ele>123.33019660041</ele>
        <time>2021-11-18T09:34:52Z</time>
      </trkpt>
      <trkpt lat="46.471" lon="0.37266">
        <ele>123.1337376805</ele>
        <time>2021-11-18T09:34:54Z</time>
      </trkpt>
      <trkpt lat="46.47101" lon="0.37263">
        <ele>123.32838487346</ele>
        <time>2021-11-18T09:34:56Z</time>
      </trkpt>
      <trkpt lat="46.47102" lon="0.3726">
        <ele>123.32268696558</ele>
        <time>2021-11-18T09:34:59Z</time>
      </trkpt>
      <trkpt lat="46.47102" lon="0.37256">
        <ele>123.95136188343</ele>
        <time>2021-11-18T09:35:01Z</time>
      </trkpt>
      <trkpt lat="46.47102" lon="0.37253">
        <ele>123.6323994277</ele>
        <time>2021-11-18T09:35:03Z</time>
      </trkpt>
      <trkpt lat="46.47103" lon="0.3725">
        <ele>123.58472387027</ele>
        <time>2021-11-18T09:35:05Z</time>
      </trkpt>
      <trkpt lat="46.47104" lon="0.37246">
        <ele>123.74120011739</ele>
        <time>2021-11-18T09:35:08Z</time>
      </trkpt>
      <trkpt lat="46.47104" lon="0.37242">
        <ele>123.67057137378</ele>
        <time>2021-11-18T09:35:10Z</time>
      </trkpt>
      <trkpt lat="46.47106" lon="0.37238">
        <ele>124.367547662</ele>
        <time>2021-11-18T09:35:13Z</time>
      </trkpt>
      <trkpt lat="46.47106" lon="0.37235">
        <ele>124.22432549391</ele>
        <time>2021-11-18T09:35:15Z</time>
      </trkpt>
      <trkpt lat="46.47106" lon="0.37232">
        <ele>124.69387819245</ele>
        <time>2021-11-18T09:35:17Z</time>
      </trkpt>
      <trkpt lat="46.47108" lon="0.37228">
        <ele>124.67438573577</ele>
        <time>2021-11-18T09:35:20Z</time>
      </trkpt>
      <trkpt lat="46.47108" lon="0.37225">
        <ele>124.58523846325</ele>
        <time>2021-11-18T09:35:22Z</time>
      </trkpt>
      <trkpt lat="46.47108" lon="0.37222">
        <ele>124.56818067562</ele>
        <time>2021-11-18T09:35:24Z</time>
      </trkpt>
      <trkpt lat="46.47108" lon="0.37219">
        <ele>125.1500569433</ele>
        <time>2021-11-18T09:35:26Z</time>
      </trkpt>
      <trkpt lat="46.47109" lon="0.37216">
        <ele>125.17200271133</ele>
        <time>2021-11-18T09:35:28Z</time>
      </trkpt>
      <trkpt lat="46.47109" lon="0.37212">
        <ele>125.12558980938</ele>
        <time>2021-11-18T09:35:30Z</time>
      </trkpt>
      <trkpt lat="46.4711" lon="0.3721">
        <ele>125.40331983846</ele>
        <time>2021-11-18T09:35:32Z</time>
      </trkpt>
      <trkpt lat="46.47111" lon="0.37207">
        <ele>125.31359737739</ele>
        <time>2021-11-18T09:35:34Z</time>
      </trkpt>
      <trkpt lat="46.47111" lon="0.37204">
        <ele>125.5350945266</ele>
        <time>2021-11-18T09:35:36Z</time>
      </trkpt>
      <trkpt lat="46.47112" lon="0.372">
        <ele>125.67583654169</ele>
        <time>2021-11-18T09:35:39Z</time>
      </trkpt>
      <trkpt lat="46.47113" lon="0.37198">
        <ele>126.16883002222</ele>
        <time>2021-11-18T09:35:41Z</time>
      </trkpt>
      <trkpt lat="46.47113" lon="0.37195">
        <ele>125.97930225916</ele>
        <time>2021-11-18T09:35:43Z</time>
      </trkpt>
      <trkpt lat="46.47114" lon="0.37191">
        <ele>126.16145785525</ele>
        <time>2021-11-18T09:35:46Z</time>
      </trkpt>
      <trkpt lat="46.47115" lon="0.37188">
        <ele>126.0939161228</ele>
        <time>2021-11-18T09:35:48Z</time>
      </trkpt>
      <trkpt lat="46.47115" lon="0.37184">
        <ele>126.23773609661</ele>
        <time>2021-11-18T09:35:50Z</time>
      </trkpt>
      <trkpt lat="46.47116" lon="0.3718">
        <ele>126.28654756211</ele>
        <time>2021-11-18T09:35:53Z</time>
      </trkpt>
      <trkpt lat="46.47116" lon="0.37177">
        <ele>126.39369201567</ele>
        <time>2021-11-18T09:35:56Z</time>
      </trkpt>
      <trkpt lat="46.47117" lon="0.37174">
        <ele>126.33287481871</ele>
        <time>2021-11-18T09:35:58Z</time>
      </trkpt>
      <trkpt lat="46.47118" lon="0.37171">
        <ele>126.57692196406</ele>
        <time>2021-11-18T09:36:00Z</time>
      </trkpt>
      <trkpt lat="46.47118" lon="0.37168">
        <ele>126.43308629282</ele>
        <time>2021-11-18T09:36:02Z</time>
      </trkpt>
      <trkpt lat="46.47119" lon="0.37165">
        <ele>126.61873866711</ele>
        <time>2021-11-18T09:36:04Z</time>
      </trkpt>
      <trkpt lat="46.4712" lon="0.37161">
        <ele>126.88301036321</ele>
        <time>2021-11-18T09:36:06Z</time>
      </trkpt>
      <trkpt lat="46.4712" lon="0.37159">
        <ele>126.59913837817</ele>
        <time>2021-11-18T09:36:08Z</time>
      </trkpt>
      <trkpt lat="46.4712" lon="0.37155">
        <ele>126.73959773872</ele>
        <time>2021-11-18T09:36:10Z</time>
      </trkpt>
      <trkpt lat="46.47121" lon="0.37152">
        <ele>126.91557795089</ele>
        <time>2021-11-18T09:36:12Z</time>
      </trkpt>
      <trkpt lat="46.47121" lon="0.37149">
        <ele>127.02294997778</ele>
        <time>2021-11-18T09:36:14Z</time>
      </trkpt>
      <trkpt lat="46.47122" lon="0.37146">
        <ele>127.21705794893</ele>
        <time>2021-11-18T09:36:17Z</time>
      </trkpt>
      <trkpt lat="46.47123" lon="0.37142">
        <ele>127.26826427225</ele>
        <time>2021-11-18T09:36:20Z</time>
      </trkpt>
      <trkpt lat="46.47123" lon="0.37139">
        <ele>127.29515075404</ele>
        <time>2021-11-18T09:36:22Z</time>
      </trkpt>
      <trkpt lat="46.47124" lon="0.37136">
        <ele>127.59188630804</ele>
        <time>2021-11-18T09:36:24Z</time>
      </trkpt>
      <trkpt lat="46.47125" lon="0.37134">
        <ele>127.50582527276</ele>
        <time>2021-11-18T09:36:26Z</time>
      </trkpt>
      <trkpt lat="46.47125" lon="0.37131">
        <ele>127.77855658066</ele>
        <time>2021-11-18T09:36:28Z</time>
      </trkpt>
      <trkpt lat="46.47126" lon="0.37128">
        <ele>128.17669422273</ele>
        <time>2021-11-18T09:36:30Z</time>
      </trkpt>
      <trkpt lat="46.47126" lon="0.37125">
        <ele>128.35916869901</ele>
        <time>2021-11-18T09:36:32Z</time>
      </trkpt>
      <trkpt lat="46.47127" lon="0.37122">
        <ele>128.15058435779</ele>
        <time>2021-11-18T09:36:34Z</time>
      </trkpt>
      <trkpt lat="46.47128" lon="0.37118">
        <ele>128.69352459349</ele>
        <time>2021-11-18T09:36:37Z</time>
      </trkpt>
      <trkpt lat="46.47129" lon="0.37115">
        <ele>129.09432000201</ele>
        <time>2021-11-18T09:36:39Z</time>
      </trkpt>
      <trkpt lat="46.47129" lon="0.37112">
        <ele>129.08617136441</ele>
        <time>2021-11-18T09:36:42Z</time>
      </trkpt>
      <trkpt lat="46.4713" lon="0.37109">
        <ele>128.96353059448</ele>
        <time>2021-11-18T09:36:44Z</time>
      </trkpt>
      <trkpt lat="46.4713" lon="0.37106">
        <ele>128.94653863553</ele>
        <time>2021-11-18T09:36:46Z</time>
      </trkpt>
      <trkpt lat="46.47131" lon="0.37102">
        <ele>129.04159540404</ele>
        <time>2021-11-18T09:36:49Z</time>
      </trkpt>
      <trkpt lat="46.47132" lon="0.37098">
        <ele>129.42574716453</ele>
        <time>2021-11-18T09:36:51Z</time>
      </trkpt>
      <trkpt lat="46.47132" lon="0.37094">
        <ele>129.6298528742</ele>
        <time>2021-11-18T09:36:54Z</time>
      </trkpt>
      <trkpt lat="46.47134" lon="0.3709">
        <ele>129.29941723123</ele>
        <time>2021-11-18T09:36:57Z</time>
      </trkpt>
      <trkpt lat="46.47134" lon="0.37087">
        <ele>129.62043568864</ele>
        <time>2021-11-18T09:36:59Z</time>
      </trkpt>
      <trkpt lat="46.47135" lon="0.37085">
        <ele>129.8813377982</ele>
        <time>2021-11-18T09:37:01Z</time>
      </trkpt>
      <trkpt lat="46.47135" lon="0.37082">
        <ele>129.76073881518</ele>
        <time>2021-11-18T09:37:03Z</time>
      </trkpt>
      <trkpt lat="46.47135" lon="0.37079">
        <ele>130.07643168513</ele>
        <time>2021-11-18T09:37:05Z</time>
      </trkpt>
      <trkpt lat="46.47136" lon="0.37076">
        <ele>129.98286987655</ele>
        <time>2021-11-18T09:37:07Z</time>
      </trkpt>
      <trkpt lat="46.47137" lon="0.37073">
        <ele>130.197187718</ele>
        <time>2021-11-18T09:37:09Z</time>
      </trkpt>
      <trkpt lat="46.47137" lon="0.37071">
        <ele>130.10909379832</ele>
        <time>2021-11-18T09:37:11Z</time>
      </trkpt>
      <trkpt lat="46.47138" lon="0.37068">
        <ele>130.25607618038</ele>
        <time>2021-11-18T09:37:13Z</time>
      </trkpt>
      <trkpt lat="46.47139" lon="0.37065">
        <ele>130.25367324241</ele>
        <time>2021-11-18T09:37:15Z</time>
      </trkpt>
      <trkpt lat="46.4714" lon="0.37062">
        <ele>130.28278886992</ele>
        <time>2021-11-18T09:37:21Z</time>
      </trkpt>
      <trkpt lat="46.47141" lon="0.37059">
        <ele>130.4445830835</ele>
        <time>2021-11-18T09:37:28Z</time>
      </trkpt>
      <trkpt lat="46.47141" lon="0.37056">
        <ele>130.32115523331</ele>
        <time>2021-11-18T09:37:30Z</time>
      </trkpt>
      <trkpt lat="46.47144" lon="0.37057">
        <ele>130.46018624213</ele>
        <time>2021-11-18T09:37:33Z</time>
      </trkpt>
      <trkpt lat="46.47147" lon="0.37058">
        <ele>130.27037995216</ele>
        <time>2021-11-18T09:37:36Z</time>
      </trkpt>
      <trkpt lat="46.47149" lon="0.37059">
        <ele>130.50017033797</ele>
        <time>2021-11-18T09:37:38Z</time>
      </trkpt>
      <trkpt lat="46.47152" lon="0.37061">
        <ele>130.16156494059</ele>
        <time>2021-11-18T09:37:41Z</time>
      </trkpt>
      <trkpt lat="46.47154" lon="0.37062">
        <ele>130.03225211613</ele>
        <time>2021-11-18T09:37:43Z</time>
      </trkpt>
      <trkpt lat="46.47156" lon="0.37064">
        <ele>129.9986523632</ele>
        <time>2021-11-18T09:37:46Z</time>
      </trkpt>
      <trkpt lat="46.47158" lon="0.37065">
        <ele>130.16525766067</ele>
        <time>2021-11-18T09:37:48Z</time>
      </trkpt>
      <trkpt lat="46.4716" lon="0.37066">
        <ele>129.97999363579</ele>
        <time>2021-11-18T09:37:50Z</time>
      </trkpt>
      <trkpt lat="46.47162" lon="0.37067">
        <ele>130.32895934861</ele>
        <time>2021-11-18T09:37:52Z</time>
      </trkpt>
      <trkpt lat="46.47164" lon="0.37068">
        <ele>130.33805655316</ele>
        <time>2021-11-18T09:37:55Z</time>
      </trkpt>
      <trkpt lat="46.47166" lon="0.37069">
        <ele>130.19634399842</ele>
        <time>2021-11-18T09:37:57Z</time>
      </trkpt>
      <trkpt lat="46.47169" lon="0.3707">
        <ele>130.20560761262</ele>
        <time>2021-11-18T09:38:00Z</time>
      </trkpt>
      <trkpt lat="46.47171" lon="0.3707">
        <ele>130.50595411286</ele>
        <time>2021-11-18T09:38:02Z</time>
      </trkpt>
      <trkpt lat="46.47174" lon="0.3707">
        <ele>130.70107244048</ele>
        <time>2021-11-18T09:38:04Z</time>
      </trkpt>
      <trkpt lat="46.47176" lon="0.37071">
        <ele>130.74774078559</ele>
        <time>2021-11-18T09:38:07Z</time>
      </trkpt>
      <trkpt lat="46.47179" lon="0.37071">
        <ele>130.55576920323</ele>
        <time>2021-11-18T09:38:10Z</time>
      </trkpt>
      <trkpt lat="46.47182" lon="0.37072">
        <ele>130.72024080716</ele>
        <time>2021-11-18T09:38:13Z</time>
      </trkpt>
      <trkpt lat="46.47185" lon="0.37073">
        <ele>130.79556790181</ele>
        <time>2021-11-18T09:38:16Z</time>
      </trkpt>
      <trkpt lat="46.47188" lon="0.37073">
        <ele>130.06182961725</ele>
        <time>2021-11-18T09:38:19Z</time>
      </trkpt>
      <trkpt lat="46.4719" lon="0.37074">
        <ele>130.35772090033</ele>
        <time>2021-11-18T09:38:21Z</time>
      </trkpt>
      <trkpt lat="46.47192" lon="0.37075">
        <ele>130.33796620555</ele>
        <time>2021-11-18T09:38:23Z</time>
      </trkpt>
      <trkpt lat="46.47194" lon="0.37075">
        <ele>130.51405520458</ele>
        <time>2021-11-18T09:38:25Z</time>
      </trkpt>
      <trkpt lat="46.47196" lon="0.37076">
        <ele>130.63537546899</ele>
        <time>2021-11-18T09:38:27Z</time>
      </trkpt>
      <trkpt lat="46.47199" lon="0.37076">
        <ele>130.5253212275</ele>
        <time>2021-11-18T09:38:30Z</time>
      </trkpt>
      <trkpt lat="46.47201" lon="0.37077">
        <ele>130.71379727218</ele>
        <time>2021-11-18T09:38:32Z</time>
      </trkpt>
      <trkpt lat="46.47203" lon="0.37078">
        <ele>130.53442155756</ele>
        <time>2021-11-18T09:38:34Z</time>
      </trkpt>
      <trkpt lat="46.47206" lon="0.37078">
        <ele>130.26378437504</ele>
        <time>2021-11-18T09:38:36Z</time>
      </trkpt>
      <trkpt lat="46.47208" lon="0.37079">
        <ele>130.36267586332</ele>
        <time>2021-11-18T09:38:38Z</time>
      </trkpt>
      <trkpt lat="46.4721" lon="0.37079">
        <ele>130.18652537558</ele>
        <time>2021-11-18T09:38:40Z</time>
      </trkpt>
      <trkpt lat="46.47213" lon="0.3708">
        <ele>130.24242786039</ele>
        <time>2021-11-18T09:38:42Z</time>
      </trkpt>
      <trkpt lat="46.47215" lon="0.3708">
        <ele>130.27061746549</ele>
        <time>2021-11-18T09:38:45Z</time>
      </trkpt>
      <trkpt lat="46.47217" lon="0.3708">
        <ele>130.08251598943</ele>
        <time>2021-11-18T09:38:47Z</time>
      </trkpt>
      <trkpt lat="46.47219" lon="0.37081">
        <ele>130.36405710969</ele>
        <time>2021-11-18T09:38:49Z</time>
      </trkpt>
      <trkpt lat="46.47221" lon="0.37082">
        <ele>130.14533629734</ele>
        <time>2021-11-18T09:38:51Z</time>
      </trkpt>
      <trkpt lat="46.47223" lon="0.37082">
        <ele>130.49332873244</ele>
        <time>2021-11-18T09:38:53Z</time>
      </trkpt>
      <trkpt lat="46.47225" lon="0.37082">
        <ele>130.35394595563</ele>
        <time>2021-11-18T09:38:55Z</time>
      </trkpt>
      <trkpt lat="46.47228" lon="0.37083">
        <ele>130.28001880087</ele>
        <time>2021-11-18T09:38:57Z</time>
      </trkpt>
      <trkpt lat="46.47229" lon="0.37083">
        <ele>129.94747084938</ele>
        <time>2021-11-18T09:38:59Z</time>
      </trkpt>
      <trkpt lat="46.47231" lon="0.37085">
        <ele>130.11146536563</ele>
        <time>2021-11-18T09:39:01Z</time>
      </trkpt>
      <trkpt lat="46.47234" lon="0.37086">
        <ele>129.97652557958</ele>
        <time>2021-11-18T09:39:03Z</time>
      </trkpt>
      <trkpt lat="46.47236" lon="0.37086">
        <ele>129.90740876272</ele>
        <time>2021-11-18T09:39:05Z</time>
      </trkpt>
      <trkpt lat="46.47239" lon="0.37086">
        <ele>130.06283303164</ele>
        <time>2021-11-18T09:39:07Z</time>
      </trkpt>
      <trkpt lat="46.47241" lon="0.37086">
        <ele>130.04656051565</ele>
        <time>2021-11-18T09:39:09Z</time>
      </trkpt>
      <trkpt lat="46.47243" lon="0.37086">
        <ele>130.01687073521</ele>
        <time>2021-11-18T09:39:11Z</time>
      </trkpt>
      <trkpt lat="46.47245" lon="0.37087">
        <ele>129.73624215182</ele>
        <time>2021-11-18T09:39:13Z</time>
      </trkpt>
      <trkpt lat="46.47247" lon="0.37087">
        <ele>129.75958129577</ele>
        <time>2021-11-18T09:39:15Z</time>
      </trkpt>
      <trkpt lat="46.47249" lon="0.37087">
        <ele>130.1285562478</ele>
        <time>2021-11-18T09:39:17Z</time>
      </trkpt>
      <trkpt lat="46.47252" lon="0.37088">
        <ele>129.91270894744</ele>
        <time>2021-11-18T09:39:20Z</time>
      </trkpt>
      <trkpt lat="46.47253" lon="0.37089">
        <ele>130.1130214883</ele>
        <time>2021-11-18T09:39:22Z</time>
      </trkpt>
      <trkpt lat="46.47256" lon="0.37089">
        <ele>130.00587295927</ele>
        <time>2021-11-18T09:39:24Z</time>
      </trkpt>
      <trkpt lat="46.47258" lon="0.3709">
        <ele>130.08248313889</ele>
        <time>2021-11-18T09:39:26Z</time>
      </trkpt>
      <trkpt lat="46.4726" lon="0.37091">
        <ele>130.54292509146</ele>
        <time>2021-11-18T09:39:28Z</time>
      </trkpt>
      <trkpt lat="46.47262" lon="0.37092">
        <ele>129.74449449871</ele>
        <time>2021-11-18T09:39:30Z</time>
      </trkpt>
      <trkpt lat="46.47264" lon="0.37092">
        <ele>129.92263286747</ele>
        <time>2021-11-18T09:39:32Z</time>
      </trkpt>
      <trkpt lat="46.47266" lon="0.37093">
        <ele>130.14697807189</ele>
        <time>2021-11-18T09:39:34Z</time>
      </trkpt>
      <trkpt lat="46.47268" lon="0.37093">
        <ele>130.00564983208</ele>
        <time>2021-11-18T09:39:36Z</time>
      </trkpt>
      <trkpt lat="46.4727" lon="0.37094">
        <ele>129.84833887033</ele>
        <time>2021-11-18T09:39:38Z</time>
      </trkpt>
      <trkpt lat="46.47272" lon="0.37095">
        <ele>129.74853903707</ele>
        <time>2021-11-18T09:39:40Z</time>
      </trkpt>
      <trkpt lat="46.47275" lon="0.37096">
        <ele>130.08532809</ele>
        <time>2021-11-18T09:39:42Z</time>
      </trkpt>
      <trkpt lat="46.47277" lon="0.37096">
        <ele>129.65546774957</ele>
        <time>2021-11-18T09:39:44Z</time>
      </trkpt>
      <trkpt lat="46.4728" lon="0.37096">
        <ele>129.81407263968</ele>
        <time>2021-11-18T09:39:46Z</time>
      </trkpt>
      <trkpt lat="46.47282" lon="0.37097">
        <ele>130.04567995574</ele>
        <time>2021-11-18T09:39:48Z</time>
      </trkpt>
      <trkpt lat="46.47284" lon="0.37098">
        <ele>130.14663860667</ele>
        <time>2021-11-18T09:39:50Z</time>
      </trkpt>
      <trkpt lat="46.47287" lon="0.37099">
        <ele>130.04388666619</ele>
        <time>2021-11-18T09:39:53Z</time>
      </trkpt>
      <trkpt lat="46.47289" lon="0.371">
        <ele>130.22029432096</ele>
        <time>2021-11-18T09:39:55Z</time>
      </trkpt>
      <trkpt lat="46.47291" lon="0.371">
        <ele>130.04675709456</ele>
        <time>2021-11-18T09:39:57Z</time>
      </trkpt>
      <trkpt lat="46.47292" lon="0.37102">
        <ele>130.04780275375</ele>
        <time>2021-11-18T09:39:59Z</time>
      </trkpt>
      <trkpt lat="46.47294" lon="0.37102">
        <ele>130.14993319381</ele>
        <time>2021-11-18T09:40:01Z</time>
      </trkpt>
      <trkpt lat="46.47296" lon="0.37102">
        <ele>129.67476186249</ele>
        <time>2021-11-18T09:40:03Z</time>
      </trkpt>
      <trkpt lat="46.47298" lon="0.37103">
        <ele>130.10500556417</ele>
        <time>2021-11-18T09:40:05Z</time>
      </trkpt>
      <trkpt lat="46.473" lon="0.37104">
        <ele>130.09673198964</ele>
        <time>2021-11-18T09:40:07Z</time>
      </trkpt>
      <trkpt lat="46.47303" lon="0.37105">
        <ele>129.90449982416</ele>
        <time>2021-11-18T09:40:09Z</time>
      </trkpt>
      <trkpt lat="46.47305" lon="0.37106">
        <ele>129.9010245027</ele>
        <time>2021-11-18T09:40:11Z</time>
      </trkpt>
      <trkpt lat="46.47307" lon="0.37107">
        <ele>129.79553744663</ele>
        <time>2021-11-18T09:40:13Z</time>
      </trkpt>
      <trkpt lat="46.4731" lon="0.37108">
        <ele>129.81571977492</ele>
        <time>2021-11-18T09:40:15Z</time>
      </trkpt>
      <trkpt lat="46.47312" lon="0.37109">
        <ele>129.58520675171</ele>
        <time>2021-11-18T09:40:18Z</time>
      </trkpt>
      <trkpt lat="46.47314" lon="0.37109">
        <ele>130.05268452503</ele>
        <time>2021-11-18T09:40:20Z</time>
      </trkpt>
      <trkpt lat="46.47316" lon="0.3711">
        <ele>130.13937230594</ele>
        <time>2021-11-18T09:40:22Z</time>
      </trkpt>
      <trkpt lat="46.47319" lon="0.37111">
        <ele>129.83080466464</ele>
        <time>2021-11-18T09:40:24Z</time>
      </trkpt>
      <trkpt lat="46.47321" lon="0.37112">
        <ele>130.19186025765</ele>
        <time>2021-11-18T09:40:26Z</time>
      </trkpt>
      <trkpt lat="46.47323" lon="0.37112">
        <ele>129.90048783924</ele>
        <time>2021-11-18T09:40:28Z</time>
      </trkpt>
      <trkpt lat="46.47325" lon="0.37113">
        <ele>129.55221480038</ele>
        <time>2021-11-18T09:40:30Z</time>
      </trkpt>
      <trkpt lat="46.47326" lon="0.37114">
        <ele>129.92762254551</ele>
        <time>2021-11-18T09:40:32Z</time>
      </trkpt>
      <trkpt lat="46.47328" lon="0.37115">
        <ele>130.25447217282</ele>
        <time>2021-11-18T09:40:34Z</time>
      </trkpt>
      <trkpt lat="46.4733" lon="0.37116">
        <ele>129.80649753008</ele>
        <time>2021-11-18T09:40:36Z</time>
      </trkpt>
      <trkpt lat="46.47333" lon="0.37116">
        <ele>130.0340068955</ele>
        <time>2021-11-18T09:40:38Z</time>
      </trkpt>
      <trkpt lat="46.47335" lon="0.37117">
        <ele>130.14804401807</ele>
        <time>2021-11-18T09:40:40Z</time>
      </trkpt>
      <trkpt lat="46.47337" lon="0.37117">
        <ele>129.93981613126</ele>
        <time>2021-11-18T09:40:42Z</time>
      </trkpt>
      <trkpt lat="46.47339" lon="0.37118">
        <ele>129.66984773707</ele>
        <time>2021-11-18T09:40:44Z</time>
      </trkpt>
      <trkpt lat="46.47341" lon="0.37118">
        <ele>129.92610856704</ele>
        <time>2021-11-18T09:40:46Z</time>
      </trkpt>
      <trkpt lat="46.47343" lon="0.37119">
        <ele>129.56096188445</ele>
        <time>2021-11-18T09:40:48Z</time>
      </trkpt>
      <trkpt lat="46.47346" lon="0.37121">
        <ele>129.64763898216</ele>
        <time>2021-11-18T09:40:51Z</time>
      </trkpt>
      <trkpt lat="46.47348" lon="0.37122">
        <ele>129.49996758625</ele>
        <time>2021-11-18T09:40:53Z</time>
      </trkpt>
      <trkpt lat="46.47351" lon="0.37122">
        <ele>129.60805305373</ele>
        <time>2021-11-18T09:40:55Z</time>
      </trkpt>
      <trkpt lat="46.47353" lon="0.37123">
        <ele>129.50839453842</ele>
        <time>2021-11-18T09:40:57Z</time>
      </trkpt>
      <trkpt lat="46.47356" lon="0.37124">
        <ele>129.59931394272</ele>
        <time>2021-11-18T09:40:59Z</time>
      </trkpt>
      <trkpt lat="46.47358" lon="0.37125">
        <ele>129.52551871445</ele>
        <time>2021-11-18T09:41:01Z</time>
      </trkpt>
      <trkpt lat="46.4736" lon="0.37126">
        <ele>129.63845823333</ele>
        <time>2021-11-18T09:41:03Z</time>
      </trkpt>
      <trkpt lat="46.47362" lon="0.37127">
        <ele>129.50034693815</ele>
        <time>2021-11-18T09:41:06Z</time>
      </trkpt>
      <trkpt lat="46.47365" lon="0.37127">
        <ele>129.55617025588</ele>
        <time>2021-11-18T09:41:09Z</time>
      </trkpt>
      <trkpt lat="46.47366" lon="0.37128">
        <ele>129.17535072193</ele>
        <time>2021-11-18T09:41:11Z</time>
      </trkpt>
      <trkpt lat="46.47368" lon="0.37129">
        <ele>128.95836340636</ele>
        <time>2021-11-18T09:41:13Z</time>
      </trkpt>
      <trkpt lat="46.4737" lon="0.3713">
        <ele>129.06791354995</ele>
        <time>2021-11-18T09:41:15Z</time>
      </trkpt>
      <trkpt lat="46.47372" lon="0.37131">
        <ele>129.43342744466</ele>
        <time>2021-11-18T09:41:17Z</time>
      </trkpt>
      <trkpt lat="46.47374" lon="0.3713">
        <ele>129.43066796567</ele>
        <time>2021-11-18T09:41:19Z</time>
      </trkpt>
      <trkpt lat="46.47377" lon="0.37131">
        <ele>129.5355114527</ele>
        <time>2021-11-18T09:41:21Z</time>
      </trkpt>
      <trkpt lat="46.47379" lon="0.37131">
        <ele>129.08401862346</ele>
        <time>2021-11-18T09:41:23Z</time>
      </trkpt>
      <trkpt lat="46.47381" lon="0.37132">
        <ele>129.12282473035</ele>
        <time>2021-11-18T09:41:25Z</time>
      </trkpt>
      <trkpt lat="46.47383" lon="0.37133">
        <ele>129.57120390981</ele>
        <time>2021-11-18T09:41:27Z</time>
      </trkpt>
      <trkpt lat="46.47385" lon="0.37133">
        <ele>129.19007932115</ele>
        <time>2021-11-18T09:41:29Z</time>
      </trkpt>
      <trkpt lat="46.47387" lon="0.37133">
        <ele>128.52780661918</ele>
        <time>2021-11-18T09:41:31Z</time>
      </trkpt>
      <trkpt lat="46.47389" lon="0.37133">
        <ele>129.12482227013</ele>
        <time>2021-11-18T09:41:33Z</time>
      </trkpt>
      <trkpt lat="46.47391" lon="0.37134">
        <ele>128.96832380351</ele>
        <time>2021-11-18T09:41:35Z</time>
      </trkpt>
      <trkpt lat="46.47393" lon="0.37135">
        <ele>128.99712983426</ele>
        <time>2021-11-18T09:41:37Z</time>
      </trkpt>
      <trkpt lat="46.47396" lon="0.37135">
        <ele>128.81368323881</ele>
        <time>2021-11-18T09:41:39Z</time>
      </trkpt>
      <trkpt lat="46.47398" lon="0.37136">
        <ele>128.62790060882</ele>
        <time>2021-11-18T09:41:41Z</time>
      </trkpt>
      <trkpt lat="46.474" lon="0.37137">
        <ele>128.80799304508</ele>
        <time>2021-11-18T09:41:43Z</time>
      </trkpt>
      <trkpt lat="46.47402" lon="0.37138">
        <ele>128.68612339068</ele>
        <time>2021-11-18T09:41:45Z</time>
      </trkpt>
      <trkpt lat="46.47404" lon="0.37139">
        <ele>128.52355981711</ele>
        <time>2021-11-18T09:41:47Z</time>
      </trkpt>
      <trkpt lat="46.47406" lon="0.37139">
        <ele>128.53286377341</ele>
        <time>2021-11-18T09:41:49Z</time>
      </trkpt>
      <trkpt lat="46.47408" lon="0.3714">
        <ele>128.2598039154</ele>
        <time>2021-11-18T09:41:51Z</time>
      </trkpt>
      <trkpt lat="46.4741" lon="0.37141">
        <ele>128.3338156445</ele>
        <time>2021-11-18T09:41:53Z</time>
      </trkpt>
      <trkpt lat="46.47412" lon="0.37141">
        <ele>128.46830263454</ele>
        <time>2021-11-18T09:41:55Z</time>
      </trkpt>
      <trkpt lat="46.47414" lon="0.37142">
        <ele>128.712916377</ele>
        <time>2021-11-18T09:41:57Z</time>
      </trkpt>
      <trkpt lat="46.47416" lon="0.37143">
        <ele>128.32549612876</ele>
        <time>2021-11-18T09:41:59Z</time>
      </trkpt>
      <trkpt lat="46.4742" lon="0.37143">
        <ele>128.2434489755</ele>
        <time>2021-11-18T09:42:01Z</time>
      </trkpt>
      <trkpt lat="46.47422" lon="0.37144">
        <ele>128.37060554698</ele>
        <time>2021-11-18T09:42:03Z</time>
      </trkpt>
      <trkpt lat="46.47424" lon="0.37145">
        <ele>128.41694638971</ele>
        <time>2021-11-18T09:42:05Z</time>
      </trkpt>
      <trkpt lat="46.47426" lon="0.37145">
        <ele>128.18393812794</ele>
        <time>2021-11-18T09:42:07Z</time>
      </trkpt>
      <trkpt lat="46.47428" lon="0.37145">
        <ele>128.14238006435</ele>
        <time>2021-11-18T09:42:09Z</time>
      </trkpt>
      <trkpt lat="46.47431" lon="0.37147">
        <ele>128.28403706104</ele>
        <time>2021-11-18T09:42:12Z</time>
      </trkpt>
      <trkpt lat="46.47433" lon="0.37148">
        <ele>128.11099066585</ele>
        <time>2021-11-18T09:42:14Z</time>
      </trkpt>
      <trkpt lat="46.47436" lon="0.37148">
        <ele>128.33429633733</ele>
        <time>2021-11-18T09:42:16Z</time>
      </trkpt>
      <trkpt lat="46.47438" lon="0.37149">
        <ele>127.93995403126</ele>
        <time>2021-11-18T09:42:18Z</time>
      </trkpt>
      <trkpt lat="46.4744" lon="0.3715">
        <ele>127.85897118878</ele>
        <time>2021-11-18T09:42:20Z</time>
      </trkpt>
      <trkpt lat="46.47443" lon="0.3715">
        <ele>128.06002056319</ele>
        <time>2021-11-18T09:42:22Z</time>
      </trkpt>
      <trkpt lat="46.47445" lon="0.37151">
        <ele>128.00876357779</ele>
        <time>2021-11-18T09:42:24Z</time>
      </trkpt>
      <trkpt lat="46.47447" lon="0.37151">
        <ele>128.29615615681</ele>
        <time>2021-11-18T09:42:26Z</time>
      </trkpt>
      <trkpt lat="46.47449" lon="0.37152">
        <ele>128.21466945577</ele>
        <time>2021-11-18T09:42:28Z</time>
      </trkpt>
      <trkpt lat="46.47451" lon="0.37153">
        <ele>128.26893399376</ele>
        <time>2021-11-18T09:42:31Z</time>
      </trkpt>
      <trkpt lat="46.47454" lon="0.37153">
        <ele>128.00884521659</ele>
        <time>2021-11-18T09:42:34Z</time>
      </trkpt>
      <trkpt lat="46.47456" lon="0.37154">
        <ele>127.54579138011</ele>
        <time>2021-11-18T09:42:37Z</time>
      </trkpt>
      <trkpt lat="46.47458" lon="0.37154">
        <ele>127.88944106363</ele>
        <time>2021-11-18T09:42:39Z</time>
      </trkpt>
      <trkpt lat="46.4746" lon="0.37155">
        <ele>127.74832713231</ele>
        <time>2021-11-18T09:42:41Z</time>
      </trkpt>
      <trkpt lat="46.47462" lon="0.37155">
        <ele>127.98910784349</ele>
        <time>2021-11-18T09:42:43Z</time>
      </trkpt>
      <trkpt lat="46.47465" lon="0.37156">
        <ele>128.10623200983</ele>
        <time>2021-11-18T09:42:45Z</time>
      </trkpt>
      <trkpt lat="46.47467" lon="0.37157">
        <ele>127.79098722432</ele>
        <time>2021-11-18T09:42:47Z</time>
      </trkpt>
      <trkpt lat="46.47469" lon="0.37157">
        <ele>127.95679698884</ele>
        <time>2021-11-18T09:42:49Z</time>
      </trkpt>
      <trkpt lat="46.47471" lon="0.37158">
        <ele>128.14831664134</ele>
        <time>2021-11-18T09:42:51Z</time>
      </trkpt>
      <trkpt lat="46.47473" lon="0.37159">
        <ele>128.232191341</ele>
        <time>2021-11-18T09:42:53Z</time>
      </trkpt>
      <trkpt lat="46.47475" lon="0.3716">
        <ele>127.68246417399</ele>
        <time>2021-11-18T09:42:55Z</time>
      </trkpt>
      <trkpt lat="46.47478" lon="0.37161">
        <ele>127.88833059557</ele>
        <time>2021-11-18T09:42:57Z</time>
      </trkpt>
      <trkpt lat="46.4748" lon="0.37162">
        <ele>128.31083093118</ele>
        <time>2021-11-18T09:42:59Z</time>
      </trkpt>
      <trkpt lat="46.47483" lon="0.37163">
        <ele>127.99548587855</ele>
        <time>2021-11-18T09:43:01Z</time>
      </trkpt>
      <trkpt lat="46.47485" lon="0.37163">
        <ele>128.14784175623</ele>
        <time>2021-11-18T09:43:03Z</time>
      </trkpt>
      <trkpt lat="46.47488" lon="0.37164">
        <ele>128.19790313952</ele>
        <time>2021-11-18T09:43:05Z</time>
      </trkpt>
      <trkpt lat="46.4749" lon="0.37164">
        <ele>128.33769978862</ele>
        <time>2021-11-18T09:43:07Z</time>
      </trkpt>
      <trkpt lat="46.47493" lon="0.37165">
        <ele>127.98787038215</ele>
        <time>2021-11-18T09:43:09Z</time>
      </trkpt>
      <trkpt lat="46.47495" lon="0.37166">
        <ele>128.33369958587</ele>
        <time>2021-11-18T09:43:11Z</time>
      </trkpt>
      <trkpt lat="46.47498" lon="0.37166">
        <ele>128.15189793613</ele>
        <time>2021-11-18T09:43:13Z</time>
      </trkpt>
      <trkpt lat="46.475" lon="0.37167">
        <ele>128.30558132101</ele>
        <time>2021-11-18T09:43:15Z</time>
      </trkpt>
      <trkpt lat="46.47502" lon="0.37168">
        <ele>127.99637970142</ele>
        <time>2021-11-18T09:43:18Z</time>
      </trkpt>
      <trkpt lat="46.47504" lon="0.37169">
        <ele>127.99205996469</ele>
        <time>2021-11-18T09:43:20Z</time>
      </trkpt>
      <trkpt lat="46.47506" lon="0.3717">
        <ele>128.16365869343</ele>
        <time>2021-11-18T09:43:22Z</time>
      </trkpt>
      <trkpt lat="46.47508" lon="0.37171">
        <ele>127.78310519923</ele>
        <time>2021-11-18T09:43:24Z</time>
      </trkpt>
      <trkpt lat="46.4751" lon="0.37172">
        <ele>128.0743299257</ele>
        <time>2021-11-18T09:43:26Z</time>
      </trkpt>
      <trkpt lat="46.47512" lon="0.37173">
        <ele>127.91933553014</ele>
        <time>2021-11-18T09:43:28Z</time>
      </trkpt>
      <trkpt lat="46.47515" lon="0.37174">
        <ele>127.99452330451</ele>
        <time>2021-11-18T09:43:30Z</time>
      </trkpt>
      <trkpt lat="46.47517" lon="0.37175">
        <ele>127.82293836959</ele>
        <time>2021-11-18T09:43:32Z</time>
      </trkpt>
      <trkpt lat="46.47519" lon="0.37176">
        <ele>128.0692951465</ele>
        <time>2021-11-18T09:43:34Z</time>
      </trkpt>
      <trkpt lat="46.47522" lon="0.37177">
        <ele>128.00770673528</ele>
        <time>2021-11-18T09:43:37Z</time>
      </trkpt>
      <trkpt lat="46.47523" lon="0.37179">
        <ele>127.8455698695</ele>
        <time>2021-11-18T09:43:39Z</time>
      </trkpt>
      <trkpt lat="46.47525" lon="0.37179">
        <ele>128.07106137089</ele>
        <time>2021-11-18T09:43:41Z</time>
      </trkpt>
      <trkpt lat="46.47527" lon="0.37181">
        <ele>128.04395912495</ele>
        <time>2021-11-18T09:43:44Z</time>
      </trkpt>
      <trkpt lat="46.47529" lon="0.37182">
        <ele>127.97676446382</ele>
        <time>2021-11-18T09:43:46Z</time>
      </trkpt>
      <trkpt lat="46.47531" lon="0.37183">
        <ele>128.24262541346</ele>
        <time>2021-11-18T09:43:48Z</time>
      </trkpt>
      <trkpt lat="46.47533" lon="0.37184">
        <ele>128.02738275006</ele>
        <time>2021-11-18T09:43:50Z</time>
      </trkpt>
      <trkpt lat="46.47536" lon="0.37185">
        <ele>127.82917072717</ele>
        <time>2021-11-18T09:43:52Z</time>
      </trkpt>
      <trkpt lat="46.47538" lon="0.37186">
        <ele>128.19204797596</ele>
        <time>2021-11-18T09:43:54Z</time>
      </trkpt>
      <trkpt lat="46.47541" lon="0.37187">
        <ele>127.73751838692</ele>
        <time>2021-11-18T09:43:56Z</time>
      </trkpt>
      <trkpt lat="46.47543" lon="0.37188">
        <ele>127.68114760704</ele>
        <time>2021-11-18T09:43:58Z</time>
      </trkpt>
      <trkpt lat="46.47545" lon="0.37189">
        <ele>127.63091697916</ele>
        <time>2021-11-18T09:44:00Z</time>
      </trkpt>
      <trkpt lat="46.47547" lon="0.3719">
        <ele>127.49865182396</ele>
        <time>2021-11-18T09:44:02Z</time>
      </trkpt>
      <trkpt lat="46.4755" lon="0.37191">
        <ele>127.5280141132</ele>
        <time>2021-11-18T09:44:04Z</time>
      </trkpt>
      <trkpt lat="46.47552" lon="0.37193">
        <ele>127.24182183947</ele>
        <time>2021-11-18T09:44:06Z</time>
      </trkpt>
      <trkpt lat="46.47554" lon="0.37193">
        <ele>127.19489866402</ele>
        <time>2021-11-18T09:44:08Z</time>
      </trkpt>
      <trkpt lat="46.47556" lon="0.37194">
        <ele>127.24140811432</ele>
        <time>2021-11-18T09:44:10Z</time>
      </trkpt>
      <trkpt lat="46.47558" lon="0.37195">
        <ele>127.34211362991</ele>
        <time>2021-11-18T09:44:12Z</time>
      </trkpt>
      <trkpt lat="46.4756" lon="0.37196">
        <ele>127.05468996894</ele>
        <time>2021-11-18T09:44:14Z</time>
      </trkpt>
      <trkpt lat="46.47562" lon="0.37197">
        <ele>127.02916578203</ele>
        <time>2021-11-18T09:44:16Z</time>
      </trkpt>
      <trkpt lat="46.47564" lon="0.37199">
        <ele>126.71772192512</ele>
        <time>2021-11-18T09:44:18Z</time>
      </trkpt>
      <trkpt lat="46.47567" lon="0.372">
        <ele>127.16978662089</ele>
        <time>2021-11-18T09:44:20Z</time>
      </trkpt>
      <trkpt lat="46.47569" lon="0.37201">
        <ele>126.9913343545</ele>
        <time>2021-11-18T09:44:22Z</time>
      </trkpt>
      <trkpt lat="46.47571" lon="0.37203">
        <ele>127.15655103046</ele>
        <time>2021-11-18T09:44:24Z</time>
      </trkpt>
      <trkpt lat="46.47573" lon="0.37204">
        <ele>127.14369492978</ele>
        <time>2021-11-18T09:44:26Z</time>
      </trkpt>
      <trkpt lat="46.47575" lon="0.37205">
        <ele>127.33901579119</ele>
        <time>2021-11-18T09:44:28Z</time>
      </trkpt>
      <trkpt lat="46.47577" lon="0.37207">
        <ele>126.96710499004</ele>
        <time>2021-11-18T09:44:30Z</time>
      </trkpt>
      <trkpt lat="46.47579" lon="0.37208">
        <ele>127.20286418311</ele>
        <time>2021-11-18T09:44:32Z</time>
      </trkpt>
      <trkpt lat="46.47581" lon="0.37209">
        <ele>127.27586214524</ele>
        <time>2021-11-18T09:44:34Z</time>
      </trkpt>
      <trkpt lat="46.47583" lon="0.3721">
        <ele>127.30194179248</ele>
        <time>2021-11-18T09:44:36Z</time>
      </trkpt>
      <trkpt lat="46.47586" lon="0.37212">
        <ele>126.98227060027</ele>
        <time>2021-11-18T09:44:38Z</time>
      </trkpt>
      <trkpt lat="46.47588" lon="0.37214">
        <ele>127.12249751762</ele>
        <time>2021-11-18T09:44:40Z</time>
      </trkpt>
      <trkpt lat="46.4759" lon="0.37215">
        <ele>126.98385669012</ele>
        <time>2021-11-18T09:44:42Z</time>
      </trkpt>
      <trkpt lat="46.47593" lon="0.37216">
        <ele>127.0770310238</ele>
        <time>2021-11-18T09:44:44Z</time>
      </trkpt>
      <trkpt lat="46.47595" lon="0.37218">
        <ele>126.67298431788</ele>
        <time>2021-11-18T09:44:46Z</time>
      </trkpt>
      <trkpt lat="46.47597" lon="0.3722">
        <ele>126.97888368554</ele>
        <time>2021-11-18T09:44:48Z</time>
      </trkpt>
      <trkpt lat="46.47599" lon="0.37221">
        <ele>126.80644535832</ele>
        <time>2021-11-18T09:44:50Z</time>
      </trkpt>
      <trkpt lat="46.47602" lon="0.37223">
        <ele>126.92421528511</ele>
        <time>2021-11-18T09:44:52Z</time>
      </trkpt>
      <trkpt lat="46.47604" lon="0.37224">
        <ele>127.06069316808</ele>
        <time>2021-11-18T09:44:54Z</time>
      </trkpt>
      <trkpt lat="46.47607" lon="0.37226">
        <ele>127.01170088351</ele>
        <time>2021-11-18T09:44:56Z</time>
      </trkpt>
      <trkpt lat="46.47609" lon="0.37227">
        <ele>126.87628463097</ele>
        <time>2021-11-18T09:44:58Z</time>
      </trkpt>
      <trkpt lat="46.47611" lon="0.37228">
        <ele>126.76474575698</ele>
        <time>2021-11-18T09:45:00Z</time>
      </trkpt>
      <trkpt lat="46.47613" lon="0.3723">
        <ele>126.96718041971</ele>
        <time>2021-11-18T09:45:02Z</time>
      </trkpt>
      <trkpt lat="46.47615" lon="0.37231">
        <ele>126.72730553057</ele>
        <time>2021-11-18T09:45:04Z</time>
      </trkpt>
      <trkpt lat="46.47618" lon="0.37232">
        <ele>126.8898912007</ele>
        <time>2021-11-18T09:45:06Z</time>
      </trkpt>
      <trkpt lat="46.4762" lon="0.37234">
        <ele>126.98094810173</ele>
        <time>2021-11-18T09:45:08Z</time>
      </trkpt>
      <trkpt lat="46.47622" lon="0.37235">
        <ele>126.83916557301</ele>
        <time>2021-11-18T09:45:10Z</time>
      </trkpt>
      <trkpt lat="46.47624" lon="0.37236">
        <ele>126.80363615975</ele>
        <time>2021-11-18T09:45:12Z</time>
      </trkpt>
      <trkpt lat="46.47626" lon="0.37238">
        <ele>127.18263606168</ele>
        <time>2021-11-18T09:45:14Z</time>
      </trkpt>
      <trkpt lat="46.47629" lon="0.37239">
        <ele>126.39084611926</ele>
        <time>2021-11-18T09:45:17Z</time>
      </trkpt>
      <trkpt lat="46.47631" lon="0.37241">
        <ele>126.8891176004</ele>
        <time>2021-11-18T09:45:20Z</time>
      </trkpt>
      <trkpt lat="46.47634" lon="0.37241">
        <ele>126.7752002012</ele>
        <time>2021-11-18T09:45:22Z</time>
      </trkpt>
      <trkpt lat="46.47636" lon="0.37241">
        <ele>126.65807077382</ele>
        <time>2021-11-18T09:45:24Z</time>
      </trkpt>
      <trkpt lat="46.47639" lon="0.37243">
        <ele>126.32234776765</ele>
        <time>2021-11-18T09:45:28Z</time>
      </trkpt>
      <trkpt lat="46.47641" lon="0.37245">
        <ele>126.91001853533</ele>
        <time>2021-11-18T09:45:30Z</time>
      </trkpt>
      <trkpt lat="46.47643" lon="0.37246">
        <ele>127.0333659118</ele>
        <time>2021-11-18T09:45:32Z</time>
      </trkpt>
      <trkpt lat="46.47647" lon="0.37247">
        <ele>126.27231361065</ele>
        <time>2021-11-18T09:45:35Z</time>
      </trkpt>
      <trkpt lat="46.47649" lon="0.37249">
        <ele>126.62220883928</ele>
        <time>2021-11-18T09:45:37Z</time>
      </trkpt>
      <trkpt lat="46.47651" lon="0.3725">
        <ele>126.36760281492</ele>
        <time>2021-11-18T09:45:39Z</time>
      </trkpt>
      <trkpt lat="46.47653" lon="0.37251">
        <ele>126.44351804536</ele>
        <time>2021-11-18T09:45:42Z</time>
      </trkpt>
      <trkpt lat="46.47656" lon="0.37253">
        <ele>126.35852003377</ele>
        <time>2021-11-18T09:45:45Z</time>
      </trkpt>
      <trkpt lat="46.47658" lon="0.37254">
        <ele>126.20103120431</ele>
        <time>2021-11-18T09:45:48Z</time>
      </trkpt>
      <trkpt lat="46.4766" lon="0.37254">
        <ele>126.26358079724</ele>
        <time>2021-11-18T09:45:50Z</time>
      </trkpt>
      <trkpt lat="46.47662" lon="0.37255">
        <ele>126.09381176159</ele>
        <time>2021-11-18T09:45:52Z</time>
      </trkpt>
      <trkpt lat="46.47664" lon="0.37257">
        <ele>126.22021544725</ele>
        <time>2021-11-18T09:45:54Z</time>
      </trkpt>
      <trkpt lat="46.47666" lon="0.37258">
        <ele>126.43590054661</ele>
        <time>2021-11-18T09:45:56Z</time>
      </trkpt>
      <trkpt lat="46.47668" lon="0.37258">
        <ele>125.70531010628</ele>
        <time>2021-11-18T09:45:58Z</time>
      </trkpt>
      <trkpt lat="46.4767" lon="0.37258">
        <ele>125.93617425952</ele>
        <time>2021-11-18T09:46:00Z</time>
      </trkpt>
      <trkpt lat="46.47672" lon="0.37259">
        <ele>125.8311796058</ele>
        <time>2021-11-18T09:46:02Z</time>
      </trkpt>
      <trkpt lat="46.47675" lon="0.37259">
        <ele>125.6835701149</ele>
        <time>2021-11-18T09:46:04Z</time>
      </trkpt>
      <trkpt lat="46.47677" lon="0.37262">
        <ele>125.97534237523</ele>
        <time>2021-11-18T09:46:06Z</time>
      </trkpt>
      <trkpt lat="46.47679" lon="0.37262">
        <ele>125.82892815582</ele>
        <time>2021-11-18T09:46:08Z</time>
      </trkpt>
      <trkpt lat="46.47682" lon="0.37263">
        <ele>125.72883866541</ele>
        <time>2021-11-18T09:46:10Z</time>
      </trkpt>
      <trkpt lat="46.47684" lon="0.37263">
        <ele>125.2295838194</ele>
        <time>2021-11-18T09:46:12Z</time>
      </trkpt>
      <trkpt lat="46.47687" lon="0.37265">
        <ele>125.25869090855</ele>
        <time>2021-11-18T09:46:13Z</time>
      </trkpt>
      <trkpt lat="46.47689" lon="0.37265">
        <ele>124.90922461543</ele>
        <time>2021-11-18T09:46:15Z</time>
      </trkpt>
      <trkpt lat="46.47691" lon="0.37266">
        <ele>125.44710643031</ele>
        <time>2021-11-18T09:46:17Z</time>
      </trkpt>
      <trkpt lat="46.47693" lon="0.37267">
        <ele>125.38977015764</ele>
        <time>2021-11-18T09:46:19Z</time>
      </trkpt>
      <trkpt lat="46.47697" lon="0.37268">
        <ele>125.178525622</ele>
        <time>2021-11-18T09:46:21Z</time>
      </trkpt>
      <trkpt lat="46.47699" lon="0.3727">
        <ele>124.83681240957</ele>
        <time>2021-11-18T09:46:23Z</time>
      </trkpt>
      <trkpt lat="46.47701" lon="0.37271">
        <ele>124.47404142562</ele>
        <time>2021-11-18T09:46:25Z</time>
      </trkpt>
      <trkpt lat="46.47703" lon="0.37271">
        <ele>125.01477698423</ele>
        <time>2021-11-18T09:46:27Z</time>
      </trkpt>
      <trkpt lat="46.47705" lon="0.37273">
        <ele>124.13807736151</ele>
        <time>2021-11-18T09:46:29Z</time>
      </trkpt>
      <trkpt lat="46.47708" lon="0.37274">
        <ele>124.45188374538</ele>
        <time>2021-11-18T09:46:31Z</time>
      </trkpt>
      <trkpt lat="46.4771" lon="0.37276">
        <ele>124.25614329614</ele>
        <time>2021-11-18T09:46:33Z</time>
      </trkpt>
      <trkpt lat="46.47713" lon="0.37276">
        <ele>124.10427419655</ele>
        <time>2021-11-18T09:46:35Z</time>
      </trkpt>
      <trkpt lat="46.47715" lon="0.37277">
        <ele>124.28460905794</ele>
        <time>2021-11-18T09:46:37Z</time>
      </trkpt>
      <trkpt lat="46.47719" lon="0.37276">
        <ele>124.63909561373</ele>
        <time>2021-11-18T09:46:40Z</time>
      </trkpt>
      <trkpt lat="46.4772" lon="0.37275">
        <ele>124.72570294514</ele>
        <time>2021-11-18T09:46:41Z</time>
      </trkpt>
      <trkpt lat="46.47721" lon="0.37273">
        <ele>124.21121401247</ele>
        <time>2021-11-18T09:46:43Z</time>
      </trkpt>
      <trkpt lat="46.47722" lon="0.3727">
        <ele>124.45846082456</ele>
        <time>2021-11-18T09:46:45Z</time>
      </trkpt>
      <trkpt lat="46.47723" lon="0.37267">
        <ele>124.25218514726</ele>
        <time>2021-11-18T09:46:47Z</time>
      </trkpt>
      <trkpt lat="46.47723" lon="0.37264">
        <ele>124.14312754106</ele>
        <time>2021-11-18T09:46:49Z</time>
      </trkpt>
      <trkpt lat="46.47723" lon="0.37261">
        <ele>123.97817041073</ele>
        <time>2021-11-18T09:46:51Z</time>
      </trkpt>
      <trkpt lat="46.47723" lon="0.37257">
        <ele>124.36903391872</ele>
        <time>2021-11-18T09:46:53Z</time>
      </trkpt>
      <trkpt lat="46.47723" lon="0.37254">
        <ele>124.00106207468</ele>
        <time>2021-11-18T09:46:55Z</time>
      </trkpt>
      <trkpt lat="46.47723" lon="0.37251">
        <ele>124.14871986303</ele>
        <time>2021-11-18T09:46:57Z</time>
      </trkpt>
      <trkpt lat="46.47723" lon="0.37247">
        <ele>124.07059388701</ele>
        <time>2021-11-18T09:46:59Z</time>
      </trkpt>
      <trkpt lat="46.47722" lon="0.37243">
        <ele>123.95075750817</ele>
        <time>2021-11-18T09:47:02Z</time>
      </trkpt>
      <trkpt lat="46.47722" lon="0.37239">
        <ele>124.10335394647</ele>
        <time>2021-11-18T09:47:04Z</time>
      </trkpt>
      <trkpt lat="46.47723" lon="0.37236">
        <ele>124.32946943119</ele>
        <time>2021-11-18T09:47:06Z</time>
      </trkpt>
      <trkpt lat="46.47722" lon="0.37233">
        <ele>124.35357402638</ele>
        <time>2021-11-18T09:47:08Z</time>
      </trkpt>
      <trkpt lat="46.47722" lon="0.3723">
        <ele>124.57541319076</ele>
        <time>2021-11-18T09:47:10Z</time>
      </trkpt>
      <trkpt lat="46.47722" lon="0.37227">
        <ele>123.95237920713</ele>
        <time>2021-11-18T09:47:12Z</time>
      </trkpt>
      <trkpt lat="46.47722" lon="0.37223">
        <ele>124.22672173008</ele>
        <time>2021-11-18T09:47:15Z</time>
      </trkpt>
      <trkpt lat="46.47722" lon="0.37219">
        <ele>124.25853939075</ele>
        <time>2021-11-18T09:47:17Z</time>
      </trkpt>
      <trkpt lat="46.47722" lon="0.37216">
        <ele>124.01465234533</ele>
        <time>2021-11-18T09:47:20Z</time>
      </trkpt>
      <trkpt lat="46.47722" lon="0.37213">
        <ele>124.24887830298</ele>
        <time>2021-11-18T09:47:22Z</time>
      </trkpt>
      <trkpt lat="46.47721" lon="0.3721">
        <ele>124.52337490674</ele>
        <time>2021-11-18T09:47:24Z</time>
      </trkpt>
      <trkpt lat="46.47721" lon="0.37207">
        <ele>124.12407114636</ele>
        <time>2021-11-18T09:47:26Z</time>
      </trkpt>
      <trkpt lat="46.47721" lon="0.37203">
        <ele>124.13728113286</ele>
        <time>2021-11-18T09:47:28Z</time>
      </trkpt>
      <trkpt lat="46.47721" lon="0.372">
        <ele>124.42314265948</ele>
        <time>2021-11-18T09:47:30Z</time>
      </trkpt>
      <trkpt lat="46.47721" lon="0.37197">
        <ele>124.08479718678</ele>
        <time>2021-11-18T09:47:32Z</time>
      </trkpt>
      <trkpt lat="46.4772" lon="0.37195">
        <ele>124.05375974067</ele>
        <time>2021-11-18T09:47:34Z</time>
      </trkpt>
      <trkpt lat="46.4772" lon="0.37191">
        <ele>124.31757777836</ele>
        <time>2021-11-18T09:47:36Z</time>
      </trkpt>
      <trkpt lat="46.4772" lon="0.37188">
        <ele>124.38897141535</ele>
        <time>2021-11-18T09:47:38Z</time>
      </trkpt>
      <trkpt lat="46.4772" lon="0.37185">
        <ele>124.11838331353</ele>
        <time>2021-11-18T09:47:40Z</time>
      </trkpt>
      <trkpt lat="46.4772" lon="0.3718">
        <ele>124.33658046462</ele>
        <time>2021-11-18T09:47:43Z</time>
      </trkpt>
      <trkpt lat="46.47719" lon="0.37177">
        <ele>124.37133055273</ele>
        <time>2021-11-18T09:47:45Z</time>
      </trkpt>
      <trkpt lat="46.47719" lon="0.37174">
        <ele>124.3864928754</ele>
        <time>2021-11-18T09:47:48Z</time>
      </trkpt>
      <trkpt lat="46.47718" lon="0.37171">
        <ele>124.04619340319</ele>
        <time>2021-11-18T09:47:50Z</time>
      </trkpt>
      <trkpt lat="46.47718" lon="0.37167">
        <ele>124.0207782397</ele>
        <time>2021-11-18T09:47:52Z</time>
      </trkpt>
      <trkpt lat="46.47718" lon="0.37164">
        <ele>124.02474805992</ele>
        <time>2021-11-18T09:47:54Z</time>
      </trkpt>
      <trkpt lat="46.47717" lon="0.37161">
        <ele>124.14285752177</ele>
        <time>2021-11-18T09:47:56Z</time>
      </trkpt>
      <trkpt lat="46.47717" lon="0.37158">
        <ele>124.56343179755</ele>
        <time>2021-11-18T09:47:58Z</time>
      </trkpt>
      <trkpt lat="46.47717" lon="0.37155">
        <ele>124.41857002862</ele>
        <time>2021-11-18T09:48:00Z</time>
      </trkpt>
      <trkpt lat="46.47717" lon="0.37152">
        <ele>124.60538980458</ele>
        <time>2021-11-18T09:48:02Z</time>
      </trkpt>
      <trkpt lat="46.47716" lon="0.37149">
        <ele>124.0524903778</ele>
        <time>2021-11-18T09:48:04Z</time>
      </trkpt>
      <trkpt lat="46.47716" lon="0.37146">
        <ele>124.22487328108</ele>
        <time>2021-11-18T09:48:06Z</time>
      </trkpt>
      <trkpt lat="46.47716" lon="0.37144">
        <ele>124.4531722134</ele>
        <time>2021-11-18T09:48:08Z</time>
      </trkpt>
      <trkpt lat="46.47715" lon="0.3714">
        <ele>124.45641820133</ele>
        <time>2021-11-18T09:48:10Z</time>
      </trkpt>
      <trkpt lat="46.47715" lon="0.37136">
        <ele>124.34093700442</ele>
        <time>2021-11-18T09:48:12Z</time>
      </trkpt>
      <trkpt lat="46.47714" lon="0.37132">
        <ele>124.43697134778</ele>
        <time>2021-11-18T09:48:15Z</time>
      </trkpt>
      <trkpt lat="46.47714" lon="0.37128">
        <ele>124.2534716865</ele>
        <time>2021-11-18T09:48:19Z</time>
      </trkpt>
      <trkpt lat="46.47713" lon="0.37125">
        <ele>124.58854313381</ele>
        <time>2021-11-18T09:48:21Z</time>
      </trkpt>
      <trkpt lat="46.47713" lon="0.37122">
        <ele>124.35992368124</ele>
        <time>2021-11-18T09:48:23Z</time>
      </trkpt>
      <trkpt lat="46.47713" lon="0.37118">
        <ele>124.66881236993</ele>
        <time>2021-11-18T09:48:25Z</time>
      </trkpt>
      <trkpt lat="46.47712" lon="0.37116">
        <ele>124.99384376872</ele>
        <time>2021-11-18T09:48:27Z</time>
      </trkpt>
      <trkpt lat="46.47711" lon="0.37112">
        <ele>125.21690768655</ele>
        <time>2021-11-18T09:48:29Z</time>
      </trkpt>
      <trkpt lat="46.47711" lon="0.37109">
        <ele>124.68423049897</ele>
        <time>2021-11-18T09:48:31Z</time>
      </trkpt>
      <trkpt lat="46.4771" lon="0.37107">
        <ele>124.90358228423</ele>
        <time>2021-11-18T09:48:33Z</time>
      </trkpt>
      <trkpt lat="46.47709" lon="0.37104">
        <ele>125.43224880751</ele>
        <time>2021-11-18T09:48:35Z</time>
      </trkpt>
      <trkpt lat="46.47709" lon="0.37101">
        <ele>125.11251971032</ele>
        <time>2021-11-18T09:48:37Z</time>
      </trkpt>
      <trkpt lat="46.47708" lon="0.37098">
        <ele>125.2308427291</ele>
        <time>2021-11-18T09:48:39Z</time>
      </trkpt>
      <trkpt lat="46.47708" lon="0.37094">
        <ele>125.21438143309</ele>
        <time>2021-11-18T09:48:42Z</time>
      </trkpt>
      <trkpt lat="46.47708" lon="0.37091">
        <ele>125.04322214238</ele>
        <time>2021-11-18T09:48:44Z</time>
      </trkpt>
      <trkpt lat="46.47707" lon="0.37088">
        <ele>125.09846261423</ele>
        <time>2021-11-18T09:48:46Z</time>
      </trkpt>
      <trkpt lat="46.47707" lon="0.37085">
        <ele>125.43387368508</ele>
        <time>2021-11-18T09:48:48Z</time>
      </trkpt>
      <trkpt lat="46.47706" lon="0.37083">
        <ele>125.25487455446</ele>
        <time>2021-11-18T09:48:50Z</time>
      </trkpt>
      <trkpt lat="46.47705" lon="0.3708">
        <ele>125.61668879725</ele>
        <time>2021-11-18T09:48:53Z</time>
      </trkpt>
      <trkpt lat="46.47703" lon="0.37078">
        <ele>125.28157762345</ele>
        <time>2021-11-18T09:48:55Z</time>
      </trkpt>
      <trkpt lat="46.47702" lon="0.37077">
        <ele>125.18368179817</ele>
        <time>2021-11-18T09:48:57Z</time>
      </trkpt>
      <trkpt lat="46.47699" lon="0.37075">
        <ele>125.43928637635</ele>
        <time>2021-11-18T09:49:00Z</time>
      </trkpt>
      <trkpt lat="46.47697" lon="0.37073">
        <ele>125.16226910893</ele>
        <time>2021-11-18T09:49:04Z</time>
      </trkpt>
      <trkpt lat="46.47695" lon="0.37072">
        <ele>125.27102370095</ele>
        <time>2021-11-18T09:49:06Z</time>
      </trkpt>
      <trkpt lat="46.47693" lon="0.3707">
        <ele>125.38605867606</ele>
        <time>2021-11-18T09:49:08Z</time>
      </trkpt>
      <trkpt lat="46.47693" lon="0.37066">
        <ele>125.63530500885</ele>
        <time>2021-11-18T09:49:11Z</time>
      </trkpt>
      <trkpt lat="46.4769" lon="0.37065">
        <ele>125.70123070199</ele>
        <time>2021-11-18T09:49:13Z</time>
      </trkpt>
      <trkpt lat="46.47688" lon="0.37063">
        <ele>125.53488076013</ele>
        <time>2021-11-18T09:49:16Z</time>
      </trkpt>
      <trkpt lat="46.47686" lon="0.37062">
        <ele>125.69664968364</ele>
        <time>2021-11-18T09:49:18Z</time>
      </trkpt>
      <trkpt lat="46.47683" lon="0.3706">
        <ele>125.45676524751</ele>
        <time>2021-11-18T09:49:20Z</time>
      </trkpt>
      <trkpt lat="46.4768" lon="0.37061">
        <ele>126.02096512448</ele>
        <time>2021-11-18T09:49:22Z</time>
      </trkpt>
    </trkseg>
  </trk>
</gpx>